Wetterdaten: Freitag, 06.01.2017
Datum Zeit Temp. A. Temp. A. max Feuchte A. Luftdruck Regen Wind Richtung Richtung Sonnenschein ET UV Solar Taupunkt Windböen
06.01.2017 00:00 -7,7 °C -7,7 °C 91 % 1034,4 hPa 0,0 mm 1,1 km/h (1 Bft) NW 315 ° 0 min 0,000 mm 0,0 UV-I 0 W/m² -8,9 °C 1,6 km/h (1 Bft)
06.01.2017 00:01 -7,7 °C -7,7 °C 91 % 1034,4 hPa 0,0 mm 1,6 km/h (1 Bft) NW 315 ° 0 min 0,000 mm 0,0 UV-I 0 W/m² -8,9 °C 1,6 km/h (1 Bft)
06.01.2017 00:02 -7,7 °C -7,7 °C 91 % 1034,4 hPa 0,0 mm 1,6 km/h (1 Bft) NW 315 ° 0 min 0,000 mm 0,0 UV-I 0 W/m² -8,9 °C 1,6 km/h (1 Bft)
06.01.2017 00:03 -7,7 °C -7,7 °C 91 % 1034,4 hPa 0,0 mm 2,1 km/h (1 Bft) N-NW 327 ° 0 min 0,000 mm 0,0 UV-I 0 W/m² -8,9 °C 3,2 km/h (1 Bft)
06.01.2017 00:04 -7,7 °C -7,7 °C 91 % 1034,4 hPa 0,0 mm 4,6 km/h (1 Bft) N-NW 332 ° 0 min 0,000 mm 0,0 UV-I 0 W/m² -8,9 °C 6,4 km/h (2 Bft)
06.01.2017 00:05 -7,7 °C -7,7 °C 91 % 1034,4 hPa 0,0 mm 3,4 km/h (1 Bft) NW 315 ° 0 min 0,000 mm 0,0 UV-I 0 W/m² -8,9 °C 4,8 km/h (1 Bft)
06.01.2017 00:06 -7,7 °C -7,7 °C 91 % 1034,4 hPa 0,0 mm 4,8 km/h (1 Bft) NW 311 ° 0 min 0,000 mm 0,0 UV-I 0 W/m² -8,9 °C 6,4 km/h (2 Bft)
06.01.2017 00:07 -7,7 °C -7,7 °C 91 % 1034,4 hPa 0,0 mm 4,6 km/h (1 Bft) N-NW 330 ° 0 min 0,000 mm 0,0 UV-I 0 W/m² -8,9 °C 6,4 km/h (2 Bft)
06.01.2017 00:08 -7,7 °C -7,7 °C 91 % 1034,5 hPa 0,0 mm 5,3 km/h (1 Bft) NW 306 ° 0 min 0,000 mm 0,0 UV-I 0 W/m² -8,9 °C 6,4 km/h (2 Bft)
06.01.2017 00:09 -7,7 °C -7,7 °C 91 % 1034,5 hPa 0,0 mm 4,8 km/h (1 Bft) NW 326 ° 0 min 0,000 mm 0,0 UV-I 0 W/m² -8,9 °C 6,4 km/h (2 Bft)
06.01.2017 00:10 -7,7 °C -7,7 °C 91 % 1034,5 hPa 0,0 mm 4,5 km/h (1 Bft) N-NW 337 ° 0 min 0,000 mm 0,0 UV-I 0 W/m² -8,9 °C 6,4 km/h (2 Bft)
06.01.2017 00:11 -7,7 °C -7,7 °C 91 % 1034,5 hPa 0,0 mm 4,4 km/h (1 Bft) N-NW 327 ° 0 min 0,000 mm 0,0 UV-I 0 W/m² -8,9 °C 6,4 km/h (2 Bft)
06.01.2017 00:12 -7,7 °C -7,7 °C 91 % 1034,5 hPa 0,0 mm 2,1 km/h (1 Bft) N-NW 329 ° 0 min 0,000 mm 0,0 UV-I 0 W/m² -8,9 °C 3,2 km/h (1 Bft)
06.01.2017 00:13 -7,7 °C -7,7 °C 91 % 1034,5 hPa 0,0 mm 2,5 km/h (1 Bft) NW 319 ° 0 min 0,000 mm 0,0 UV-I 0 W/m² -8,9 °C 6,4 km/h (2 Bft)
06.01.2017 00:14 -7,7 °C -7,7 °C 91 % 1034,5 hPa 0,0 mm 4,2 km/h (1 Bft) N 349 ° 0 min 0,000 mm 0,0 UV-I 0 W/m² -8,9 °C 6,4 km/h (2 Bft)
06.01.2017 00:15 -7,7 °C -7,7 °C 91 % 1034,5 hPa 0,0 mm 4,4 km/h (1 Bft) N-NW 340 ° 0 min 0,000 mm 0,0 UV-I 0 W/m² -8,9 °C 6,4 km/h (2 Bft)
06.01.2017 00:16 -7,7 °C -7,7 °C 91 % 1034,5 hPa 0,0 mm 4,9 km/h (1 Bft) N 5 ° 0 min 0,000 mm 0,0 UV-I 0 W/m² -8,9 °C 6,4 km/h (2 Bft)
06.01.2017 00:17 -7,8 °C -7,7 °C 90 % 1034,5 hPa 0,0 mm 6,2 km/h (2 Bft) N 351 ° 0 min 0,000 mm 0,0 UV-I 0 W/m² -9,1 °C 8,0 km/h (2 Bft)
06.01.2017 00:18 -7,8 °C -7,8 °C 90 % 1034,5 hPa 0,0 mm 3,5 km/h (1 Bft) N-NW 335 ° 0 min 0,000 mm 0,0 UV-I 0 W/m² -9,1 °C 4,8 km/h (1 Bft)
06.01.2017 00:19 -7,8 °C -7,8 °C 90 % 1034,6 hPa 0,0 mm 4,9 km/h (1 Bft) NW 309 ° 0 min 0,000 mm 0,0 UV-I 0 W/m² -9,1 °C 6,4 km/h (2 Bft)
06.01.2017 00:20 -7,8 °C -7,8 °C 90 % 1034,6 hPa 0,0 mm 4,4 km/h (1 Bft) NW 325 ° 0 min 0,000 mm 0,0 UV-I 0 W/m² -9,1 °C 4,8 km/h (1 Bft)
06.01.2017 00:21 -7,8 °C -7,8 °C 90 % 1034,5 hPa 0,0 mm 3,4 km/h (1 Bft) N-NW 328 ° 0 min 0,000 mm 0,0 UV-I 0 W/m² -9,1 °C 4,8 km/h (1 Bft)
06.01.2017 00:22 -7,8 °C -7,8 °C 90 % 1034,6 hPa 0,0 mm 4,2 km/h (1 Bft) W-NW 296 ° 0 min 0,000 mm 0,0 UV-I 0 W/m² -9,1 °C 6,4 km/h (2 Bft)
06.01.2017 00:23 -7,8 °C -7,8 °C 90 % 1034,6 hPa 0,0 mm 6,1 km/h (2 Bft) N-NW 332 ° 0 min 0,000 mm 0,0 UV-I 0 W/m² -9,1 °C 11,3 km/h (2 Bft)
06.01.2017 00:24 -7,8 °C -7,8 °C 90 % 1034,6 hPa 0,0 mm 4,0 km/h (1 Bft) NW 322 ° 0 min 0,000 mm 0,0 UV-I 0 W/m² -9,1 °C 6,4 km/h (2 Bft)
06.01.2017 00:25 -7,8 °C -7,8 °C 90 % 1034,6 hPa 0,0 mm 4,0 km/h (1 Bft) N-NW 348 ° 0 min 0,000 mm 0,0 UV-I 0 W/m² -9,1 °C 6,4 km/h (2 Bft)
06.01.2017 00:26 -7,8 °C -7,8 °C 90 % 1034,7 hPa 0,0 mm 6,0 km/h (2 Bft) N-NW 348 ° 0 min 0,000 mm 0,0 UV-I 0 W/m² -9,1 °C 11,3 km/h (2 Bft)
06.01.2017 00:27 -7,8 °C -7,8 °C 90 % 1034,7 hPa 0,0 mm 4,5 km/h (1 Bft) N-NW 329 ° 0 min 0,000 mm 0,0 UV-I 0 W/m² -9,1 °C 6,4 km/h (2 Bft)
06.01.2017 00:28 -7,9 °C -7,8 °C 90 % 1034,7 hPa 0,0 mm 3,6 km/h (1 Bft) N-NW 331 ° 0 min 0,000 mm 0,0 UV-I 0 W/m² -9,2 °C 6,4 km/h (2 Bft)
06.01.2017 00:29 -7,9 °C -7,8 °C 90 % 1034,7 hPa 0,0 mm 3,3 km/h (1 Bft) N 5 ° 0 min 0,000 mm 0,0 UV-I 0 W/m² -9,2 °C 4,8 km/h (1 Bft)
06.01.2017 00:30 -7,9 °C -7,9 °C 90 % 1034,7 hPa 0,0 mm 4,7 km/h (1 Bft) N-NW 346 ° 0 min 0,000 mm 0,0 UV-I 0 W/m² -9,2 °C 6,4 km/h (2 Bft)
06.01.2017 00:31 -7,9 °C -7,8 °C 90 % 1034,8 hPa 0,0 mm 4,3 km/h (1 Bft) NW 324 ° 0 min 0,000 mm 0,0 UV-I 0 W/m² -9,2 °C 4,8 km/h (1 Bft)
06.01.2017 00:32 -7,9 °C -7,9 °C 90 % 1034,8 hPa 0,0 mm 4,5 km/h (1 Bft) N 360 ° 0 min 0,000 mm 0,0 UV-I 0 W/m² -9,2 °C 6,4 km/h (2 Bft)
06.01.2017 00:33 -7,9 °C -7,9 °C 90 % 1034,8 hPa 0,0 mm 6,6 km/h (2 Bft) NW 313 ° 0 min 0,000 mm 0,0 UV-I 0 W/m² -9,2 °C 9,7 km/h (2 Bft)
06.01.2017 00:34 -7,9 °C -7,9 °C 90 % 1034,8 hPa 0,0 mm 4,5 km/h (1 Bft) NW 315 ° 0 min 0,000 mm 0,0 UV-I 0 W/m² -9,2 °C 4,8 km/h (1 Bft)
06.01.2017 00:35 -7,9 °C -7,9 °C 90 % 1034,9 hPa 0,0 mm 3,8 km/h (1 Bft) N-NW 330 ° 0 min 0,000 mm 0,0 UV-I 0 W/m² -9,2 °C 6,4 km/h (2 Bft)
06.01.2017 00:36 -7,9 °C -7,9 °C 90 % 1034,9 hPa 0,0 mm 3,4 km/h (1 Bft) NW 322 ° 0 min 0,000 mm 0,0 UV-I 0 W/m² -9,2 °C 4,8 km/h (1 Bft)
06.01.2017 00:37 -7,9 °C -7,9 °C 90 % 1034,9 hPa 0,0 mm 4,2 km/h (1 Bft) N-NW 331 ° 0 min 0,000 mm 0,0 UV-I 0 W/m² -9,2 °C 6,4 km/h (2 Bft)
06.01.2017 00:38 -8,0 °C -7,9 °C 90 % 1034,9 hPa 0,0 mm 3,5 km/h (1 Bft) N 351 ° 0 min 0,000 mm 0,0 UV-I 0 W/m² -9,3 °C 6,4 km/h (2 Bft)
06.01.2017 00:39 -8,0 °C -7,9 °C 90 % 1034,9 hPa 0,0 mm 3,6 km/h (1 Bft) W-NW 298 ° 0 min 0,000 mm 0,0 UV-I 0 W/m² -9,3 °C 6,4 km/h (2 Bft)
06.01.2017 00:40 -8,0 °C -8,0 °C 90 % 1035,0 hPa 0,0 mm 4,1 km/h (1 Bft) NW 308 ° 0 min 0,000 mm 0,0 UV-I 0 W/m² -9,3 °C 6,4 km/h (2 Bft)
06.01.2017 00:41 -8,0 °C -8,0 °C 90 % 1035,0 hPa 0,0 mm 5,2 km/h (1 Bft) N-NW 337 ° 0 min 0,000 mm 0,0 UV-I 0 W/m² -9,3 °C 6,4 km/h (2 Bft)
06.01.2017 00:42 -8,0 °C -8,0 °C 90 % 1035,0 hPa 0,0 mm 3,4 km/h (1 Bft) N-NW 337 ° 0 min 0,000 mm 0,0 UV-I 0 W/m² -9,3 °C 4,8 km/h (1 Bft)
06.01.2017 00:43 -8,1 °C -8,0 °C 90 % 1035,0 hPa 0,0 mm 4,0 km/h (1 Bft) NW 311 ° 0 min 0,000 mm 0,0 UV-I 0 W/m² -9,4 °C 4,8 km/h (1 Bft)
06.01.2017 00:44 -8,1 °C -8,1 °C 90 % 1035,0 hPa 0,0 mm 4,4 km/h (1 Bft) NW 319 ° 0 min 0,000 mm 0,0 UV-I 0 W/m² -9,4 °C 6,4 km/h (2 Bft)
06.01.2017 00:45 -8,1 °C -8,1 °C 90 % 1035,0 hPa 0,0 mm 2,6 km/h (1 Bft) NW 319 ° 0 min 0,000 mm 0,0 UV-I 0 W/m² -9,4 °C 4,8 km/h (1 Bft)
06.01.2017 00:46 -8,1 °C -8,1 °C 90 % 1035,0 hPa 0,0 mm 2,6 km/h (1 Bft) NW 324 ° 0 min 0,000 mm 0,0 UV-I 0 W/m² -9,4 °C 4,8 km/h (1 Bft)
06.01.2017 00:47 -8,1 °C -8,1 °C 90 % 1035,1 hPa 0,0 mm 2,7 km/h (1 Bft) NW 324 ° 0 min 0,000 mm 0,0 UV-I 0 W/m² -9,4 °C 4,8 km/h (1 Bft)
06.01.2017 00:48 -8,1 °C -8,1 °C 90 % 1035,1 hPa 0,0 mm 1,0 km/h (0 Bft) NW 324 ° 0 min 0,000 mm 0,0 UV-I 0 W/m² -9,4 °C 1,6 km/h (1 Bft)
06.01.2017 00:49 -8,1 °C -8,1 °C 90 % 1035,1 hPa 0,0 mm 4,1 km/h (1 Bft) N-NW 333 ° 0 min 0,000 mm 0,0 UV-I 0 W/m² -9,4 °C 6,4 km/h (2 Bft)
06.01.2017 00:50 -8,2 °C -8,1 °C 90 % 1035,1 hPa 0,0 mm 2,6 km/h (1 Bft) NW 325 ° 0 min 0,000 mm 0,0 UV-I 0 W/m² -9,5 °C 4,8 km/h (1 Bft)
06.01.2017 00:51 -8,2 °C -8,1 °C 90 % 1035,2 hPa 0,0 mm 1,3 km/h (1 Bft) NW 325 ° 0 min 0,000 mm 0,0 UV-I 0 W/m² -9,5 °C 3,2 km/h (1 Bft)
06.01.2017 00:52 -8,2 °C -8,2 °C 90 % 1035,2 hPa 0,0 mm 3,0 km/h (1 Bft) N-NW 340 ° 0 min 0,000 mm 0,0 UV-I 0 W/m² -9,5 °C 4,8 km/h (1 Bft)
06.01.2017 00:53 -8,2 °C -8,2 °C 90 % 1035,2 hPa 0,0 mm 3,8 km/h (1 Bft) NW 322 ° 0 min 0,000 mm 0,0 UV-I 0 W/m² -9,5 °C 6,4 km/h (2 Bft)
06.01.2017 00:54 -8,2 °C -8,2 °C 90 % 1035,2 hPa 0,0 mm 2,2 km/h (1 Bft) NW 321 ° 0 min 0,000 mm 0,0 UV-I 0 W/m² -9,5 °C 3,2 km/h (1 Bft)
06.01.2017 00:55 -8,2 °C -8,2 °C 90 % 1035,2 hPa 0,0 mm 3,2 km/h (1 Bft) NW 313 ° 0 min 0,000 mm 0,0 UV-I 0 W/m² -9,5 °C 4,8 km/h (1 Bft)
06.01.2017 00:56 -8,2 °C -8,2 °C 90 % 1035,2 hPa 0,0 mm 2,3 km/h (1 Bft) NW 313 ° 0 min 0,000 mm 0,0 UV-I 0 W/m² -9,5 °C 3,2 km/h (1 Bft)
06.01.2017 00:57 -8,2 °C -8,2 °C 90 % 1035,2 hPa 0,0 mm 3,1 km/h (1 Bft) NW 313 ° 0 min 0,000 mm 0,0 UV-I 0 W/m² -9,5 °C 3,2 km/h (1 Bft)
06.01.2017 00:58 -8,2 °C -8,2 °C 90 % 1035,3 hPa 0,0 mm 2,7 km/h (1 Bft) NW 315 ° 0 min 0,000 mm 0,0 UV-I 0 W/m² -9,5 °C 4,8 km/h (1 Bft)
06.01.2017 00:59 -8,2 °C -8,2 °C 90 % 1035,3 hPa 0,0 mm 0,5 km/h (0 Bft) NW 315 ° 0 min 0,000 mm 0,0 UV-I 0 W/m² -9,5 °C 1,6 km/h (1 Bft)
06.01.2017 01:00 -8,2 °C -8,2 °C 90 % 1035,2 hPa 0,0 mm 2,7 km/h (1 Bft) NW 315 ° 0 min 0,000 mm 0,0 UV-I 0 W/m² -9,5 °C 3,2 km/h (1 Bft)
06.01.2017 01:01 -8,2 °C -8,2 °C 90 % 1035,3 hPa 0,0 mm 2,6 km/h (1 Bft) NW 315 ° 0 min 0,000 mm 0,0 UV-I 0 W/m² -9,5 °C 3,2 km/h (1 Bft)
06.01.2017 01:02 -8,3 °C -8,2 °C 90 % 1035,3 hPa 0,0 mm 1,9 km/h (1 Bft) NW 315 ° 0 min 0,000 mm 0,0 UV-I 0 W/m² -9,6 °C 3,2 km/h (1 Bft)
06.01.2017 01:03 -8,3 °C -8,3 °C 90 % 1035,3 hPa 0,0 mm 3,4 km/h (1 Bft) NW 323 ° 0 min 0,000 mm 0,0 UV-I 0 W/m² -9,6 °C 6,4 km/h (2 Bft)
06.01.2017 01:04 -8,3 °C -8,3 °C 90 % 1035,4 hPa 0,0 mm 4,2 km/h (1 Bft) W-NW 302 ° 0 min 0,000 mm 0,0 UV-I 0 W/m² -9,6 °C 6,4 km/h (2 Bft)
06.01.2017 01:05 -8,3 °C -8,3 °C 90 % 1035,3 hPa 0,0 mm 3,6 km/h (1 Bft) N-NW 331 ° 0 min 0,000 mm 0,0 UV-I 0 W/m² -9,6 °C 4,8 km/h (1 Bft)
06.01.2017 01:06 -8,3 °C -8,3 °C 90 % 1035,4 hPa 0,0 mm 2,5 km/h (1 Bft) NW 312 ° 0 min 0,000 mm 0,0 UV-I 0 W/m² -9,6 °C 3,2 km/h (1 Bft)
06.01.2017 01:07 -8,3 °C -8,3 °C 90 % 1035,3 hPa 0,0 mm 2,1 km/h (1 Bft) N-NW 328 ° 0 min 0,000 mm 0,0 UV-I 0 W/m² -9,6 °C 4,8 km/h (1 Bft)
06.01.2017 01:08 -8,3 °C -8,3 °C 90 % 1035,4 hPa 0,0 mm 3,0 km/h (1 Bft) N-NW 330 ° 0 min 0,000 mm 0,0 UV-I 0 W/m² -9,6 °C 6,4 km/h (2 Bft)
06.01.2017 01:09 -8,3 °C -8,3 °C 90 % 1035,4 hPa 0,0 mm 4,7 km/h (1 Bft) N-NW 331 ° 0 min 0,000 mm 0,0 UV-I 0 W/m² -9,6 °C 6,4 km/h (2 Bft)
06.01.2017 01:10 -8,3 °C -8,3 °C 90 % 1035,4 hPa 0,0 mm 2,6 km/h (1 Bft) N-NW 329 ° 0 min 0,000 mm 0,0 UV-I 0 W/m² -9,6 °C 4,8 km/h (1 Bft)
06.01.2017 01:11 -8,3 °C -8,3 °C 90 % 1035,4 hPa 0,0 mm 1,5 km/h (1 Bft) N-NW 329 ° 0 min 0,000 mm 0,0 UV-I 0 W/m² -9,6 °C 3,2 km/h (1 Bft)
06.01.2017 01:12 -8,3 °C -8,3 °C 90 % 1035,4 hPa 0,0 mm 0,7 km/h (0 Bft) N-NW 329 ° 0 min 0,000 mm 0,0 UV-I 0 W/m² -9,6 °C 1,6 km/h (1 Bft)
06.01.2017 01:13 -8,3 °C -8,3 °C 90 % 1035,4 hPa 0,0 mm 1,6 km/h (1 Bft) N-NW 329 ° 0 min 0,000 mm 0,0 UV-I 0 W/m² -9,6 °C 3,2 km/h (1 Bft)
06.01.2017 01:14 -8,3 °C -8,3 °C 90 % 1035,4 hPa 0,0 mm 1,9 km/h (1 Bft) N-NW 329 ° 0 min 0,000 mm 0,0 UV-I 0 W/m² -9,6 °C 3,2 km/h (1 Bft)
06.01.2017 01:15 -8,3 °C -8,3 °C 90 % 1035,4 hPa 0,0 mm 4,4 km/h (1 Bft) N 355 ° 0 min 0,000 mm 0,0 UV-I 0 W/m² -9,6 °C 6,4 km/h (2 Bft)
06.01.2017 01:16 -8,3 °C -8,3 °C 90 % 1035,4 hPa 0,0 mm 2,2 km/h (1 Bft) N 5 ° 0 min 0,000 mm 0,0 UV-I 0 W/m² -9,6 °C 3,2 km/h (1 Bft)
06.01.2017 01:17 -8,3 °C -8,3 °C 90 % 1035,5 hPa 0,0 mm 2,5 km/h (1 Bft) N-NO 26 ° 0 min 0,000 mm 0,0 UV-I 0 W/m² -9,6 °C 4,8 km/h (1 Bft)
06.01.2017 01:18 -8,3 °C -8,3 °C 90 % 1035,5 hPa 0,0 mm 4,8 km/h (1 Bft) NO 43 ° 0 min 0,000 mm 0,0 UV-I 0 W/m² -9,6 °C 6,4 km/h (2 Bft)
06.01.2017 01:19 -8,3 °C -8,3 °C 90 % 1035,5 hPa 0,0 mm 3,2 km/h (1 Bft) N-NW 342 ° 0 min 0,000 mm 0,0 UV-I 0 W/m² -9,6 °C 4,8 km/h (1 Bft)
06.01.2017 01:20 -8,3 °C -8,3 °C 90 % 1035,5 hPa 0,0 mm 6,5 km/h (2 Bft) N 355 ° 0 min 0,000 mm 0,0 UV-I 0 W/m² -9,6 °C 8,0 km/h (2 Bft)
06.01.2017 01:21 -8,3 °C -8,3 °C 90 % 1035,5 hPa 0,0 mm 3,7 km/h (1 Bft) N-NW 336 ° 0 min 0,000 mm 0,0 UV-I 0 W/m² -9,6 °C 6,4 km/h (2 Bft)
06.01.2017 01:22 -8,3 °C -8,3 °C 90 % 1035,5 hPa 0,0 mm 4,2 km/h (1 Bft) NO 38 ° 0 min 0,000 mm 0,0 UV-I 0 W/m² -9,6 °C 8,0 km/h (2 Bft)
06.01.2017 01:23 -8,3 °C -8,3 °C 90 % 1035,5 hPa 0,0 mm 2,3 km/h (1 Bft) NO 36 ° 0 min 0,000 mm 0,0 UV-I 0 W/m² -9,6 °C 3,2 km/h (1 Bft)
06.01.2017 01:24 -8,3 °C -8,3 °C 90 % 1035,5 hPa 0,0 mm 3,4 km/h (1 Bft) NO 44 ° 0 min 0,000 mm 0,0 UV-I 0 W/m² -9,6 °C 6,4 km/h (2 Bft)
06.01.2017 01:25 -8,4 °C -8,3 °C 90 % 1035,5 hPa 0,0 mm 3,7 km/h (1 Bft) N-NO 15 ° 0 min 0,000 mm 0,0 UV-I 0 W/m² -9,7 °C 4,8 km/h (1 Bft)
06.01.2017 01:26 -8,3 °C -8,3 °C 90 % 1035,5 hPa 0,0 mm 2,7 km/h (1 Bft) N-NO 14 ° 0 min 0,000 mm 0,0 UV-I 0 W/m² -9,6 °C 6,4 km/h (2 Bft)
06.01.2017 01:27 -8,3 °C -8,3 °C 89 % 1035,5 hPa 0,0 mm 2,7 km/h (1 Bft) NO 54 ° 0 min 0,000 mm 0,0 UV-I 0 W/m² -9,8 °C 6,4 km/h (2 Bft)
06.01.2017 01:28 -8,4 °C -8,3 °C 89 % 1035,5 hPa 0,0 mm 3,0 km/h (1 Bft) NO 54 ° 0 min 0,000 mm 0,0 UV-I 0 W/m² -9,9 °C 4,8 km/h (1 Bft)
06.01.2017 01:29 -8,4 °C -8,4 °C 89 % 1035,5 hPa 0,0 mm 3,7 km/h (1 Bft) N-NO 31 ° 0 min 0,000 mm 0,0 UV-I 0 W/m² -9,9 °C 4,8 km/h (1 Bft)
06.01.2017 01:30 -8,4 °C -8,4 °C 89 % 1035,5 hPa 0,0 mm 2,9 km/h (1 Bft) N-NO 14 ° 0 min 0,000 mm 0,0 UV-I 0 W/m² -9,9 °C 4,8 km/h (1 Bft)
06.01.2017 01:31 -8,4 °C -8,4 °C 89 % 1035,6 hPa 0,0 mm 3,1 km/h (1 Bft) NO 44 ° 0 min 0,000 mm 0,0 UV-I 0 W/m² -9,9 °C 4,8 km/h (1 Bft)
06.01.2017 01:32 -8,4 °C -8,4 °C 89 % 1035,6 hPa 0,0 mm 2,3 km/h (1 Bft) NO 44 ° 0 min 0,000 mm 0,0 UV-I 0 W/m² -9,9 °C 3,2 km/h (1 Bft)
06.01.2017 01:33 -8,4 °C -8,4 °C 89 % 1035,6 hPa 0,0 mm 0,6 km/h (0 Bft) NO 44 ° 0 min 0,000 mm 0,0 UV-I 0 W/m² -9,9 °C 3,2 km/h (1 Bft)
06.01.2017 01:34 -8,4 °C -8,4 °C 89 % 1035,6 hPa 0,0 mm 1,1 km/h (1 Bft) NO 44 ° 0 min 0,000 mm 0,0 UV-I 0 W/m² -9,9 °C 3,2 km/h (1 Bft)
06.01.2017 01:35 -8,4 °C -8,4 °C 89 % 1035,7 hPa 0,0 mm 1,9 km/h (1 Bft) NO 44 ° 0 min 0,000 mm 0,0 UV-I 0 W/m² -9,9 °C 3,2 km/h (1 Bft)
06.01.2017 01:36 -8,4 °C -8,4 °C 89 % 1035,7 hPa 0,0 mm 1,5 km/h (1 Bft) NW 314 ° 0 min 0,000 mm 0,0 UV-I 0 W/m² -9,9 °C 3,2 km/h (1 Bft)
06.01.2017 01:37 -8,4 °C -8,4 °C 89 % 1035,6 hPa 0,0 mm 4,7 km/h (1 Bft) N 351 ° 0 min 0,000 mm 0,0 UV-I 0 W/m² -9,9 °C 6,4 km/h (2 Bft)
06.01.2017 01:38 -8,4 °C -8,4 °C 89 % 1035,6 hPa 0,0 mm 3,6 km/h (1 Bft) N-NO 17 ° 0 min 0,000 mm 0,0 UV-I 0 W/m² -9,9 °C 4,8 km/h (1 Bft)
06.01.2017 01:39 -8,4 °C -8,4 °C 89 % 1035,7 hPa 0,0 mm 2,3 km/h (1 Bft) O-NO 71 ° 0 min 0,000 mm 0,0 UV-I 0 W/m² -9,9 °C 3,2 km/h (1 Bft)
06.01.2017 01:40 -8,4 °C -8,4 °C 89 % 1035,7 hPa 0,0 mm 3,8 km/h (1 Bft) N 5 ° 0 min 0,000 mm 0,0 UV-I 0 W/m² -9,9 °C 6,4 km/h (2 Bft)
06.01.2017 01:41 -8,4 °C -8,4 °C 89 % 1035,7 hPa 0,0 mm 2,3 km/h (1 Bft) N-NO 30 ° 0 min 0,000 mm 0,0 UV-I 0 W/m² -9,9 °C 4,8 km/h (1 Bft)
06.01.2017 01:42 -8,4 °C -8,4 °C 89 % 1035,7 hPa 0,0 mm 1,9 km/h (1 Bft) N-NO 30 ° 0 min 0,000 mm 0,0 UV-I 0 W/m² -9,9 °C 3,2 km/h (1 Bft)
06.01.2017 01:43 -8,4 °C -8,4 °C 90 % 1035,7 hPa 0,0 mm 1,9 km/h (1 Bft) N-NO 30 ° 0 min 0,000 mm 0,0 UV-I 0 W/m² -9,7 °C 3,2 km/h (1 Bft)
06.01.2017 01:44 -8,4 °C -8,4 °C 90 % 1035,8 hPa 0,0 mm 3,0 km/h (1 Bft) N-NO 30 ° 0 min 0,000 mm 0,0 UV-I 0 W/m² -9,7 °C 4,8 km/h (1 Bft)
06.01.2017 01:45 -8,4 °C -8,4 °C 90 % 1035,8 hPa 0,0 mm 3,1 km/h (1 Bft) N-NO 14 ° 0 min 0,000 mm 0,0 UV-I 0 W/m² -9,7 °C 4,8 km/h (1 Bft)
06.01.2017 01:46 -8,4 °C -8,4 °C 89 % 1035,8 hPa 0,0 mm 1,2 km/h (1 Bft) N-NO 14 ° 0 min 0,000 mm 0,0 UV-I 0 W/m² -9,9 °C 3,2 km/h (1 Bft)
06.01.2017 01:47 -8,4 °C -8,4 °C 89 % 1035,8 hPa 0,0 mm 2,8 km/h (1 Bft) O 80 ° 0 min 0,000 mm 0,0 UV-I 0 W/m² -9,9 °C 4,8 km/h (1 Bft)
06.01.2017 01:48 -8,4 °C -8,4 °C 89 % 1035,9 hPa 0,0 mm 4,5 km/h (1 Bft) O 87 ° 0 min 0,000 mm 0,0 UV-I 0 W/m² -9,9 °C 6,4 km/h (2 Bft)
06.01.2017 01:49 -8,5 °C -8,4 °C 89 % 1035,8 hPa 0,0 mm 1,7 km/h (1 Bft) O 87 ° 0 min 0,000 mm 0,0 UV-I 0 W/m² -10,0 °C 3,2 km/h (1 Bft)
06.01.2017 01:50 -8,4 °C -8,4 °C 89 % 1035,8 hPa 0,0 mm 1,9 km/h (1 Bft) NO 51 ° 0 min 0,000 mm 0,0 UV-I 0 W/m² -9,9 °C 3,2 km/h (1 Bft)
06.01.2017 01:51 -8,5 °C -8,4 °C 90 % 1035,9 hPa 0,0 mm 2,0 km/h (1 Bft) NO 51 ° 0 min 0,000 mm 0,0 UV-I 0 W/m² -9,8 °C 4,8 km/h (1 Bft)
06.01.2017 01:52 -8,5 °C -8,5 °C 89 % 1035,9 hPa 0,0 mm 1,9 km/h (1 Bft) NO 51 ° 0 min 0,000 mm 0,0 UV-I 0 W/m² -10,0 °C 3,2 km/h (1 Bft)
06.01.2017 01:53 -8,5 °C -8,5 °C 90 % 1035,9 hPa 0,0 mm 2,4 km/h (1 Bft) NO 51 ° 0 min 0,000 mm 0,0 UV-I 0 W/m² -9,8 °C 3,2 km/h (1 Bft)
06.01.2017 01:54 -8,5 °C -8,5 °C 90 % 1036,0 hPa 0,0 mm 1,0 km/h (0 Bft) NO 51 ° 0 min 0,000 mm 0,0 UV-I 0 W/m² -9,8 °C 1,6 km/h (1 Bft)
06.01.2017 01:55 -8,5 °C -8,5 °C 90 % 1036,0 hPa 0,0 mm 1,6 km/h (1 Bft) O 86 ° 0 min 0,000 mm 0,0 UV-I 0 W/m² -9,8 °C 4,8 km/h (1 Bft)
06.01.2017 01:56 -8,5 °C -8,5 °C 90 % 1036,0 hPa 0,0 mm 3,3 km/h (1 Bft) NO 37 ° 0 min 0,000 mm 0,0 UV-I 0 W/m² -9,8 °C 4,8 km/h (1 Bft)
06.01.2017 01:57 -8,6 °C -8,5 °C 89 % 1036,0 hPa 0,0 mm 1,7 km/h (1 Bft) NO 37 ° 0 min 0,000 mm 0,0 UV-I 0 W/m² -10,1 °C 3,2 km/h (1 Bft)
06.01.2017 01:58 -8,6 °C -8,5 °C 89 % 1036,0 hPa 0,0 mm 2,7 km/h (1 Bft) NO 37 ° 0 min 0,000 mm 0,0 UV-I 0 W/m² -10,1 °C 4,8 km/h (1 Bft)
06.01.2017 01:59 -8,6 °C -8,6 °C 89 % 1036,0 hPa 0,0 mm 3,6 km/h (1 Bft) NO 38 ° 0 min 0,000 mm 0,0 UV-I 0 W/m² -10,1 °C 4,8 km/h (1 Bft)
06.01.2017 02:00 -8,6 °C -8,6 °C 89 % 1036,0 hPa 0,0 mm 3,4 km/h (1 Bft) NO 39 ° 0 min 0,000 mm 0,0 UV-I 0 W/m² -10,1 °C 4,8 km/h (1 Bft)
06.01.2017 02:01 -8,6 °C -8,6 °C 89 % 1036,1 hPa 0,0 mm 3,0 km/h (1 Bft) NO 40 ° 0 min 0,000 mm 0,0 UV-I 0 W/m² -10,1 °C 4,8 km/h (1 Bft)
06.01.2017 02:02 -8,6 °C -8,6 °C 89 % 1036,0 hPa 0,0 mm 1,5 km/h (1 Bft) NO 47 ° 0 min 0,000 mm 0,0 UV-I 0 W/m² -10,1 °C 3,2 km/h (1 Bft)
06.01.2017 02:03 -8,6 °C -8,6 °C 89 % 1036,1 hPa 0,0 mm 3,0 km/h (1 Bft) O-NO 60 ° 0 min 0,000 mm 0,0 UV-I 0 W/m² -10,1 °C 6,4 km/h (2 Bft)
06.01.2017 02:04 -8,6 °C -8,6 °C 89 % 1036,1 hPa 0,0 mm 0,8 km/h (0 Bft) O-NO 60 ° 0 min 0,000 mm 0,0 UV-I 0 W/m² -10,1 °C 3,2 km/h (1 Bft)
06.01.2017 02:05 -8,6 °C -8,6 °C 89 % 1036,1 hPa 0,0 mm 3,7 km/h (1 Bft) O-NO 76 ° 0 min 0,000 mm 0,0 UV-I 0 W/m² -10,1 °C 4,8 km/h (1 Bft)
06.01.2017 02:06 -8,6 °C -8,6 °C 89 % 1036,2 hPa 0,0 mm 6,0 km/h (2 Bft) O-NO 69 ° 0 min 0,000 mm 0,0 UV-I 0 W/m² -10,1 °C 8,0 km/h (2 Bft)
06.01.2017 02:07 -8,6 °C -8,6 °C 89 % 1036,1 hPa 0,0 mm 2,7 km/h (1 Bft) O-NO 61 ° 0 min 0,000 mm 0,0 UV-I 0 W/m² -10,1 °C 6,4 km/h (2 Bft)
06.01.2017 02:08 -8,6 °C -8,6 °C 89 % 1036,1 hPa 0,0 mm 4,7 km/h (1 Bft) NO 55 ° 0 min 0,000 mm 0,0 UV-I 0 W/m² -10,1 °C 6,4 km/h (2 Bft)
06.01.2017 02:09 -8,6 °C -8,6 °C 89 % 1036,1 hPa 0,0 mm 1,9 km/h (1 Bft) NO 55 ° 0 min 0,000 mm 0,0 UV-I 0 W/m² -10,1 °C 3,2 km/h (1 Bft)
06.01.2017 02:10 -8,6 °C -8,6 °C 89 % 1036,1 hPa 0,0 mm 3,1 km/h (1 Bft) NO 44 ° 0 min 0,000 mm 0,0 UV-I 0 W/m² -10,1 °C 4,8 km/h (1 Bft)
06.01.2017 02:11 -8,6 °C -8,6 °C 89 % 1036,2 hPa 0,0 mm 1,8 km/h (1 Bft) NO 44 ° 0 min 0,000 mm 0,0 UV-I 0 W/m² -10,1 °C 3,2 km/h (1 Bft)
06.01.2017 02:12 -8,6 °C -8,6 °C 89 % 1036,2 hPa 0,0 mm 1,5 km/h (1 Bft) NO 44 ° 0 min 0,000 mm 0,0 UV-I 0 W/m² -10,1 °C 3,2 km/h (1 Bft)
06.01.2017 02:13 -8,6 °C -8,6 °C 89 % 1036,2 hPa 0,0 mm 1,5 km/h (1 Bft) NO 44 ° 0 min 0,000 mm 0,0 UV-I 0 W/m² -10,1 °C 3,2 km/h (1 Bft)
06.01.2017 02:14 -8,6 °C -8,6 °C 89 % 1036,2 hPa 0,0 mm 1,6 km/h (1 Bft) NO 44 ° 0 min 0,000 mm 0,0 UV-I 0 W/m² -10,1 °C 3,2 km/h (1 Bft)
06.01.2017 02:15 -8,6 °C -8,6 °C 89 % 1036,1 hPa 0,0 mm 2,7 km/h (1 Bft) NO 44 ° 0 min 0,000 mm 0,0 UV-I 0 W/m² -10,1 °C 4,8 km/h (1 Bft)
06.01.2017 02:16 -8,6 °C -8,6 °C 89 % 1036,1 hPa 0,0 mm 0,8 km/h (0 Bft) NO 44 ° 0 min 0,000 mm 0,0 UV-I 0 W/m² -10,1 °C 1,6 km/h (1 Bft)
06.01.2017 02:17 -8,7 °C -8,6 °C 89 % 1036,2 hPa 0,0 mm 2,4 km/h (1 Bft) O 90 ° 0 min 0,000 mm 0,0 UV-I 0 W/m² -10,2 °C 4,8 km/h (1 Bft)
06.01.2017 02:18 -8,6 °C -8,6 °C 89 % 1036,2 hPa 0,0 mm 2,5 km/h (1 Bft) O-NO 67 ° 0 min 0,000 mm 0,0 UV-I 0 W/m² -10,1 °C 4,8 km/h (1 Bft)
06.01.2017 02:19 -8,6 °C -8,6 °C 89 % 1036,3 hPa 0,0 mm 1,3 km/h (1 Bft) O-NO 71 ° 0 min 0,000 mm 0,0 UV-I 0 W/m² -10,1 °C 4,8 km/h (1 Bft)
06.01.2017 02:20 -8,7 °C -8,6 °C 89 % 1036,3 hPa 0,0 mm 3,4 km/h (1 Bft) O-NO 78 ° 0 min 0,000 mm 0,0 UV-I 0 W/m² -10,2 °C 6,4 km/h (2 Bft)
06.01.2017 02:21 -8,7 °C -8,7 °C 89 % 1036,2 hPa 0,0 mm 3,9 km/h (1 Bft) NO 49 ° 0 min 0,000 mm 0,0 UV-I 0 W/m² -10,2 °C 6,4 km/h (2 Bft)
06.01.2017 02:22 -8,7 °C -8,7 °C 89 % 1036,2 hPa 0,0 mm 2,2 km/h (1 Bft) NO 45 ° 0 min 0,000 mm 0,0 UV-I 0 W/m² -10,2 °C 4,8 km/h (1 Bft)
06.01.2017 02:23 -8,7 °C -8,7 °C 89 % 1036,3 hPa 0,0 mm 1,6 km/h (1 Bft) NO 45 ° 0 min 0,000 mm 0,0 UV-I 0 W/m² -10,2 °C 3,2 km/h (1 Bft)
06.01.2017 02:24 -8,7 °C -8,7 °C 89 % 1036,2 hPa 0,0 mm 1,4 km/h (1 Bft) NO 45 ° 0 min 0,000 mm 0,0 UV-I 0 W/m² -10,2 °C 3,2 km/h (1 Bft)
06.01.2017 02:25 -8,7 °C -8,7 °C 89 % 1036,2 hPa 0,0 mm 1,6 km/h (1 Bft) NO 45 ° 0 min 0,000 mm 0,0 UV-I 0 W/m² -10,2 °C 3,2 km/h (1 Bft)
06.01.2017 02:26 -8,7 °C -8,7 °C 89 % 1036,2 hPa 0,0 mm 1,4 km/h (1 Bft) NO 45 ° 0 min 0,000 mm 0,0 UV-I 0 W/m² -10,2 °C 1,6 km/h (1 Bft)
06.01.2017 02:27 -8,7 °C -8,7 °C 89 % 1036,2 hPa 0,0 mm 2,7 km/h (1 Bft) NO 38 ° 0 min 0,000 mm 0,0 UV-I 0 W/m² -10,2 °C 4,8 km/h (1 Bft)
06.01.2017 02:28 -8,7 °C -8,7 °C 89 % 1036,2 hPa 0,0 mm 1,7 km/h (1 Bft) NO 38 ° 0 min 0,000 mm 0,0 UV-I 0 W/m² -10,2 °C 3,2 km/h (1 Bft)
06.01.2017 02:29 -8,7 °C -8,7 °C 89 % 1036,2 hPa 0,0 mm 0,9 km/h (0 Bft) NO 38 ° 0 min 0,000 mm 0,0 UV-I 0 W/m² -10,2 °C 1,6 km/h (1 Bft)
06.01.2017 02:30 -8,7 °C -8,7 °C 89 % 1036,3 hPa 0,0 mm 0,6 km/h (0 Bft) NO 38 ° 0 min 0,000 mm 0,0 UV-I 0 W/m² -10,2 °C 1,6 km/h (1 Bft)
06.01.2017 02:31 -8,7 °C -8,7 °C 89 % 1036,3 hPa 0,0 mm 1,7 km/h (1 Bft) NO 38 ° 0 min 0,000 mm 0,0 UV-I 0 W/m² -10,2 °C 3,2 km/h (1 Bft)
06.01.2017 02:32 -8,7 °C -8,7 °C 89 % 1036,3 hPa 0,0 mm 1,7 km/h (1 Bft) N-NO 32 ° 0 min 0,000 mm 0,0 UV-I 0 W/m² -10,2 °C 3,2 km/h (1 Bft)
06.01.2017 02:33 -8,7 °C -8,7 °C 89 % 1036,3 hPa 0,0 mm 2,7 km/h (1 Bft) N-NW 333 ° 0 min 0,000 mm 0,0 UV-I 0 W/m² -10,2 °C 3,2 km/h (1 Bft)
06.01.2017 02:34 -8,7 °C -8,7 °C 89 % 1036,3 hPa 0,0 mm 0,4 km/h (0 Bft) N-NW 333 ° 0 min 0,000 mm 0,0 UV-I 0 W/m² -10,2 °C 1,6 km/h (1 Bft)
06.01.2017 02:35 -8,7 °C -8,7 °C 89 % 1036,3 hPa 0,0 mm 2,1 km/h (1 Bft) N 5 ° 0 min 0,000 mm 0,0 UV-I 0 W/m² -10,2 °C 4,8 km/h (1 Bft)
06.01.2017 02:36 -8,7 °C -8,7 °C 89 % 1036,4 hPa 0,0 mm 3,5 km/h (1 Bft) N-NO 32 ° 0 min 0,000 mm 0,0 UV-I 0 W/m² -10,2 °C 4,8 km/h (1 Bft)
06.01.2017 02:37 -8,7 °C -8,7 °C 89 % 1036,4 hPa 0,0 mm 3,4 km/h (1 Bft) NO 51 ° 0 min 0,000 mm 0,0 UV-I 0 W/m² -10,2 °C 4,8 km/h (1 Bft)
06.01.2017 02:38 -8,7 °C -8,7 °C 89 % 1036,4 hPa 0,0 mm 2,6 km/h (1 Bft) O-NO 59 ° 0 min 0,000 mm 0,0 UV-I 0 W/m² -10,2 °C 4,8 km/h (1 Bft)
06.01.2017 02:39 -8,7 °C -8,7 °C 89 % 1036,4 hPa 0,0 mm 2,1 km/h (1 Bft) O-NO 59 ° 0 min 0,000 mm 0,0 UV-I 0 W/m² -10,2 °C 3,2 km/h (1 Bft)
06.01.2017 02:40 -8,8 °C -8,7 °C 89 % 1036,4 hPa 0,0 mm 2,5 km/h (1 Bft) NO 36 ° 0 min 0,000 mm 0,0 UV-I 0 W/m² -10,3 °C 3,2 km/h (1 Bft)
06.01.2017 02:41 -8,8 °C -8,8 °C 89 % 1036,4 hPa 0,0 mm 2,3 km/h (1 Bft) NO 36 ° 0 min 0,000 mm 0,0 UV-I 0 W/m² -10,3 °C 4,8 km/h (1 Bft)
06.01.2017 02:42 -8,8 °C -8,8 °C 89 % 1036,4 hPa 0,0 mm 2,7 km/h (1 Bft) NO 37 ° 0 min 0,000 mm 0,0 UV-I 0 W/m² -10,3 °C 3,2 km/h (1 Bft)
06.01.2017 02:43 -8,8 °C -8,8 °C 89 % 1036,4 hPa 0,0 mm 1,1 km/h (1 Bft) NO 37 ° 0 min 0,000 mm 0,0 UV-I 0 W/m² -10,3 °C 3,2 km/h (1 Bft)
06.01.2017 02:44 -8,8 °C -8,8 °C 89 % 1036,4 hPa 0,0 mm 2,7 km/h (1 Bft) NO 37 ° 0 min 0,000 mm 0,0 UV-I 0 W/m² -10,3 °C 4,8 km/h (1 Bft)
06.01.2017 02:45 -8,8 °C -8,8 °C 88 % 1036,4 hPa 0,0 mm 3,8 km/h (1 Bft) N-NO 22 ° 0 min 0,000 mm 0,0 UV-I 0 W/m² -10,4 °C 4,8 km/h (1 Bft)
06.01.2017 02:46 -8,8 °C -8,8 °C 89 % 1036,4 hPa 0,0 mm 3,2 km/h (1 Bft) NO 47 ° 0 min 0,000 mm 0,0 UV-I 0 W/m² -10,3 °C 4,8 km/h (1 Bft)
06.01.2017 02:47 -8,8 °C -8,8 °C 89 % 1036,4 hPa 0,0 mm 2,9 km/h (1 Bft) NO 47 ° 0 min 0,000 mm 0,0 UV-I 0 W/m² -10,3 °C 4,8 km/h (1 Bft)
06.01.2017 02:48 -8,8 °C -8,8 °C 89 % 1036,4 hPa 0,0 mm 2,3 km/h (1 Bft) NO 47 ° 0 min 0,000 mm 0,0 UV-I 0 W/m² -10,3 °C 4,8 km/h (1 Bft)
06.01.2017 02:49 -8,8 °C -8,8 °C 89 % 1036,4 hPa 0,0 mm 0,8 km/h (0 Bft) NO 47 ° 0 min 0,000 mm 0,0 UV-I 0 W/m² -10,3 °C 1,6 km/h (1 Bft)
06.01.2017 02:50 -8,8 °C -8,8 °C 89 % 1036,4 hPa 0,0 mm 2,3 km/h (1 Bft) O-NO 70 ° 0 min 0,000 mm 0,0 UV-I 0 W/m² -10,3 °C 4,8 km/h (1 Bft)
06.01.2017 02:51 -8,8 °C -8,8 °C 89 % 1036,4 hPa 0,0 mm 3,0 km/h (1 Bft) NO 49 ° 0 min 0,000 mm 0,0 UV-I 0 W/m² -10,3 °C 4,8 km/h (1 Bft)
06.01.2017 02:52 -8,8 °C -8,8 °C 89 % 1036,5 hPa 0,0 mm 2,2 km/h (1 Bft) NO 49 ° 0 min 0,000 mm 0,0 UV-I 0 W/m² -10,3 °C 4,8 km/h (1 Bft)
06.01.2017 02:53 -8,8 °C -8,8 °C 89 % 1036,5 hPa 0,0 mm 2,6 km/h (1 Bft) NO 49 ° 0 min 0,000 mm 0,0 UV-I 0 W/m² -10,3 °C 4,8 km/h (1 Bft)
06.01.2017 02:54 -8,9 °C -8,8 °C 88 % 1036,5 hPa 0,0 mm 3,0 km/h (1 Bft) NO 49 ° 0 min 0,000 mm 0,0 UV-I 0 W/m² -10,5 °C 4,8 km/h (1 Bft)
06.01.2017 02:55 -8,9 °C -8,8 °C 89 % 1036,5 hPa 0,0 mm 2,2 km/h (1 Bft) NO 49 ° 0 min 0,000 mm 0,0 UV-I 0 W/m² -10,4 °C 3,2 km/h (1 Bft)
06.01.2017 02:56 -8,9 °C -8,9 °C 89 % 1036,5 hPa 0,0 mm 2,3 km/h (1 Bft) NO 49 ° 0 min 0,000 mm 0,0 UV-I 0 W/m² -10,4 °C 3,2 km/h (1 Bft)
06.01.2017 02:57 -8,9 °C -8,8 °C 89 % 1036,5 hPa 0,0 mm 0,9 km/h (0 Bft) NO 49 ° 0 min 0,000 mm 0,0 UV-I 0 W/m² -10,4 °C 1,6 km/h (1 Bft)
06.01.2017 02:58 -8,9 °C -8,9 °C 89 % 1036,5 hPa 0,0 mm 2,1 km/h (1 Bft) NO 50 ° 0 min 0,000 mm 0,0 UV-I 0 W/m² -10,4 °C 3,2 km/h (1 Bft)
06.01.2017 02:59 -8,9 °C -8,9 °C 89 % 1036,5 hPa 0,0 mm 1,7 km/h (1 Bft) NO 50 ° 0 min 0,000 mm 0,0 UV-I 0 W/m² -10,4 °C 3,2 km/h (1 Bft)
06.01.2017 03:00 -8,9 °C -8,9 °C 89 % 1036,5 hPa 0,0 mm 2,1 km/h (1 Bft) NO 50 ° 0 min 0,000 mm 0,0 UV-I 0 W/m² -10,4 °C 3,2 km/h (1 Bft)
06.01.2017 03:01 -8,9 °C -8,9 °C 89 % 1036,5 hPa 0,0 mm 1,5 km/h (1 Bft) NO 50 ° 0 min 0,000 mm 0,0 UV-I 0 W/m² -10,4 °C 3,2 km/h (1 Bft)
06.01.2017 03:02 -8,9 °C -8,9 °C 89 % 1036,5 hPa 0,0 mm 0,9 km/h (0 Bft) NO 50 ° 0 min 0,000 mm 0,0 UV-I 0 W/m² -10,4 °C 3,2 km/h (1 Bft)
06.01.2017 03:03 -8,9 °C -8,9 °C 89 % 1036,5 hPa 0,0 mm 1,1 km/h (1 Bft) NO 50 ° 0 min 0,000 mm 0,0 UV-I 0 W/m² -10,4 °C 1,6 km/h (1 Bft)
06.01.2017 03:04 -8,9 °C -8,9 °C 89 % 1036,5 hPa 0,0 mm 3,1 km/h (1 Bft) O-NO 67 ° 0 min 0,000 mm 0,0 UV-I 0 W/m² -10,4 °C 3,2 km/h (1 Bft)
06.01.2017 03:05 -8,9 °C -8,9 °C 89 % 1036,5 hPa 0,0 mm 2,2 km/h (1 Bft) O-NO 67 ° 0 min 0,000 mm 0,0 UV-I 0 W/m² -10,4 °C 3,2 km/h (1 Bft)
06.01.2017 03:06 -8,9 °C -8,9 °C 89 % 1036,5 hPa 0,0 mm 0,9 km/h (0 Bft) O-NO 67 ° 0 min 0,000 mm 0,0 UV-I 0 W/m² -10,4 °C 1,6 km/h (1 Bft)
06.01.2017 03:07 -8,9 °C -8,9 °C 89 % 1036,5 hPa 0,0 mm 0,6 km/h (0 Bft) O-NO 67 ° 0 min 0,000 mm 0,0 UV-I 0 W/m² -10,4 °C 1,6 km/h (1 Bft)
06.01.2017 03:08 -8,9 °C -8,9 °C 89 % 1036,5 hPa 0,0 mm 1,1 km/h (1 Bft) O-NO 67 ° 0 min 0,000 mm 0,0 UV-I 0 W/m² -10,4 °C 1,6 km/h (1 Bft)
06.01.2017 03:09 -8,9 °C -8,9 °C 89 % 1036,5 hPa 0,0 mm 2,2 km/h (1 Bft) O-NO 67 ° 0 min 0,000 mm 0,0 UV-I 0 W/m² -10,4 °C 3,2 km/h (1 Bft)
06.01.2017 03:10 -8,9 °C -8,9 °C 89 % 1036,5 hPa 0,0 mm 2,2 km/h (1 Bft) O-NO 67 ° 0 min 0,000 mm 0,0 UV-I 0 W/m² -10,4 °C 4,8 km/h (1 Bft)
06.01.2017 03:11 -8,9 °C -8,9 °C 89 % 1036,5 hPa 0,0 mm 2,1 km/h (1 Bft) O-NO 67 ° 0 min 0,000 mm 0,0 UV-I 0 W/m² -10,4 °C 3,2 km/h (1 Bft)
06.01.2017 03:12 -8,9 °C -8,9 °C 89 % 1036,5 hPa 0,0 mm 2,1 km/h (1 Bft) O-NO 67 ° 0 min 0,000 mm 0,0 UV-I 0 W/m² -10,4 °C 3,2 km/h (1 Bft)
06.01.2017 03:13 -9,0 °C -8,9 °C 89 % 1036,5 hPa 0,0 mm 2,5 km/h (1 Bft) O-NO 67 ° 0 min 0,000 mm 0,0 UV-I 0 W/m² -10,5 °C 6,4 km/h (2 Bft)
06.01.2017 03:14 -8,9 °C -8,9 °C 89 % 1036,5 hPa 0,0 mm 4,3 km/h (1 Bft) NO 44 ° 0 min 0,000 mm 0,0 UV-I 0 W/m² -10,4 °C 4,8 km/h (1 Bft)
06.01.2017 03:15 -9,0 °C -8,9 °C 89 % 1036,5 hPa 0,0 mm 3,4 km/h (1 Bft) NO 38 ° 0 min 0,000 mm 0,0 UV-I 0 W/m² -10,5 °C 4,8 km/h (1 Bft)
06.01.2017 03:16 -9,0 °C -8,9 °C 89 % 1036,5 hPa 0,0 mm 2,0 km/h (1 Bft) NO 38 ° 0 min 0,000 mm 0,0 UV-I 0 W/m² -10,5 °C 3,2 km/h (1 Bft)
06.01.2017 03:17 -9,0 °C -9,0 °C 89 % 1036,5 hPa 0,0 mm 1,5 km/h (1 Bft) NO 38 ° 0 min 0,000 mm 0,0 UV-I 0 W/m² -10,5 °C 3,2 km/h (1 Bft)
06.01.2017 03:18 -9,0 °C -8,9 °C 89 % 1036,5 hPa 0,0 mm 1,7 km/h (1 Bft) NO 38 ° 0 min 0,000 mm 0,0 UV-I 0 W/m² -10,5 °C 3,2 km/h (1 Bft)
06.01.2017 03:19 -9,0 °C -9,0 °C 89 % 1036,5 hPa 0,0 mm 1,7 km/h (1 Bft) O-NO 78 ° 0 min 0,000 mm 0,0 UV-I 0 W/m² -10,5 °C 3,2 km/h (1 Bft)
06.01.2017 03:20 -9,0 °C -9,0 °C 89 % 1036,5 hPa 0,0 mm 0,8 km/h (0 Bft) O-NO 78 ° 0 min 0,000 mm 0,0 UV-I 0 W/m² -10,5 °C 1,6 km/h (1 Bft)
06.01.2017 03:21 -9,0 °C -9,0 °C 89 % 1036,5 hPa 0,0 mm 0,5 km/h (0 Bft) O-NO 78 ° 0 min 0,000 mm 0,0 UV-I 0 W/m² -10,5 °C 1,6 km/h (1 Bft)
06.01.2017 03:22 -9,0 °C -9,0 °C 89 % 1036,6 hPa 0,0 mm 1,1 km/h (1 Bft) O-NO 78 ° 0 min 0,000 mm 0,0 UV-I 0 W/m² -10,5 °C 1,6 km/h (1 Bft)
06.01.2017 03:23 -9,0 °C -9,0 °C 89 % 1036,6 hPa 0,0 mm 2,0 km/h (1 Bft) O-NO 78 ° 0 min 0,000 mm 0,0 UV-I 0 W/m² -10,5 °C 3,2 km/h (1 Bft)
06.01.2017 03:24 -9,1 °C -9,0 °C 89 % 1036,6 hPa 0,0 mm 3,2 km/h (1 Bft) O-NO 78 ° 0 min 0,000 mm 0,0 UV-I 0 W/m² -10,6 °C 4,8 km/h (1 Bft)
06.01.2017 03:25 -9,1 °C -9,1 °C 89 % 1036,6 hPa 0,0 mm 2,8 km/h (1 Bft) O-NO 78 ° 0 min 0,000 mm 0,0 UV-I 0 W/m² -10,6 °C 4,8 km/h (1 Bft)
06.01.2017 03:26 -9,1 °C -9,1 °C 89 % 1036,6 hPa 0,0 mm 2,2 km/h (1 Bft) O-NO 78 ° 0 min 0,000 mm 0,0 UV-I 0 W/m² -10,6 °C 3,2 km/h (1 Bft)
06.01.2017 03:27 -9,1 °C -9,1 °C 89 % 1036,6 hPa 0,0 mm 1,5 km/h (1 Bft) O-NO 78 ° 0 min 0,000 mm 0,0 UV-I 0 W/m² -10,6 °C 3,2 km/h (1 Bft)
06.01.2017 03:28 -9,1 °C -9,1 °C 89 % 1036,6 hPa 0,0 mm 0,7 km/h (0 Bft) O-NO 78 ° 0 min 0,000 mm 0,0 UV-I 0 W/m² -10,6 °C 1,6 km/h (1 Bft)
06.01.2017 03:29 -9,1 °C -9,1 °C 89 % 1036,6 hPa 0,0 mm 0,9 km/h (0 Bft) O-NO 78 ° 0 min 0,000 mm 0,0 UV-I 0 W/m² -10,6 °C 1,6 km/h (1 Bft)
06.01.2017 03:30 -9,1 °C -9,1 °C 89 % 1036,6 hPa 0,0 mm 1,4 km/h (1 Bft) O-NO 78 ° 0 min 0,000 mm 0,0 UV-I 0 W/m² -10,6 °C 3,2 km/h (1 Bft)
06.01.2017 03:31 -9,1 °C -9,1 °C 89 % 1036,6 hPa 0,0 mm 2,4 km/h (1 Bft) O-NO 69 ° 0 min 0,000 mm 0,0 UV-I 0 W/m² -10,6 °C 4,8 km/h (1 Bft)
06.01.2017 03:32 -9,1 °C -9,1 °C 90 % 1036,6 hPa 0,0 mm 0,3 km/h (0 Bft) O-NO 69 ° 0 min 0,000 mm 0,0 UV-I 0 W/m² -10,4 °C 1,6 km/h (1 Bft)
06.01.2017 03:33 -9,1 °C -9,1 °C 89 % 1036,6 hPa 0,0 mm 1,3 km/h (1 Bft) O-NO 69 ° 0 min 0,000 mm 0,0 UV-I 0 W/m² -10,6 °C 3,2 km/h (1 Bft)
06.01.2017 03:34 -9,1 °C -9,1 °C 89 % 1036,6 hPa 0,0 mm 1,1 km/h (1 Bft) O-NO 69 ° 0 min 0,000 mm 0,0 UV-I 0 W/m² -10,6 °C 1,6 km/h (1 Bft)
06.01.2017 03:35 -9,1 °C -9,1 °C 90 % 1036,6 hPa 0,0 mm 1,4 km/h (1 Bft) O-NO 69 ° 0 min 0,000 mm 0,0 UV-I 0 W/m² -10,4 °C 1,6 km/h (1 Bft)
06.01.2017 03:36 -9,1 °C -9,1 °C 90 % 1036,6 hPa 0,0 mm 0,2 km/h (0 Bft) O-NO 69 ° 0 min 0,000 mm 0,0 UV-I 0 W/m² -10,4 °C 1,6 km/h (1 Bft)
06.01.2017 03:37 -9,1 °C -9,1 °C 90 % 1036,6 hPa 0,0 mm 0,3 km/h (0 Bft) O-NO 69 ° 0 min 0,000 mm 0,0 UV-I 0 W/m² -10,4 °C 1,6 km/h (1 Bft)
06.01.2017 03:38 -9,1 °C -9,1 °C 90 % 1036,6 hPa 0,0 mm 0,4 km/h (0 Bft) O-NO 69 ° 0 min 0,000 mm 0,0 UV-I 0 W/m² -10,4 °C 1,6 km/h (1 Bft)
06.01.2017 03:39 -9,1 °C -9,1 °C 90 % 1036,7 hPa 0,0 mm 0,7 km/h (0 Bft) O-NO 69 ° 0 min 0,000 mm 0,0 UV-I 0 W/m² -10,4 °C 1,6 km/h (1 Bft)
06.01.2017 03:40 -9,1 °C -9,1 °C 89 % 1036,7 hPa 0,0 mm 0,7 km/h (0 Bft) O-NO 69 ° 0 min 0,000 mm 0,0 UV-I 0 W/m² -10,6 °C 1,6 km/h (1 Bft)
06.01.2017 03:41 -9,2 °C -9,1 °C 89 % 1036,7 hPa 0,0 mm 1,2 km/h (1 Bft) O-NO 69 ° 0 min 0,000 mm 0,0 UV-I 0 W/m² -10,7 °C 3,2 km/h (1 Bft)
06.01.2017 03:42 -9,1 °C -9,1 °C 89 % 1036,7 hPa 0,0 mm 1,9 km/h (1 Bft) O-NO 69 ° 0 min 0,000 mm 0,0 UV-I 0 W/m² -10,6 °C 3,2 km/h (1 Bft)
06.01.2017 03:43 -9,1 °C -9,1 °C 89 % 1036,7 hPa 0,0 mm 0,6 km/h (0 Bft) O-NO 69 ° 0 min 0,000 mm 0,0 UV-I 0 W/m² -10,6 °C 1,6 km/h (1 Bft)
06.01.2017 03:44 -9,2 °C -9,1 °C 89 % 1036,7 hPa 0,0 mm 1,5 km/h (1 Bft) O-NO 69 ° 0 min 0,000 mm 0,0 UV-I 0 W/m² -10,7 °C 3,2 km/h (1 Bft)
06.01.2017 03:45 -9,2 °C -9,2 °C 89 % 1036,6 hPa 0,0 mm 1,9 km/h (1 Bft) O-NO 69 ° 0 min 0,000 mm 0,0 UV-I 0 W/m² -10,7 °C 4,8 km/h (1 Bft)
06.01.2017 03:46 -9,2 °C -9,2 °C 89 % 1036,6 hPa 0,0 mm 2,7 km/h (1 Bft) O-NO 69 ° 0 min 0,000 mm 0,0 UV-I 0 W/m² -10,7 °C 3,2 km/h (1 Bft)
06.01.2017 03:47 -9,2 °C -9,2 °C 89 % 1036,6 hPa 0,0 mm 1,7 km/h (1 Bft) O-NO 69 ° 0 min 0,000 mm 0,0 UV-I 0 W/m² -10,7 °C 3,2 km/h (1 Bft)
06.01.2017 03:48 -9,2 °C -9,2 °C 89 % 1036,6 hPa 0,0 mm 3,4 km/h (1 Bft) O-NO 57 ° 0 min 0,000 mm 0,0 UV-I 0 W/m² -10,7 °C 4,8 km/h (1 Bft)
06.01.2017 03:49 -9,2 °C -9,2 °C 89 % 1036,7 hPa 0,0 mm 3,4 km/h (1 Bft) O-NO 57 ° 0 min 0,000 mm 0,0 UV-I 0 W/m² -10,7 °C 4,8 km/h (1 Bft)
06.01.2017 03:50 -9,2 °C -9,2 °C 89 % 1036,7 hPa 0,0 mm 2,1 km/h (1 Bft) O-NO 57 ° 0 min 0,000 mm 0,0 UV-I 0 W/m² -10,7 °C 4,8 km/h (1 Bft)
06.01.2017 03:51 -9,2 °C -9,2 °C 89 % 1036,7 hPa 0,0 mm 0,5 km/h (0 Bft) O-NO 57 ° 0 min 0,000 mm 0,0 UV-I 0 W/m² -10,7 °C 1,6 km/h (1 Bft)
06.01.2017 03:52 -9,2 °C -9,2 °C 89 % 1036,7 hPa 0,0 mm 0,2 km/h (0 Bft) O-NO 57 ° 0 min 0,000 mm 0,0 UV-I 0 W/m² -10,7 °C 1,6 km/h (1 Bft)
06.01.2017 03:53 -9,2 °C -9,2 °C 89 % 1036,7 hPa 0,0 mm 1,5 km/h (1 Bft) O-NO 57 ° 0 min 0,000 mm 0,0 UV-I 0 W/m² -10,7 °C 3,2 km/h (1 Bft)
06.01.2017 03:54 -9,2 °C -9,2 °C 89 % 1036,7 hPa 0,0 mm 1,1 km/h (1 Bft) O-NO 57 ° 0 min 0,000 mm 0,0 UV-I 0 W/m² -10,7 °C 1,6 km/h (1 Bft)
06.01.2017 03:55 -9,2 °C -9,2 °C 89 % 1036,7 hPa 0,0 mm 3,0 km/h (1 Bft) N 355 ° 0 min 0,000 mm 0,0 UV-I 0 W/m² -10,7 °C 4,8 km/h (1 Bft)
06.01.2017 03:56 -9,2 °C -9,2 °C 89 % 1036,8 hPa 0,0 mm 2,5 km/h (1 Bft) N 355 ° 0 min 0,000 mm 0,0 UV-I 0 W/m² -10,7 °C 3,2 km/h (1 Bft)
06.01.2017 03:57 -9,2 °C -9,2 °C 89 % 1036,8 hPa 0,0 mm 1,5 km/h (1 Bft) N 355 ° 0 min 0,000 mm 0,0 UV-I 0 W/m² -10,7 °C 3,2 km/h (1 Bft)
06.01.2017 03:58 -9,2 °C -9,2 °C 89 % 1036,8 hPa 0,0 mm 0,8 km/h (0 Bft) N 355 ° 0 min 0,000 mm 0,0 UV-I 0 W/m² -10,7 °C 1,6 km/h (1 Bft)
06.01.2017 03:59 -9,2 °C -9,2 °C 89 % 1036,8 hPa 0,0 mm 0,6 km/h (0 Bft) N 355 ° 0 min 0,000 mm 0,0 UV-I 0 W/m² -10,7 °C 1,6 km/h (1 Bft)
06.01.2017 04:00 -9,2 °C -9,2 °C 89 % 1036,8 hPa 0,0 mm 0,5 km/h (0 Bft) N 355 ° 0 min 0,000 mm 0,0 UV-I 0 W/m² -10,7 °C 1,6 km/h (1 Bft)
06.01.2017 04:01 -9,3 °C -9,2 °C 89 % 1036,8 hPa 0,0 mm 0,1 km/h (0 Bft) N 355 ° 0 min 0,000 mm 0,0 UV-I 0 W/m² -10,8 °C 1,6 km/h (1 Bft)
06.01.2017 04:02 -9,3 °C -9,3 °C 89 % 1036,8 hPa 0,0 mm 0,1 km/h (0 Bft) N 355 ° 0 min 0,000 mm 0,0 UV-I 0 W/m² -10,8 °C 1,6 km/h (1 Bft)
06.01.2017 04:03 -9,3 °C -9,3 °C 89 % 1036,8 hPa 0,0 mm 0,0 km/h (0 Bft) N 355 ° 0 min 0,000 mm 0,0 UV-I 0 W/m² -10,8 °C 0,0 km/h (0 Bft)
06.01.2017 04:04 -9,3 °C -9,3 °C 89 % 1036,8 hPa 0,0 mm 0,0 km/h (0 Bft) N 355 ° 0 min 0,000 mm 0,0 UV-I 0 W/m² -10,8 °C 0,0 km/h (0 Bft)
06.01.2017 04:05 -9,3 °C -9,3 °C 89 % 1036,7 hPa 0,0 mm 0,0 km/h (0 Bft) N 355 ° 0 min 0,000 mm 0,0 UV-I 0 W/m² -10,8 °C 0,0 km/h (0 Bft)
06.01.2017 04:06 -9,3 °C -9,3 °C 89 % 1036,8 hPa 0,0 mm 0,0 km/h (0 Bft) N 355 ° 0 min 0,000 mm 0,0 UV-I 0 W/m² -10,8 °C 0,0 km/h (0 Bft)
06.01.2017 04:07 -9,3 °C -9,3 °C 89 % 1036,8 hPa 0,0 mm 0,0 km/h (0 Bft) N 355 ° 0 min 0,000 mm 0,0 UV-I 0 W/m² -10,8 °C 0,0 km/h (0 Bft)
06.01.2017 04:08 -9,3 °C -9,3 °C 89 % 1036,8 hPa 0,0 mm 0,0 km/h (0 Bft) N 355 ° 0 min 0,000 mm 0,0 UV-I 0 W/m² -10,8 °C 0,0 km/h (0 Bft)
06.01.2017 04:09 -9,3 °C -9,3 °C 89 % 1036,8 hPa 0,0 mm 0,1 km/h (0 Bft) N 355 ° 0 min 0,000 mm 0,0 UV-I 0 W/m² -10,8 °C 1,6 km/h (1 Bft)
06.01.2017 04:10 -9,3 °C -9,3 °C 89 % 1036,8 hPa 0,0 mm 0,2 km/h (0 Bft) N 355 ° 0 min 0,000 mm 0,0 UV-I 0 W/m² -10,8 °C 1,6 km/h (1 Bft)
06.01.2017 04:11 -9,3 °C -9,3 °C 89 % 1036,9 hPa 0,0 mm 0,6 km/h (0 Bft) N 355 ° 0 min 0,000 mm 0,0 UV-I 0 W/m² -10,8 °C 1,6 km/h (1 Bft)
06.01.2017 04:12 -9,3 °C -9,3 °C 89 % 1036,8 hPa 0,0 mm 0,9 km/h (0 Bft) N 355 ° 0 min 0,000 mm 0,0 UV-I 0 W/m² -10,8 °C 1,6 km/h (1 Bft)
06.01.2017 04:13 -9,3 °C -9,3 °C 89 % 1036,8 hPa 0,0 mm 1,3 km/h (1 Bft) N 355 ° 0 min 0,000 mm 0,0 UV-I 0 W/m² -10,8 °C 1,6 km/h (1 Bft)
06.01.2017 04:14 -9,3 °C -9,3 °C 89 % 1036,9 hPa 0,0 mm 1,0 km/h (0 Bft) N 355 ° 0 min 0,000 mm 0,0 UV-I 0 W/m² -10,8 °C 1,6 km/h (1 Bft)
06.01.2017 04:15 -9,4 °C -9,3 °C 89 % 1036,9 hPa 0,0 mm 0,1 km/h (0 Bft) N 355 ° 0 min 0,000 mm 0,0 UV-I 0 W/m² -10,9 °C 1,6 km/h (1 Bft)
06.01.2017 04:16 -9,4 °C -9,3 °C 89 % 1036,8 hPa 0,0 mm 0,1 km/h (0 Bft) N 355 ° 0 min 0,000 mm 0,0 UV-I 0 W/m² -10,9 °C 1,6 km/h (1 Bft)
06.01.2017 04:17 -9,4 °C -9,3 °C 89 % 1036,8 hPa 0,0 mm 0,1 km/h (0 Bft) N 355 ° 0 min 0,000 mm 0,0 UV-I 0 W/m² -10,9 °C 1,6 km/h (1 Bft)
06.01.2017 04:18 -9,4 °C -9,3 °C 89 % 1036,8 hPa 0,0 mm 0,0 km/h (0 Bft) N 355 ° 0 min 0,000 mm 0,0 UV-I 0 W/m² -10,9 °C 0,0 km/h (0 Bft)
06.01.2017 04:19 -9,4 °C -9,4 °C 89 % 1036,9 hPa 0,0 mm 0,1 km/h (0 Bft) N 355 ° 0 min 0,000 mm 0,0 UV-I 0 W/m² -10,9 °C 1,6 km/h (1 Bft)
06.01.2017 04:20 -9,4 °C -9,4 °C 89 % 1036,8 hPa 0,0 mm 0,3 km/h (0 Bft) N 355 ° 0 min 0,000 mm 0,0 UV-I 0 W/m² -10,9 °C 1,6 km/h (1 Bft)
06.01.2017 04:21 -9,4 °C -9,4 °C 89 % 1036,8 hPa 0,0 mm 0,0 km/h (0 Bft) N 355 ° 0 min 0,000 mm 0,0 UV-I 0 W/m² -10,9 °C 0,0 km/h (0 Bft)
06.01.2017 04:22 -9,4 °C -9,4 °C 89 % 1036,8 hPa 0,0 mm 0,0 km/h (0 Bft) N 355 ° 0 min 0,000 mm 0,0 UV-I 0 W/m² -10,9 °C 0,0 km/h (0 Bft)
06.01.2017 04:23 -9,4 °C -9,4 °C 89 % 1036,8 hPa 0,0 mm 0,0 km/h (0 Bft) N 355 ° 0 min 0,000 mm 0,0 UV-I 0 W/m² -10,9 °C 0,0 km/h (0 Bft)
06.01.2017 04:24 -9,4 °C -9,4 °C 89 % 1036,9 hPa 0,0 mm 0,0 km/h (0 Bft) N 355 ° 0 min 0,000 mm 0,0 UV-I 0 W/m² -10,9 °C 0,0 km/h (0 Bft)
06.01.2017 04:25 -9,4 °C -9,4 °C 89 % 1036,9 hPa 0,0 mm 0,0 km/h (0 Bft) N 355 ° 0 min 0,000 mm 0,0 UV-I 0 W/m² -10,9 °C 0,0 km/h (0 Bft)
06.01.2017 04:26 -9,4 °C -9,4 °C 89 % 1036,9 hPa 0,0 mm 0,0 km/h (0 Bft) N 355 ° 0 min 0,000 mm 0,0 UV-I 0 W/m² -10,9 °C 0,0 km/h (0 Bft)
06.01.2017 04:27 -9,4 °C -9,4 °C 89 % 1036,9 hPa 0,0 mm 0,0 km/h (0 Bft) N 355 ° 0 min 0,000 mm 0,0 UV-I 0 W/m² -10,9 °C 0,0 km/h (0 Bft)
06.01.2017 04:28 -9,5 °C -9,4 °C 89 % 1036,9 hPa 0,0 mm 0,0 km/h (0 Bft) N 355 ° 0 min 0,000 mm 0,0 UV-I 0 W/m² -11,0 °C 0,0 km/h (0 Bft)
06.01.2017 04:29 -9,4 °C -9,4 °C 89 % 1036,9 hPa 0,0 mm 0,0 km/h (0 Bft) N 355 ° 0 min 0,000 mm 0,0 UV-I 0 W/m² -10,9 °C 0,0 km/h (0 Bft)
06.01.2017 04:30 -9,5 °C -9,4 °C 89 % 1036,9 hPa 0,0 mm 0,0 km/h (0 Bft) N 355 ° 0 min 0,000 mm 0,0 UV-I 0 W/m² -11,0 °C 0,0 km/h (0 Bft)
06.01.2017 04:31 -9,5 °C -9,5 °C 89 % 1036,9 hPa 0,0 mm 0,0 km/h (0 Bft) N 355 ° 0 min 0,000 mm 0,0 UV-I 0 W/m² -11,0 °C 0,0 km/h (0 Bft)
06.01.2017 04:32 -9,6 °C -9,5 °C 89 % 1036,9 hPa 0,0 mm 0,0 km/h (0 Bft) N 355 ° 0 min 0,000 mm 0,0 UV-I 0 W/m² -11,1 °C 0,0 km/h (0 Bft)
06.01.2017 04:33 -9,6 °C -9,6 °C 89 % 1037,0 hPa 0,0 mm 0,0 km/h (0 Bft) N 355 ° 0 min 0,000 mm 0,0 UV-I 0 W/m² -11,1 °C 0,0 km/h (0 Bft)
06.01.2017 04:34 -9,6 °C -9,6 °C 89 % 1037,0 hPa 0,0 mm 0,0 km/h (0 Bft) N 355 ° 0 min 0,000 mm 0,0 UV-I 0 W/m² -11,1 °C 0,0 km/h (0 Bft)
06.01.2017 04:35 -9,6 °C -9,6 °C 89 % 1037,0 hPa 0,0 mm 0,0 km/h (0 Bft) N 355 ° 0 min 0,000 mm 0,0 UV-I 0 W/m² -11,1 °C 0,0 km/h (0 Bft)
06.01.2017 04:36 -9,6 °C -9,6 °C 89 % 1036,9 hPa 0,0 mm 0,0 km/h (0 Bft) N 355 ° 0 min 0,000 mm 0,0 UV-I 0 W/m² -11,1 °C 0,0 km/h (0 Bft)
06.01.2017 04:37 -9,6 °C -9,6 °C 89 % 1036,9 hPa 0,0 mm 0,0 km/h (0 Bft) N 355 ° 0 min 0,000 mm 0,0 UV-I 0 W/m² -11,1 °C 0,0 km/h (0 Bft)
06.01.2017 04:38 -9,6 °C -9,6 °C 89 % 1037,0 hPa 0,0 mm 0,0 km/h (0 Bft) N 355 ° 0 min 0,000 mm 0,0 UV-I 0 W/m² -11,1 °C 0,0 km/h (0 Bft)
06.01.2017 04:39 -9,6 °C -9,6 °C 90 % 1036,9 hPa 0,0 mm 0,0 km/h (0 Bft) N 355 ° 0 min 0,000 mm 0,0 UV-I 0 W/m² -10,9 °C 0,0 km/h (0 Bft)
06.01.2017 04:40 -9,6 °C -9,6 °C 90 % 1037,0 hPa 0,0 mm 0,0 km/h (0 Bft) N 355 ° 0 min 0,000 mm 0,0 UV-I 0 W/m² -10,9 °C 0,0 km/h (0 Bft)
06.01.2017 04:41 -9,6 °C -9,6 °C 90 % 1036,9 hPa 0,0 mm 0,0 km/h (0 Bft) N 355 ° 0 min 0,000 mm 0,0 UV-I 0 W/m² -10,9 °C 0,0 km/h (0 Bft)
06.01.2017 04:42 -9,7 °C -9,6 °C 90 % 1036,9 hPa 0,0 mm 0,0 km/h (0 Bft) N 355 ° 0 min 0,000 mm 0,0 UV-I 0 W/m² -11,0 °C 0,0 km/h (0 Bft)
06.01.2017 04:43 -9,6 °C -9,6 °C 90 % 1036,9 hPa 0,0 mm 0,0 km/h (0 Bft) N 355 ° 0 min 0,000 mm 0,0 UV-I 0 W/m² -10,9 °C 0,0 km/h (0 Bft)
06.01.2017 04:44 -9,6 °C -9,6 °C 90 % 1036,9 hPa 0,0 mm 0,0 km/h (0 Bft) N 355 ° 0 min 0,000 mm 0,0 UV-I 0 W/m² -10,9 °C 0,0 km/h (0 Bft)
06.01.2017 04:45 -9,6 °C -9,6 °C 90 % 1036,9 hPa 0,0 mm 0,0 km/h (0 Bft) N 355 ° 0 min 0,000 mm 0,0 UV-I 0 W/m² -10,9 °C 0,0 km/h (0 Bft)
06.01.2017 04:46 -9,6 °C -9,6 °C 90 % 1036,9 hPa 0,0 mm 0,0 km/h (0 Bft) N 355 ° 0 min 0,000 mm 0,0 UV-I 0 W/m² -10,9 °C 0,0 km/h (0 Bft)
06.01.2017 04:47 -9,7 °C -9,6 °C 90 % 1036,9 hPa 0,0 mm 0,0 km/h (0 Bft) N 355 ° 0 min 0,000 mm 0,0 UV-I 0 W/m² -11,0 °C 0,0 km/h (0 Bft)
06.01.2017 04:48 -9,7 °C -9,6 °C 90 % 1037,0 hPa 0,0 mm 0,0 km/h (0 Bft) N 355 ° 0 min 0,000 mm 0,0 UV-I 0 W/m² -11,0 °C 0,0 km/h (0 Bft)
06.01.2017 04:49 -9,7 °C -9,6 °C 90 % 1037,0 hPa 0,0 mm 0,0 km/h (0 Bft) N 355 ° 0 min 0,000 mm 0,0 UV-I 0 W/m² -11,0 °C 0,0 km/h (0 Bft)
06.01.2017 04:50 -9,7 °C -9,7 °C 90 % 1037,0 hPa 0,0 mm 0,0 km/h (0 Bft) N 355 ° 0 min 0,000 mm 0,0 UV-I 0 W/m² -11,0 °C 0,0 km/h (0 Bft)
06.01.2017 04:51 -9,7 °C -9,7 °C 90 % 1037,0 hPa 0,0 mm 0,0 km/h (0 Bft) N 355 ° 0 min 0,000 mm 0,0 UV-I 0 W/m² -11,0 °C 0,0 km/h (0 Bft)
06.01.2017 04:52 -9,7 °C -9,7 °C 90 % 1037,0 hPa 0,0 mm 0,0 km/h (0 Bft) N 355 ° 0 min 0,000 mm 0,0 UV-I 0 W/m² -11,0 °C 0,0 km/h (0 Bft)
06.01.2017 04:53 -9,7 °C -9,7 °C 90 % 1037,0 hPa 0,0 mm 0,1 km/h (0 Bft) N 355 ° 0 min 0,000 mm 0,0 UV-I 0 W/m² -11,0 °C 1,6 km/h (1 Bft)
06.01.2017 04:54 -9,7 °C -9,7 °C 90 % 1037,0 hPa 0,0 mm 0,0 km/h (0 Bft) N 355 ° 0 min 0,000 mm 0,0 UV-I 0 W/m² -11,0 °C 0,0 km/h (0 Bft)
06.01.2017 04:55 -9,7 °C -9,7 °C 90 % 1037,0 hPa 0,0 mm 0,0 km/h (0 Bft) N 355 ° 0 min 0,000 mm 0,0 UV-I 0 W/m² -11,0 °C 0,0 km/h (0 Bft)
06.01.2017 04:56 -9,7 °C -9,7 °C 90 % 1037,0 hPa 0,0 mm 0,0 km/h (0 Bft) N 355 ° 0 min 0,000 mm 0,0 UV-I 0 W/m² -11,0 °C 0,0 km/h (0 Bft)
06.01.2017 04:57 -9,7 °C -9,7 °C 90 % 1037,1 hPa 0,0 mm 0,0 km/h (0 Bft) N 355 ° 0 min 0,000 mm 0,0 UV-I 0 W/m² -11,0 °C 0,0 km/h (0 Bft)
06.01.2017 04:58 -9,7 °C -9,7 °C 90 % 1037,1 hPa 0,0 mm 0,0 km/h (0 Bft) N 355 ° 0 min 0,000 mm 0,0 UV-I 0 W/m² -11,0 °C 0,0 km/h (0 Bft)
06.01.2017 04:59 -9,7 °C -9,7 °C 90 % 1037,1 hPa 0,0 mm 0,0 km/h (0 Bft) N 355 ° 0 min 0,000 mm 0,0 UV-I 0 W/m² -11,0 °C 0,0 km/h (0 Bft)
06.01.2017 05:00 -9,7 °C -9,7 °C 90 % 1037,1 hPa 0,0 mm 0,0 km/h (0 Bft) N 355 ° 0 min 0,000 mm 0,0 UV-I 0 W/m² -11,0 °C 0,0 km/h (0 Bft)
06.01.2017 05:01 -9,7 °C -9,7 °C 90 % 1037,1 hPa 0,0 mm 0,0 km/h (0 Bft) N 355 ° 0 min 0,000 mm 0,0 UV-I 0 W/m² -11,0 °C 0,0 km/h (0 Bft)
06.01.2017 05:02 -9,7 °C -9,7 °C 90 % 1037,1 hPa 0,0 mm 0,0 km/h (0 Bft) N 355 ° 0 min 0,000 mm 0,0 UV-I 0 W/m² -11,0 °C 0,0 km/h (0 Bft)
06.01.2017 05:03 -9,8 °C -9,7 °C 90 % 1037,2 hPa 0,0 mm 0,0 km/h (0 Bft) N 355 ° 0 min 0,000 mm 0,0 UV-I 0 W/m² -11,1 °C 0,0 km/h (0 Bft)
06.01.2017 05:04 -9,8 °C -9,7 °C 90 % 1037,2 hPa 0,0 mm 0,0 km/h (0 Bft) N 355 ° 0 min 0,000 mm 0,0 UV-I 0 W/m² -11,1 °C 0,0 km/h (0 Bft)
06.01.2017 05:05 -9,8 °C -9,8 °C 90 % 1037,1 hPa 0,0 mm 0,0 km/h (0 Bft) N 355 ° 0 min 0,000 mm 0,0 UV-I 0 W/m² -11,1 °C 0,0 km/h (0 Bft)
06.01.2017 05:06 -9,8 °C -9,8 °C 90 % 1037,1 hPa 0,0 mm 0,0 km/h (0 Bft) N 355 ° 0 min 0,000 mm 0,0 UV-I 0 W/m² -11,1 °C 0,0 km/h (0 Bft)
06.01.2017 05:07 -9,8 °C -9,8 °C 90 % 1037,2 hPa 0,0 mm 0,0 km/h (0 Bft) N 355 ° 0 min 0,000 mm 0,0 UV-I 0 W/m² -11,1 °C 0,0 km/h (0 Bft)
06.01.2017 05:08 -9,8 °C -9,8 °C 90 % 1037,1 hPa 0,0 mm 1,5 km/h (1 Bft) N-NO 12 ° 0 min 0,000 mm 0,0 UV-I 0 W/m² -11,1 °C 3,2 km/h (1 Bft)
06.01.2017 05:09 -9,8 °C -9,8 °C 90 % 1037,2 hPa 0,0 mm 0,5 km/h (0 Bft) N-NO 12 ° 0 min 0,000 mm 0,0 UV-I 0 W/m² -11,1 °C 1,6 km/h (1 Bft)
06.01.2017 05:10 -9,8 °C -9,8 °C 90 % 1037,1 hPa 0,0 mm 0,3 km/h (0 Bft) N-NO 12 ° 0 min 0,000 mm 0,0 UV-I 0 W/m² -11,1 °C 1,6 km/h (1 Bft)
06.01.2017 05:11 -9,8 °C -9,8 °C 90 % 1037,2 hPa 0,0 mm 0,0 km/h (0 Bft) N-NO 12 ° 0 min 0,000 mm 0,0 UV-I 0 W/m² -11,1 °C 0,0 km/h (0 Bft)
06.01.2017 05:12 -9,8 °C -9,8 °C 90 % 1037,2 hPa 0,0 mm 0,1 km/h (0 Bft) N-NO 12 ° 0 min 0,000 mm 0,0 UV-I 0 W/m² -11,1 °C 1,6 km/h (1 Bft)
06.01.2017 05:13 -9,8 °C -9,8 °C 90 % 1037,2 hPa 0,0 mm 0,0 km/h (0 Bft) N-NO 12 ° 0 min 0,000 mm 0,0 UV-I 0 W/m² -11,1 °C 0,0 km/h (0 Bft)
06.01.2017 05:14 -9,8 °C -9,8 °C 90 % 1037,2 hPa 0,0 mm 0,5 km/h (0 Bft) N-NO 12 ° 0 min 0,000 mm 0,0 UV-I 0 W/m² -11,1 °C 1,6 km/h (1 Bft)
06.01.2017 05:15 -9,9 °C -9,8 °C 90 % 1037,2 hPa 0,0 mm 0,5 km/h (0 Bft) N-NO 12 ° 0 min 0,000 mm 0,0 UV-I 0 W/m² -11,2 °C 1,6 km/h (1 Bft)
06.01.2017 05:16 -9,9 °C -9,8 °C 90 % 1037,2 hPa 0,0 mm 0,6 km/h (0 Bft) N-NO 12 ° 0 min 0,000 mm 0,0 UV-I 0 W/m² -11,2 °C 1,6 km/h (1 Bft)
06.01.2017 05:17 -9,9 °C -9,9 °C 90 % 1037,2 hPa 0,0 mm 0,3 km/h (0 Bft) N-NO 12 ° 0 min 0,000 mm 0,0 UV-I 0 W/m² -11,2 °C 1,6 km/h (1 Bft)
06.01.2017 05:18 -9,9 °C -9,8 °C 90 % 1037,2 hPa 0,0 mm 0,1 km/h (0 Bft) N-NO 12 ° 0 min 0,000 mm 0,0 UV-I 0 W/m² -11,2 °C 1,6 km/h (1 Bft)
06.01.2017 05:19 -9,9 °C -9,9 °C 90 % 1037,2 hPa 0,0 mm 0,1 km/h (0 Bft) N-NO 12 ° 0 min 0,000 mm 0,0 UV-I 0 W/m² -11,2 °C 1,6 km/h (1 Bft)
06.01.2017 05:20 -9,9 °C -9,9 °C 90 % 1037,2 hPa 0,0 mm 1,3 km/h (1 Bft) N-NO 12 ° 0 min 0,000 mm 0,0 UV-I 0 W/m² -11,2 °C 1,6 km/h (1 Bft)
06.01.2017 05:21 -9,9 °C -9,9 °C 90 % 1037,2 hPa 0,0 mm 0,1 km/h (0 Bft) N-NO 12 ° 0 min 0,000 mm 0,0 UV-I 0 W/m² -11,2 °C 1,6 km/h (1 Bft)
06.01.2017 05:22 -9,9 °C -9,9 °C 90 % 1037,3 hPa 0,0 mm 0,0 km/h (0 Bft) N-NO 12 ° 0 min 0,000 mm 0,0 UV-I 0 W/m² -11,2 °C 0,0 km/h (0 Bft)
06.01.2017 05:23 -9,9 °C -9,9 °C 90 % 1037,3 hPa 0,0 mm 0,3 km/h (0 Bft) N-NO 12 ° 0 min 0,000 mm 0,0 UV-I 0 W/m² -11,2 °C 1,6 km/h (1 Bft)
06.01.2017 05:24 -9,9 °C -9,9 °C 90 % 1037,3 hPa 0,0 mm 0,2 km/h (0 Bft) N-NO 12 ° 0 min 0,000 mm 0,0 UV-I 0 W/m² -11,2 °C 1,6 km/h (1 Bft)
06.01.2017 05:25 -9,9 °C -9,9 °C 90 % 1037,2 hPa 0,0 mm 0,0 km/h (0 Bft) N-NO 12 ° 0 min 0,000 mm 0,0 UV-I 0 W/m² -11,2 °C 0,0 km/h (0 Bft)
06.01.2017 05:26 -9,9 °C -9,9 °C 90 % 1037,2 hPa 0,0 mm 0,0 km/h (0 Bft) N-NO 12 ° 0 min 0,000 mm 0,0 UV-I 0 W/m² -11,2 °C 0,0 km/h (0 Bft)
06.01.2017 05:27 -9,9 °C -9,9 °C 90 % 1037,3 hPa 0,0 mm 0,0 km/h (0 Bft) N-NO 12 ° 0 min 0,000 mm 0,0 UV-I 0 W/m² -11,2 °C 0,0 km/h (0 Bft)
06.01.2017 05:28 -9,9 °C -9,9 °C 90 % 1037,2 hPa 0,0 mm 0,1 km/h (0 Bft) N-NO 12 ° 0 min 0,000 mm 0,0 UV-I 0 W/m² -11,2 °C 1,6 km/h (1 Bft)
06.01.2017 05:29 -9,9 °C -9,9 °C 90 % 1037,2 hPa 0,0 mm 0,2 km/h (0 Bft) N-NO 12 ° 0 min 0,000 mm 0,0 UV-I 0 W/m² -11,2 °C 1,6 km/h (1 Bft)
06.01.2017 05:30 -9,9 °C -9,9 °C 90 % 1037,3 hPa 0,0 mm 0,1 km/h (0 Bft) N-NO 12 ° 0 min 0,000 mm 0,0 UV-I 0 W/m² -11,2 °C 1,6 km/h (1 Bft)
06.01.2017 05:31 -9,9 °C -9,9 °C 90 % 1037,3 hPa 0,0 mm 0,0 km/h (0 Bft) N-NO 12 ° 0 min 0,000 mm 0,0 UV-I 0 W/m² -11,2 °C 0,0 km/h (0 Bft)
06.01.2017 05:32 -9,9 °C -9,9 °C 90 % 1037,2 hPa 0,0 mm 0,0 km/h (0 Bft) N-NO 12 ° 0 min 0,000 mm 0,0 UV-I 0 W/m² -11,2 °C 0,0 km/h (0 Bft)
06.01.2017 05:33 -9,9 °C -9,9 °C 90 % 1037,3 hPa 0,0 mm 0,0 km/h (0 Bft) N-NO 12 ° 0 min 0,000 mm 0,0 UV-I 0 W/m² -11,2 °C 0,0 km/h (0 Bft)
06.01.2017 05:34 -9,9 °C -9,9 °C 90 % 1037,2 hPa 0,0 mm 0,5 km/h (0 Bft) N-NO 12 ° 0 min 0,000 mm 0,0 UV-I 0 W/m² -11,2 °C 1,6 km/h (1 Bft)
06.01.2017 05:35 -9,9 °C -9,9 °C 90 % 1037,3 hPa 0,0 mm 2,0 km/h (1 Bft) N-NO 30 ° 0 min 0,000 mm 0,0 UV-I 0 W/m² -11,2 °C 3,2 km/h (1 Bft)
06.01.2017 05:36 -9,9 °C -9,9 °C 90 % 1037,3 hPa 0,0 mm 1,5 km/h (1 Bft) N-NO 30 ° 0 min 0,000 mm 0,0 UV-I 0 W/m² -11,2 °C 3,2 km/h (1 Bft)
06.01.2017 05:37 -9,9 °C -9,9 °C 90 % 1037,3 hPa 0,0 mm 1,0 km/h (0 Bft) N-NO 30 ° 0 min 0,000 mm 0,0 UV-I 0 W/m² -11,2 °C 1,6 km/h (1 Bft)
06.01.2017 05:38 -10,0 °C -9,9 °C 90 % 1037,3 hPa 0,0 mm 0,3 km/h (0 Bft) N-NO 30 ° 0 min 0,000 mm 0,0 UV-I 0 W/m² -11,3 °C 1,6 km/h (1 Bft)
06.01.2017 05:39 -9,9 °C -9,9 °C 90 % 1037,3 hPa 0,0 mm 1,2 km/h (1 Bft) N-NO 30 ° 0 min 0,000 mm 0,0 UV-I 0 W/m² -11,2 °C 3,2 km/h (1 Bft)
06.01.2017 05:40 -9,9 °C -9,9 °C 90 % 1037,4 hPa 0,0 mm 2,3 km/h (1 Bft) O-NO 71 ° 0 min 0,000 mm 0,0 UV-I 0 W/m² -11,2 °C 3,2 km/h (1 Bft)
06.01.2017 05:41 -10,0 °C -9,9 °C 90 % 1037,3 hPa 0,0 mm 3,5 km/h (1 Bft) O-NO 64 ° 0 min 0,000 mm 0,0 UV-I 0 W/m² -11,3 °C 4,8 km/h (1 Bft)
06.01.2017 05:42 -10,0 °C -9,9 °C 90 % 1037,4 hPa 0,0 mm 2,8 km/h (1 Bft) O-NO 65 ° 0 min 0,000 mm 0,0 UV-I 0 W/m² -11,3 °C 4,8 km/h (1 Bft)
06.01.2017 05:43 -10,0 °C -9,9 °C 90 % 1037,4 hPa 0,0 mm 4,2 km/h (1 Bft) NO 35 ° 0 min 0,000 mm 0,0 UV-I 0 W/m² -11,3 °C 4,8 km/h (1 Bft)
06.01.2017 05:44 -9,9 °C -9,9 °C 90 % 1037,4 hPa 0,0 mm 3,5 km/h (1 Bft) NO 48 ° 0 min 0,000 mm 0,0 UV-I 0 W/m² -11,2 °C 4,8 km/h (1 Bft)
06.01.2017 05:45 -9,9 °C -9,9 °C 90 % 1037,4 hPa 0,0 mm 2,4 km/h (1 Bft) NO 48 ° 0 min 0,000 mm 0,0 UV-I 0 W/m² -11,2 °C 4,8 km/h (1 Bft)
06.01.2017 05:46 -10,0 °C -9,9 °C 90 % 1037,4 hPa 0,0 mm 2,0 km/h (1 Bft) NO 48 ° 0 min 0,000 mm 0,0 UV-I 0 W/m² -11,3 °C 3,2 km/h (1 Bft)
06.01.2017 05:47 -10,0 °C -9,9 °C 90 % 1037,4 hPa 0,0 mm 1,1 km/h (1 Bft) NO 48 ° 0 min 0,000 mm 0,0 UV-I 0 W/m² -11,3 °C 3,2 km/h (1 Bft)
06.01.2017 05:48 -9,9 °C -9,9 °C 90 % 1037,4 hPa 0,0 mm 3,2 km/h (1 Bft) NO 42 ° 0 min 0,000 mm 0,0 UV-I 0 W/m² -11,2 °C 4,8 km/h (1 Bft)
06.01.2017 05:49 -10,0 °C -9,9 °C 90 % 1037,4 hPa 0,0 mm 3,5 km/h (1 Bft) N-NO 30 ° 0 min 0,000 mm 0,0 UV-I 0 W/m² -11,3 °C 4,8 km/h (1 Bft)
06.01.2017 05:50 -10,0 °C -9,9 °C 90 % 1037,4 hPa 0,0 mm 6,2 km/h (2 Bft) NO 42 ° 0 min 0,000 mm 0,0 UV-I 0 W/m² -11,3 °C 8,0 km/h (2 Bft)
06.01.2017 05:51 -9,9 °C -9,9 °C 90 % 1037,4 hPa 0,0 mm 4,0 km/h (1 Bft) NO 34 ° 0 min 0,000 mm 0,0 UV-I 0 W/m² -11,2 °C 6,4 km/h (2 Bft)
06.01.2017 05:52 -9,9 °C -9,9 °C 90 % 1037,4 hPa 0,0 mm 3,8 km/h (1 Bft) O-NO 61 ° 0 min 0,000 mm 0,0 UV-I 0 W/m² -11,2 °C 6,4 km/h (2 Bft)
06.01.2017 05:53 -10,0 °C -9,9 °C 90 % 1037,5 hPa 0,0 mm 4,8 km/h (1 Bft) O-NO 75 ° 0 min 0,000 mm 0,0 UV-I 0 W/m² -11,3 °C 6,4 km/h (2 Bft)
06.01.2017 05:54 -10,0 °C -10,0 °C 90 % 1037,5 hPa 0,0 mm 3,8 km/h (1 Bft) NO 56 ° 0 min 0,000 mm 0,0 UV-I 0 W/m² -11,3 °C 6,4 km/h (2 Bft)
06.01.2017 05:55 -10,0 °C -9,9 °C 90 % 1037,5 hPa 0,0 mm 3,8 km/h (1 Bft) O-NO 73 ° 0 min 0,000 mm 0,0 UV-I 0 W/m² -11,3 °C 6,4 km/h (2 Bft)
06.01.2017 05:56 -10,0 °C -10,0 °C 90 % 1037,5 hPa 0,0 mm 3,9 km/h (1 Bft) O 84 ° 0 min 0,000 mm 0,0 UV-I 0 W/m² -11,3 °C 6,4 km/h (2 Bft)
06.01.2017 05:57 -10,0 °C -10,0 °C 90 % 1037,5 hPa 0,0 mm 5,4 km/h (1 Bft) NO 41 ° 0 min 0,000 mm 0,0 UV-I 0 W/m² -11,3 °C 8,0 km/h (2 Bft)
06.01.2017 05:58 -10,0 °C -10,0 °C 90 % 1037,5 hPa 0,0 mm 6,2 km/h (2 Bft) O-NO 67 ° 0 min 0,000 mm 0,0 UV-I 0 W/m² -11,3 °C 11,3 km/h (2 Bft)
06.01.2017 05:59 -10,1 °C -10,0 °C 89 % 1037,5 hPa 0,0 mm 4,3 km/h (1 Bft) O-NO 58 ° 0 min 0,000 mm 0,0 UV-I 0 W/m² -11,6 °C 6,4 km/h (2 Bft)
06.01.2017 06:00 -10,0 °C -10,0 °C 89 % 1037,6 hPa 0,0 mm 5,2 km/h (1 Bft) O-NO 63 ° 0 min 0,000 mm 0,0 UV-I 0 W/m² -11,5 °C 8,0 km/h (2 Bft)
06.01.2017 06:01 -10,1 °C -10,0 °C 89 % 1037,6 hPa 0,0 mm 5,2 km/h (1 Bft) O-NO 65 ° 0 min 0,000 mm 0,0 UV-I 0 W/m² -11,6 °C 8,0 km/h (2 Bft)
06.01.2017 06:02 -10,1 °C -10,1 °C 89 % 1037,6 hPa 0,0 mm 5,0 km/h (1 Bft) O 98 ° 0 min 0,000 mm 0,0 UV-I 0 W/m² -11,6 °C 9,7 km/h (2 Bft)
06.01.2017 06:03 -10,1 °C -10,1 °C 88 % 1037,6 hPa 0,0 mm 4,4 km/h (1 Bft) O-NO 76 ° 0 min 0,000 mm 0,0 UV-I 0 W/m² -11,7 °C 6,4 km/h (2 Bft)
06.01.2017 06:04 -10,1 °C -10,1 °C 88 % 1037,6 hPa 0,0 mm 4,0 km/h (1 Bft) O-NO 57 ° 0 min 0,000 mm 0,0 UV-I 0 W/m² -11,7 °C 4,8 km/h (1 Bft)
06.01.2017 06:05 -10,2 °C -10,1 °C 88 % 1037,6 hPa 0,0 mm 3,4 km/h (1 Bft) O 80 ° 0 min 0,000 mm 0,0 UV-I 0 W/m² -11,8 °C 6,4 km/h (2 Bft)
06.01.2017 06:06 -10,2 °C -10,1 °C 88 % 1037,6 hPa 0,0 mm 4,1 km/h (1 Bft) O-NO 77 ° 0 min 0,000 mm 0,0 UV-I 0 W/m² -11,8 °C 6,4 km/h (2 Bft)
06.01.2017 06:07 -10,2 °C -10,2 °C 88 % 1037,6 hPa 0,0 mm 3,6 km/h (1 Bft) O 80 ° 0 min 0,000 mm 0,0 UV-I 0 W/m² -11,8 °C 4,8 km/h (1 Bft)
06.01.2017 06:08 -10,2 °C -10,2 °C 87 % 1037,6 hPa 0,0 mm 4,3 km/h (1 Bft) O-NO 65 ° 0 min 0,000 mm 0,0 UV-I 0 W/m² -11,9 °C 6,4 km/h (2 Bft)
06.01.2017 06:09 -10,2 °C -10,2 °C 87 % 1037,6 hPa 0,0 mm 3,8 km/h (1 Bft) O 82 ° 0 min 0,000 mm 0,0 UV-I 0 W/m² -11,9 °C 6,4 km/h (2 Bft)
06.01.2017 06:10 -10,2 °C -10,2 °C 87 % 1037,7 hPa 0,0 mm 2,3 km/h (1 Bft) O-NO 60 ° 0 min 0,000 mm 0,0 UV-I 0 W/m² -11,9 °C 4,8 km/h (1 Bft)
06.01.2017 06:11 -10,2 °C -10,2 °C 87 % 1037,6 hPa 0,0 mm 4,5 km/h (1 Bft) O-NO 61 ° 0 min 0,000 mm 0,0 UV-I 0 W/m² -11,9 °C 6,4 km/h (2 Bft)
06.01.2017 06:12 -10,3 °C -10,2 °C 87 % 1037,6 hPa 0,0 mm 2,4 km/h (1 Bft) N-NO 28 ° 0 min 0,000 mm 0,0 UV-I 0 W/m² -12,0 °C 4,8 km/h (1 Bft)
06.01.2017 06:13 -10,3 °C -10,2 °C 87 % 1037,6 hPa 0,0 mm 2,8 km/h (1 Bft) NO 53 ° 0 min 0,000 mm 0,0 UV-I 0 W/m² -12,0 °C 4,8 km/h (1 Bft)
06.01.2017 06:14 -10,3 °C -10,3 °C 87 % 1037,6 hPa 0,0 mm 1,9 km/h (1 Bft) NO 53 ° 0 min 0,000 mm 0,0 UV-I 0 W/m² -12,0 °C 3,2 km/h (1 Bft)
06.01.2017 06:15 -10,3 °C -10,3 °C 87 % 1037,6 hPa 0,0 mm 2,1 km/h (1 Bft) NO 54 ° 0 min 0,000 mm 0,0 UV-I 0 W/m² -12,0 °C 4,8 km/h (1 Bft)
06.01.2017 06:16 -10,3 °C -10,3 °C 87 % 1037,7 hPa 0,0 mm 2,1 km/h (1 Bft) O-NO 67 ° 0 min 0,000 mm 0,0 UV-I 0 W/m² -12,0 °C 4,8 km/h (1 Bft)
06.01.2017 06:17 -10,3 °C -10,3 °C 87 % 1037,7 hPa 0,0 mm 2,2 km/h (1 Bft) O-NO 67 ° 0 min 0,000 mm 0,0 UV-I 0 W/m² -12,0 °C 3,2 km/h (1 Bft)
06.01.2017 06:18 -10,3 °C -10,3 °C 87 % 1037,7 hPa 0,0 mm 1,4 km/h (1 Bft) O-NO 67 ° 0 min 0,000 mm 0,0 UV-I 0 W/m² -12,0 °C 3,2 km/h (1 Bft)
06.01.2017 06:19 -10,3 °C -10,3 °C 87 % 1037,7 hPa 0,0 mm 1,9 km/h (1 Bft) O-NO 64 ° 0 min 0,000 mm 0,0 UV-I 0 W/m² -12,0 °C 3,2 km/h (1 Bft)
06.01.2017 06:20 -10,3 °C -10,3 °C 87 % 1037,8 hPa 0,0 mm 1,7 km/h (1 Bft) O-NO 64 ° 0 min 0,000 mm 0,0 UV-I 0 W/m² -12,0 °C 3,2 km/h (1 Bft)
06.01.2017 06:21 -10,4 °C -10,3 °C 87 % 1037,7 hPa 0,0 mm 3,4 km/h (1 Bft) O-NO 61 ° 0 min 0,000 mm 0,0 UV-I 0 W/m² -12,1 °C 4,8 km/h (1 Bft)
06.01.2017 06:22 -10,4 °C -10,4 °C 87 % 1037,7 hPa 0,0 mm 2,7 km/h (1 Bft) O-NO 61 ° 0 min 0,000 mm 0,0 UV-I 0 W/m² -12,1 °C 3,2 km/h (1 Bft)
06.01.2017 06:23 -10,4 °C -10,4 °C 87 % 1037,8 hPa 0,0 mm 3,2 km/h (1 Bft) O-NO 61 ° 0 min 0,000 mm 0,0 UV-I 0 W/m² -12,1 °C 4,8 km/h (1 Bft)
06.01.2017 06:24 -10,4 °C -10,4 °C 87 % 1037,8 hPa 0,0 mm 0,7 km/h (0 Bft) O-NO 61 ° 0 min 0,000 mm 0,0 UV-I 0 W/m² -12,1 °C 3,2 km/h (1 Bft)
06.01.2017 06:25 -10,4 °C -10,4 °C 87 % 1037,8 hPa 0,0 mm 3,4 km/h (1 Bft) O-NO 70 ° 0 min 0,000 mm 0,0 UV-I 0 W/m² -12,1 °C 4,8 km/h (1 Bft)
06.01.2017 06:26 -10,5 °C -10,4 °C 86 % 1037,8 hPa 0,0 mm 1,1 km/h (1 Bft) O-NO 70 ° 0 min 0,000 mm 0,0 UV-I 0 W/m² -12,4 °C 3,2 km/h (1 Bft)
06.01.2017 06:27 -10,5 °C -10,5 °C 86 % 1037,8 hPa 0,0 mm 2,7 km/h (1 Bft) O-NO 57 ° 0 min 0,000 mm 0,0 UV-I 0 W/m² -12,4 °C 4,8 km/h (1 Bft)
06.01.2017 06:28 -10,6 °C -10,5 °C 86 % 1037,8 hPa 0,0 mm 0,5 km/h (0 Bft) O-NO 57 ° 0 min 0,000 mm 0,0 UV-I 0 W/m² -12,5 °C 1,6 km/h (1 Bft)
06.01.2017 06:29 -10,6 °C -10,6 °C 87 % 1037,8 hPa 0,0 mm 1,5 km/h (1 Bft) O 82 ° 0 min 0,000 mm 0,0 UV-I 0 W/m² -12,3 °C 3,2 km/h (1 Bft)
06.01.2017 06:30 -10,6 °C -10,6 °C 87 % 1037,8 hPa 0,0 mm 0,9 km/h (0 Bft) O 82 ° 0 min 0,000 mm 0,0 UV-I 0 W/m² -12,3 °C 1,6 km/h (1 Bft)
06.01.2017 06:31 -10,6 °C -10,6 °C 87 % 1037,8 hPa 0,0 mm 1,5 km/h (1 Bft) O 82 ° 0 min 0,000 mm 0,0 UV-I 0 W/m² -12,3 °C 3,2 km/h (1 Bft)
06.01.2017 06:32 -10,6 °C -10,6 °C 87 % 1037,8 hPa 0,0 mm 1,4 km/h (1 Bft) O-NO 74 ° 0 min 0,000 mm 0,0 UV-I 0 W/m² -12,3 °C 3,2 km/h (1 Bft)
06.01.2017 06:33 -10,6 °C -10,6 °C 87 % 1037,9 hPa 0,0 mm 1,4 km/h (1 Bft) O-NO 63 ° 0 min 0,000 mm 0,0 UV-I 0 W/m² -12,3 °C 3,2 km/h (1 Bft)
06.01.2017 06:34 -10,7 °C -10,6 °C 87 % 1037,9 hPa 0,0 mm 0,9 km/h (0 Bft) O-NO 67 ° 0 min 0,000 mm 0,0 UV-I 0 W/m² -12,4 °C 1,6 km/h (1 Bft)
06.01.2017 06:35 -10,7 °C -10,6 °C 87 % 1037,8 hPa 0,0 mm 2,5 km/h (1 Bft) O-NO 61 ° 0 min 0,000 mm 0,0 UV-I 0 W/m² -12,4 °C 4,8 km/h (1 Bft)
06.01.2017 06:36 -10,7 °C -10,7 °C 87 % 1037,9 hPa 0,0 mm 1,1 km/h (1 Bft) O-NO 61 ° 0 min 0,000 mm 0,0 UV-I 0 W/m² -12,4 °C 3,2 km/h (1 Bft)
06.01.2017 06:37 -10,7 °C -10,7 °C 87 % 1037,9 hPa 0,0 mm 0,0 km/h (0 Bft) O-NO 61 ° 0 min 0,000 mm 0,0 UV-I 0 W/m² -12,4 °C 0,0 km/h (0 Bft)
06.01.2017 06:38 -10,7 °C -10,7 °C 87 % 1037,9 hPa 0,0 mm 0,0 km/h (0 Bft) O-NO 61 ° 0 min 0,000 mm 0,0 UV-I 0 W/m² -12,4 °C 0,0 km/h (0 Bft)
06.01.2017 06:39 -10,8 °C -10,7 °C 87 % 1037,9 hPa 0,0 mm 1,3 km/h (1 Bft) O-NO 62 ° 0 min 0,000 mm 0,0 UV-I 0 W/m² -12,5 °C 3,2 km/h (1 Bft)
06.01.2017 06:40 -10,8 °C -10,7 °C 87 % 1037,9 hPa 0,0 mm 0,0 km/h (0 Bft) O-NO 62 ° 0 min 0,000 mm 0,0 UV-I 0 W/m² -12,5 °C 0,0 km/h (0 Bft)
06.01.2017 06:41 -10,8 °C -10,8 °C 87 % 1038,0 hPa 0,0 mm 0,7 km/h (0 Bft) O-NO 62 ° 0 min 0,000 mm 0,0 UV-I 0 W/m² -12,5 °C 1,6 km/h (1 Bft)
06.01.2017 06:42 -10,8 °C -10,8 °C 87 % 1037,9 hPa 0,0 mm 0,4 km/h (0 Bft) O-NO 62 ° 0 min 0,000 mm 0,0 UV-I 0 W/m² -12,5 °C 1,6 km/h (1 Bft)
06.01.2017 06:43 -10,8 °C -10,8 °C 87 % 1037,9 hPa 0,0 mm 0,0 km/h (0 Bft) O-NO 62 ° 0 min 0,000 mm 0,0 UV-I 0 W/m² -12,5 °C 0,0 km/h (0 Bft)
06.01.2017 06:44 -10,8 °C -10,8 °C 87 % 1038,1 hPa 0,0 mm 0,1 km/h (0 Bft) O-NO 62 ° 0 min 0,000 mm 0,0 UV-I 0 W/m² -12,5 °C 1,6 km/h (1 Bft)
06.01.2017 06:45 -10,8 °C -10,8 °C 87 % 1038,0 hPa 0,0 mm 0,1 km/h (0 Bft) O-NO 62 ° 0 min 0,000 mm 0,0 UV-I 0 W/m² -12,5 °C 1,6 km/h (1 Bft)
06.01.2017 06:46 -10,9 °C -10,8 °C 87 % 1038,0 hPa 0,0 mm 0,0 km/h (0 Bft) O-NO 62 ° 0 min 0,000 mm 0,0 UV-I 0 W/m² -12,6 °C 0,0 km/h (0 Bft)
06.01.2017 06:47 -10,9 °C -10,9 °C 86 % 1038,0 hPa 0,0 mm 0,0 km/h (0 Bft) O-NO 62 ° 0 min 0,000 mm 0,0 UV-I 0 W/m² -12,8 °C 0,0 km/h (0 Bft)
06.01.2017 06:48 -11,0 °C -10,9 °C 86 % 1038,0 hPa 0,0 mm 0,0 km/h (0 Bft) O-NO 62 ° 0 min 0,000 mm 0,0 UV-I 0 W/m² -12,9 °C 0,0 km/h (0 Bft)
06.01.2017 06:49 -11,0 °C -11,0 °C 86 % 1038,1 hPa 0,0 mm 0,2 km/h (0 Bft) O-NO 62 ° 0 min 0,000 mm 0,0 UV-I 0 W/m² -12,9 °C 1,6 km/h (1 Bft)
06.01.2017 06:50 -11,1 °C -11,0 °C 86 % 1038,1 hPa 0,0 mm 0,0 km/h (0 Bft) O-NO 62 ° 0 min 0,000 mm 0,0 UV-I 0 W/m² -13,0 °C 0,0 km/h (0 Bft)
06.01.2017 06:51 -11,1 °C -11,1 °C 86 % 1038,1 hPa 0,0 mm 0,0 km/h (0 Bft) O-NO 62 ° 0 min 0,000 mm 0,0 UV-I 0 W/m² -13,0 °C 0,0 km/h (0 Bft)
06.01.2017 06:52 -11,1 °C -11,1 °C 86 % 1038,1 hPa 0,0 mm 0,0 km/h (0 Bft) O-NO 62 ° 0 min 0,000 mm 0,0 UV-I 0 W/m² -13,0 °C 0,0 km/h (0 Bft)
06.01.2017 06:53 -11,2 °C -11,1 °C 86 % 1038,1 hPa 0,0 mm 0,0 km/h (0 Bft) O-NO 62 ° 0 min 0,000 mm 0,0 UV-I 0 W/m² -13,1 °C 0,0 km/h (0 Bft)
06.01.2017 06:54 -11,2 °C -11,2 °C 86 % 1038,2 hPa 0,0 mm 0,0 km/h (0 Bft) O-NO 62 ° 0 min 0,000 mm 0,0 UV-I 0 W/m² -13,1 °C 0,0 km/h (0 Bft)
06.01.2017 06:55 -11,2 °C -11,2 °C 86 % 1038,2 hPa 0,0 mm 0,0 km/h (0 Bft) O-NO 62 ° 0 min 0,000 mm 0,0 UV-I 0 W/m² -13,1 °C 0,0 km/h (0 Bft)
06.01.2017 06:56 -11,2 °C -11,2 °C 86 % 1038,2 hPa 0,0 mm 0,0 km/h (0 Bft) O-NO 62 ° 0 min 0,000 mm 0,0 UV-I 0 W/m² -13,1 °C 0,0 km/h (0 Bft)
06.01.2017 06:57 -11,3 °C -11,2 °C 86 % 1038,2 hPa 0,0 mm 0,0 km/h (0 Bft) O-NO 62 ° 0 min 0,000 mm 0,0 UV-I 0 W/m² -13,2 °C 0,0 km/h (0 Bft)
06.01.2017 06:58 -11,3 °C -11,3 °C 85 % 1038,2 hPa 0,0 mm 0,0 km/h (0 Bft) O-NO 62 ° 0 min 0,000 mm 0,0 UV-I 0 W/m² -13,3 °C 0,0 km/h (0 Bft)
06.01.2017 06:59 -11,3 °C -11,3 °C 85 % 1038,2 hPa 0,0 mm 0,0 km/h (0 Bft) O-NO 62 ° 0 min 0,000 mm 0,0 UV-I 0 W/m² -13,3 °C 0,0 km/h (0 Bft)
06.01.2017 07:00 -11,4 °C -11,3 °C 85 % 1038,3 hPa 0,0 mm 0,0 km/h (0 Bft) O-NO 62 ° 0 min 0,000 mm 0,0 UV-I 0 W/m² -13,4 °C 0,0 km/h (0 Bft)
06.01.2017 07:01 -11,5 °C -11,4 °C 85 % 1038,3 hPa 0,0 mm 0,0 km/h (0 Bft) O-NO 62 ° 0 min 0,000 mm 0,0 UV-I 0 W/m² -13,5 °C 0,0 km/h (0 Bft)
06.01.2017 07:02 -11,5 °C -11,5 °C 85 % 1038,3 hPa 0,0 mm 0,0 km/h (0 Bft) O-NO 62 ° 0 min 0,000 mm 0,0 UV-I 0 W/m² -13,5 °C 0,0 km/h (0 Bft)
06.01.2017 07:03 -11,6 °C -11,5 °C 85 % 1038,3 hPa 0,0 mm 0,0 km/h (0 Bft) O-NO 62 ° 0 min 0,000 mm 0,0 UV-I 0 W/m² -13,6 °C 0,0 km/h (0 Bft)
06.01.2017 07:04 -11,6 °C -11,6 °C 85 % 1038,3 hPa 0,0 mm 0,0 km/h (0 Bft) O-NO 62 ° 0 min 0,000 mm 0,0 UV-I 0 W/m² -13,6 °C 0,0 km/h (0 Bft)
06.01.2017 07:05 -11,7 °C -11,6 °C 85 % 1038,3 hPa 0,0 mm 0,0 km/h (0 Bft) O-NO 62 ° 0 min 0,000 mm 0,0 UV-I 0 W/m² -13,7 °C 0,0 km/h (0 Bft)
06.01.2017 07:06 -11,7 °C -11,7 °C 85 % 1038,4 hPa 0,0 mm 0,0 km/h (0 Bft) O-NO 62 ° 0 min 0,000 mm 0,0 UV-I 0 W/m² -13,7 °C 0,0 km/h (0 Bft)
06.01.2017 07:07 -11,7 °C -11,7 °C 85 % 1038,4 hPa 0,0 mm 0,0 km/h (0 Bft) O-NO 62 ° 0 min 0,000 mm 0,0 UV-I 0 W/m² -13,7 °C 0,0 km/h (0 Bft)
06.01.2017 07:08 -11,8 °C -11,7 °C 85 % 1038,4 hPa 0,0 mm 0,0 km/h (0 Bft) O-NO 62 ° 0 min 0,000 mm 0,0 UV-I 0 W/m² -13,8 °C 0,0 km/h (0 Bft)
06.01.2017 07:09 -11,8 °C -11,8 °C 85 % 1038,4 hPa 0,0 mm 0,0 km/h (0 Bft) O-NO 62 ° 0 min 0,000 mm 0,0 UV-I 0 W/m² -13,8 °C 0,0 km/h (0 Bft)
06.01.2017 07:10 -11,8 °C -11,8 °C 85 % 1038,4 hPa 0,0 mm 0,0 km/h (0 Bft) O-NO 62 ° 0 min 0,000 mm 0,0 UV-I 0 W/m² -13,8 °C 0,0 km/h (0 Bft)
06.01.2017 07:11 -11,9 °C -11,8 °C 85 % 1038,5 hPa 0,0 mm 0,0 km/h (0 Bft) O-NO 62 ° 0 min 0,000 mm 0,0 UV-I 0 W/m² -13,9 °C 0,0 km/h (0 Bft)
06.01.2017 07:12 -11,9 °C -11,9 °C 85 % 1038,5 hPa 0,0 mm 0,0 km/h (0 Bft) O-NO 62 ° 0 min 0,000 mm 0,0 UV-I 0 W/m² -13,9 °C 0,0 km/h (0 Bft)
06.01.2017 07:13 -12,0 °C -11,9 °C 85 % 1038,5 hPa 0,0 mm 0,0 km/h (0 Bft) O-NO 62 ° 0 min 0,000 mm 0,0 UV-I 0 W/m² -14,0 °C 0,0 km/h (0 Bft)
06.01.2017 07:14 -12,1 °C -12,0 °C 85 % 1038,6 hPa 0,0 mm 0,0 km/h (0 Bft) O-NO 62 ° 0 min 0,000 mm 0,0 UV-I 0 W/m² -14,1 °C 0,0 km/h (0 Bft)
06.01.2017 07:15 -12,1 °C -12,1 °C 86 % 1038,5 hPa 0,0 mm 0,0 km/h (0 Bft) O-NO 62 ° 0 min 0,000 mm 0,0 UV-I 0 W/m² -13,9 °C 0,0 km/h (0 Bft)
06.01.2017 07:16 -12,2 °C -12,1 °C 86 % 1038,6 hPa 0,0 mm 0,0 km/h (0 Bft) O-NO 62 ° 0 min 0,000 mm 0,0 UV-I 0 W/m² -14,0 °C 0,0 km/h (0 Bft)
06.01.2017 07:17 -12,2 °C -12,2 °C 86 % 1038,6 hPa 0,0 mm 0,0 km/h (0 Bft) O-NO 62 ° 0 min 0,000 mm 0,0 UV-I 0 W/m² -14,0 °C 0,0 km/h (0 Bft)
06.01.2017 07:18 -12,2 °C -12,2 °C 86 % 1038,6 hPa 0,0 mm 0,0 km/h (0 Bft) O-NO 62 ° 0 min 0,000 mm 0,0 UV-I 0 W/m² -14,0 °C 0,0 km/h (0 Bft)
06.01.2017 07:19 -12,2 °C -12,2 °C 87 % 1038,6 hPa 0,0 mm 0,0 km/h (0 Bft) O-NO 62 ° 0 min 0,000 mm 0,0 UV-I 0 W/m² -13,9 °C 0,0 km/h (0 Bft)
06.01.2017 07:20 -12,3 °C -12,2 °C 87 % 1038,6 hPa 0,0 mm 0,0 km/h (0 Bft) O-NO 62 ° 0 min 0,000 mm 0,0 UV-I 0 W/m² -14,0 °C 0,0 km/h (0 Bft)
06.01.2017 07:21 -12,3 °C -12,2 °C 87 % 1038,6 hPa 0,0 mm 0,0 km/h (0 Bft) O-NO 62 ° 0 min 0,000 mm 0,0 UV-I 0 W/m² -14,0 °C 0,0 km/h (0 Bft)
06.01.2017 07:22 -12,3 °C -12,3 °C 87 % 1038,6 hPa 0,0 mm 0,0 km/h (0 Bft) O-NO 62 ° 0 min 0,000 mm 0,0 UV-I 0 W/m² -14,0 °C 0,0 km/h (0 Bft)
06.01.2017 07:23 -12,3 °C -12,3 °C 87 % 1038,6 hPa 0,0 mm 0,0 km/h (0 Bft) O-NO 62 ° 0 min 0,000 mm 0,0 UV-I 0 W/m² -14,0 °C 0,0 km/h (0 Bft)
06.01.2017 07:24 -12,3 °C -12,3 °C 87 % 1038,7 hPa 0,0 mm 0,0 km/h (0 Bft) O-NO 62 ° 0 min 0,000 mm 0,0 UV-I 0 W/m² -14,0 °C 0,0 km/h (0 Bft)
06.01.2017 07:25 -12,3 °C -12,3 °C 87 % 1038,7 hPa 0,0 mm 0,0 km/h (0 Bft) O-NO 62 ° 0 min 0,000 mm 0,0 UV-I 0 W/m² -14,0 °C 0,0 km/h (0 Bft)
06.01.2017 07:26 -12,3 °C -12,3 °C 87 % 1038,7 hPa 0,0 mm 0,0 km/h (0 Bft) O-NO 62 ° 0 min 0,000 mm 0,0 UV-I 0 W/m² -14,0 °C 0,0 km/h (0 Bft)
06.01.2017 07:27 -12,3 °C -12,3 °C 87 % 1038,7 hPa 0,0 mm 0,0 km/h (0 Bft) O-NO 62 ° 0 min 0,000 mm 0,0 UV-I 0 W/m² -14,0 °C 0,0 km/h (0 Bft)
06.01.2017 07:28 -12,3 °C -12,3 °C 87 % 1038,8 hPa 0,0 mm 0,0 km/h (0 Bft) O-NO 62 ° 0 min 0,000 mm 0,0 UV-I 0 W/m² -14,0 °C 0,0 km/h (0 Bft)
06.01.2017 07:29 -12,4 °C -12,3 °C 87 % 1038,8 hPa 0,0 mm 0,0 km/h (0 Bft) O-NO 62 ° 0 min 0,000 mm 0,0 UV-I 0 W/m² -14,1 °C 0,0 km/h (0 Bft)
06.01.2017 07:30 -12,4 °C -12,4 °C 87 % 1038,9 hPa 0,0 mm 0,0 km/h (0 Bft) O-NO 62 ° 0 min 0,000 mm 0,0 UV-I 0 W/m² -14,1 °C 0,0 km/h (0 Bft)
06.01.2017 07:31 -12,4 °C -12,4 °C 87 % 1038,9 hPa 0,0 mm 0,0 km/h (0 Bft) O-NO 62 ° 0 min 0,000 mm 0,0 UV-I 0 W/m² -14,1 °C 0,0 km/h (0 Bft)
06.01.2017 07:32 -12,4 °C -12,4 °C 87 % 1038,9 hPa 0,0 mm 0,0 km/h (0 Bft) O-NO 62 ° 0 min 0,000 mm 0,0 UV-I 0 W/m² -14,1 °C 0,0 km/h (0 Bft)
06.01.2017 07:33 -12,4 °C -12,4 °C 87 % 1038,9 hPa 0,0 mm 0,0 km/h (0 Bft) O-NO 62 ° 0 min 0,000 mm 0,0 UV-I 0 W/m² -14,1 °C 0,0 km/h (0 Bft)
06.01.2017 07:34 -12,4 °C -12,4 °C 87 % 1038,9 hPa 0,0 mm 0,0 km/h (0 Bft) O-NO 62 ° 0 min 0,000 mm 0,0 UV-I 0 W/m² -14,1 °C 0,0 km/h (0 Bft)
06.01.2017 07:35 -12,4 °C -12,4 °C 87 % 1038,9 hPa 0,0 mm 0,0 km/h (0 Bft) O-NO 62 ° 0 min 0,000 mm 0,0 UV-I 0 W/m² -14,1 °C 0,0 km/h (0 Bft)
06.01.2017 07:36 -12,4 °C -12,4 °C 87 % 1038,9 hPa 0,0 mm 0,0 km/h (0 Bft) O-NO 62 ° 0 min 0,000 mm 0,0 UV-I 0 W/m² -14,1 °C 0,0 km/h (0 Bft)
06.01.2017 07:37 -12,5 °C -12,4 °C 87 % 1038,9 hPa 0,0 mm 0,0 km/h (0 Bft) O-NO 62 ° 0 min 0,000 mm 0,0 UV-I 0 W/m² -14,2 °C 0,0 km/h (0 Bft)
06.01.2017 07:38 -12,5 °C -12,5 °C 87 % 1038,9 hPa 0,0 mm 0,0 km/h (0 Bft) O-NO 62 ° 0 min 0,000 mm 0,0 UV-I 0 W/m² -14,2 °C 0,0 km/h (0 Bft)
06.01.2017 07:39 -12,5 °C -12,5 °C 87 % 1038,9 hPa 0,0 mm 0,0 km/h (0 Bft) O-NO 62 ° 0 min 0,000 mm 0,0 UV-I 0 W/m² -14,2 °C 0,0 km/h (0 Bft)
06.01.2017 07:40 -12,6 °C -12,5 °C 87 % 1038,9 hPa 0,0 mm 0,0 km/h (0 Bft) O-NO 62 ° 0 min 0,000 mm 0,0 UV-I 0 W/m² -14,3 °C 0,0 km/h (0 Bft)
06.01.2017 07:41 -12,6 °C -12,5 °C 88 % 1038,9 hPa 0,0 mm 0,0 km/h (0 Bft) O-NO 62 ° 0 min 0,000 mm 0,0 UV-I 0 W/m² -14,2 °C 0,0 km/h (0 Bft)
06.01.2017 07:42 -12,6 °C -12,5 °C 88 % 1039,0 hPa 0,0 mm 0,0 km/h (0 Bft) O-NO 62 ° 0 min 0,000 mm 0,0 UV-I 0 W/m² -14,2 °C 0,0 km/h (0 Bft)
06.01.2017 07:43 -12,6 °C -12,6 °C 88 % 1039,0 hPa 0,0 mm 0,0 km/h (0 Bft) O-NO 62 ° 0 min 0,000 mm 0,0 UV-I 0 W/m² -14,2 °C 0,0 km/h (0 Bft)
06.01.2017 07:44 -12,6 °C -12,6 °C 88 % 1039,0 hPa 0,0 mm 0,0 km/h (0 Bft) O-NO 62 ° 0 min 0,000 mm 0,0 UV-I 0 W/m² -14,2 °C 0,0 km/h (0 Bft)
06.01.2017 07:45 -12,6 °C -12,6 °C 88 % 1038,9 hPa 0,0 mm 0,0 km/h (0 Bft) O-NO 62 ° 0 min 0,000 mm 0,0 UV-I 0 W/m² -14,2 °C 0,0 km/h (0 Bft)
06.01.2017 07:46 -12,6 °C -12,6 °C 88 % 1039,0 hPa 0,0 mm 0,0 km/h (0 Bft) O-NO 62 ° 0 min 0,000 mm 0,0 UV-I 0 W/m² -14,2 °C 0,0 km/h (0 Bft)
06.01.2017 07:47 -12,6 °C -12,6 °C 88 % 1039,0 hPa 0,0 mm 0,0 km/h (0 Bft) O-NO 62 ° 0 min 0,000 mm 0,0 UV-I 0 W/m² -14,2 °C 0,0 km/h (0 Bft)
06.01.2017 07:48 -12,6 °C -12,6 °C 88 % 1039,0 hPa 0,0 mm 0,0 km/h (0 Bft) O-NO 62 ° 0 min 0,000 mm 0,0 UV-I 0 W/m² -14,2 °C 0,0 km/h (0 Bft)
06.01.2017 07:49 -12,6 °C -12,6 °C 88 % 1039,0 hPa 0,0 mm 0,0 km/h (0 Bft) O-NO 62 ° 0 min 0,000 mm 0,0 UV-I 0 W/m² -14,2 °C 0,0 km/h (0 Bft)
06.01.2017 07:50 -12,6 °C -12,6 °C 88 % 1039,0 hPa 0,0 mm 0,0 km/h (0 Bft) O-NO 62 ° 0 min 0,000 mm 0,0 UV-I 0 W/m² -14,2 °C 0,0 km/h (0 Bft)
06.01.2017 07:51 -12,6 °C -12,6 °C 88 % 1039,0 hPa 0,0 mm 0,0 km/h (0 Bft) O-NO 62 ° 0 min 0,000 mm 0,0 UV-I 0 W/m² -14,2 °C 0,0 km/h (0 Bft)
06.01.2017 07:52 -12,6 °C -12,6 °C 88 % 1039,0 hPa 0,0 mm 0,0 km/h (0 Bft) O-NO 62 ° 0 min 0,000 mm 0,0 UV-I 0 W/m² -14,2 °C 0,0 km/h (0 Bft)
06.01.2017 07:53 -12,6 °C -12,6 °C 88 % 1039,0 hPa 0,0 mm 0,0 km/h (0 Bft) O-NO 62 ° 0 min 0,000 mm 0,0 UV-I 0 W/m² -14,2 °C 0,0 km/h (0 Bft)
06.01.2017 07:54 -12,6 °C -12,6 °C 88 % 1039,1 hPa 0,0 mm 0,0 km/h (0 Bft) O-NO 62 ° 0 min 0,000 mm 0,0 UV-I 0 W/m² -14,2 °C 0,0 km/h (0 Bft)
06.01.2017 07:55 -12,6 °C -12,6 °C 88 % 1039,1 hPa 0,0 mm 0,0 km/h (0 Bft) O-NO 62 ° 0 min 0,000 mm 0,0 UV-I 0 W/m² -14,2 °C 0,0 km/h (0 Bft)
06.01.2017 07:56 -12,6 °C -12,6 °C 88 % 1039,1 hPa 0,0 mm 0,0 km/h (0 Bft) O-NO 62 ° 0 min 0,000 mm 0,0 UV-I 0 W/m² -14,2 °C 0,0 km/h (0 Bft)
06.01.2017 07:57 -12,6 °C -12,6 °C 88 % 1039,1 hPa 0,0 mm 0,0 km/h (0 Bft) O-NO 62 ° 0 min 0,000 mm 0,0 UV-I 0 W/m² -14,2 °C 0,0 km/h (0 Bft)
06.01.2017 07:58 -12,6 °C -12,6 °C 88 % 1039,1 hPa 0,0 mm 0,0 km/h (0 Bft) O-NO 62 ° 0 min 0,000 mm 0,0 UV-I 0 W/m² -14,2 °C 0,0 km/h (0 Bft)
06.01.2017 07:59 -12,6 °C -12,6 °C 88 % 1039,1 hPa 0,0 mm 0,0 km/h (0 Bft) O-NO 62 ° 0 min 0,000 mm 0,0 UV-I 0 W/m² -14,2 °C 0,0 km/h (0 Bft)
06.01.2017 08:00 -12,6 °C -12,6 °C 88 % 1039,1 hPa 0,0 mm 0,0 km/h (0 Bft) O-NO 62 ° 0 min 0,000 mm 0,0 UV-I 0 W/m² -14,2 °C 0,0 km/h (0 Bft)
06.01.2017 08:01 -12,6 °C -12,6 °C 88 % 1039,2 hPa 0,0 mm 0,0 km/h (0 Bft) O-NO 62 ° 0 min 0,000 mm 0,0 UV-I 0 W/m² -14,2 °C 0,0 km/h (0 Bft)
06.01.2017 08:02 -12,7 °C -12,6 °C 88 % 1039,1 hPa 0,0 mm 0,0 km/h (0 Bft) O-NO 62 ° 0 min 0,000 mm 0,0 UV-I 0 W/m² -14,3 °C 0,0 km/h (0 Bft)
06.01.2017 08:03 -12,7 °C -12,7 °C 88 % 1039,1 hPa 0,0 mm 0,0 km/h (0 Bft) O-NO 62 ° 0 min 0,000 mm 0,0 UV-I 0 W/m² -14,3 °C 0,0 km/h (0 Bft)
06.01.2017 08:04 -12,7 °C -12,6 °C 89 % 1039,1 hPa 0,0 mm 0,0 km/h (0 Bft) O-NO 62 ° 0 min 0,000 mm 0,0 UV-I 0 W/m² -14,1 °C 0,0 km/h (0 Bft)
06.01.2017 08:05 -12,7 °C -12,6 °C 89 % 1039,1 hPa 0,0 mm 0,0 km/h (0 Bft) O-NO 62 ° 0 min 0,000 mm 0,0 UV-I 0 W/m² -14,1 °C 0,0 km/h (0 Bft)
06.01.2017 08:06 -12,7 °C -12,6 °C 89 % 1039,1 hPa 0,0 mm 0,0 km/h (0 Bft) O-NO 62 ° 0 min 0,000 mm 0,0 UV-I 0 W/m² -14,1 °C 0,0 km/h (0 Bft)
06.01.2017 08:07 -12,6 °C -12,6 °C 89 % 1039,1 hPa 0,0 mm 0,0 km/h (0 Bft) O-NO 62 ° 0 min 0,000 mm 0,0 UV-I 0 W/m² -14,0 °C 0,0 km/h (0 Bft)
06.01.2017 08:08 -12,6 °C -12,6 °C 89 % 1039,2 hPa 0,0 mm 0,0 km/h (0 Bft) O-NO 62 ° 0 min 0,000 mm 0,0 UV-I 0 W/m² -14,0 °C 0,0 km/h (0 Bft)
06.01.2017 08:09 -12,6 °C -12,6 °C 90 % 1039,2 hPa 0,0 mm 0,1 km/h (0 Bft) O-NO 62 ° 0 min 0,000 mm 0,0 UV-I 0 W/m² -13,9 °C 1,6 km/h (1 Bft)
06.01.2017 08:10 -12,6 °C -12,6 °C 90 % 1039,2 hPa 0,0 mm 0,0 km/h (0 Bft) O-NO 62 ° 0 min 0,000 mm 0,0 UV-I 0 W/m² -13,9 °C 0,0 km/h (0 Bft)
06.01.2017 08:11 -12,6 °C -12,6 °C 90 % 1039,3 hPa 0,0 mm 0,0 km/h (0 Bft) O-NO 62 ° 0 min 0,000 mm 0,0 UV-I 0 W/m² -13,9 °C 0,0 km/h (0 Bft)
06.01.2017 08:12 -12,6 °C -12,6 °C 90 % 1039,3 hPa 0,0 mm 0,0 km/h (0 Bft) O-NO 62 ° 0 min 0,000 mm 0,0 UV-I 0 W/m² -13,9 °C 0,0 km/h (0 Bft)
06.01.2017 08:13 -12,6 °C -12,6 °C 90 % 1039,3 hPa 0,0 mm 0,0 km/h (0 Bft) O-NO 62 ° 0 min 0,000 mm 0,0 UV-I 0 W/m² -13,9 °C 0,0 km/h (0 Bft)
06.01.2017 08:14 -12,6 °C -12,6 °C 90 % 1039,3 hPa 0,0 mm 0,0 km/h (0 Bft) O-NO 62 ° 0 min 0,000 mm 0,0 UV-I 0 W/m² -13,9 °C 0,0 km/h (0 Bft)
06.01.2017 08:15 -12,6 °C -12,6 °C 90 % 1039,3 hPa 0,0 mm 0,1 km/h (0 Bft) O-NO 62 ° 0 min 0,000 mm 0,0 UV-I 0 W/m² -13,9 °C 1,6 km/h (1 Bft)
06.01.2017 08:16 -12,5 °C -12,5 °C 90 % 1039,3 hPa 0,0 mm 0,0 km/h (0 Bft) O-NO 62 ° 0 min 0,000 mm 0,0 UV-I 0 W/m² -13,8 °C 0,0 km/h (0 Bft)
06.01.2017 08:17 -12,5 °C -12,5 °C 90 % 1039,3 hPa 0,0 mm 0,0 km/h (0 Bft) O-NO 62 ° 0 min 0,000 mm 0,0 UV-I 0 W/m² -13,8 °C 0,0 km/h (0 Bft)
06.01.2017 08:18 -12,5 °C -12,5 °C 90 % 1039,4 hPa 0,0 mm 0,0 km/h (0 Bft) O-NO 62 ° 0 min 0,000 mm 0,0 UV-I 0 W/m² -13,8 °C 0,0 km/h (0 Bft)
06.01.2017 08:19 -12,5 °C -12,5 °C 90 % 1039,4 hPa 0,0 mm 0,0 km/h (0 Bft) O-NO 62 ° 0 min 0,000 mm 0,0 UV-I 0 W/m² -13,8 °C 0,0 km/h (0 Bft)
06.01.2017 08:20 -12,5 °C -12,5 °C 90 % 1039,5 hPa 0,0 mm 0,0 km/h (0 Bft) O-NO 62 ° 0 min 0,000 mm 0,0 UV-I 0 W/m² -13,8 °C 0,0 km/h (0 Bft)
06.01.2017 08:21 -12,5 °C -12,5 °C 90 % 1039,5 hPa 0,0 mm 0,0 km/h (0 Bft) O-NO 62 ° 0 min 0,000 mm 0,0 UV-I 0 W/m² -13,8 °C 0,0 km/h (0 Bft)
06.01.2017 08:22 -12,4 °C -12,4 °C 90 % 1039,5 hPa 0,0 mm 0,0 km/h (0 Bft) O-NO 62 ° 0 min 0,000 mm 0,0 UV-I 0 W/m² -13,7 °C 0,0 km/h (0 Bft)
06.01.2017 08:23 -12,4 °C -12,4 °C 90 % 1039,5 hPa 0,0 mm 0,0 km/h (0 Bft) O-NO 62 ° 0 min 0,000 mm 0,0 UV-I 0 W/m² -13,7 °C 0,0 km/h (0 Bft)
06.01.2017 08:24 -12,4 °C -12,4 °C 90 % 1039,6 hPa 0,0 mm 0,0 km/h (0 Bft) O-NO 62 ° 0 min 0,000 mm 0,0 UV-I 0 W/m² -13,7 °C 0,0 km/h (0 Bft)
06.01.2017 08:25 -12,4 °C -12,4 °C 90 % 1039,6 hPa 0,0 mm 0,0 km/h (0 Bft) O-NO 62 ° 0 min 0,000 mm 0,0 UV-I 0 W/m² -13,7 °C 0,0 km/h (0 Bft)
06.01.2017 08:26 -12,4 °C -12,4 °C 90 % 1039,6 hPa 0,0 mm 0,3 km/h (0 Bft) O-NO 62 ° 0 min 0,000 mm 0,0 UV-I 0 W/m² -13,7 °C 1,6 km/h (1 Bft)
06.01.2017 08:27 -12,4 °C -12,4 °C 90 % 1039,6 hPa 0,0 mm 0,3 km/h (0 Bft) O-NO 62 ° 0 min 0,000 mm 0,0 UV-I 0 W/m² -13,7 °C 1,6 km/h (1 Bft)
06.01.2017 08:28 -12,4 °C -12,4 °C 90 % 1039,6 hPa 0,0 mm 0,6 km/h (0 Bft) O-NO 62 ° 0 min 0,000 mm 0,0 UV-I 0 W/m² -13,7 °C 1,6 km/h (1 Bft)
06.01.2017 08:29 -12,3 °C -12,3 °C 90 % 1039,6 hPa 0,0 mm 0,1 km/h (0 Bft) O-NO 62 ° 0 min 0,000 mm 0,0 UV-I 0 W/m² -13,6 °C 1,6 km/h (1 Bft)
06.01.2017 08:30 -12,3 °C -12,3 °C 90 % 1039,6 hPa 0,0 mm 0,0 km/h (0 Bft) O-NO 62 ° 0 min 0,000 mm 0,0 UV-I 0 W/m² -13,6 °C 0,0 km/h (0 Bft)
06.01.2017 08:31 -12,3 °C -12,3 °C 90 % 1039,7 hPa 0,0 mm 0,0 km/h (0 Bft) O-NO 62 ° 0 min 0,000 mm 0,0 UV-I 0 W/m² -13,6 °C 0,0 km/h (0 Bft)
06.01.2017 08:32 -12,3 °C -12,3 °C 90 % 1039,6 hPa 0,0 mm 0,0 km/h (0 Bft) O-NO 62 ° 0 min 0,000 mm 0,0 UV-I 0 W/m² -13,6 °C 0,0 km/h (0 Bft)
06.01.2017 08:33 -12,3 °C -12,3 °C 90 % 1039,7 hPa 0,0 mm 0,0 km/h (0 Bft) O-NO 62 ° 0 min 0,000 mm 0,0 UV-I 0 W/m² -13,6 °C 0,0 km/h (0 Bft)
06.01.2017 08:34 -12,3 °C -12,3 °C 90 % 1039,6 hPa 0,0 mm 0,0 km/h (0 Bft) O-NO 62 ° 0 min 0,000 mm 0,0 UV-I 0 W/m² -13,6 °C 0,0 km/h (0 Bft)
06.01.2017 08:35 -12,3 °C -12,3 °C 90 % 1039,6 hPa 0,0 mm 0,0 km/h (0 Bft) O-NO 62 ° 0 min 0,000 mm 0,0 UV-I 0 W/m² -13,6 °C 0,0 km/h (0 Bft)
06.01.2017 08:36 -12,3 °C -12,3 °C 90 % 1039,7 hPa 0,0 mm 0,0 km/h (0 Bft) O-NO 62 ° 0 min 0,000 mm 0,0 UV-I 0 W/m² -13,6 °C 0,0 km/h (0 Bft)
06.01.2017 08:37 -12,3 °C -12,3 °C 90 % 1039,7 hPa 0,0 mm 0,0 km/h (0 Bft) O-NO 62 ° 0 min 0,000 mm 0,0 UV-I 5 W/m² -13,6 °C 0,0 km/h (0 Bft)
06.01.2017 08:38 -12,3 °C -12,3 °C 90 % 1039,7 hPa 0,0 mm 0,0 km/h (0 Bft) O-NO 62 ° 0 min 0,000 mm 0,0 UV-I 5 W/m² -13,6 °C 0,0 km/h (0 Bft)
06.01.2017 08:39 -12,3 °C -12,3 °C 90 % 1039,7 hPa 0,0 mm 0,0 km/h (0 Bft) O-NO 62 ° 0 min 0,000 mm 0,0 UV-I 5 W/m² -13,6 °C 0,0 km/h (0 Bft)
06.01.2017 08:40 -12,3 °C -12,3 °C 90 % 1039,7 hPa 0,0 mm 0,0 km/h (0 Bft) O-NO 62 ° 0 min 0,000 mm 0,0 UV-I 5 W/m² -13,6 °C 0,0 km/h (0 Bft)
06.01.2017 08:41 -12,3 °C -12,2 °C 90 % 1039,7 hPa 0,0 mm 0,0 km/h (0 Bft) O-NO 62 ° 0 min 0,000 mm 0,0 UV-I 5 W/m² -13,6 °C 0,0 km/h (0 Bft)
06.01.2017 08:42 -12,3 °C -12,3 °C 90 % 1039,7 hPa 0,0 mm 0,0 km/h (0 Bft) O-NO 62 ° 0 min 0,000 mm 0,0 UV-I 5 W/m² -13,6 °C 0,0 km/h (0 Bft)
06.01.2017 08:43 -12,3 °C -12,3 °C 90 % 1039,7 hPa 0,0 mm 0,0 km/h (0 Bft) O-NO 62 ° 0 min 0,000 mm 0,0 UV-I 5 W/m² -13,6 °C 0,0 km/h (0 Bft)
06.01.2017 08:44 -12,2 °C -12,2 °C 90 % 1039,8 hPa 0,0 mm 0,0 km/h (0 Bft) O-NO 62 ° 0 min 0,000 mm 0,0 UV-I 5 W/m² -13,5 °C 0,0 km/h (0 Bft)
06.01.2017 08:45 -12,3 °C -12,2 °C 90 % 1039,7 hPa 0,0 mm 0,0 km/h (0 Bft) O-NO 62 ° 0 min 0,000 mm 0,0 UV-I 5 W/m² -13,6 °C 0,0 km/h (0 Bft)
06.01.2017 08:46 -12,3 °C -12,3 °C 90 % 1039,8 hPa 0,0 mm 0,0 km/h (0 Bft) O-NO 62 ° 0 min 0,000 mm 0,0 UV-I 5 W/m² -13,6 °C 0,0 km/h (0 Bft)
06.01.2017 08:47 -12,3 °C -12,2 °C 90 % 1039,8 hPa 0,0 mm 0,0 km/h (0 Bft) O-NO 62 ° 0 min 0,000 mm 0,0 UV-I 5 W/m² -13,6 °C 0,0 km/h (0 Bft)
06.01.2017 08:48 -12,2 °C -12,2 °C 90 % 1039,8 hPa 0,0 mm 0,0 km/h (0 Bft) O-NO 62 ° 0 min 0,000 mm 0,0 UV-I 5 W/m² -13,5 °C 0,0 km/h (0 Bft)
06.01.2017 08:49 -12,2 °C -12,2 °C 90 % 1039,8 hPa 0,0 mm 0,0 km/h (0 Bft) O-NO 62 ° 0 min 0,000 mm 0,0 UV-I 5 W/m² -13,5 °C 0,0 km/h (0 Bft)
06.01.2017 08:50 -12,2 °C -12,2 °C 90 % 1039,8 hPa 0,0 mm 0,0 km/h (0 Bft) O-NO 62 ° 0 min 0,000 mm 0,0 UV-I 5 W/m² -13,5 °C 0,0 km/h (0 Bft)
06.01.2017 08:51 -12,2 °C -12,2 °C 90 % 1039,9 hPa 0,0 mm 0,0 km/h (0 Bft) O-NO 62 ° 0 min 0,000 mm 0,0 UV-I 5 W/m² -13,5 °C 0,0 km/h (0 Bft)
06.01.2017 08:52 -12,2 °C -12,2 °C 90 % 1039,9 hPa 0,0 mm 0,0 km/h (0 Bft) O-NO 62 ° 0 min 0,000 mm 0,0 UV-I 5 W/m² -13,5 °C 0,0 km/h (0 Bft)
06.01.2017 08:53 -12,2 °C -12,2 °C 90 % 1039,9 hPa 0,0 mm 0,0 km/h (0 Bft) O-NO 62 ° 0 min 0,000 mm 0,0 UV-I 5 W/m² -13,5 °C 0,0 km/h (0 Bft)
06.01.2017 08:54 -12,2 °C -12,2 °C 90 % 1039,9 hPa 0,0 mm 0,0 km/h (0 Bft) O-NO 62 ° 0 min 0,000 mm 0,0 UV-I 5 W/m² -13,5 °C 0,0 km/h (0 Bft)
06.01.2017 08:55 -12,2 °C -12,2 °C 90 % 1039,9 hPa 0,0 mm 0,0 km/h (0 Bft) O-NO 62 ° 0 min 0,000 mm 0,0 UV-I 7 W/m² -13,5 °C 0,0 km/h (0 Bft)
06.01.2017 08:56 -12,2 °C -12,2 °C 90 % 1040,0 hPa 0,0 mm 0,0 km/h (0 Bft) O-NO 62 ° 0 min 0,000 mm 0,0 UV-I 7 W/m² -13,5 °C 0,0 km/h (0 Bft)
06.01.2017 08:57 -12,2 °C -12,2 °C 90 % 1039,9 hPa 0,0 mm 0,0 km/h (0 Bft) O-NO 62 ° 0 min 0,000 mm 0,0 UV-I 7 W/m² -13,5 °C 0,0 km/h (0 Bft)
06.01.2017 08:58 -12,2 °C -12,2 °C 90 % 1039,9 hPa 0,0 mm 0,0 km/h (0 Bft) O-NO 62 ° 0 min 0,000 mm 0,0 UV-I 7 W/m² -13,5 °C 0,0 km/h (0 Bft)
06.01.2017 08:59 -12,2 °C -12,2 °C 90 % 1040,0 hPa 0,0 mm 0,0 km/h (0 Bft) O-NO 62 ° 0 min 0,000 mm 0,0 UV-I 7 W/m² -13,5 °C 0,0 km/h (0 Bft)
06.01.2017 09:00 -12,2 °C -12,2 °C 90 % 1040,0 hPa 0,0 mm 0,0 km/h (0 Bft) O-NO 62 ° 0 min 0,000 mm 0,0 UV-I 7 W/m² -13,5 °C 0,0 km/h (0 Bft)
06.01.2017 09:01 -12,2 °C -12,2 °C 90 % 1040,0 hPa 0,0 mm 0,0 km/h (0 Bft) O-NO 62 ° 0 min 0,000 mm 0,0 UV-I 7 W/m² -13,5 °C 0,0 km/h (0 Bft)
06.01.2017 09:02 -12,2 °C -12,2 °C 90 % 1040,0 hPa 0,0 mm 0,0 km/h (0 Bft) O-NO 62 ° 0 min 0,000 mm 0,0 UV-I 7 W/m² -13,5 °C 0,0 km/h (0 Bft)
06.01.2017 09:03 -12,2 °C -12,2 °C 90 % 1040,1 hPa 0,0 mm 0,0 km/h (0 Bft) O-NO 62 ° 0 min 0,000 mm 0,0 UV-I 7 W/m² -13,5 °C 0,0 km/h (0 Bft)
06.01.2017 09:04 -12,2 °C -12,2 °C 90 % 1040,1 hPa 0,0 mm 0,0 km/h (0 Bft) O-NO 62 ° 0 min 0,000 mm 0,0 UV-I 9 W/m² -13,5 °C 0,0 km/h (0 Bft)
06.01.2017 09:05 -12,2 °C -12,2 °C 90 % 1040,1 hPa 0,0 mm 0,0 km/h (0 Bft) O-NO 62 ° 0 min 0,000 mm 0,0 UV-I 9 W/m² -13,5 °C 0,0 km/h (0 Bft)
06.01.2017 09:06 -12,2 °C -12,2 °C 90 % 1040,1 hPa 0,0 mm 0,0 km/h (0 Bft) O-NO 62 ° 0 min 0,000 mm 0,0 UV-I 11 W/m² -13,5 °C 0,0 km/h (0 Bft)
06.01.2017 09:07 -12,2 °C -12,2 °C 90 % 1040,1 hPa 0,0 mm 0,0 km/h (0 Bft) O-NO 62 ° 0 min 0,000 mm 0,0 UV-I 11 W/m² -13,5 °C 0,0 km/h (0 Bft)
06.01.2017 09:08 -12,2 °C -12,2 °C 90 % 1040,2 hPa 0,0 mm 0,0 km/h (0 Bft) O-NO 62 ° 0 min 0,000 mm 0,0 UV-I 12 W/m² -13,5 °C 0,0 km/h (0 Bft)
06.01.2017 09:09 -12,2 °C -12,2 °C 90 % 1040,1 hPa 0,0 mm 0,0 km/h (0 Bft) O-NO 62 ° 0 min 0,000 mm 0,0 UV-I 12 W/m² -13,5 °C 0,0 km/h (0 Bft)
06.01.2017 09:10 -12,2 °C -12,2 °C 90 % 1040,2 hPa 0,0 mm 0,0 km/h (0 Bft) O-NO 62 ° 0 min 0,000 mm 0,0 UV-I 12 W/m² -13,5 °C 0,0 km/h (0 Bft)
06.01.2017 09:11 -12,2 °C -12,1 °C 90 % 1040,2 hPa 0,0 mm 0,0 km/h (0 Bft) O-NO 62 ° 0 min 0,000 mm 0,0 UV-I 14 W/m² -13,5 °C 0,0 km/h (0 Bft)
06.01.2017 09:12 -12,1 °C -12,1 °C 90 % 1040,2 hPa 0,0 mm 0,0 km/h (0 Bft) O-NO 62 ° 0 min 0,000 mm 0,0 UV-I 14 W/m² -13,4 °C 0,0 km/h (0 Bft)
06.01.2017 09:13 -12,1 °C -12,1 °C 90 % 1040,2 hPa 0,0 mm 0,0 km/h (0 Bft) O-NO 62 ° 0 min 0,000 mm 0,0 UV-I 14 W/m² -13,4 °C 0,0 km/h (0 Bft)
06.01.2017 09:14 -12,1 °C -12,1 °C 89 % 1040,2 hPa 0,0 mm 0,0 km/h (0 Bft) O-NO 62 ° 0 min 0,000 mm 0,0 UV-I 14 W/m² -13,5 °C 0,0 km/h (0 Bft)
06.01.2017 09:15 -12,1 °C -12,1 °C 89 % 1040,3 hPa 0,0 mm 0,0 km/h (0 Bft) O-NO 62 ° 0 min 0,000 mm 0,0 UV-I 14 W/m² -13,5 °C 0,0 km/h (0 Bft)
06.01.2017 09:16 -12,1 °C -12,1 °C 89 % 1040,2 hPa 0,0 mm 0,0 km/h (0 Bft) O-NO 62 ° 0 min 0,000 mm 0,0 UV-I 14 W/m² -13,5 °C 0,0 km/h (0 Bft)
06.01.2017 09:17 -12,1 °C -12,1 °C 90 % 1040,2 hPa 0,0 mm 0,0 km/h (0 Bft) O-NO 62 ° 0 min 0,000 mm 0,0 UV-I 14 W/m² -13,4 °C 0,0 km/h (0 Bft)
06.01.2017 09:18 -12,1 °C -12,1 °C 90 % 1040,3 hPa 0,0 mm 0,0 km/h (0 Bft) O-NO 62 ° 0 min 0,000 mm 0,0 UV-I 16 W/m² -13,4 °C 0,0 km/h (0 Bft)
06.01.2017 09:19 -12,1 °C -12,1 °C 90 % 1040,2 hPa 0,0 mm 0,0 km/h (0 Bft) O-NO 62 ° 0 min 0,000 mm 0,0 UV-I 16 W/m² -13,4 °C 0,0 km/h (0 Bft)
06.01.2017 09:20 -12,1 °C -12,1 °C 90 % 1040,3 hPa 0,0 mm 0,0 km/h (0 Bft) O-NO 62 ° 0 min 0,000 mm 0,0 UV-I 16 W/m² -13,4 °C 0,0 km/h (0 Bft)
06.01.2017 09:21 -12,1 °C -12,1 °C 90 % 1040,3 hPa 0,0 mm 0,0 km/h (0 Bft) O-NO 62 ° 0 min 0,000 mm 0,0 UV-I 16 W/m² -13,4 °C 0,0 km/h (0 Bft)
06.01.2017 09:22 -12,1 °C -12,1 °C 90 % 1040,3 hPa 0,0 mm 0,0 km/h (0 Bft) O-NO 62 ° 0 min 0,000 mm 0,0 UV-I 16 W/m² -13,4 °C 0,0 km/h (0 Bft)
06.01.2017 09:23 -12,1 °C -12,0 °C 90 % 1040,3 hPa 0,0 mm 0,0 km/h (0 Bft) O-NO 62 ° 0 min 0,000 mm 0,0 UV-I 16 W/m² -13,4 °C 0,0 km/h (0 Bft)
06.01.2017 09:24 -12,0 °C -12,0 °C 89 % 1040,3 hPa 0,0 mm 0,0 km/h (0 Bft) O-NO 62 ° 0 min 0,000 mm 0,0 UV-I 18 W/m² -13,4 °C 0,0 km/h (0 Bft)
06.01.2017 09:25 -12,0 °C -12,0 °C 89 % 1040,3 hPa 0,0 mm 0,0 km/h (0 Bft) O-NO 62 ° 0 min 0,000 mm 0,0 UV-I 18 W/m² -13,4 °C 0,0 km/h (0 Bft)
06.01.2017 09:26 -11,9 °C -11,9 °C 89 % 1040,3 hPa 0,0 mm 0,0 km/h (0 Bft) O-NO 62 ° 0 min 0,000 mm 0,0 UV-I 18 W/m² -13,3 °C 0,0 km/h (0 Bft)
06.01.2017 09:27 -11,9 °C -11,9 °C 90 % 1040,3 hPa 0,0 mm 0,1 km/h (0 Bft) O-NO 62 ° 0 min 0,000 mm 0,0 UV-I 18 W/m² -13,2 °C 1,6 km/h (1 Bft)
06.01.2017 09:28 -11,9 °C -11,9 °C 90 % 1040,3 hPa 0,0 mm 0,6 km/h (0 Bft) O-NO 62 ° 0 min 0,000 mm 0,0 UV-I 19 W/m² -13,2 °C 1,6 km/h (1 Bft)
06.01.2017 09:29 -11,9 °C -11,9 °C 90 % 1040,3 hPa 0,0 mm 0,5 km/h (0 Bft) O-NO 62 ° 0 min 0,000 mm 0,0 UV-I 19 W/m² -13,2 °C 1,6 km/h (1 Bft)
06.01.2017 09:30 -11,9 °C -11,9 °C 90 % 1040,4 hPa 0,0 mm 0,7 km/h (0 Bft) O-NO 62 ° 0 min 0,000 mm 0,0 UV-I 19 W/m² -13,2 °C 1,6 km/h (1 Bft)
06.01.2017 09:31 -11,8 °C -11,8 °C 90 % 1040,3 hPa 0,0 mm 0,4 km/h (0 Bft) O-NO 62 ° 0 min 0,000 mm 0,0 UV-I 21 W/m² -13,1 °C 1,6 km/h (1 Bft)
06.01.2017 09:32 -11,9 °C -11,8 °C 90 % 1040,3 hPa 0,0 mm 0,1 km/h (0 Bft) O-NO 62 ° 0 min 0,000 mm 0,0 UV-I 21 W/m² -13,2 °C 1,6 km/h (1 Bft)
06.01.2017 09:33 -11,8 °C -11,8 °C 90 % 1040,4 hPa 0,0 mm 0,0 km/h (0 Bft) O-NO 62 ° 0 min 0,000 mm 0,0 UV-I 21 W/m² -13,1 °C 0,0 km/h (0 Bft)
06.01.2017 09:34 -11,8 °C -11,8 °C 90 % 1040,4 hPa 0,0 mm 0,1 km/h (0 Bft) O-NO 62 ° 0 min 0,000 mm 0,0 UV-I 21 W/m² -13,1 °C 1,6 km/h (1 Bft)
06.01.2017 09:35 -11,8 °C -11,8 °C 90 % 1040,4 hPa 0,0 mm 0,1 km/h (0 Bft) O-NO 62 ° 0 min 0,000 mm 0,0 UV-I 23 W/m² -13,1 °C 1,6 km/h (1 Bft)
06.01.2017 09:36 -11,8 °C -11,8 °C 90 % 1040,4 hPa 0,0 mm 0,1 km/h (0 Bft) O-NO 62 ° 0 min 0,000 mm 0,0 UV-I 23 W/m² -13,1 °C 1,6 km/h (1 Bft)
06.01.2017 09:37 -11,7 °C -11,7 °C 90 % 1040,4 hPa 0,0 mm 0,0 km/h (0 Bft) O-NO 62 ° 0 min 0,000 mm 0,0 UV-I 25 W/m² -13,0 °C 0,0 km/h (0 Bft)
06.01.2017 09:38 -11,7 °C -11,7 °C 90 % 1040,4 hPa 0,0 mm 0,0 km/h (0 Bft) O-NO 62 ° 0 min 0,000 mm 0,0 UV-I 25 W/m² -13,0 °C 0,0 km/h (0 Bft)
06.01.2017 09:39 -11,7 °C -11,7 °C 90 % 1040,4 hPa 0,0 mm 0,0 km/h (0 Bft) O-NO 62 ° 0 min 0,000 mm 0,0 UV-I 25 W/m² -13,0 °C 0,0 km/h (0 Bft)
06.01.2017 09:40 -11,7 °C -11,7 °C 90 % 1040,5 hPa 0,0 mm 0,3 km/h (0 Bft) O-NO 62 ° 0 min 0,000 mm 0,0 UV-I 25 W/m² -13,0 °C 1,6 km/h (1 Bft)
06.01.2017 09:41 -11,7 °C -11,7 °C 90 % 1040,4 hPa 0,0 mm 0,7 km/h (0 Bft) O-NO 62 ° 0 min 0,000 mm 0,0 UV-I 25 W/m² -13,0 °C 1,6 km/h (1 Bft)
06.01.2017 09:42 -11,6 °C -11,6 °C 90 % 1040,4 hPa 0,0 mm 0,7 km/h (0 Bft) O-NO 62 ° 0 min 0,000 mm 0,0 UV-I 25 W/m² -12,9 °C 1,6 km/h (1 Bft)
06.01.2017 09:43 -11,6 °C -11,6 °C 90 % 1040,4 hPa 0,0 mm 0,5 km/h (0 Bft) O-NO 62 ° 0 min 0,000 mm 0,0 UV-I 25 W/m² -12,9 °C 1,6 km/h (1 Bft)
06.01.2017 09:44 -11,6 °C -11,6 °C 90 % 1040,4 hPa 0,0 mm 0,5 km/h (0 Bft) O-NO 62 ° 0 min 0,000 mm 0,0 UV-I 25 W/m² -12,9 °C 1,6 km/h (1 Bft)
06.01.2017 09:45 -11,6 °C -11,6 °C 90 % 1040,4 hPa 0,0 mm 0,4 km/h (0 Bft) O-NO 62 ° 0 min 0,000 mm 0,0 UV-I 25 W/m² -12,9 °C 1,6 km/h (1 Bft)
06.01.2017 09:46 -11,6 °C -11,6 °C 90 % 1040,4 hPa 0,0 mm 0,2 km/h (0 Bft) O-NO 62 ° 0 min 0,000 mm 0,0 UV-I 25 W/m² -12,9 °C 1,6 km/h (1 Bft)
06.01.2017 09:47 -11,5 °C -11,5 °C 90 % 1040,5 hPa 0,0 mm 0,5 km/h (0 Bft) O-NO 62 ° 0 min 0,000 mm 0,0 UV-I 25 W/m² -12,8 °C 1,6 km/h (1 Bft)
06.01.2017 09:48 -11,5 °C -11,5 °C 90 % 1040,5 hPa 0,0 mm 0,6 km/h (0 Bft) O-NO 62 ° 0 min 0,000 mm 0,0 UV-I 25 W/m² -12,8 °C 1,6 km/h (1 Bft)
06.01.2017 09:49 -11,5 °C -11,4 °C 90 % 1040,5 hPa 0,0 mm 0,7 km/h (0 Bft) O-NO 62 ° 0 min 0,000 mm 0,0 UV-I 25 W/m² -12,8 °C 1,6 km/h (1 Bft)
06.01.2017 09:50 -11,4 °C -11,4 °C 90 % 1040,5 hPa 0,0 mm 0,1 km/h (0 Bft) O-NO 62 ° 0 min 0,000 mm 0,0 UV-I 25 W/m² -12,7 °C 1,6 km/h (1 Bft)
06.01.2017 09:51 -11,4 °C -11,4 °C 90 % 1040,5 hPa 0,0 mm 0,2 km/h (0 Bft) O-NO 62 ° 0 min 0,000 mm 0,0 UV-I 25 W/m² -12,7 °C 1,6 km/h (1 Bft)
06.01.2017 09:52 -11,4 °C -11,4 °C 90 % 1040,4 hPa 0,0 mm 0,0 km/h (0 Bft) O-NO 62 ° 0 min 0,000 mm 0,0 UV-I 25 W/m² -12,7 °C 0,0 km/h (0 Bft)
06.01.2017 09:53 -11,4 °C -11,4 °C 90 % 1040,6 hPa 0,0 mm 0,0 km/h (0 Bft) O-NO 62 ° 0 min 0,000 mm 0,0 UV-I 25 W/m² -12,7 °C 0,0 km/h (0 Bft)
06.01.2017 09:54 -11,3 °C -11,3 °C 90 % 1040,5 hPa 0,0 mm 0,3 km/h (0 Bft) O-NO 62 ° 0 min 0,000 mm 0,0 UV-I 25 W/m² -12,6 °C 1,6 km/h (1 Bft)
06.01.2017 09:55 -11,3 °C -11,3 °C 90 % 1040,5 hPa 0,0 mm 0,3 km/h (0 Bft) O-NO 62 ° 0 min 0,000 mm 0,0 UV-I 25 W/m² -12,6 °C 1,6 km/h (1 Bft)
06.01.2017 09:56 -11,3 °C -11,3 °C 90 % 1040,6 hPa 0,0 mm 0,0 km/h (0 Bft) O-NO 62 ° 0 min 0,000 mm 0,0 UV-I 26 W/m² -12,6 °C 0,0 km/h (0 Bft)
06.01.2017 09:57 -11,3 °C -11,3 °C 90 % 1040,5 hPa 0,0 mm 0,0 km/h (0 Bft) O-NO 62 ° 0 min 0,000 mm 0,0 UV-I 26 W/m² -12,6 °C 0,0 km/h (0 Bft)
06.01.2017 09:58 -11,3 °C -11,3 °C 90 % 1040,6 hPa 0,0 mm 0,0 km/h (0 Bft) O-NO 62 ° 0 min 0,000 mm 0,0 UV-I 26 W/m² -12,6 °C 0,0 km/h (0 Bft)
06.01.2017 09:59 -11,2 °C -11,2 °C 90 % 1040,5 hPa 0,0 mm 0,5 km/h (0 Bft) O-NO 62 ° 0 min 0,000 mm 0,0 UV-I 26 W/m² -12,5 °C 1,6 km/h (1 Bft)
06.01.2017 10:00 -11,2 °C -11,2 °C 90 % 1040,5 hPa 0,0 mm 0,1 km/h (0 Bft) O-NO 62 ° 0 min 0,000 mm 0,0 UV-I 26 W/m² -12,5 °C 1,6 km/h (1 Bft)
06.01.2017 10:01 -11,2 °C -11,2 °C 90 % 1040,6 hPa 0,0 mm 0,6 km/h (0 Bft) O-NO 62 ° 0 min 0,000 mm 0,0 UV-I 26 W/m² -12,5 °C 3,2 km/h (1 Bft)
06.01.2017 10:02 -11,2 °C -11,2 °C 90 % 1040,5 hPa 0,0 mm 2,5 km/h (1 Bft) O-NO 61 ° 0 min 0,000 mm 0,0 UV-I 26 W/m² -12,5 °C 3,2 km/h (1 Bft)
06.01.2017 10:03 -11,1 °C -11,1 °C 90 % 1040,5 hPa 0,0 mm 2,4 km/h (1 Bft) O-NO 61 ° 0 min 0,000 mm 0,0 UV-I 26 W/m² -12,4 °C 4,8 km/h (1 Bft)
06.01.2017 10:04 -11,1 °C -11,1 °C 90 % 1040,6 hPa 0,0 mm 1,7 km/h (1 Bft) O-NO 61 ° 0 min 0,000 mm 0,0 UV-I 26 W/m² -12,4 °C 3,2 km/h (1 Bft)
06.01.2017 10:05 -11,1 °C -11,0 °C 90 % 1040,5 hPa 0,0 mm 1,1 km/h (1 Bft) O-NO 61 ° 0 min 0,000 mm 0,0 UV-I 25 W/m² -12,4 °C 1,6 km/h (1 Bft)
06.01.2017 10:06 -11,0 °C -11,0 °C 90 % 1040,5 hPa 0,0 mm 1,2 km/h (1 Bft) O-NO 61 ° 0 min 0,000 mm 0,0 UV-I 25 W/m² -12,3 °C 3,2 km/h (1 Bft)
06.01.2017 10:07 -10,9 °C -10,9 °C 89 % 1040,5 hPa 0,0 mm 1,2 km/h (1 Bft) O-NO 61 ° 0 min 0,000 mm 0,0 UV-I 23 W/m² -12,3 °C 1,6 km/h (1 Bft)
06.01.2017 10:08 -10,9 °C -10,9 °C 89 % 1040,5 hPa 0,0 mm 0,5 km/h (0 Bft) O-NO 61 ° 0 min 0,000 mm 0,0 UV-I 23 W/m² -12,3 °C 1,6 km/h (1 Bft)
06.01.2017 10:09 -10,9 °C -10,9 °C 89 % 1040,5 hPa 0,0 mm 2,0 km/h (1 Bft) O-NO 61 ° 0 min 0,000 mm 0,0 UV-I 21 W/m² -12,3 °C 3,2 km/h (1 Bft)
06.01.2017 10:10 -10,9 °C -10,9 °C 88 % 1040,6 hPa 0,0 mm 2,5 km/h (1 Bft) O-NO 61 ° 0 min 0,000 mm 0,0 UV-I 19 W/m² -12,5 °C 3,2 km/h (1 Bft)
06.01.2017 10:11 -10,8 °C -10,8 °C 88 % 1040,6 hPa 0,0 mm 2,3 km/h (1 Bft) O-NO 61 ° 0 min 0,000 mm 0,0 UV-I 19 W/m² -12,4 °C 4,8 km/h (1 Bft)
06.01.2017 10:12 -10,8 °C -10,8 °C 88 % 1040,6 hPa 0,0 mm 2,3 km/h (1 Bft) O-NO 60 ° 0 min 0,000 mm 0,0 UV-I 19 W/m² -12,4 °C 3,2 km/h (1 Bft)
06.01.2017 10:13 -10,8 °C -10,8 °C 88 % 1040,6 hPa 0,0 mm 1,7 km/h (1 Bft) O-NO 60 ° 0 min 0,000 mm 0,0 UV-I 18 W/m² -12,4 °C 3,2 km/h (1 Bft)
06.01.2017 10:14 -10,8 °C -10,8 °C 88 % 1040,6 hPa 0,0 mm 2,2 km/h (1 Bft) O-NO 60 ° 0 min 0,000 mm 0,0 UV-I 16 W/m² -12,4 °C 3,2 km/h (1 Bft)
06.01.2017 10:15 -10,8 °C -10,8 °C 88 % 1040,6 hPa 0,0 mm 1,0 km/h (0 Bft) O-NO 60 ° 0 min 0,000 mm 0,0 UV-I 16 W/m² -12,4 °C 1,6 km/h (1 Bft)
06.01.2017 10:16 -10,8 °C -10,8 °C 88 % 1040,6 hPa 0,0 mm 1,7 km/h (1 Bft) O-NO 60 ° 0 min 0,000 mm 0,0 UV-I 14 W/m² -12,4 °C 3,2 km/h (1 Bft)
06.01.2017 10:17 -10,8 °C -10,8 °C 88 % 1040,6 hPa 0,0 mm 1,7 km/h (1 Bft) O-NO 60 ° 0 min 0,000 mm 0,0 UV-I 14 W/m² -12,4 °C 3,2 km/h (1 Bft)
06.01.2017 10:18 -10,8 °C -10,8 °C 87 % 1040,6 hPa 0,0 mm 0,9 km/h (0 Bft) O-NO 60 ° 0 min 0,000 mm 0,0 UV-I 14 W/m² -12,5 °C 1,6 km/h (1 Bft)
06.01.2017 10:19 -10,8 °C -10,8 °C 87 % 1040,6 hPa 0,0 mm 1,2 km/h (1 Bft) O-NO 60 ° 0 min 0,000 mm 0,0 UV-I 12 W/m² -12,5 °C 1,6 km/h (1 Bft)
06.01.2017 10:20 -10,8 °C -10,8 °C 87 % 1040,6 hPa 0,0 mm 0,5 km/h (0 Bft) O-NO 60 ° 0 min 0,000 mm 0,0 UV-I 12 W/m² -12,5 °C 1,6 km/h (1 Bft)
06.01.2017 10:21 -10,8 °C -10,8 °C 87 % 1040,6 hPa 0,0 mm 0,1 km/h (0 Bft) O-NO 60 ° 0 min 0,000 mm 0,0 UV-I 12 W/m² -12,5 °C 1,6 km/h (1 Bft)
06.01.2017 10:22 -10,8 °C -10,8 °C 87 % 1040,6 hPa 0,0 mm 0,0 km/h (0 Bft) O-NO 60 ° 0 min 0,000 mm 0,0 UV-I 11 W/m² -12,5 °C 0,0 km/h (0 Bft)
06.01.2017 10:23 -10,9 °C -10,8 °C 87 % 1040,6 hPa 0,0 mm 0,0 km/h (0 Bft) O-NO 60 ° 0 min 0,000 mm 0,0 UV-I 11 W/m² -12,6 °C 0,0 km/h (0 Bft)
06.01.2017 10:24 -10,9 °C -10,9 °C 86 % 1040,6 hPa 0,0 mm 0,0 km/h (0 Bft) O-NO 60 ° 0 min 0,000 mm 0,0 UV-I 11 W/m² -12,8 °C 0,0 km/h (0 Bft)
06.01.2017 10:25 -10,9 °C -10,9 °C 86 % 1040,6 hPa 0,0 mm 0,0 km/h (0 Bft) O-NO 60 ° 0 min 0,000 mm 0,0 UV-I 11 W/m² -12,8 °C 0,0 km/h (0 Bft)
06.01.2017 10:26 -11,0 °C -10,9 °C 86 % 1040,7 hPa 0,0 mm 0,0 km/h (0 Bft) O-NO 60 ° 0 min 0,000 mm 0,0 UV-I 11 W/m² -12,9 °C 0,0 km/h (0 Bft)
06.01.2017 10:27 -11,1 °C -11,0 °C 86 % 1040,6 hPa 0,0 mm 0,0 km/h (0 Bft) O-NO 60 ° 0 min 0,000 mm 0,0 UV-I 11 W/m² -13,0 °C 0,0 km/h (0 Bft)
06.01.2017 10:28 -11,1 °C -11,1 °C 86 % 1040,6 hPa 0,0 mm 0,1 km/h (0 Bft) O-NO 60 ° 0 min 0,000 mm 0,0 UV-I 11 W/m² -13,0 °C 1,6 km/h (1 Bft)
06.01.2017 10:29 -11,1 °C -11,1 °C 86 % 1040,6 hPa 0,0 mm 1,3 km/h (1 Bft) O-NO 60 ° 0 min 0,000 mm 0,0 UV-I 11 W/m² -13,0 °C 3,2 km/h (1 Bft)
06.01.2017 10:30 -11,2 °C -11,1 °C 85 % 1040,6 hPa 0,0 mm 1,8 km/h (1 Bft) O-NO 61 ° 0 min 0,000 mm 0,0 UV-I 11 W/m² -13,2 °C 3,2 km/h (1 Bft)
06.01.2017 10:31 -11,2 °C -11,1 °C 86 % 1040,6 hPa 0,0 mm 0,6 km/h (0 Bft) O-NO 61 ° 0 min 0,000 mm 0,0 UV-I 11 W/m² -13,1 °C 1,6 km/h (1 Bft)
06.01.2017 10:32 -11,2 °C -11,2 °C 86 % 1040,6 hPa 0,0 mm 0,6 km/h (0 Bft) O-NO 61 ° 0 min 0,000 mm 0,0 UV-I 9 W/m² -13,1 °C 1,6 km/h (1 Bft)
06.01.2017 10:33 -11,2 °C -11,2 °C 86 % 1040,6 hPa 0,0 mm 0,4 km/h (0 Bft) O-NO 61 ° 0 min 0,000 mm 0,0 UV-I 9 W/m² -13,1 °C 1,6 km/h (1 Bft)
06.01.2017 10:34 -11,2 °C -11,2 °C 86 % 1040,6 hPa 0,0 mm 0,1 km/h (0 Bft) O-NO 61 ° 0 min 0,000 mm 0,0 UV-I 9 W/m² -13,1 °C 1,6 km/h (1 Bft)
06.01.2017 10:35 -11,3 °C -11,2 °C 85 % 1040,6 hPa 0,0 mm 0,1 km/h (0 Bft) O-NO 61 ° 0 min 0,000 mm 0,0 UV-I 9 W/m² -13,3 °C 1,6 km/h (1 Bft)
06.01.2017 10:36 -11,3 °C -11,3 °C 85 % 1040,6 hPa 0,0 mm 0,8 km/h (0 Bft) O-NO 61 ° 0 min 0,000 mm 0,0 UV-I 9 W/m² -13,3 °C 1,6 km/h (1 Bft)
06.01.2017 10:37 -11,3 °C -11,3 °C 85 % 1040,6 hPa 0,0 mm 0,4 km/h (0 Bft) O-NO 61 ° 0 min 0,000 mm 0,0 UV-I 9 W/m² -13,3 °C 1,6 km/h (1 Bft)
06.01.2017 10:38 -11,3 °C -11,3 °C 85 % 1040,6 hPa 0,0 mm 0,7 km/h (0 Bft) O-NO 61 ° 0 min 0,000 mm 0,0 UV-I 9 W/m² -13,3 °C 1,6 km/h (1 Bft)
06.01.2017 10:39 -11,4 °C -11,3 °C 85 % 1040,6 hPa 0,0 mm 0,5 km/h (0 Bft) O-NO 61 ° 0 min 0,000 mm 0,0 UV-I 9 W/m² -13,4 °C 1,6 km/h (1 Bft)
06.01.2017 10:40 -11,4 °C -11,4 °C 85 % 1040,6 hPa 0,0 mm 0,1 km/h (0 Bft) O-NO 61 ° 0 min 0,000 mm 0,0 UV-I 9 W/m² -13,4 °C 1,6 km/h (1 Bft)
06.01.2017 10:41 -11,4 °C -11,4 °C 85 % 1040,6 hPa 0,0 mm 0,1 km/h (0 Bft) O-NO 61 ° 0 min 0,000 mm 0,0 UV-I 9 W/m² -13,4 °C 1,6 km/h (1 Bft)
06.01.2017 10:42 -11,5 °C -11,4 °C 85 % 1040,6 hPa 0,0 mm 0,4 km/h (0 Bft) O-NO 61 ° 0 min 0,000 mm 0,0 UV-I 9 W/m² -13,5 °C 1,6 km/h (1 Bft)
06.01.2017 10:43 -11,5 °C -11,5 °C 85 % 1040,7 hPa 0,0 mm 0,0 km/h (0 Bft) O-NO 61 ° 0 min 0,000 mm 0,0 UV-I 9 W/m² -13,5 °C 0,0 km/h (0 Bft)
06.01.2017 10:44 -11,6 °C -11,5 °C 86 % 1040,6 hPa 0,0 mm 0,1 km/h (0 Bft) O-NO 61 ° 0 min 0,000 mm 0,0 UV-I 9 W/m² -13,5 °C 1,6 km/h (1 Bft)
06.01.2017 10:45 -11,5 °C -11,5 °C 86 % 1040,7 hPa 0,0 mm 0,0 km/h (0 Bft) O-NO 61 ° 0 min 0,000 mm 0,0 UV-I 9 W/m² -13,4 °C 0,0 km/h (0 Bft)
06.01.2017 10:46 -11,6 °C -11,5 °C 86 % 1040,6 hPa 0,0 mm 0,0 km/h (0 Bft) O-NO 61 ° 0 min 0,000 mm 0,0 UV-I 9 W/m² -13,5 °C 0,0 km/h (0 Bft)
06.01.2017 10:47 -11,6 °C -11,6 °C 86 % 1040,7 hPa 0,0 mm 0,3 km/h (0 Bft) O-NO 61 ° 0 min 0,000 mm 0,0 UV-I 9 W/m² -13,5 °C 1,6 km/h (1 Bft)
06.01.2017 10:48 -11,7 °C -11,6 °C 85 % 1040,7 hPa 0,0 mm 0,1 km/h (0 Bft) O-NO 61 ° 0 min 0,000 mm 0,0 UV-I 9 W/m² -13,7 °C 1,6 km/h (1 Bft)
06.01.2017 10:49 -11,7 °C -11,6 °C 86 % 1040,7 hPa 0,0 mm 0,1 km/h (0 Bft) O-NO 61 ° 0 min 0,000 mm 0,0 UV-I 9 W/m² -13,6 °C 1,6 km/h (1 Bft)
06.01.2017 10:50 -11,7 °C -11,7 °C 86 % 1040,7 hPa 0,0 mm 0,0 km/h (0 Bft) O-NO 61 ° 0 min 0,000 mm 0,0 UV-I 9 W/m² -13,6 °C 0,0 km/h (0 Bft)
06.01.2017 10:51 -11,7 °C -11,7 °C 86 % 1040,7 hPa 0,0 mm 1,2 km/h (1 Bft) O-NO 61 ° 0 min 0,000 mm 0,0 UV-I 9 W/m² -13,6 °C 1,6 km/h (1 Bft)
06.01.2017 10:52 -11,8 °C -11,7 °C 86 % 1040,7 hPa 0,0 mm 0,7 km/h (0 Bft) O-NO 61 ° 0 min 0,000 mm 0,0 UV-I 9 W/m² -13,7 °C 1,6 km/h (1 Bft)
06.01.2017 10:53 -11,7 °C -11,7 °C 86 % 1040,6 hPa 0,0 mm 0,7 km/h (0 Bft) O-NO 61 ° 0 min 0,000 mm 0,0 UV-I 9 W/m² -13,6 °C 1,6 km/h (1 Bft)
06.01.2017 10:54 -11,8 °C -11,7 °C 86 % 1040,7 hPa 0,0 mm 0,3 km/h (0 Bft) O-NO 61 ° 0 min 0,000 mm 0,0 UV-I 9 W/m² -13,7 °C 1,6 km/h (1 Bft)
06.01.2017 10:55 -11,8 °C -11,8 °C 86 % 1040,7 hPa 0,0 mm 0,1 km/h (0 Bft) O-NO 61 ° 0 min 0,000 mm 0,0 UV-I 9 W/m² -13,7 °C 1,6 km/h (1 Bft)
06.01.2017 10:56 -11,8 °C -11,8 °C 86 % 1040,6 hPa 0,0 mm 0,0 km/h (0 Bft) O-NO 61 ° 0 min 0,000 mm 0,0 UV-I 9 W/m² -13,7 °C 0,0 km/h (0 Bft)
06.01.2017 10:57 -11,8 °C -11,8 °C 86 % 1040,6 hPa 0,0 mm 0,0 km/h (0 Bft) O-NO 61 ° 0 min 0,000 mm 0,0 UV-I 9 W/m² -13,7 °C 0,0 km/h (0 Bft)
06.01.2017 10:58 -11,8 °C -11,8 °C 86 % 1040,6 hPa 0,0 mm 0,2 km/h (0 Bft) O-NO 61 ° 0 min 0,000 mm 0,0 UV-I 9 W/m² -13,7 °C 1,6 km/h (1 Bft)
06.01.2017 10:59 -11,9 °C -11,8 °C 86 % 1040,6 hPa 0,0 mm 0,2 km/h (0 Bft) O-NO 61 ° 0 min 0,000 mm 0,0 UV-I 9 W/m² -13,8 °C 1,6 km/h (1 Bft)
06.01.2017 11:00 -11,9 °C -11,9 °C 86 % 1040,6 hPa 0,0 mm 0,1 km/h (0 Bft) O-NO 61 ° 0 min 0,000 mm 0,0 UV-I 9 W/m² -13,8 °C 1,6 km/h (1 Bft)
06.01.2017 11:01 -11,9 °C -11,9 °C 86 % 1040,6 hPa 0,0 mm 0,1 km/h (0 Bft) O-NO 61 ° 0 min 0,000 mm 0,0 UV-I 9 W/m² -13,8 °C 1,6 km/h (1 Bft)
06.01.2017 11:02 -11,9 °C -11,9 °C 86 % 1040,6 hPa 0,0 mm 0,6 km/h (0 Bft) O-NO 61 ° 0 min 0,000 mm 0,0 UV-I 9 W/m² -13,8 °C 3,2 km/h (1 Bft)
06.01.2017 11:03 -11,9 °C -11,9 °C 86 % 1040,7 hPa 0,0 mm 0,7 km/h (0 Bft) O-NO 61 ° 0 min 0,000 mm 0,0 UV-I 11 W/m² -13,8 °C 1,6 km/h (1 Bft)
06.01.2017 11:04 -11,9 °C -11,9 °C 86 % 1040,6 hPa 0,0 mm 0,1 km/h (0 Bft) O-NO 61 ° 0 min 0,000 mm 0,0 UV-I 11 W/m² -13,8 °C 1,6 km/h (1 Bft)
06.01.2017 11:05 -12,1 °C -11,9 °C 86 % 1040,6 hPa 0,0 mm 0,0 km/h (0 Bft) O-NO 61 ° 0 min 0,000 mm 0,0 UV-I 11 W/m² -13,9 °C 0,0 km/h (0 Bft)
06.01.2017 11:06 -12,1 °C -12,1 °C 86 % 1040,6 hPa 0,0 mm 0,0 km/h (0 Bft) O-NO 61 ° 0 min 0,000 mm 0,0 UV-I 11 W/m² -13,9 °C 0,0 km/h (0 Bft)
06.01.2017 11:07 -12,1 °C -12,1 °C 87 % 1040,6 hPa 0,0 mm 0,1 km/h (0 Bft) O-NO 61 ° 0 min 0,000 mm 0,0 UV-I 11 W/m² -13,8 °C 1,6 km/h (1 Bft)
06.01.2017 11:08 -12,1 °C -12,1 °C 87 % 1040,6 hPa 0,0 mm 0,0 km/h (0 Bft) O-NO 61 ° 0 min 0,000 mm 0,0 UV-I 11 W/m² -13,8 °C 0,0 km/h (0 Bft)
06.01.2017 11:09 -12,1 °C -12,1 °C 87 % 1040,6 hPa 0,0 mm 0,0 km/h (0 Bft) O-NO 61 ° 0 min 0,000 mm 0,0 UV-I 11 W/m² -13,8 °C 0,0 km/h (0 Bft)
06.01.2017 11:10 -12,1 °C -12,1 °C 87 % 1040,6 hPa 0,0 mm 0,0 km/h (0 Bft) O-NO 61 ° 0 min 0,000 mm 0,0 UV-I 11 W/m² -13,8 °C 0,0 km/h (0 Bft)
06.01.2017 11:11 -12,1 °C -12,1 °C 87 % 1040,5 hPa 0,0 mm 1,1 km/h (1 Bft) O-NO 61 ° 0 min 0,000 mm 0,0 UV-I 11 W/m² -13,8 °C 1,6 km/h (1 Bft)
06.01.2017 11:12 -12,1 °C -12,1 °C 87 % 1040,6 hPa 0,0 mm 0,1 km/h (0 Bft) O-NO 61 ° 0 min 0,000 mm 0,0 UV-I 11 W/m² -13,8 °C 1,6 km/h (1 Bft)
06.01.2017 11:13 -12,1 °C -12,1 °C 87 % 1040,6 hPa 0,0 mm 0,3 km/h (0 Bft) O-NO 61 ° 0 min 0,000 mm 0,0 UV-I 11 W/m² -13,8 °C 1,6 km/h (1 Bft)
06.01.2017 11:14 -12,1 °C -12,1 °C 87 % 1040,6 hPa 0,0 mm 0,0 km/h (0 Bft) O-NO 61 ° 0 min 0,000 mm 0,0 UV-I 11 W/m² -13,8 °C 0,0 km/h (0 Bft)
06.01.2017 11:15 -12,1 °C -12,1 °C 87 % 1040,6 hPa 0,0 mm 0,3 km/h (0 Bft) O-NO 61 ° 0 min 0,000 mm 0,0 UV-I 11 W/m² -13,8 °C 1,6 km/h (1 Bft)
06.01.2017 11:16 -12,1 °C -12,1 °C 87 % 1040,6 hPa 0,0 mm 0,2 km/h (0 Bft) O-NO 61 ° 0 min 0,000 mm 0,0 UV-I 11 W/m² -13,8 °C 1,6 km/h (1 Bft)
06.01.2017 11:17 -12,1 °C -12,1 °C 87 % 1040,6 hPa 0,0 mm 1,0 km/h (0 Bft) O-NO 61 ° 0 min 0,000 mm 0,0 UV-I 11 W/m² -13,8 °C 3,2 km/h (1 Bft)
06.01.2017 11:18 -12,1 °C -12,1 °C 87 % 1040,6 hPa 0,0 mm 0,7 km/h (0 Bft) O-NO 61 ° 0 min 0,000 mm 0,0 UV-I 11 W/m² -13,8 °C 1,6 km/h (1 Bft)
06.01.2017 11:19 -12,1 °C -12,1 °C 87 % 1040,5 hPa 0,0 mm 1,4 km/h (1 Bft) O-NO 61 ° 0 min 0,000 mm 0,0 UV-I 11 W/m² -13,8 °C 3,2 km/h (1 Bft)
06.01.2017 11:20 -12,1 °C -12,1 °C 87 % 1040,5 hPa 0,0 mm 0,1 km/h (0 Bft) O-NO 61 ° 0 min 0,000 mm 0,0 UV-I 11 W/m² -13,8 °C 1,6 km/h (1 Bft)
06.01.2017 11:21 -12,1 °C -12,1 °C 87 % 1040,5 hPa 0,0 mm 0,6 km/h (0 Bft) O-NO 61 ° 0 min 0,000 mm 0,0 UV-I 11 W/m² -13,8 °C 1,6 km/h (1 Bft)
06.01.2017 11:22 -12,1 °C -12,0 °C 88 % 1040,5 hPa 0,0 mm 0,0 km/h (0 Bft) O-NO 61 ° 0 min 0,000 mm 0,0 UV-I 11 W/m² -13,7 °C 0,0 km/h (0 Bft)
06.01.2017 11:23 -12,1 °C -12,1 °C 88 % 1040,5 hPa 0,0 mm 0,2 km/h (0 Bft) O-NO 61 ° 0 min 0,000 mm 0,0 UV-I 11 W/m² -13,7 °C 1,6 km/h (1 Bft)
06.01.2017 11:24 -12,1 °C -12,0 °C 88 % 1040,6 hPa 0,0 mm 0,3 km/h (0 Bft) O-NO 61 ° 0 min 0,000 mm 0,0 UV-I 11 W/m² -13,7 °C 1,6 km/h (1 Bft)
06.01.2017 11:25 -12,1 °C -12,0 °C 88 % 1040,5 hPa 0,0 mm 0,7 km/h (0 Bft) O-NO 61 ° 0 min 0,000 mm 0,0 UV-I 11 W/m² -13,7 °C 3,2 km/h (1 Bft)
06.01.2017 11:26 -12,0 °C -12,0 °C 88 % 1040,5 hPa 0,0 mm 0,0 km/h (0 Bft) O-NO 61 ° 0 min 0,000 mm 0,0 UV-I 11 W/m² -13,6 °C 0,0 km/h (0 Bft)
06.01.2017 11:27 -12,0 °C -12,0 °C 88 % 1040,6 hPa 0,0 mm 0,5 km/h (0 Bft) O-NO 61 ° 0 min 0,000 mm 0,0 UV-I 11 W/m² -13,6 °C 1,6 km/h (1 Bft)
06.01.2017 11:28 -11,9 °C -11,9 °C 88 % 1040,6 hPa 0,0 mm 1,1 km/h (1 Bft) O-NO 61 ° 0 min 0,000 mm 0,0 UV-I 11 W/m² -13,5 °C 1,6 km/h (1 Bft)
06.01.2017 11:29 -12,0 °C -11,9 °C 88 % 1040,6 hPa 0,0 mm 0,3 km/h (0 Bft) O-NO 61 ° 0 min 0,000 mm 0,0 UV-I 11 W/m² -13,6 °C 1,6 km/h (1 Bft)
06.01.2017 11:30 -12,0 °C -11,9 °C 88 % 1040,5 hPa 0,0 mm 1,4 km/h (1 Bft) O-NO 61 ° 0 min 0,000 mm 0,0 UV-I 11 W/m² -13,6 °C 3,2 km/h (1 Bft)
06.01.2017 11:31 -11,9 °C -11,9 °C 88 % 1040,5 hPa 0,0 mm 0,7 km/h (0 Bft) O-NO 61 ° 0 min 0,000 mm 0,0 UV-I 11 W/m² -13,5 °C 1,6 km/h (1 Bft)
06.01.2017 11:32 -11,9 °C -11,9 °C 89 % 1040,5 hPa 0,0 mm 1,8 km/h (1 Bft) O-NO 61 ° 0 min 0,000 mm 0,0 UV-I 11 W/m² -13,3 °C 3,2 km/h (1 Bft)
06.01.2017 11:33 -11,9 °C -11,9 °C 89 % 1040,4 hPa 0,0 mm 1,5 km/h (1 Bft) O-NO 61 ° 0 min 0,000 mm 0,0 UV-I 11 W/m² -13,3 °C 3,2 km/h (1 Bft)
06.01.2017 11:34 -11,9 °C -11,9 °C 89 % 1040,4 hPa 0,0 mm 1,5 km/h (1 Bft) O-NO 61 ° 0 min 0,000 mm 0,0 UV-I 12 W/m² -13,3 °C 3,2 km/h (1 Bft)
06.01.2017 11:35 -11,9 °C -11,9 °C 89 % 1040,4 hPa 0,0 mm 1,5 km/h (1 Bft) O-NO 71 ° 0 min 0,000 mm 0,0 UV-I 12 W/m² -13,3 °C 3,2 km/h (1 Bft)
06.01.2017 11:36 -11,8 °C -11,8 °C 89 % 1040,4 hPa 0,0 mm 2,8 km/h (1 Bft) O-NO 71 ° 0 min 0,000 mm 0,0 UV-I 12 W/m² -13,2 °C 4,8 km/h (1 Bft)
06.01.2017 11:37 -11,8 °C -11,8 °C 89 % 1040,5 hPa 0,0 mm 2,2 km/h (1 Bft) O-NO 71 ° 0 min 0,000 mm 0,0 UV-I 12 W/m² -13,2 °C 3,2 km/h (1 Bft)
06.01.2017 11:38 -11,8 °C -11,8 °C 89 % 1040,4 hPa 0,0 mm 0,8 km/h (0 Bft) O-NO 71 ° 0 min 0,000 mm 0,0 UV-I 14 W/m² -13,2 °C 1,6 km/h (1 Bft)
06.01.2017 11:39 -11,8 °C -11,8 °C 89 % 1040,4 hPa 0,0 mm 0,4 km/h (0 Bft) O-NO 71 ° 0 min 0,000 mm 0,0 UV-I 14 W/m² -13,2 °C 1,6 km/h (1 Bft)
06.01.2017 11:40 -11,8 °C -11,8 °C 89 % 1040,4 hPa 0,0 mm 0,6 km/h (0 Bft) O-NO 71 ° 0 min 0,000 mm 0,0 UV-I 16 W/m² -13,2 °C 1,6 km/h (1 Bft)
06.01.2017 11:41 -11,8 °C -11,8 °C 89 % 1040,3 hPa 0,0 mm 0,0 km/h (0 Bft) O-NO 71 ° 0 min 0,000 mm 0,0 UV-I 16 W/m² -13,2 °C 0,0 km/h (0 Bft)
06.01.2017 11:42 -11,7 °C -11,7 °C 89 % 1040,3 hPa 0,0 mm 0,1 km/h (0 Bft) O-NO 71 ° 0 min 0,000 mm 0,0 UV-I 16 W/m² -13,1 °C 1,6 km/h (1 Bft)
06.01.2017 11:43 -11,7 °C -11,7 °C 89 % 1040,4 hPa 0,0 mm 0,5 km/h (0 Bft) O-NO 71 ° 0 min 0,000 mm 0,0 UV-I 16 W/m² -13,1 °C 1,6 km/h (1 Bft)
06.01.2017 11:44 -11,7 °C -11,7 °C 89 % 1040,4 hPa 0,0 mm 2,2 km/h (1 Bft) O-NO 71 ° 0 min 0,000 mm 0,0 UV-I 18 W/m² -13,1 °C 3,2 km/h (1 Bft)
06.01.2017 11:45 -11,7 °C -11,7 °C 89 % 1040,3 hPa 0,0 mm 1,0 km/h (0 Bft) O-NO 71 ° 0 min 0,000 mm 0,0 UV-I 18 W/m² -13,1 °C 1,6 km/h (1 Bft)
06.01.2017 11:46 -11,7 °C -11,7 °C 89 % 1040,3 hPa 0,0 mm 1,7 km/h (1 Bft) O-NO 71 ° 0 min 0,000 mm 0,0 UV-I 19 W/m² -13,1 °C 3,2 km/h (1 Bft)
06.01.2017 11:47 -11,7 °C -11,7 °C 89 % 1040,3 hPa 0,0 mm 0,4 km/h (0 Bft) O-NO 71 ° 0 min 0,000 mm 0,0 UV-I 19 W/m² -13,1 °C 1,6 km/h (1 Bft)
06.01.2017 11:48 -11,7 °C -11,7 °C 89 % 1040,3 hPa 0,0 mm 0,0 km/h (0 Bft) O-NO 71 ° 0 min 0,000 mm 0,0 UV-I 19 W/m² -13,1 °C 0,0 km/h (0 Bft)
06.01.2017 11:49 -11,6 °C -11,6 °C 89 % 1040,3 hPa 0,0 mm 0,0 km/h (0 Bft) O-NO 71 ° 0 min 0,000 mm 0,0 UV-I 23 W/m² -13,0 °C 0,0 km/h (0 Bft)
06.01.2017 11:50 -11,6 °C -11,6 °C 89 % 1040,3 hPa 0,0 mm 0,8 km/h (0 Bft) O-NO 71 ° 0 min 0,000 mm 0,0 UV-I 25 W/m² -13,0 °C 3,2 km/h (1 Bft)
06.01.2017 11:51 -11,6 °C -11,6 °C 89 % 1040,3 hPa 0,0 mm 1,5 km/h (1 Bft) O-NO 71 ° 0 min 0,000 mm 0,0 UV-I 25 W/m² -13,0 °C 3,2 km/h (1 Bft)
06.01.2017 11:52 -11,6 °C -11,6 °C 89 % 1040,3 hPa 0,0 mm 1,3 km/h (1 Bft) O-NO 71 ° 0 min 0,000 mm 0,0 UV-I 25 W/m² -13,0 °C 3,2 km/h (1 Bft)
06.01.2017 11:53 -11,6 °C -11,6 °C 89 % 1040,3 hPa 0,0 mm 0,5 km/h (0 Bft) O-NO 71 ° 0 min 0,000 mm 0,0 UV-I 25 W/m² -13,0 °C 1,6 km/h (1 Bft)
06.01.2017 11:54 -11,6 °C -11,6 °C 89 % 1040,3 hPa 0,0 mm 1,1 km/h (1 Bft) O-NO 71 ° 0 min 0,000 mm 0,0 UV-I 23 W/m² -13,0 °C 3,2 km/h (1 Bft)
06.01.2017 11:55 -11,5 °C -11,5 °C 89 % 1040,3 hPa 0,0 mm 2,1 km/h (1 Bft) O-NO 71 ° 0 min 0,000 mm 0,0 UV-I 21 W/m² -12,9 °C 3,2 km/h (1 Bft)
06.01.2017 11:56 -11,5 °C -11,5 °C 89 % 1040,3 hPa 0,0 mm 2,4 km/h (1 Bft) N-NO 25 ° 0 min 0,000 mm 0,0 UV-I 21 W/m² -12,9 °C 3,2 km/h (1 Bft)
06.01.2017 11:57 -11,5 °C -11,5 °C 89 % 1040,3 hPa 0,0 mm 2,1 km/h (1 Bft) NO 46 ° 0 min 0,000 mm 0,0 UV-I 21 W/m² -12,9 °C 4,8 km/h (1 Bft)
06.01.2017 11:58 -11,4 °C -11,4 °C 89 % 1040,3 hPa 0,0 mm 1,6 km/h (1 Bft) NO 46 ° 0 min 0,000 mm 0,0 UV-I 21 W/m² -12,8 °C 3,2 km/h (1 Bft)
06.01.2017 11:59 -11,4 °C -11,4 °C 89 % 1040,3 hPa 0,0 mm 1,2 km/h (1 Bft) NO 46 ° 0 min 0,000 mm 0,0 UV-I 21 W/m² -12,8 °C 3,2 km/h (1 Bft)
06.01.2017 12:00 -11,4 °C -11,4 °C 89 % 1040,3 hPa 0,0 mm 2,6 km/h (1 Bft) NO 52 ° 0 min 0,000 mm 0,0 UV-I 21 W/m² -12,8 °C 3,2 km/h (1 Bft)
06.01.2017 12:01 -11,4 °C -11,4 °C 89 % 1040,3 hPa 0,0 mm 2,9 km/h (1 Bft) NO 52 ° 0 min 0,000 mm 0,0 UV-I 23 W/m² -12,8 °C 4,8 km/h (1 Bft)
06.01.2017 12:02 -11,4 °C -11,4 °C 89 % 1040,3 hPa 0,0 mm 2,9 km/h (1 Bft) NO 52 ° 0 min 0,000 mm 0,0 UV-I 25 W/m² -12,8 °C 3,2 km/h (1 Bft)
06.01.2017 12:03 -11,4 °C -11,4 °C 89 % 1040,3 hPa 0,0 mm 1,9 km/h (1 Bft) NO 52 ° 0 min 0,000 mm 0,0 UV-I 26 W/m² -12,8 °C 3,2 km/h (1 Bft)
06.01.2017 12:04 -11,4 °C -11,3 °C 89 % 1040,3 hPa 0,0 mm 3,0 km/h (1 Bft) NO 52 ° 0 min 0,000 mm 0,0 UV-I 25 W/m² -12,8 °C 4,8 km/h (1 Bft)
06.01.2017 12:05 -11,3 °C -11,3 °C 89 % 1040,3 hPa 0,0 mm 3,5 km/h (1 Bft) NO 55 ° 0 min 0,000 mm 0,0 UV-I 23 W/m² -12,7 °C 4,8 km/h (1 Bft)
06.01.2017 12:06 -11,3 °C -11,3 °C 89 % 1040,3 hPa 0,0 mm 2,3 km/h (1 Bft) NO 55 ° 0 min 0,000 mm 0,0 UV-I 23 W/m² -12,7 °C 3,2 km/h (1 Bft)
06.01.2017 12:07 -11,3 °C -11,3 °C 89 % 1040,3 hPa 0,0 mm 2,3 km/h (1 Bft) NO 55 ° 0 min 0,000 mm 0,0 UV-I 23 W/m² -12,7 °C 3,2 km/h (1 Bft)
06.01.2017 12:08 -11,3 °C -11,3 °C 89 % 1040,2 hPa 0,0 mm 2,9 km/h (1 Bft) O-NO 58 ° 0 min 0,000 mm 0,0 UV-I 19 W/m² -12,7 °C 4,8 km/h (1 Bft)
06.01.2017 12:09 -11,3 °C -11,3 °C 89 % 1040,3 hPa 0,0 mm 3,0 km/h (1 Bft) O-NO 58 ° 0 min 0,000 mm 0,0 UV-I 18 W/m² -12,7 °C 4,8 km/h (1 Bft)
06.01.2017 12:10 -11,3 °C -11,3 °C 88 % 1040,2 hPa 0,0 mm 1,7 km/h (1 Bft) O-NO 58 ° 0 min 0,000 mm 0,0 UV-I 18 W/m² -12,9 °C 3,2 km/h (1 Bft)
06.01.2017 12:11 -11,2 °C -11,2 °C 88 % 1040,2 hPa 0,0 mm 2,5 km/h (1 Bft) O-NO 58 ° 0 min 0,000 mm 0,0 UV-I 18 W/m² -12,8 °C 4,8 km/h (1 Bft)
06.01.2017 12:12 -11,2 °C -11,2 °C 88 % 1040,2 hPa 0,0 mm 2,1 km/h (1 Bft) O-NO 58 ° 0 min 0,000 mm 0,0 UV-I 18 W/m² -12,8 °C 3,2 km/h (1 Bft)
06.01.2017 12:13 -11,2 °C -11,2 °C 89 % 1040,2 hPa 0,0 mm 2,0 km/h (1 Bft) O-NO 58 ° 0 min 0,000 mm 0,0 UV-I 16 W/m² -12,6 °C 4,8 km/h (1 Bft)
06.01.2017 12:14 -11,2 °C -11,2 °C 88 % 1040,2 hPa 0,0 mm 2,0 km/h (1 Bft) O-NO 58 ° 0 min 0,000 mm 0,0 UV-I 14 W/m² -12,8 °C 3,2 km/h (1 Bft)
06.01.2017 12:15 -11,2 °C -11,2 °C 88 % 1040,2 hPa 0,0 mm 1,6 km/h (1 Bft) O-NO 58 ° 0 min 0,000 mm 0,0 UV-I 14 W/m² -12,8 °C 1,6 km/h (1 Bft)
06.01.2017 12:16 -11,2 °C -11,2 °C 88 % 1040,2 hPa 0,0 mm 0,8 km/h (0 Bft) O-NO 58 ° 0 min 0,000 mm 0,0 UV-I 16 W/m² -12,8 °C 1,6 km/h (1 Bft)
06.01.2017 12:17 -11,2 °C -11,2 °C 88 % 1040,1 hPa 0,0 mm 1,0 km/h (0 Bft) O-NO 58 ° 0 min 0,000 mm 0,0 UV-I 14 W/m² -12,8 °C 1,6 km/h (1 Bft)
06.01.2017 12:18 -11,2 °C -11,2 °C 88 % 1040,1 hPa 0,0 mm 0,7 km/h (0 Bft) O-NO 58 ° 0 min 0,000 mm 0,0 UV-I 14 W/m² -12,8 °C 1,6 km/h (1 Bft)
06.01.2017 12:19 -11,2 °C -11,2 °C 88 % 1040,1 hPa 0,0 mm 0,3 km/h (0 Bft) O-NO 58 ° 0 min 0,000 mm 0,0 UV-I 14 W/m² -12,8 °C 1,6 km/h (1 Bft)
06.01.2017 12:20 -11,2 °C -11,2 °C 88 % 1040,1 hPa 0,0 mm 0,1 km/h (0 Bft) O-NO 58 ° 0 min 0,000 mm 0,0 UV-I 14 W/m² -12,8 °C 1,6 km/h (1 Bft)
06.01.2017 12:21 -11,2 °C -11,2 °C 88 % 1040,1 hPa 0,0 mm 0,9 km/h (0 Bft) O-NO 58 ° 0 min 0,000 mm 0,0 UV-I 14 W/m² -12,8 °C 1,6 km/h (1 Bft)
06.01.2017 12:22 -11,2 °C -11,2 °C 88 % 1040,1 hPa 0,0 mm 0,6 km/h (0 Bft) O-NO 58 ° 0 min 0,000 mm 0,0 UV-I 14 W/m² -12,8 °C 1,6 km/h (1 Bft)
06.01.2017 12:23 -11,2 °C -11,2 °C 88 % 1040,1 hPa 0,0 mm 1,1 km/h (1 Bft) O-NO 58 ° 0 min 0,000 mm 0,0 UV-I 16 W/m² -12,8 °C 1,6 km/h (1 Bft)
06.01.2017 12:24 -11,2 °C -11,2 °C 88 % 1040,1 hPa 0,0 mm 1,1 km/h (1 Bft) O-NO 58 ° 0 min 0,000 mm 0,0 UV-I 14 W/m² -12,8 °C 1,6 km/h (1 Bft)
06.01.2017 12:25 -11,2 °C -11,2 °C 88 % 1040,1 hPa 0,0 mm 0,7 km/h (0 Bft) O-NO 58 ° 0 min 0,000 mm 0,0 UV-I 14 W/m² -12,8 °C 1,6 km/h (1 Bft)
06.01.2017 12:26 -11,2 °C -11,2 °C 88 % 1040,1 hPa 0,0 mm 0,5 km/h (0 Bft) O-NO 58 ° 0 min 0,000 mm 0,0 UV-I 12 W/m² -12,8 °C 1,6 km/h (1 Bft)
06.01.2017 12:27 -11,2 °C -11,2 °C 88 % 1040,1 hPa 0,0 mm 1,0 km/h (0 Bft) O-NO 58 ° 0 min 0,000 mm 0,0 UV-I 12 W/m² -12,8 °C 1,6 km/h (1 Bft)
06.01.2017 12:28 -11,2 °C -11,2 °C 88 % 1040,1 hPa 0,0 mm 0,6 km/h (0 Bft) O-NO 58 ° 0 min 0,000 mm 0,0 UV-I 12 W/m² -12,8 °C 1,6 km/h (1 Bft)
06.01.2017 12:29 -11,2 °C -11,2 °C 87 % 1040,1 hPa 0,0 mm 0,1 km/h (0 Bft) O-NO 58 ° 0 min 0,000 mm 0,0 UV-I 11 W/m² -12,9 °C 1,6 km/h (1 Bft)
06.01.2017 12:30 -11,2 °C -11,2 °C 87 % 1040,1 hPa 0,0 mm 0,1 km/h (0 Bft) O-NO 58 ° 0 min 0,000 mm 0,0 UV-I 11 W/m² -12,9 °C 1,6 km/h (1 Bft)
06.01.2017 12:31 -11,2 °C -11,2 °C 87 % 1040,1 hPa 0,0 mm 0,7 km/h (0 Bft) O-NO 58 ° 0 min 0,000 mm 0,0 UV-I 11 W/m² -12,9 °C 1,6 km/h (1 Bft)
06.01.2017 12:32 -11,2 °C -11,2 °C 87 % 1040,0 hPa 0,0 mm 0,5 km/h (0 Bft) O-NO 58 ° 0 min 0,000 mm 0,0 UV-I 11 W/m² -12,9 °C 1,6 km/h (1 Bft)
06.01.2017 12:33 -11,2 °C -11,2 °C 87 % 1040,0 hPa 0,0 mm 1,5 km/h (1 Bft) O-NO 58 ° 0 min 0,000 mm 0,0 UV-I 12 W/m² -12,9 °C 3,2 km/h (1 Bft)
06.01.2017 12:34 -11,2 °C -11,2 °C 87 % 1040,0 hPa 0,0 mm 1,2 km/h (1 Bft) O-NO 58 ° 0 min 0,000 mm 0,0 UV-I 11 W/m² -12,9 °C 1,6 km/h (1 Bft)
06.01.2017 12:35 -11,2 °C -11,2 °C 87 % 1040,0 hPa 0,0 mm 1,7 km/h (1 Bft) O-NO 58 ° 0 min 0,000 mm 0,0 UV-I 11 W/m² -12,9 °C 3,2 km/h (1 Bft)
06.01.2017 12:36 -11,2 °C -11,2 °C 87 % 1040,0 hPa 0,0 mm 1,2 km/h (1 Bft) O-NO 58 ° 0 min 0,000 mm 0,0 UV-I 11 W/m² -12,9 °C 1,6 km/h (1 Bft)
06.01.2017 12:37 -11,2 °C -11,2 °C 87 % 1040,0 hPa 0,0 mm 1,6 km/h (1 Bft) O-NO 58 ° 0 min 0,000 mm 0,0 UV-I 11 W/m² -12,9 °C 3,2 km/h (1 Bft)
06.01.2017 12:38 -11,3 °C -11,2 °C 87 % 1040,0 hPa 0,0 mm 1,7 km/h (1 Bft) O-NO 58 ° 0 min 0,000 mm 0,0 UV-I 11 W/m² -13,0 °C 3,2 km/h (1 Bft)
06.01.2017 12:39 -11,3 °C -11,3 °C 87 % 1040,0 hPa 0,0 mm 1,7 km/h (1 Bft) O-NO 58 ° 0 min 0,000 mm 0,0 UV-I 11 W/m² -13,0 °C 3,2 km/h (1 Bft)
06.01.2017 12:40 -11,3 °C -11,3 °C 87 % 1040,0 hPa 0,0 mm 1,5 km/h (1 Bft) O-NO 58 ° 0 min 0,000 mm 0,0 UV-I 11 W/m² -13,0 °C 3,2 km/h (1 Bft)
06.01.2017 12:41 -11,3 °C -11,3 °C 87 % 1040,0 hPa 0,0 mm 1,4 km/h (1 Bft) O-NO 58 ° 0 min 0,000 mm 0,0 UV-I 11 W/m² -13,0 °C 1,6 km/h (1 Bft)
06.01.2017 12:42 -11,3 °C -11,3 °C 87 % 1040,0 hPa 0,0 mm 1,5 km/h (1 Bft) O-NO 58 ° 0 min 0,000 mm 0,0 UV-I 11 W/m² -13,0 °C 3,2 km/h (1 Bft)
06.01.2017 12:43 -11,3 °C -11,3 °C 87 % 1040,0 hPa 0,0 mm 1,5 km/h (1 Bft) O-NO 58 ° 0 min 0,000 mm 0,0 UV-I 11 W/m² -13,0 °C 1,6 km/h (1 Bft)
06.01.2017 12:44 -11,3 °C -11,3 °C 87 % 1040,0 hPa 0,0 mm 1,1 km/h (1 Bft) O-NO 58 ° 0 min 0,000 mm 0,0 UV-I 11 W/m² -13,0 °C 1,6 km/h (1 Bft)
06.01.2017 12:45 -11,3 °C -11,3 °C 87 % 1039,9 hPa 0,0 mm 1,1 km/h (1 Bft) O-NO 58 ° 0 min 0,000 mm 0,0 UV-I 11 W/m² -13,0 °C 1,6 km/h (1 Bft)
06.01.2017 12:46 -11,3 °C -11,3 °C 87 % 1039,9 hPa 0,0 mm 1,4 km/h (1 Bft) O-NO 58 ° 0 min 0,000 mm 0,0 UV-I 11 W/m² -13,0 °C 3,2 km/h (1 Bft)
06.01.2017 12:47 -11,3 °C -11,3 °C 87 % 1039,9 hPa 0,0 mm 1,7 km/h (1 Bft) O-NO 58 ° 0 min 0,000 mm 0,0 UV-I 11 W/m² -13,0 °C 3,2 km/h (1 Bft)
06.01.2017 12:48 -11,4 °C -11,3 °C 87 % 1039,9 hPa 0,0 mm 0,7 km/h (0 Bft) O-NO 58 ° 0 min 0,000 mm 0,0 UV-I 11 W/m² -13,1 °C 1,6 km/h (1 Bft)
06.01.2017 12:49 -11,4 °C -11,3 °C 87 % 1039,9 hPa 0,0 mm 0,7 km/h (0 Bft) O-NO 58 ° 0 min 0,000 mm 0,0 UV-I 11 W/m² -13,1 °C 1,6 km/h (1 Bft)
06.01.2017 12:50 -11,4 °C -11,4 °C 87 % 1039,9 hPa 0,0 mm 1,0 km/h (0 Bft) O-NO 58 ° 0 min 0,000 mm 0,0 UV-I 11 W/m² -13,1 °C 1,6 km/h (1 Bft)
06.01.2017 12:51 -11,4 °C -11,4 °C 87 % 1039,8 hPa 0,0 mm 1,7 km/h (1 Bft) O-NO 58 ° 0 min 0,000 mm 0,0 UV-I 11 W/m² -13,1 °C 3,2 km/h (1 Bft)
06.01.2017 12:52 -11,4 °C -11,4 °C 87 % 1039,9 hPa 0,0 mm 1,5 km/h (1 Bft) O-NO 58 ° 0 min 0,000 mm 0,0 UV-I 11 W/m² -13,1 °C 3,2 km/h (1 Bft)
06.01.2017 12:53 -11,4 °C -11,4 °C 87 % 1039,8 hPa 0,0 mm 2,1 km/h (1 Bft) O-NO 58 ° 0 min 0,000 mm 0,0 UV-I 11 W/m² -13,1 °C 3,2 km/h (1 Bft)
06.01.2017 12:54 -11,4 °C -11,4 °C 87 % 1039,8 hPa 0,0 mm 1,7 km/h (1 Bft) O-NO 58 ° 0 min 0,000 mm 0,0 UV-I 11 W/m² -13,1 °C 3,2 km/h (1 Bft)
06.01.2017 12:55 -11,4 °C -11,4 °C 87 % 1039,8 hPa 0,0 mm 1,2 km/h (1 Bft) O-NO 74 ° 0 min 0,000 mm 0,0 UV-I 12 W/m² -13,1 °C 1,6 km/h (1 Bft)
06.01.2017 12:56 -11,4 °C -11,4 °C 87 % 1039,8 hPa 0,0 mm 1,8 km/h (1 Bft) O-NO 74 ° 0 min 0,000 mm 0,0 UV-I 12 W/m² -13,1 °C 3,2 km/h (1 Bft)
06.01.2017 12:57 -11,4 °C -11,4 °C 87 % 1039,7 hPa 0,0 mm 1,4 km/h (1 Bft) O-NO 74 ° 0 min 0,000 mm 0,0 UV-I 12 W/m² -13,1 °C 1,6 km/h (1 Bft)
06.01.2017 12:58 -11,4 °C -11,4 °C 87 % 1039,8 hPa 0,0 mm 1,5 km/h (1 Bft) O-NO 74 ° 0 min 0,000 mm 0,0 UV-I 12 W/m² -13,1 °C 3,2 km/h (1 Bft)
06.01.2017 12:59 -11,4 °C -11,4 °C 87 % 1039,8 hPa 0,0 mm 2,4 km/h (1 Bft) O-NO 74 ° 0 min 0,000 mm 0,0 UV-I 12 W/m² -13,1 °C 3,2 km/h (1 Bft)
06.01.2017 13:00 -11,4 °C -11,3 °C 87 % 1039,8 hPa 0,0 mm 2,1 km/h (1 Bft) O-NO 74 ° 0 min 0,000 mm 0,0 UV-I 12 W/m² -13,1 °C 3,2 km/h (1 Bft)
06.01.2017 13:01 -11,4 °C -11,3 °C 87 % 1039,8 hPa 0,0 mm 1,7 km/h (1 Bft) O-NO 74 ° 0 min 0,000 mm 0,0 UV-I 12 W/m² -13,1 °C 3,2 km/h (1 Bft)
06.01.2017 13:02 -11,3 °C -11,3 °C 87 % 1039,8 hPa 0,0 mm 1,5 km/h (1 Bft) O-NO 74 ° 0 min 0,000 mm 0,0 UV-I 12 W/m² -13,0 °C 3,2 km/h (1 Bft)
06.01.2017 13:03 -11,3 °C -11,3 °C 87 % 1039,8 hPa 0,0 mm 2,1 km/h (1 Bft) O-NO 74 ° 0 min 0,000 mm 0,0 UV-I 12 W/m² -13,0 °C 3,2 km/h (1 Bft)
06.01.2017 13:04 -11,3 °C -11,3 °C 87 % 1039,7 hPa 0,0 mm 0,9 km/h (0 Bft) O-NO 74 ° 0 min 0,000 mm 0,0 UV-I 14 W/m² -13,0 °C 3,2 km/h (1 Bft)
06.01.2017 13:05 -11,3 °C -11,3 °C 87 % 1039,8 hPa 0,0 mm 2,1 km/h (1 Bft) O-NO 74 ° 0 min 0,000 mm 0,0 UV-I 14 W/m² -13,0 °C 3,2 km/h (1 Bft)
06.01.2017 13:06 -11,3 °C -11,3 °C 87 % 1039,7 hPa 0,0 mm 1,7 km/h (1 Bft) O-NO 74 ° 0 min 0,000 mm 0,0 UV-I 14 W/m² -13,0 °C 3,2 km/h (1 Bft)
06.01.2017 13:07 -11,3 °C -11,3 °C 87 % 1039,7 hPa 0,0 mm 1,9 km/h (1 Bft) O 86 ° 0 min 0,000 mm 0,0 UV-I 14 W/m² -13,0 °C 3,2 km/h (1 Bft)
06.01.2017 13:08 -11,3 °C -11,3 °C 87 % 1039,7 hPa 0,0 mm 0,6 km/h (0 Bft) O 86 ° 0 min 0,000 mm 0,0 UV-I 14 W/m² -13,0 °C 1,6 km/h (1 Bft)
06.01.2017 13:09 -11,3 °C -11,3 °C 87 % 1039,7 hPa 0,0 mm 1,5 km/h (1 Bft) O 86 ° 0 min 0,000 mm 0,0 UV-I 16 W/m² -13,0 °C 1,6 km/h (1 Bft)
06.01.2017 13:10 -11,3 °C -11,3 °C 87 % 1039,7 hPa 0,0 mm 1,1 km/h (1 Bft) O 86 ° 0 min 0,000 mm 0,0 UV-I 16 W/m² -13,0 °C 3,2 km/h (1 Bft)
06.01.2017 13:11 -11,3 °C -11,3 °C 87 % 1039,7 hPa 0,0 mm 1,7 km/h (1 Bft) O 86 ° 0 min 0,000 mm 0,0 UV-I 16 W/m² -13,0 °C 3,2 km/h (1 Bft)
06.01.2017 13:12 -11,3 °C -11,3 °C 87 % 1039,7 hPa 0,0 mm 1,3 km/h (1 Bft) O 86 ° 0 min 0,000 mm 0,0 UV-I 19 W/m² -13,0 °C 1,6 km/h (1 Bft)
06.01.2017 13:13 -11,3 °C -11,3 °C 87 % 1039,7 hPa 0,0 mm 0,9 km/h (0 Bft) O 86 ° 0 min 0,000 mm 0,0 UV-I 21 W/m² -13,0 °C 1,6 km/h (1 Bft)
06.01.2017 13:14 -11,3 °C -11,3 °C 87 % 1039,7 hPa 0,0 mm 2,3 km/h (1 Bft) O 83 ° 0 min 0,000 mm 0,0 UV-I 21 W/m² -13,0 °C 3,2 km/h (1 Bft)
06.01.2017 13:15 -11,3 °C -11,2 °C 87 % 1039,7 hPa 0,0 mm 1,3 km/h (1 Bft) O 83 ° 0 min 0,000 mm 0,0 UV-I 23 W/m² -13,0 °C 3,2 km/h (1 Bft)
06.01.2017 13:16 -11,2 °C -11,2 °C 87 % 1039,7 hPa 0,0 mm 0,0 km/h (0 Bft) O 83 ° 0 min 0,000 mm 0,0 UV-I 23 W/m² -12,9 °C 0,0 km/h (0 Bft)
06.01.2017 13:17 -11,2 °C -11,2 °C 87 % 1039,7 hPa 0,0 mm 0,2 km/h (0 Bft) O 83 ° 0 min 0,000 mm 0,0 UV-I 23 W/m² -12,9 °C 1,6 km/h (1 Bft)
06.01.2017 13:18 -11,2 °C -11,2 °C 87 % 1039,7 hPa 0,0 mm 2,1 km/h (1 Bft) O-NO 59 ° 0 min 0,000 mm 0,0 UV-I 23 W/m² -12,9 °C 4,8 km/h (1 Bft)
06.01.2017 13:19 -11,2 °C -11,2 °C 87 % 1039,7 hPa 0,0 mm 1,2 km/h (1 Bft) O-NO 59 ° 0 min 0,000 mm 0,0 UV-I 23 W/m² -12,9 °C 1,6 km/h (1 Bft)
06.01.2017 13:20 -11,2 °C -11,2 °C 87 % 1039,8 hPa 0,0 mm 1,5 km/h (1 Bft) O-NO 59 ° 0 min 0,000 mm 0,0 UV-I 23 W/m² -12,9 °C 1,6 km/h (1 Bft)
06.01.2017 13:21 -11,2 °C -11,2 °C 87 % 1039,7 hPa 0,0 mm 1,9 km/h (1 Bft) O-NO 59 ° 0 min 0,000 mm 0,0 UV-I 23 W/m² -12,9 °C 3,2 km/h (1 Bft)
06.01.2017 13:22 -11,2 °C -11,2 °C 87 % 1039,7 hPa 0,0 mm 1,2 km/h (1 Bft) O-NO 59 ° 0 min 0,000 mm 0,0 UV-I 25 W/m² -12,9 °C 3,2 km/h (1 Bft)
06.01.2017 13:23 -11,2 °C -11,1 °C 87 % 1039,6 hPa 0,0 mm 1,0 km/h (0 Bft) O-NO 59 ° 0 min 0,000 mm 0,0 UV-I 26 W/m² -12,9 °C 1,6 km/h (1 Bft)
06.01.2017 13:24 -11,1 °C -11,1 °C 87 % 1039,7 hPa 0,0 mm 0,9 km/h (0 Bft) O-NO 59 ° 0 min 0,000 mm 0,0 UV-I 28 W/m² -12,8 °C 1,6 km/h (1 Bft)
06.01.2017 13:25 -11,1 °C -11,1 °C 87 % 1039,7 hPa 0,0 mm 1,5 km/h (1 Bft) O-NO 59 ° 0 min 0,000 mm 0,0 UV-I 28 W/m² -12,8 °C 3,2 km/h (1 Bft)
06.01.2017 13:26 -11,1 °C -11,1 °C 87 % 1039,7 hPa 0,0 mm 1,1 km/h (1 Bft) O-NO 59 ° 0 min 0,000 mm 0,0 UV-I 26 W/m² -12,8 °C 3,2 km/h (1 Bft)
06.01.2017 13:27 -11,1 °C -11,1 °C 87 % 1039,7 hPa 0,0 mm 2,4 km/h (1 Bft) O-NO 64 ° 0 min 0,000 mm 0,0 UV-I 25 W/m² -12,8 °C 4,8 km/h (1 Bft)
06.01.2017 13:28 -11,1 °C -11,1 °C 87 % 1039,7 hPa 0,0 mm 3,3 km/h (1 Bft) O-NO 69 ° 0 min 0,000 mm 0,0 UV-I 23 W/m² -12,8 °C 4,8 km/h (1 Bft)
06.01.2017 13:29 -11,1 °C -11,1 °C 87 % 1039,7 hPa 0,0 mm 1,1 km/h (1 Bft) O-NO 69 ° 0 min 0,000 mm 0,0 UV-I 21 W/m² -12,8 °C 1,6 km/h (1 Bft)
06.01.2017 13:30 -11,1 °C -11,1 °C 87 % 1039,7 hPa 0,0 mm 1,0 km/h (0 Bft) O-NO 69 ° 0 min 0,000 mm 0,0 UV-I 21 W/m² -12,8 °C 1,6 km/h (1 Bft)
06.01.2017 13:31 -11,1 °C -11,0 °C 87 % 1039,6 hPa 0,0 mm 1,5 km/h (1 Bft) O-NO 69 ° 0 min 0,000 mm 0,0 UV-I 21 W/m² -12,8 °C 3,2 km/h (1 Bft)
06.01.2017 13:32 -11,1 °C -11,0 °C 87 % 1039,6 hPa 0,0 mm 0,9 km/h (0 Bft) O-NO 69 ° 0 min 0,000 mm 0,0 UV-I 19 W/m² -12,8 °C 3,2 km/h (1 Bft)
06.01.2017 13:33 -11,0 °C -11,0 °C 87 % 1039,6 hPa 0,0 mm 1,2 km/h (1 Bft) O-NO 69 ° 0 min 0,000 mm 0,0 UV-I 21 W/m² -12,7 °C 1,6 km/h (1 Bft)
06.01.2017 13:34 -11,0 °C -11,0 °C 87 % 1039,6 hPa 0,0 mm 0,3 km/h (0 Bft) O-NO 69 ° 0 min 0,000 mm 0,0 UV-I 21 W/m² -12,7 °C 1,6 km/h (1 Bft)
06.01.2017 13:35 -10,9 °C -10,9 °C 86 % 1039,6 hPa 0,0 mm 0,7 km/h (0 Bft) O-NO 69 ° 0 min 0,000 mm 0,0 UV-I 23 W/m² -12,8 °C 1,6 km/h (1 Bft)
06.01.2017 13:36 -10,9 °C -10,9 °C 86 % 1039,6 hPa 0,0 mm 1,5 km/h (1 Bft) O-NO 69 ° 0 min 0,000 mm 0,0 UV-I 25 W/m² -12,8 °C 3,2 km/h (1 Bft)
06.01.2017 13:37 -10,9 °C -10,9 °C 86 % 1039,6 hPa 0,0 mm 1,0 km/h (0 Bft) O-NO 69 ° 0 min 0,000 mm 0,0 UV-I 25 W/m² -12,8 °C 3,2 km/h (1 Bft)
06.01.2017 13:38 -10,9 °C -10,9 °C 86 % 1039,5 hPa 0,0 mm 0,7 km/h (0 Bft) O-NO 69 ° 0 min 0,000 mm 0,0 UV-I 25 W/m² -12,8 °C 1,6 km/h (1 Bft)
06.01.2017 13:39 -10,9 °C -10,9 °C 87 % 1039,5 hPa 0,0 mm 0,5 km/h (0 Bft) O-NO 69 ° 0 min 0,000 mm 0,0 UV-I 25 W/m² -12,6 °C 1,6 km/h (1 Bft)
06.01.2017 13:40 -10,9 °C -10,9 °C 87 % 1039,5 hPa 0,0 mm 1,3 km/h (1 Bft) O-NO 69 ° 0 min 0,000 mm 0,0 UV-I 25 W/m² -12,6 °C 3,2 km/h (1 Bft)
06.01.2017 13:41 -10,9 °C -10,9 °C 87 % 1039,5 hPa 0,0 mm 1,7 km/h (1 Bft) O-NO 69 ° 0 min 0,000 mm 0,0 UV-I 26 W/m² -12,6 °C 3,2 km/h (1 Bft)
06.01.2017 13:42 -10,9 °C -10,9 °C 87 % 1039,5 hPa 0,0 mm 1,4 km/h (1 Bft) O-NO 69 ° 0 min 0,000 mm 0,0 UV-I 26 W/m² -12,6 °C 1,6 km/h (1 Bft)
06.01.2017 13:43 -10,9 °C -10,9 °C 86 % 1039,6 hPa 0,0 mm 2,1 km/h (1 Bft) O-NO 69 ° 0 min 0,000 mm 0,0 UV-I 28 W/m² -12,8 °C 4,8 km/h (1 Bft)
06.01.2017 13:44 -10,8 °C -10,8 °C 86 % 1039,5 hPa 0,0 mm 1,1 km/h (1 Bft) O-NO 69 ° 0 min 0,000 mm 0,0 UV-I 28 W/m² -12,7 °C 1,6 km/h (1 Bft)
06.01.2017 13:45 -10,8 °C -10,8 °C 87 % 1039,5 hPa 0,0 mm 2,7 km/h (1 Bft) O-NO 69 ° 0 min 0,000 mm 0,0 UV-I 26 W/m² -12,5 °C 3,2 km/h (1 Bft)
06.01.2017 13:46 -10,8 °C -10,8 °C 86 % 1039,5 hPa 0,0 mm 0,9 km/h (0 Bft) O-NO 69 ° 0 min 0,000 mm 0,0 UV-I 23 W/m² -12,7 °C 1,6 km/h (1 Bft)
06.01.2017 13:47 -10,8 °C -10,8 °C 86 % 1039,6 hPa 0,0 mm 1,2 km/h (1 Bft) O-NO 69 ° 0 min 0,000 mm 0,0 UV-I 28 W/m² -12,7 °C 3,2 km/h (1 Bft)
06.01.2017 13:48 -10,8 °C -10,8 °C 86 % 1039,5 hPa 0,0 mm 0,3 km/h (0 Bft) O-NO 69 ° 0 min 0,000 mm 0,0 UV-I 28 W/m² -12,7 °C 1,6 km/h (1 Bft)
06.01.2017 13:49 -10,8 °C -10,8 °C 86 % 1039,6 hPa 0,0 mm 1,1 km/h (1 Bft) O-NO 69 ° 0 min 0,000 mm 0,0 UV-I 23 W/m² -12,7 °C 4,8 km/h (1 Bft)
06.01.2017 13:50 -10,8 °C -10,8 °C 86 % 1039,5 hPa 0,0 mm 3,0 km/h (1 Bft) NO 42 ° 0 min 0,000 mm 0,0 UV-I 28 W/m² -12,7 °C 4,8 km/h (1 Bft)
06.01.2017 13:51 -10,8 °C -10,7 °C 87 % 1039,5 hPa 0,0 mm 1,1 km/h (1 Bft) NO 42 ° 0 min 0,000 mm 0,0 UV-I 63 W/m² -12,5 °C 3,2 km/h (1 Bft)
06.01.2017 13:52 -10,7 °C -10,7 °C 87 % 1039,5 hPa 0,0 mm 0,5 km/h (0 Bft) NO 42 ° 0 min 0,000 mm 0,0 UV-I 104 W/m² -12,4 °C 1,6 km/h (1 Bft)
06.01.2017 13:53 -10,7 °C -10,7 °C 87 % 1039,5 hPa 0,0 mm 0,7 km/h (0 Bft) NO 42 ° 0 min 0,000 mm 0,0 UV-I 107 W/m² -12,4 °C 1,6 km/h (1 Bft)
06.01.2017 13:54 -10,7 °C -10,7 °C 87 % 1039,5 hPa 0,0 mm 3,2 km/h (1 Bft) O-NO 65 ° 0 min 0,000 mm 0,0 UV-I 113 W/m² -12,4 °C 6,4 km/h (2 Bft)
06.01.2017 13:55 -10,7 °C -10,7 °C 87 % 1039,5 hPa 0,0 mm 1,9 km/h (1 Bft) O-NO 75 ° 0 min 0,000 mm 0,0 UV-I 114 W/m² -12,4 °C 3,2 km/h (1 Bft)
06.01.2017 13:56 -10,7 °C -10,6 °C 87 % 1039,5 hPa 0,0 mm 2,0 km/h (1 Bft) O-NO 57 ° 0 min 0,000 mm 0,0 UV-I 127 W/m² -12,4 °C 3,2 km/h (1 Bft)
06.01.2017 13:57 -10,6 °C -10,6 °C 86 % 1039,5 hPa 0,0 mm 1,5 km/h (1 Bft) O-NO 57 ° 0 min 0,000 mm 0,0 UV-I 137 W/m² -12,5 °C 3,2 km/h (1 Bft)
06.01.2017 13:58 -10,6 °C -10,6 °C 87 % 1039,5 hPa 0,0 mm 1,3 km/h (1 Bft) O-NO 57 ° 0 min 0,000 mm 0,0 UV-I 148 W/m² -12,3 °C 1,6 km/h (1 Bft)
06.01.2017 13:59 -10,6 °C -10,6 °C 88 % 1039,5 hPa 0,0 mm 1,6 km/h (1 Bft) O-NO 57 ° 0 min 0,000 mm 0,0 UV-I 153 W/m² -12,2 °C 3,2 km/h (1 Bft)
06.01.2017 14:00 -10,4 °C -10,4 °C 89 % 1039,5 hPa 0,0 mm 1,7 km/h (1 Bft) O-NO 57 ° 0 min 0,000 mm 0,0 UV-I 153 W/m² -11,9 °C 3,2 km/h (1 Bft)
06.01.2017 14:01 -10,3 °C -10,3 °C 89 % 1039,4 hPa 0,0 mm 0,8 km/h (0 Bft) O-NO 57 ° 0 min 0,000 mm 0,0 UV-I 153 W/m² -11,8 °C 1,6 km/h (1 Bft)
06.01.2017 14:02 -10,3 °C -10,3 °C 90 % 1039,4 hPa 0,0 mm 0,0 km/h (0 Bft) O-NO 57 ° 0 min 0,000 mm 0,0 UV-I 151 W/m² -11,6 °C 0,0 km/h (0 Bft)
06.01.2017 14:03 -10,2 °C -10,2 °C 90 % 1039,4 hPa 0,0 mm 0,7 km/h (0 Bft) O-NO 57 ° 0 min 0,000 mm 0,0 UV-I 153 W/m² -11,5 °C 1,6 km/h (1 Bft)
06.01.2017 14:04 -10,2 °C -10,2 °C 90 % 1039,3 hPa 0,0 mm 0,6 km/h (0 Bft) O-NO 57 ° 0 min 0,000 mm 0,0 UV-I 155 W/m² -11,5 °C 1,6 km/h (1 Bft)
06.01.2017 14:05 -10,1 °C -10,1 °C 90 % 1039,4 hPa 0,0 mm 1,5 km/h (1 Bft) O-NO 59 ° 0 min 0,000 mm 0,0 UV-I 165 W/m² -11,4 °C 3,2 km/h (1 Bft)
06.01.2017 14:06 -10,1 °C -10,1 °C 90 % 1039,3 hPa 0,0 mm 0,9 km/h (0 Bft) O-NO 59 ° 0 min 0,000 mm 0,0 UV-I 179 W/m² -11,4 °C 1,6 km/h (1 Bft)
06.01.2017 14:07 -10,0 °C -10,0 °C 90 % 1039,3 hPa 0,0 mm 1,8 km/h (1 Bft) O-NO 78 ° 0 min 0,000 mm 0,0 UV-I 195 W/m² -11,3 °C 3,2 km/h (1 Bft)
06.01.2017 14:08 -9,9 °C -9,9 °C 90 % 1039,3 hPa 0,0 mm 0,5 km/h (0 Bft) O-NO 78 ° 0 min 0,000 mm 0,0 UV-I 171 W/m² -11,2 °C 1,6 km/h (1 Bft)
06.01.2017 14:09 -9,9 °C -9,9 °C 90 % 1039,3 hPa 0,0 mm 1,7 km/h (1 Bft) O 98 ° 0 min 0,000 mm 0,0 UV-I 91 W/m² -11,2 °C 4,8 km/h (1 Bft)
06.01.2017 14:10 -9,9 °C -9,9 °C 90 % 1039,3 hPa 0,0 mm 1,8 km/h (1 Bft) O 98 ° 0 min 0,000 mm 0,0 UV-I 16 W/m² -11,2 °C 4,8 km/h (1 Bft)
06.01.2017 14:11 -9,9 °C -9,9 °C 90 % 1039,3 hPa 0,0 mm 1,2 km/h (1 Bft) O 98 ° 0 min 0,000 mm 0,0 UV-I 18 W/m² -11,2 °C 3,2 km/h (1 Bft)
06.01.2017 14:12 -9,8 °C -9,8 °C 89 % 1039,3 hPa 0,0 mm 1,5 km/h (1 Bft) O 98 ° 0 min 0,000 mm 0,0 UV-I 67 W/m² -11,3 °C 3,2 km/h (1 Bft)
06.01.2017 14:13 -9,7 °C -9,7 °C 90 % 1039,3 hPa 0,0 mm 2,3 km/h (1 Bft) O 101 ° 0 min 0,000 mm 0,0 UV-I 98 W/m² -11,0 °C 4,8 km/h (1 Bft)
06.01.2017 14:14 -9,7 °C -9,7 °C 88 % 1039,3 hPa 0,0 mm 1,4 km/h (1 Bft) O 101 ° 0 min 0,000 mm 0,0 UV-I 88 W/m² -11,3 °C 1,6 km/h (1 Bft)
06.01.2017 14:15 -9,7 °C -9,7 °C 88 % 1039,3 hPa 0,0 mm 0,1 km/h (0 Bft) O 101 ° 0 min 0,000 mm 0,0 UV-I 69 W/m² -11,3 °C 1,6 km/h (1 Bft)
06.01.2017 14:16 -9,7 °C -9,6 °C 88 % 1039,3 hPa 0,0 mm 1,1 km/h (1 Bft) O 101 ° 0 min 0,000 mm 0,0 UV-I 51 W/m² -11,3 °C 3,2 km/h (1 Bft)
06.01.2017 14:17 -9,7 °C -9,7 °C 87 % 1039,3 hPa 0,0 mm 2,3 km/h (1 Bft) O-NO 62 ° 0 min 0,000 mm 0,0 UV-I 26 W/m² -11,4 °C 3,2 km/h (1 Bft)
06.01.2017 14:18 -9,7 °C -9,7 °C 87 % 1039,3 hPa 0,0 mm 1,4 km/h (1 Bft) O-NO 62 ° 0 min 0,000 mm 0,0 UV-I 21 W/m² -11,4 °C 3,2 km/h (1 Bft)
06.01.2017 14:19 -9,7 °C -9,7 °C 87 % 1039,3 hPa 0,0 mm 2,1 km/h (1 Bft) O-NO 62 ° 0 min 0,000 mm 0,0 UV-I 19 W/m² -11,4 °C 3,2 km/h (1 Bft)
06.01.2017 14:20 -9,7 °C -9,7 °C 85 % 1039,3 hPa 0,0 mm 1,9 km/h (1 Bft) O-NO 62 ° 0 min 0,000 mm 0,0 UV-I 16 W/m² -11,7 °C 3,2 km/h (1 Bft)
06.01.2017 14:21 -9,7 °C -9,7 °C 85 % 1039,3 hPa 0,0 mm 0,9 km/h (0 Bft) O-NO 62 ° 0 min 0,000 mm 0,0 UV-I 11 W/m² -11,7 °C 3,2 km/h (1 Bft)
06.01.2017 14:22 -9,7 °C -9,7 °C 86 % 1039,3 hPa 0,0 mm 0,9 km/h (0 Bft) O-NO 62 ° 0 min 0,000 mm 0,0 UV-I 11 W/m² -11,6 °C 3,2 km/h (1 Bft)
06.01.2017 14:23 -9,7 °C -9,7 °C 86 % 1039,3 hPa 0,0 mm 1,3 km/h (1 Bft) O-NO 62 ° 0 min 0,000 mm 0,0 UV-I 11 W/m² -11,6 °C 3,2 km/h (1 Bft)
06.01.2017 14:24 -9,7 °C -9,7 °C 86 % 1039,3 hPa 0,0 mm 0,3 km/h (0 Bft) O-NO 62 ° 0 min 0,000 mm 0,0 UV-I 11 W/m² -11,6 °C 1,6 km/h (1 Bft)
06.01.2017 14:25 -9,7 °C -9,7 °C 86 % 1039,3 hPa 0,0 mm 1,7 km/h (1 Bft) O-NO 62 ° 0 min 0,000 mm 0,0 UV-I 11 W/m² -11,6 °C 3,2 km/h (1 Bft)
06.01.2017 14:26 -9,7 °C -9,7 °C 85 % 1039,3 hPa 0,0 mm 2,2 km/h (1 Bft) O-NO 62 ° 0 min 0,000 mm 0,0 UV-I 11 W/m² -11,7 °C 3,2 km/h (1 Bft)
06.01.2017 14:27 -9,7 °C -9,7 °C 85 % 1039,3 hPa 0,0 mm 0,9 km/h (0 Bft) O-NO 62 ° 0 min 0,000 mm 0,0 UV-I 11 W/m² -11,7 °C 3,2 km/h (1 Bft)
06.01.2017 14:28 -9,8 °C -9,7 °C 85 % 1039,3 hPa 0,0 mm 0,8 km/h (0 Bft) O-NO 62 ° 0 min 0,000 mm 0,0 UV-I 11 W/m² -11,8 °C 1,6 km/h (1 Bft)
06.01.2017 14:29 -9,7 °C -9,7 °C 85 % 1039,3 hPa 0,0 mm 0,0 km/h (0 Bft) O-NO 62 ° 0 min 0,000 mm 0,0 UV-I 11 W/m² -11,7 °C 0,0 km/h (0 Bft)
06.01.2017 14:30 -9,8 °C -9,7 °C 85 % 1039,3 hPa 0,0 mm 0,0 km/h (0 Bft) O-NO 62 ° 0 min 0,000 mm 0,0 UV-I 11 W/m² -11,8 °C 0,0 km/h (0 Bft)
06.01.2017 14:31 -9,8 °C -9,8 °C 84 % 1039,3 hPa 0,0 mm 0,0 km/h (0 Bft) O-NO 62 ° 0 min 0,000 mm 0,0 UV-I 11 W/m² -12,0 °C 0,0 km/h (0 Bft)
06.01.2017 14:32 -9,8 °C -9,8 °C 84 % 1039,3 hPa 0,0 mm 0,0 km/h (0 Bft) O-NO 62 ° 0 min 0,000 mm 0,0 UV-I 11 W/m² -12,0 °C 0,0 km/h (0 Bft)
06.01.2017 14:33 -9,9 °C -9,8 °C 84 % 1039,3 hPa 0,0 mm 0,0 km/h (0 Bft) O-NO 62 ° 0 min 0,000 mm 0,0 UV-I 11 W/m² -12,1 °C 0,0 km/h (0 Bft)
06.01.2017 14:34 -9,9 °C -9,8 °C 84 % 1039,3 hPa 0,0 mm 2,8 km/h (1 Bft) O-NO 62 ° 0 min 0,000 mm 0,0 UV-I 11 W/m² -12,1 °C 3,2 km/h (1 Bft)
06.01.2017 14:35 -9,9 °C -9,9 °C 84 % 1039,3 hPa 0,0 mm 1,3 km/h (1 Bft) O-NO 63 ° 0 min 0,000 mm 0,0 UV-I 11 W/m² -12,1 °C 3,2 km/h (1 Bft)
06.01.2017 14:36 -9,9 °C -9,9 °C 83 % 1039,3 hPa 0,0 mm 3,2 km/h (1 Bft) O-SO 105 ° 0 min 0,000 mm 0,0 UV-I 11 W/m² -12,2 °C 4,8 km/h (1 Bft)
06.01.2017 14:37 -9,9 °C -9,9 °C 83 % 1039,3 hPa 0,0 mm 0,6 km/h (0 Bft) O-SO 105 ° 0 min 0,000 mm 0,0 UV-I 9 W/m² -12,2 °C 1,6 km/h (1 Bft)
06.01.2017 14:38 -10,0 °C -9,9 °C 83 % 1039,3 hPa 0,0 mm 1,3 km/h (1 Bft) O-SO 105 ° 0 min 0,000 mm 0,0 UV-I 9 W/m² -12,3 °C 3,2 km/h (1 Bft)
06.01.2017 14:39 -10,0 °C -10,0 °C 83 % 1039,3 hPa 0,0 mm 0,8 km/h (0 Bft) O-SO 105 ° 0 min 0,000 mm 0,0 UV-I 9 W/m² -12,3 °C 1,6 km/h (1 Bft)
06.01.2017 14:40 -10,0 °C -10,0 °C 83 % 1039,3 hPa 0,0 mm 0,8 km/h (0 Bft) O-SO 105 ° 0 min 0,000 mm 0,0 UV-I 9 W/m² -12,3 °C 1,6 km/h (1 Bft)
06.01.2017 14:41 -10,1 °C -10,0 °C 83 % 1039,3 hPa 0,0 mm 0,7 km/h (0 Bft) O-SO 105 ° 0 min 0,000 mm 0,0 UV-I 9 W/m² -12,4 °C 1,6 km/h (1 Bft)
06.01.2017 14:42 -10,1 °C -10,1 °C 83 % 1039,3 hPa 0,0 mm 0,3 km/h (0 Bft) O-SO 105 ° 0 min 0,000 mm 0,0 UV-I 9 W/m² -12,4 °C 1,6 km/h (1 Bft)
06.01.2017 14:43 -10,2 °C -10,1 °C 83 % 1039,3 hPa 0,0 mm 0,3 km/h (0 Bft) O-SO 105 ° 0 min 0,000 mm 0,0 UV-I 9 W/m² -12,5 °C 1,6 km/h (1 Bft)
06.01.2017 14:44 -10,2 °C -10,2 °C 83 % 1039,3 hPa 0,0 mm 0,3 km/h (0 Bft) O-SO 105 ° 0 min 0,000 mm 0,0 UV-I 9 W/m² -12,5 °C 1,6 km/h (1 Bft)
06.01.2017 14:45 -10,2 °C -10,2 °C 83 % 1039,3 hPa 0,0 mm 0,9 km/h (0 Bft) O-SO 105 ° 0 min 0,000 mm 0,0 UV-I 9 W/m² -12,5 °C 1,6 km/h (1 Bft)
06.01.2017 14:46 -10,2 °C -10,2 °C 83 % 1039,3 hPa 0,0 mm 0,1 km/h (0 Bft) O-SO 105 ° 0 min 0,000 mm 0,0 UV-I 9 W/m² -12,5 °C 1,6 km/h (1 Bft)
06.01.2017 14:47 -10,3 °C -10,2 °C 83 % 1039,2 hPa 0,0 mm 0,2 km/h (0 Bft) O-SO 105 ° 0 min 0,000 mm 0,0 UV-I 9 W/m² -12,6 °C 1,6 km/h (1 Bft)
06.01.2017 14:48 -10,3 °C -10,3 °C 83 % 1039,3 hPa 0,0 mm 0,4 km/h (0 Bft) O-SO 105 ° 0 min 0,000 mm 0,0 UV-I 9 W/m² -12,6 °C 1,6 km/h (1 Bft)
06.01.2017 14:49 -10,3 °C -10,3 °C 84 % 1039,2 hPa 0,0 mm 0,1 km/h (0 Bft) O-SO 105 ° 0 min 0,000 mm 0,0 UV-I 9 W/m² -12,5 °C 1,6 km/h (1 Bft)
06.01.2017 14:50 -10,3 °C -10,3 °C 84 % 1039,3 hPa 0,0 mm 0,3 km/h (0 Bft) O-SO 105 ° 0 min 0,000 mm 0,0 UV-I 9 W/m² -12,5 °C 1,6 km/h (1 Bft)
06.01.2017 14:51 -10,4 °C -10,3 °C 84 % 1039,3 hPa 0,0 mm 0,2 km/h (0 Bft) O-SO 105 ° 0 min 0,000 mm 0,0 UV-I 9 W/m² -12,6 °C 1,6 km/h (1 Bft)
06.01.2017 14:52 -10,4 °C -10,4 °C 84 % 1039,3 hPa 0,0 mm 0,3 km/h (0 Bft) O-SO 105 ° 0 min 0,000 mm 0,0 UV-I 9 W/m² -12,6 °C 1,6 km/h (1 Bft)
06.01.2017 14:53 -10,4 °C -10,4 °C 84 % 1039,2 hPa 0,0 mm 0,9 km/h (0 Bft) O-SO 105 ° 0 min 0,000 mm 0,0 UV-I 9 W/m² -12,6 °C 1,6 km/h (1 Bft)
06.01.2017 14:54 -10,5 °C -10,4 °C 84 % 1039,3 hPa 0,0 mm 0,9 km/h (0 Bft) O-SO 105 ° 0 min 0,000 mm 0,0 UV-I 9 W/m² -12,7 °C 1,6 km/h (1 Bft)
06.01.2017 14:55 -10,6 °C -10,5 °C 84 % 1039,3 hPa 0,0 mm 1,7 km/h (1 Bft) O-SO 105 ° 0 min 0,000 mm 0,0 UV-I 9 W/m² -12,8 °C 3,2 km/h (1 Bft)
06.01.2017 14:56 -10,6 °C -10,6 °C 84 % 1039,2 hPa 0,0 mm 0,9 km/h (0 Bft) O-SO 105 ° 0 min 0,000 mm 0,0 UV-I 9 W/m² -12,8 °C 1,6 km/h (1 Bft)
06.01.2017 14:57 -10,7 °C -10,6 °C 84 % 1039,2 hPa 0,0 mm 0,6 km/h (0 Bft) O-SO 105 ° 0 min 0,000 mm 0,0 UV-I 9 W/m² -12,9 °C 1,6 km/h (1 Bft)
06.01.2017 14:58 -10,7 °C -10,7 °C 85 % 1039,2 hPa 0,0 mm 0,0 km/h (0 Bft) O-SO 105 ° 0 min 0,000 mm 0,0 UV-I 9 W/m² -12,7 °C 0,0 km/h (0 Bft)
06.01.2017 14:59 -10,7 °C -10,7 °C 85 % 1039,2 hPa 0,0 mm 0,7 km/h (0 Bft) O-SO 105 ° 0 min 0,000 mm 0,0 UV-I 9 W/m² -12,7 °C 1,6 km/h (1 Bft)
06.01.2017 15:00 -10,8 °C -10,7 °C 84 % 1039,2 hPa 0,0 mm 0,9 km/h (0 Bft) O-SO 105 ° 0 min 0,000 mm 0,0 UV-I 9 W/m² -13,0 °C 1,6 km/h (1 Bft)
06.01.2017 15:01 -10,8 °C -10,8 °C 84 % 1039,3 hPa 0,0 mm 1,1 km/h (1 Bft) O-SO 105 ° 0 min 0,000 mm 0,0 UV-I 9 W/m² -13,0 °C 1,6 km/h (1 Bft)
06.01.2017 15:02 -10,8 °C -10,8 °C 85 % 1039,2 hPa 0,0 mm 1,3 km/h (1 Bft) O-SO 105 ° 0 min 0,000 mm 0,0 UV-I 9 W/m² -12,8 °C 1,6 km/h (1 Bft)
06.01.2017 15:03 -10,8 °C -10,8 °C 85 % 1039,2 hPa 0,0 mm 2,0 km/h (1 Bft) O-SO 105 ° 0 min 0,000 mm 0,0 UV-I 9 W/m² -12,8 °C 3,2 km/h (1 Bft)
06.01.2017 15:04 -10,9 °C -10,8 °C 85 % 1039,3 hPa 0,0 mm 1,7 km/h (1 Bft) O-SO 105 ° 0 min 0,000 mm 0,0 UV-I 9 W/m² -12,9 °C 3,2 km/h (1 Bft)
06.01.2017 15:05 -10,9 °C -10,8 °C 86 % 1039,3 hPa 0,0 mm 1,5 km/h (1 Bft) O-SO 105 ° 0 min 0,000 mm 0,0 UV-I 9 W/m² -12,8 °C 3,2 km/h (1 Bft)
06.01.2017 15:06 -10,9 °C -10,9 °C 86 % 1039,3 hPa 0,0 mm 2,0 km/h (1 Bft) O-SO 105 ° 0 min 0,000 mm 0,0 UV-I 9 W/m² -12,8 °C 3,2 km/h (1 Bft)
06.01.2017 15:07 -10,9 °C -10,9 °C 86 % 1039,3 hPa 0,0 mm 1,8 km/h (1 Bft) O-SO 105 ° 0 min 0,000 mm 0,0 UV-I 9 W/m² -12,8 °C 3,2 km/h (1 Bft)
06.01.2017 15:08 -10,9 °C -10,9 °C 86 % 1039,3 hPa 0,0 mm 0,7 km/h (0 Bft) O-SO 105 ° 0 min 0,000 mm 0,0 UV-I 9 W/m² -12,8 °C 1,6 km/h (1 Bft)
06.01.2017 15:09 -10,9 °C -10,9 °C 86 % 1039,3 hPa 0,0 mm 0,9 km/h (0 Bft) O-SO 105 ° 0 min 0,000 mm 0,0 UV-I 9 W/m² -12,8 °C 1,6 km/h (1 Bft)
06.01.2017 15:10 -10,9 °C -10,9 °C 86 % 1039,3 hPa 0,0 mm 0,9 km/h (0 Bft) O-SO 105 ° 0 min 0,000 mm 0,0 UV-I 9 W/m² -12,8 °C 3,2 km/h (1 Bft)
06.01.2017 15:11 -10,9 °C -10,9 °C 86 % 1039,3 hPa 0,0 mm 0,6 km/h (0 Bft) O-SO 105 ° 0 min 0,000 mm 0,0 UV-I 9 W/m² -12,8 °C 1,6 km/h (1 Bft)
06.01.2017 15:12 -11,0 °C -10,9 °C 86 % 1039,3 hPa 0,0 mm 0,7 km/h (0 Bft) O-SO 105 ° 0 min 0,000 mm 0,0 UV-I 9 W/m² -12,9 °C 1,6 km/h (1 Bft)
06.01.2017 15:13 -10,9 °C -10,9 °C 86 % 1039,3 hPa 0,0 mm 0,7 km/h (0 Bft) O-SO 105 ° 0 min 0,000 mm 0,0 UV-I 9 W/m² -12,8 °C 1,6 km/h (1 Bft)
06.01.2017 15:14 -11,0 °C -10,9 °C 87 % 1039,4 hPa 0,0 mm 1,2 km/h (1 Bft) O-SO 105 ° 0 min 0,000 mm 0,0 UV-I 7 W/m² -12,7 °C 1,6 km/h (1 Bft)
06.01.2017 15:15 -11,0 °C -11,0 °C 87 % 1039,3 hPa 0,0 mm 1,2 km/h (1 Bft) O-SO 105 ° 0 min 0,000 mm 0,0 UV-I 7 W/m² -12,7 °C 1,6 km/h (1 Bft)
06.01.2017 15:16 -11,0 °C -11,0 °C 87 % 1039,3 hPa 0,0 mm 0,5 km/h (0 Bft) O-SO 105 ° 0 min 0,000 mm 0,0 UV-I 7 W/m² -12,7 °C 1,6 km/h (1 Bft)
06.01.2017 15:17 -11,0 °C -11,0 °C 87 % 1039,3 hPa 0,0 mm 1,9 km/h (1 Bft) O-SO 105 ° 0 min 0,000 mm 0,0 UV-I 7 W/m² -12,7 °C 3,2 km/h (1 Bft)
06.01.2017 15:18 -11,0 °C -11,0 °C 87 % 1039,4 hPa 0,0 mm 1,9 km/h (1 Bft) O-SO 105 ° 0 min 0,000 mm 0,0 UV-I 7 W/m² -12,7 °C 3,2 km/h (1 Bft)
06.01.2017 15:19 -11,0 °C -11,0 °C 87 % 1039,4 hPa 0,0 mm 2,4 km/h (1 Bft) O-SO 105 ° 0 min 0,000 mm 0,0 UV-I 7 W/m² -12,7 °C 3,2 km/h (1 Bft)
06.01.2017 15:20 -11,0 °C -11,0 °C 87 % 1039,4 hPa 0,0 mm 0,8 km/h (0 Bft) O-SO 105 ° 0 min 0,000 mm 0,0 UV-I 7 W/m² -12,7 °C 3,2 km/h (1 Bft)
06.01.2017 15:21 -11,0 °C -11,0 °C 87 % 1039,4 hPa 0,0 mm 0,7 km/h (0 Bft) O-SO 105 ° 0 min 0,000 mm 0,0 UV-I 7 W/m² -12,7 °C 1,6 km/h (1 Bft)
06.01.2017 15:22 -11,1 °C -11,0 °C 87 % 1039,5 hPa 0,0 mm 0,9 km/h (0 Bft) O-SO 105 ° 0 min 0,000 mm 0,0 UV-I 7 W/m² -12,8 °C 1,6 km/h (1 Bft)
06.01.2017 15:23 -11,1 °C -11,1 °C 87 % 1039,6 hPa 0,0 mm 1,4 km/h (1 Bft) O-SO 105 ° 0 min 0,000 mm 0,0 UV-I 7 W/m² -12,8 °C 3,2 km/h (1 Bft)
06.01.2017 15:24 -11,1 °C -11,1 °C 87 % 1039,5 hPa 0,0 mm 1,0 km/h (0 Bft) O-SO 105 ° 0 min 0,000 mm 0,0 UV-I 7 W/m² -12,8 °C 1,6 km/h (1 Bft)
06.01.2017 15:25 -11,1 °C -11,1 °C 87 % 1039,5 hPa 0,0 mm 1,1 km/h (1 Bft) O-SO 105 ° 0 min 0,000 mm 0,0 UV-I 7 W/m² -12,8 °C 1,6 km/h (1 Bft)
06.01.2017 15:26 -11,1 °C -11,1 °C 87 % 1039,5 hPa 0,0 mm 1,1 km/h (1 Bft) O-SO 105 ° 0 min 0,000 mm 0,0 UV-I 7 W/m² -12,8 °C 1,6 km/h (1 Bft)
06.01.2017 15:27 -11,1 °C -11,1 °C 87 % 1039,6 hPa 0,0 mm 1,5 km/h (1 Bft) O-SO 105 ° 0 min 0,000 mm 0,0 UV-I 7 W/m² -12,8 °C 3,2 km/h (1 Bft)
06.01.2017 15:28 -11,1 °C -11,1 °C 86 % 1039,6 hPa 0,0 mm 1,1 km/h (1 Bft) O-SO 105 ° 0 min 0,000 mm 0,0 UV-I 7 W/m² -13,0 °C 1,6 km/h (1 Bft)
06.01.2017 15:29 -11,1 °C -11,1 °C 86 % 1039,5 hPa 0,0 mm 1,7 km/h (1 Bft) O-SO 105 ° 0 min 0,000 mm 0,0 UV-I 7 W/m² -13,0 °C 3,2 km/h (1 Bft)
06.01.2017 15:30 -11,1 °C -11,1 °C 87 % 1039,6 hPa 0,0 mm 1,5 km/h (1 Bft) O-SO 105 ° 0 min 0,000 mm 0,0 UV-I 7 W/m² -12,8 °C 1,6 km/h (1 Bft)
06.01.2017 15:31 -11,1 °C -11,1 °C 87 % 1039,6 hPa 0,0 mm 1,3 km/h (1 Bft) O-SO 105 ° 0 min 0,000 mm 0,0 UV-I 7 W/m² -12,8 °C 1,6 km/h (1 Bft)
06.01.2017 15:32 -11,2 °C -11,1 °C 87 % 1039,7 hPa 0,0 mm 1,4 km/h (1 Bft) O-SO 105 ° 0 min 0,000 mm 0,0 UV-I 7 W/m² -12,9 °C 1,6 km/h (1 Bft)
06.01.2017 15:33 -11,1 °C -11,1 °C 87 % 1039,7 hPa 0,0 mm 2,0 km/h (1 Bft) O-SO 105 ° 0 min 0,000 mm 0,0 UV-I 7 W/m² -12,8 °C 3,2 km/h (1 Bft)
06.01.2017 15:34 -11,2 °C -11,1 °C 87 % 1039,7 hPa 0,0 mm 2,5 km/h (1 Bft) O-SO 105 ° 0 min 0,000 mm 0,0 UV-I 7 W/m² -12,9 °C 3,2 km/h (1 Bft)
06.01.2017 15:35 -11,1 °C -11,1 °C 87 % 1039,8 hPa 0,0 mm 3,2 km/h (1 Bft) O-SO 105 ° 0 min 0,000 mm 0,0 UV-I 7 W/m² -12,8 °C 4,8 km/h (1 Bft)
06.01.2017 15:36 -11,2 °C -11,1 °C 87 % 1039,8 hPa 0,0 mm 2,3 km/h (1 Bft) O-SO 105 ° 0 min 0,000 mm 0,0 UV-I 7 W/m² -12,9 °C 3,2 km/h (1 Bft)
06.01.2017 15:37 -11,2 °C -11,2 °C 87 % 1039,8 hPa 0,0 mm 2,1 km/h (1 Bft) O-SO 105 ° 0 min 0,000 mm 0,0 UV-I 7 W/m² -12,9 °C 3,2 km/h (1 Bft)
06.01.2017 15:38 -11,1 °C -11,1 °C 87 % 1039,8 hPa 0,0 mm 2,5 km/h (1 Bft) O-SO 105 ° 0 min 0,000 mm 0,0 UV-I 7 W/m² -12,8 °C 3,2 km/h (1 Bft)
06.01.2017 15:39 -11,2 °C -11,1 °C 87 % 1039,9 hPa 0,0 mm 2,3 km/h (1 Bft) O-SO 105 ° 0 min 0,000 mm 0,0 UV-I 7 W/m² -12,9 °C 3,2 km/h (1 Bft)
06.01.2017 15:40 -11,1 °C -11,1 °C 87 % 1039,8 hPa 0,0 mm 2,6 km/h (1 Bft) O-SO 105 ° 0 min 0,000 mm 0,0 UV-I 7 W/m² -12,8 °C 3,2 km/h (1 Bft)
06.01.2017 15:41 -11,2 °C -11,1 °C 87 % 1039,8 hPa 0,0 mm 2,4 km/h (1 Bft) O-SO 105 ° 0 min 0,000 mm 0,0 UV-I 7 W/m² -12,9 °C 3,2 km/h (1 Bft)
06.01.2017 15:42 -11,2 °C -11,2 °C 87 % 1039,8 hPa 0,0 mm 1,7 km/h (1 Bft) O-SO 105 ° 0 min 0,000 mm 0,0 UV-I 7 W/m² -12,9 °C 3,2 km/h (1 Bft)
06.01.2017 15:43 -11,2 °C -11,2 °C 87 % 1039,9 hPa 0,0 mm 2,1 km/h (1 Bft) O-SO 105 ° 0 min 0,000 mm 0,0 UV-I 7 W/m² -12,9 °C 3,2 km/h (1 Bft)
06.01.2017 15:44 -11,2 °C -11,2 °C 87 % 1039,9 hPa 0,0 mm 1,6 km/h (1 Bft) O-SO 105 ° 0 min 0,000 mm 0,0 UV-I 7 W/m² -12,9 °C 1,6 km/h (1 Bft)
06.01.2017 15:45 -11,2 °C -11,2 °C 87 % 1039,8 hPa 0,0 mm 2,1 km/h (1 Bft) O-SO 105 ° 0 min 0,000 mm 0,0 UV-I 7 W/m² -12,9 °C 3,2 km/h (1 Bft)
06.01.2017 15:46 -11,2 °C -11,2 °C 87 % 1039,8 hPa 0,0 mm 2,1 km/h (1 Bft) O-SO 105 ° 0 min 0,000 mm 0,0 UV-I 7 W/m² -12,9 °C 3,2 km/h (1 Bft)
06.01.2017 15:47 -11,2 °C -11,2 °C 87 % 1039,9 hPa 0,0 mm 2,6 km/h (1 Bft) O-SO 105 ° 0 min 0,000 mm 0,0 UV-I 7 W/m² -12,9 °C 3,2 km/h (1 Bft)
06.01.2017 15:48 -11,2 °C -11,2 °C 87 % 1039,9 hPa 0,0 mm 1,4 km/h (1 Bft) O-SO 105 ° 0 min 0,000 mm 0,0 UV-I 5 W/m² -12,9 °C 1,6 km/h (1 Bft)
06.01.2017 15:49 -11,2 °C -11,2 °C 87 % 1039,9 hPa 0,0 mm 2,2 km/h (1 Bft) O-SO 105 ° 0 min 0,000 mm 0,0 UV-I 5 W/m² -12,9 °C 3,2 km/h (1 Bft)
06.01.2017 15:50 -11,2 °C -11,2 °C 87 % 1039,9 hPa 0,0 mm 1,9 km/h (1 Bft) O-SO 105 ° 0 min 0,000 mm 0,0 UV-I 5 W/m² -12,9 °C 3,2 km/h (1 Bft)
06.01.2017 15:51 -11,3 °C -11,2 °C 87 % 1039,9 hPa 0,0 mm 1,3 km/h (1 Bft) O-SO 105 ° 0 min 0,000 mm 0,0 UV-I 5 W/m² -13,0 °C 3,2 km/h (1 Bft)
06.01.2017 15:52 -11,3 °C -11,2 °C 87 % 1039,9 hPa 0,0 mm 1,6 km/h (1 Bft) O-SO 105 ° 0 min 0,000 mm 0,0 UV-I 5 W/m² -13,0 °C 1,6 km/h (1 Bft)
06.01.2017 15:53 -11,3 °C -11,3 °C 87 % 1040,0 hPa 0,0 mm 2,8 km/h (1 Bft) O-SO 105 ° 0 min 0,000 mm 0,0 UV-I 5 W/m² -13,0 °C 3,2 km/h (1 Bft)
06.01.2017 15:54 -11,3 °C -11,3 °C 87 % 1040,0 hPa 0,0 mm 2,4 km/h (1 Bft) O-SO 105 ° 0 min 0,000 mm 0,0 UV-I 5 W/m² -13,0 °C 3,2 km/h (1 Bft)
06.01.2017 15:55 -11,3 °C -11,3 °C 87 % 1039,9 hPa 0,0 mm 2,6 km/h (1 Bft) O-SO 105 ° 0 min 0,000 mm 0,0 UV-I 5 W/m² -13,0 °C 3,2 km/h (1 Bft)
06.01.2017 15:56 -11,3 °C -11,3 °C 87 % 1039,9 hPa 0,0 mm 3,2 km/h (1 Bft) O-SO 105 ° 0 min 0,000 mm 0,0 UV-I 5 W/m² -13,0 °C 3,2 km/h (1 Bft)
06.01.2017 15:57 -11,3 °C -11,3 °C 87 % 1040,0 hPa 0,0 mm 2,7 km/h (1 Bft) O-SO 105 ° 0 min 0,000 mm 0,0 UV-I 5 W/m² -13,0 °C 3,2 km/h (1 Bft)
06.01.2017 15:58 -11,3 °C -11,3 °C 87 % 1040,0 hPa 0,0 mm 2,6 km/h (1 Bft) O-SO 105 ° 0 min 0,000 mm 0,0 UV-I 5 W/m² -13,0 °C 3,2 km/h (1 Bft)
06.01.2017 15:59 -11,3 °C -11,3 °C 87 % 1040,1 hPa 0,0 mm 2,5 km/h (1 Bft) O-SO 105 ° 0 min 0,000 mm 0,0 UV-I 5 W/m² -13,0 °C 3,2 km/h (1 Bft)
06.01.2017 16:00 -11,3 °C -11,3 °C 87 % 1040,0 hPa 0,0 mm 2,9 km/h (1 Bft) O-SO 105 ° 0 min 0,000 mm 0,0 UV-I 5 W/m² -13,0 °C 4,8 km/h (1 Bft)
06.01.2017 16:01 -11,3 °C -11,3 °C 87 % 1040,0 hPa 0,0 mm 2,9 km/h (1 Bft) O-SO 105 ° 0 min 0,000 mm 0,0 UV-I 5 W/m² -13,0 °C 3,2 km/h (1 Bft)
06.01.2017 16:02 -11,3 °C -11,3 °C 87 % 1040,0 hPa 0,0 mm 2,3 km/h (1 Bft) O-SO 105 ° 0 min 0,000 mm 0,0 UV-I 5 W/m² -13,0 °C 3,2 km/h (1 Bft)
06.01.2017 16:03 -11,3 °C -11,3 °C 87 % 1040,0 hPa 0,0 mm 2,5 km/h (1 Bft) O-SO 105 ° 0 min 0,000 mm 0,0 UV-I 5 W/m² -13,0 °C 3,2 km/h (1 Bft)
06.01.2017 16:04 -11,4 °C -11,3 °C 87 % 1040,1 hPa 0,0 mm 2,5 km/h (1 Bft) O-SO 105 ° 0 min 0,000 mm 0,0 UV-I 5 W/m² -13,1 °C 3,2 km/h (1 Bft)
06.01.2017 16:05 -11,4 °C -11,3 °C 87 % 1040,1 hPa 0,0 mm 2,5 km/h (1 Bft) O-SO 105 ° 0 min 0,000 mm 0,0 UV-I 5 W/m² -13,1 °C 3,2 km/h (1 Bft)
06.01.2017 16:06 -11,4 °C -11,4 °C 87 % 1040,1 hPa 0,0 mm 2,9 km/h (1 Bft) O-SO 105 ° 0 min 0,000 mm 0,0 UV-I 5 W/m² -13,1 °C 3,2 km/h (1 Bft)
06.01.2017 16:07 -11,4 °C -11,4 °C 87 % 1040,1 hPa 0,0 mm 3,0 km/h (1 Bft) O-SO 105 ° 0 min 0,000 mm 0,0 UV-I 5 W/m² -13,1 °C 3,2 km/h (1 Bft)
06.01.2017 16:08 -11,4 °C -11,4 °C 87 % 1040,0 hPa 0,0 mm 2,9 km/h (1 Bft) O-SO 105 ° 0 min 0,000 mm 0,0 UV-I 5 W/m² -13,1 °C 3,2 km/h (1 Bft)
06.01.2017 16:09 -11,4 °C -11,4 °C 87 % 1040,1 hPa 0,0 mm 2,5 km/h (1 Bft) O-SO 105 ° 0 min 0,000 mm 0,0 UV-I 5 W/m² -13,1 °C 3,2 km/h (1 Bft)
06.01.2017 16:10 -11,4 °C -11,4 °C 87 % 1040,1 hPa 0,0 mm 3,1 km/h (1 Bft) O-SO 105 ° 0 min 0,000 mm 0,0 UV-I 5 W/m² -13,1 °C 3,2 km/h (1 Bft)
06.01.2017 16:11 -11,4 °C -11,4 °C 87 % 1040,1 hPa 0,0 mm 2,8 km/h (1 Bft) O-SO 105 ° 0 min 0,000 mm 0,0 UV-I 5 W/m² -13,1 °C 3,2 km/h (1 Bft)
06.01.2017 16:12 -11,5 °C -11,4 °C 87 % 1040,1 hPa 0,0 mm 2,1 km/h (1 Bft) O-SO 105 ° 0 min 0,000 mm 0,0 UV-I 0 W/m² -13,2 °C 3,2 km/h (1 Bft)
06.01.2017 16:13 -11,5 °C -11,5 °C 87 % 1040,1 hPa 0,0 mm 2,0 km/h (1 Bft) O-SO 105 ° 0 min 0,000 mm 0,0 UV-I 0 W/m² -13,2 °C 3,2 km/h (1 Bft)
06.01.2017 16:14 -11,6 °C -11,5 °C 87 % 1040,2 hPa 0,0 mm 1,4 km/h (1 Bft) O-SO 105 ° 0 min 0,000 mm 0,0 UV-I 0 W/m² -13,3 °C 3,2 km/h (1 Bft)
06.01.2017 16:15 -11,6 °C -11,5 °C 87 % 1040,2 hPa 0,0 mm 1,4 km/h (1 Bft) O-SO 105 ° 0 min 0,000 mm 0,0 UV-I 0 W/m² -13,3 °C 3,2 km/h (1 Bft)
06.01.2017 16:16 -11,6 °C -11,5 °C 87 % 1040,2 hPa 0,0 mm 2,5 km/h (1 Bft) O-SO 105 ° 0 min 0,000 mm 0,0 UV-I 0 W/m² -13,3 °C 3,2 km/h (1 Bft)
06.01.2017 16:17 -11,6 °C -11,6 °C 86 % 1040,2 hPa 0,0 mm 2,2 km/h (1 Bft) O-SO 105 ° 0 min 0,000 mm 0,0 UV-I 0 W/m² -13,5 °C 3,2 km/h (1 Bft)
06.01.2017 16:18 -11,6 °C -11,6 °C 86 % 1040,1 hPa 0,0 mm 2,3 km/h (1 Bft) O-SO 105 ° 0 min 0,000 mm 0,0 UV-I 0 W/m² -13,5 °C 3,2 km/h (1 Bft)
06.01.2017 16:19 -11,7 °C -11,6 °C 86 % 1040,2 hPa 0,0 mm 1,8 km/h (1 Bft) O-SO 105 ° 0 min 0,000 mm 0,0 UV-I 0 W/m² -13,6 °C 3,2 km/h (1 Bft)
06.01.2017 16:20 -11,7 °C -11,7 °C 86 % 1040,1 hPa 0,0 mm 1,7 km/h (1 Bft) O-SO 105 ° 0 min 0,000 mm 0,0 UV-I 0 W/m² -13,6 °C 3,2 km/h (1 Bft)
06.01.2017 16:21 -11,7 °C -11,7 °C 86 % 1040,2 hPa 0,0 mm 0,2 km/h (0 Bft) O-SO 105 ° 0 min 0,000 mm 0,0 UV-I 0 W/m² -13,6 °C 1,6 km/h (1 Bft)
06.01.2017 16:22 -11,7 °C -11,7 °C 86 % 1040,2 hPa 0,0 mm 0,1 km/h (0 Bft) O-SO 105 ° 0 min 0,000 mm 0,0 UV-I 0 W/m² -13,6 °C 1,6 km/h (1 Bft)
06.01.2017 16:23 -11,8 °C -11,7 °C 86 % 1040,2 hPa 0,0 mm 0,2 km/h (0 Bft) O-SO 105 ° 0 min 0,000 mm 0,0 UV-I 0 W/m² -13,7 °C 1,6 km/h (1 Bft)
06.01.2017 16:24 -11,8 °C -11,8 °C 86 % 1040,2 hPa 0,0 mm 0,2 km/h (0 Bft) O-SO 105 ° 0 min 0,000 mm 0,0 UV-I 0 W/m² -13,7 °C 1,6 km/h (1 Bft)
06.01.2017 16:25 -11,8 °C -11,8 °C 86 % 1040,2 hPa 0,0 mm 0,0 km/h (0 Bft) O-SO 105 ° 0 min 0,000 mm 0,0 UV-I 0 W/m² -13,7 °C 0,0 km/h (0 Bft)
06.01.2017 16:26 -11,8 °C -11,8 °C 86 % 1040,2 hPa 0,0 mm 0,0 km/h (0 Bft) O-SO 105 ° 0 min 0,000 mm 0,0 UV-I 0 W/m² -13,7 °C 0,0 km/h (0 Bft)
06.01.2017 16:27 -11,9 °C -11,8 °C 86 % 1040,2 hPa 0,0 mm 0,0 km/h (0 Bft) O-SO 105 ° 0 min 0,000 mm 0,0 UV-I 0 W/m² -13,8 °C 0,0 km/h (0 Bft)
06.01.2017 16:28 -11,9 °C -11,9 °C 86 % 1040,2 hPa 0,0 mm 0,3 km/h (0 Bft) O-SO 105 ° 0 min 0,000 mm 0,0 UV-I 0 W/m² -13,8 °C 1,6 km/h (1 Bft)
06.01.2017 16:29 -11,9 °C -11,9 °C 86 % 1040,2 hPa 0,0 mm 0,2 km/h (0 Bft) O-SO 105 ° 0 min 0,000 mm 0,0 UV-I 0 W/m² -13,8 °C 1,6 km/h (1 Bft)
06.01.2017 16:30 -12,0 °C -11,9 °C 86 % 1040,2 hPa 0,0 mm 0,0 km/h (0 Bft) O-SO 105 ° 0 min 0,000 mm 0,0 UV-I 0 W/m² -13,9 °C 0,0 km/h (0 Bft)
06.01.2017 16:31 -12,0 °C -12,0 °C 86 % 1040,3 hPa 0,0 mm 0,0 km/h (0 Bft) O-SO 105 ° 0 min 0,000 mm 0,0 UV-I 0 W/m² -13,9 °C 0,0 km/h (0 Bft)
06.01.2017 16:32 -12,1 °C -12,0 °C 86 % 1040,3 hPa 0,0 mm 0,0 km/h (0 Bft) O-SO 105 ° 0 min 0,000 mm 0,0 UV-I 0 W/m² -13,9 °C 0,0 km/h (0 Bft)
06.01.2017 16:33 -12,1 °C -12,1 °C 86 % 1040,3 hPa 0,0 mm 0,2 km/h (0 Bft) O-SO 105 ° 0 min 0,000 mm 0,0 UV-I 0 W/m² -13,9 °C 1,6 km/h (1 Bft)
06.01.2017 16:34 -12,1 °C -12,1 °C 86 % 1040,3 hPa 0,0 mm 0,1 km/h (0 Bft) O-SO 105 ° 0 min 0,000 mm 0,0 UV-I 0 W/m² -13,9 °C 1,6 km/h (1 Bft)
06.01.2017 16:35 -12,2 °C -12,1 °C 86 % 1040,4 hPa 0,0 mm 0,3 km/h (0 Bft) O-SO 105 ° 0 min 0,000 mm 0,0 UV-I 0 W/m² -14,0 °C 1,6 km/h (1 Bft)
06.01.2017 16:36 -12,2 °C -12,1 °C 86 % 1040,4 hPa 0,0 mm 0,4 km/h (0 Bft) O-SO 105 ° 0 min 0,000 mm 0,0 UV-I 0 W/m² -14,0 °C 1,6 km/h (1 Bft)
06.01.2017 16:37 -12,2 °C -12,2 °C 86 % 1040,3 hPa 0,0 mm 0,1 km/h (0 Bft) O-SO 105 ° 0 min 0,000 mm 0,0 UV-I 0 W/m² -14,0 °C 1,6 km/h (1 Bft)
06.01.2017 16:38 -12,2 °C -12,2 °C 86 % 1040,3 hPa 0,0 mm 0,7 km/h (0 Bft) O-SO 105 ° 0 min 0,000 mm 0,0 UV-I 0 W/m² -14,0 °C 1,6 km/h (1 Bft)
06.01.2017 16:39 -12,3 °C -12,2 °C 86 % 1040,3 hPa 0,0 mm 0,7 km/h (0 Bft) O-SO 105 ° 0 min 0,000 mm 0,0 UV-I 0 W/m² -14,1 °C 1,6 km/h (1 Bft)
06.01.2017 16:40 -12,3 °C -12,3 °C 86 % 1040,4 hPa 0,0 mm 1,5 km/h (1 Bft) O-SO 105 ° 0 min 0,000 mm 0,0 UV-I 0 W/m² -14,1 °C 3,2 km/h (1 Bft)
06.01.2017 16:41 -12,3 °C -12,3 °C 86 % 1040,4 hPa 0,0 mm 1,8 km/h (1 Bft) O-SO 105 ° 0 min 0,000 mm 0,0 UV-I 0 W/m² -14,1 °C 3,2 km/h (1 Bft)
06.01.2017 16:42 -12,4 °C -12,3 °C 86 % 1040,4 hPa 0,0 mm 1,5 km/h (1 Bft) O-SO 105 ° 0 min 0,000 mm 0,0 UV-I 0 W/m² -14,2 °C 1,6 km/h (1 Bft)
06.01.2017 16:43 -12,4 °C -12,4 °C 86 % 1040,4 hPa 0,0 mm 0,1 km/h (0 Bft) O-SO 105 ° 0 min 0,000 mm 0,0 UV-I 0 W/m² -14,2 °C 1,6 km/h (1 Bft)
06.01.2017 16:44 -12,4 °C -12,4 °C 86 % 1040,4 hPa 0,0 mm 0,3 km/h (0 Bft) O-SO 105 ° 0 min 0,000 mm 0,0 UV-I 0 W/m² -14,2 °C 1,6 km/h (1 Bft)
06.01.2017 16:45 -12,4 °C -12,4 °C 86 % 1040,4 hPa 0,0 mm 0,4 km/h (0 Bft) O-SO 105 ° 0 min 0,000 mm 0,0 UV-I 0 W/m² -14,2 °C 1,6 km/h (1 Bft)
06.01.2017 16:46 -12,5 °C -12,4 °C 86 % 1040,4 hPa 0,0 mm 1,1 km/h (1 Bft) O-SO 105 ° 0 min 0,000 mm 0,0 UV-I 0 W/m² -14,3 °C 1,6 km/h (1 Bft)
06.01.2017 16:47 -12,6 °C -12,5 °C 86 % 1040,4 hPa 0,0 mm 1,8 km/h (1 Bft) O-SO 105 ° 0 min 0,000 mm 0,0 UV-I 0 W/m² -14,4 °C 3,2 km/h (1 Bft)
06.01.2017 16:48 -12,6 °C -12,6 °C 86 % 1040,4 hPa 0,0 mm 1,7 km/h (1 Bft) O-SO 105 ° 0 min 0,000 mm 0,0 UV-I 0 W/m² -14,4 °C 3,2 km/h (1 Bft)
06.01.2017 16:49 -12,6 °C -12,6 °C 86 % 1040,4 hPa 0,0 mm 2,3 km/h (1 Bft) O-SO 105 ° 0 min 0,000 mm 0,0 UV-I 0 W/m² -14,4 °C 3,2 km/h (1 Bft)
06.01.2017 16:50 -12,7 °C -12,6 °C 86 % 1040,4 hPa 0,0 mm 1,9 km/h (1 Bft) O-SO 105 ° 0 min 0,000 mm 0,0 UV-I 0 W/m² -14,5 °C 3,2 km/h (1 Bft)
06.01.2017 16:51 -12,7 °C -12,6 °C 86 % 1040,4 hPa 0,0 mm 0,9 km/h (0 Bft) O-SO 105 ° 0 min 0,000 mm 0,0 UV-I 0 W/m² -14,5 °C 1,6 km/h (1 Bft)
06.01.2017 16:52 -12,7 °C -12,7 °C 86 % 1040,4 hPa 0,0 mm 0,6 km/h (0 Bft) O-SO 105 ° 0 min 0,000 mm 0,0 UV-I 0 W/m² -14,5 °C 1,6 km/h (1 Bft)
06.01.2017 16:53 -12,7 °C -12,7 °C 86 % 1040,4 hPa 0,0 mm 1,2 km/h (1 Bft) O-SO 105 ° 0 min 0,000 mm 0,0 UV-I 0 W/m² -14,5 °C 1,6 km/h (1 Bft)
06.01.2017 16:54 -12,7 °C -12,7 °C 87 % 1040,4 hPa 0,0 mm 0,6 km/h (0 Bft) O-SO 105 ° 0 min 0,000 mm 0,0 UV-I 0 W/m² -14,4 °C 1,6 km/h (1 Bft)
06.01.2017 16:55 -12,8 °C -12,7 °C 87 % 1040,4 hPa 0,0 mm 0,6 km/h (0 Bft) O-SO 105 ° 0 min 0,000 mm 0,0 UV-I 0 W/m² -14,5 °C 1,6 km/h (1 Bft)
06.01.2017 16:56 -12,8 °C -12,8 °C 87 % 1040,5 hPa 0,0 mm 0,1 km/h (0 Bft) O-SO 105 ° 0 min 0,000 mm 0,0 UV-I 0 W/m² -14,5 °C 1,6 km/h (1 Bft)
06.01.2017 16:57 -12,8 °C -12,8 °C 87 % 1040,5 hPa 0,0 mm 0,4 km/h (0 Bft) O-SO 105 ° 0 min 0,000 mm 0,0 UV-I 0 W/m² -14,5 °C 1,6 km/h (1 Bft)
06.01.2017 16:58 -12,8 °C -12,8 °C 87 % 1040,5 hPa 0,0 mm 0,4 km/h (0 Bft) O-SO 105 ° 0 min 0,000 mm 0,0 UV-I 0 W/m² -14,5 °C 1,6 km/h (1 Bft)
06.01.2017 16:59 -12,8 °C -12,8 °C 86 % 1040,5 hPa 0,0 mm 0,9 km/h (0 Bft) O-SO 105 ° 0 min 0,000 mm 0,0 UV-I 0 W/m² -14,6 °C 1,6 km/h (1 Bft)
06.01.2017 17:00 -12,8 °C -12,8 °C 86 % 1040,5 hPa 0,0 mm 0,1 km/h (0 Bft) O-SO 105 ° 0 min 0,000 mm 0,0 UV-I 0 W/m² -14,6 °C 1,6 km/h (1 Bft)
06.01.2017 17:01 -12,9 °C -12,8 °C 86 % 1040,5 hPa 0,0 mm 0,1 km/h (0 Bft) O-SO 105 ° 0 min 0,000 mm 0,0 UV-I 0 W/m² -14,7 °C 1,6 km/h (1 Bft)
06.01.2017 17:02 -12,9 °C -12,9 °C 87 % 1040,5 hPa 0,0 mm 0,1 km/h (0 Bft) O-SO 105 ° 0 min 0,000 mm 0,0 UV-I 0 W/m² -14,6 °C 1,6 km/h (1 Bft)
06.01.2017 17:03 -12,9 °C -12,9 °C 86 % 1040,5 hPa 0,0 mm 0,1 km/h (0 Bft) O-SO 105 ° 0 min 0,000 mm 0,0 UV-I 0 W/m² -14,7 °C 1,6 km/h (1 Bft)
06.01.2017 17:04 -12,9 °C -12,9 °C 86 % 1040,5 hPa 0,0 mm 0,0 km/h (0 Bft) O-SO 105 ° 0 min 0,000 mm 0,0 UV-I 0 W/m² -14,7 °C 0,0 km/h (0 Bft)
06.01.2017 17:05 -13,0 °C -12,9 °C 86 % 1040,5 hPa 0,0 mm 0,2 km/h (0 Bft) O-SO 105 ° 0 min 0,000 mm 0,0 UV-I 0 W/m² -14,8 °C 1,6 km/h (1 Bft)
06.01.2017 17:06 -13,1 °C -13,0 °C 86 % 1040,5 hPa 0,0 mm 0,0 km/h (0 Bft) O-SO 105 ° 0 min 0,000 mm 0,0 UV-I 0 W/m² -14,9 °C 0,0 km/h (0 Bft)
06.01.2017 17:07 -13,1 °C -13,1 °C 86 % 1040,6 hPa 0,0 mm 0,1 km/h (0 Bft) O-SO 105 ° 0 min 0,000 mm 0,0 UV-I 0 W/m² -14,9 °C 1,6 km/h (1 Bft)
06.01.2017 17:08 -13,1 °C -13,1 °C 86 % 1040,5 hPa 0,0 mm 0,1 km/h (0 Bft) O-SO 105 ° 0 min 0,000 mm 0,0 UV-I 0 W/m² -14,9 °C 1,6 km/h (1 Bft)
06.01.2017 17:09 -13,1 °C -13,1 °C 86 % 1040,5 hPa 0,0 mm 0,0 km/h (0 Bft) O-SO 105 ° 0 min 0,000 mm 0,0 UV-I 0 W/m² -14,9 °C 0,0 km/h (0 Bft)
06.01.2017 17:10 -13,2 °C -13,1 °C 86 % 1040,6 hPa 0,0 mm 0,0 km/h (0 Bft) O-SO 105 ° 0 min 0,000 mm 0,0 UV-I 0 W/m² -15,0 °C 0,0 km/h (0 Bft)
06.01.2017 17:11 -13,2 °C -13,2 °C 86 % 1040,6 hPa 0,0 mm 0,0 km/h (0 Bft) O-SO 105 ° 0 min 0,000 mm 0,0 UV-I 0 W/m² -15,0 °C 0,0 km/h (0 Bft)
06.01.2017 17:12 -13,2 °C -13,2 °C 86 % 1040,6 hPa 0,0 mm 0,1 km/h (0 Bft) O-SO 105 ° 0 min 0,000 mm 0,0 UV-I 0 W/m² -15,0 °C 1,6 km/h (1 Bft)
06.01.2017 17:13 -13,2 °C -13,2 °C 86 % 1040,6 hPa 0,0 mm 0,0 km/h (0 Bft) O-SO 105 ° 0 min 0,000 mm 0,0 UV-I 0 W/m² -15,0 °C 0,0 km/h (0 Bft)
06.01.2017 17:14 -13,3 °C -13,2 °C 86 % 1040,6 hPa 0,0 mm 0,0 km/h (0 Bft) O-SO 105 ° 0 min 0,000 mm 0,0 UV-I 0 W/m² -15,1 °C 0,0 km/h (0 Bft)
06.01.2017 17:15 -13,3 °C -13,3 °C 86 % 1040,6 hPa 0,0 mm 0,0 km/h (0 Bft) O-SO 105 ° 0 min 0,000 mm 0,0 UV-I 0 W/m² -15,1 °C 0,0 km/h (0 Bft)
06.01.2017 17:16 -13,3 °C -13,3 °C 85 % 1040,7 hPa 0,0 mm 0,0 km/h (0 Bft) O-SO 105 ° 0 min 0,000 mm 0,0 UV-I 0 W/m² -15,3 °C 0,0 km/h (0 Bft)
06.01.2017 17:17 -13,3 °C -13,3 °C 85 % 1040,7 hPa 0,0 mm 0,0 km/h (0 Bft) O-SO 105 ° 0 min 0,000 mm 0,0 UV-I 0 W/m² -15,3 °C 0,0 km/h (0 Bft)
06.01.2017 17:18 -13,4 °C -13,3 °C 85 % 1040,7 hPa 0,0 mm 0,0 km/h (0 Bft) O-SO 105 ° 0 min 0,000 mm 0,0 UV-I 0 W/m² -15,4 °C 0,0 km/h (0 Bft)
06.01.2017 17:19 -13,4 °C -13,4 °C 85 % 1040,7 hPa 0,0 mm 0,0 km/h (0 Bft) O-SO 105 ° 0 min 0,000 mm 0,0 UV-I 0 W/m² -15,4 °C 0,0 km/h (0 Bft)
06.01.2017 17:20 -13,5 °C -13,4 °C 85 % 1040,7 hPa 0,0 mm 0,0 km/h (0 Bft) O-SO 105 ° 0 min 0,000 mm 0,0 UV-I 0 W/m² -15,5 °C 0,0 km/h (0 Bft)
06.01.2017 17:21 -13,5 °C -13,5 °C 85 % 1040,7 hPa 0,0 mm 0,0 km/h (0 Bft) O-SO 105 ° 0 min 0,000 mm 0,0 UV-I 0 W/m² -15,5 °C 0,0 km/h (0 Bft)
06.01.2017 17:22 -13,6 °C -13,5 °C 85 % 1040,7 hPa 0,0 mm 0,1 km/h (0 Bft) O-SO 105 ° 0 min 0,000 mm 0,0 UV-I 0 W/m² -15,6 °C 1,6 km/h (1 Bft)
06.01.2017 17:23 -13,6 °C -13,6 °C 85 % 1040,7 hPa 0,0 mm 0,1 km/h (0 Bft) O-SO 105 ° 0 min 0,000 mm 0,0 UV-I 0 W/m² -15,6 °C 1,6 km/h (1 Bft)
06.01.2017 17:24 -13,6 °C -13,6 °C 85 % 1040,8 hPa 0,0 mm 0,0 km/h (0 Bft) O-SO 105 ° 0 min 0,000 mm 0,0 UV-I 0 W/m² -15,6 °C 0,0 km/h (0 Bft)
06.01.2017 17:25 -13,7 °C -13,6 °C 85 % 1040,7 hPa 0,0 mm 0,0 km/h (0 Bft) O-SO 105 ° 0 min 0,000 mm 0,0 UV-I 0 W/m² -15,7 °C 0,0 km/h (0 Bft)
06.01.2017 17:26 -13,7 °C -13,7 °C 85 % 1040,8 hPa 0,0 mm 0,0 km/h (0 Bft) O-SO 105 ° 0 min 0,000 mm 0,0 UV-I 0 W/m² -15,7 °C 0,0 km/h (0 Bft)
06.01.2017 17:27 -13,7 °C -13,7 °C 85 % 1040,8 hPa 0,0 mm 0,0 km/h (0 Bft) O-SO 105 ° 0 min 0,000 mm 0,0 UV-I 0 W/m² -15,7 °C 0,0 km/h (0 Bft)
06.01.2017 17:28 -13,8 °C -13,7 °C 85 % 1040,8 hPa 0,0 mm 0,1 km/h (0 Bft) O-SO 105 ° 0 min 0,000 mm 0,0 UV-I 0 W/m² -15,8 °C 1,6 km/h (1 Bft)
06.01.2017 17:29 -13,8 °C -13,8 °C 84 % 1040,8 hPa 0,0 mm 0,0 km/h (0 Bft) O-SO 105 ° 0 min 0,000 mm 0,0 UV-I 0 W/m² -15,9 °C 0,0 km/h (0 Bft)
06.01.2017 17:30 -13,9 °C -13,8 °C 84 % 1040,9 hPa 0,0 mm 0,0 km/h (0 Bft) O-SO 105 ° 0 min 0,000 mm 0,0 UV-I 0 W/m² -16,0 °C 0,0 km/h (0 Bft)
06.01.2017 17:31 -13,9 °C -13,9 °C 84 % 1040,9 hPa 0,0 mm 0,0 km/h (0 Bft) O-SO 105 ° 0 min 0,000 mm 0,0 UV-I 0 W/m² -16,0 °C 0,0 km/h (0 Bft)
06.01.2017 17:32 -13,9 °C -13,9 °C 84 % 1040,9 hPa 0,0 mm 0,0 km/h (0 Bft) O-SO 105 ° 0 min 0,000 mm 0,0 UV-I 0 W/m² -16,0 °C 0,0 km/h (0 Bft)
06.01.2017 17:33 -14,0 °C -13,9 °C 84 % 1040,9 hPa 0,0 mm 0,1 km/h (0 Bft) O-SO 105 ° 0 min 0,000 mm 0,0 UV-I 0 W/m² -16,1 °C 1,6 km/h (1 Bft)
06.01.2017 17:34 -14,1 °C -14,0 °C 85 % 1040,9 hPa 0,0 mm 0,0 km/h (0 Bft) O-SO 105 ° 0 min 0,000 mm 0,0 UV-I 0 W/m² -16,1 °C 0,0 km/h (0 Bft)
06.01.2017 17:35 -14,2 °C -14,1 °C 85 % 1040,9 hPa 0,0 mm 0,1 km/h (0 Bft) O-SO 105 ° 0 min 0,000 mm 0,0 UV-I 0 W/m² -16,2 °C 1,6 km/h (1 Bft)
06.01.2017 17:36 -14,2 °C -14,2 °C 85 % 1040,8 hPa 0,0 mm 0,5 km/h (0 Bft) O-SO 105 ° 0 min 0,000 mm 0,0 UV-I 0 W/m² -16,2 °C 1,6 km/h (1 Bft)
06.01.2017 17:37 -14,2 °C -14,2 °C 86 % 1040,9 hPa 0,0 mm 0,1 km/h (0 Bft) O-SO 105 ° 0 min 0,000 mm 0,0 UV-I 0 W/m² -16,0 °C 1,6 km/h (1 Bft)
06.01.2017 17:38 -14,2 °C -14,2 °C 86 % 1040,8 hPa 0,0 mm 0,3 km/h (0 Bft) O-SO 105 ° 0 min 0,000 mm 0,0 UV-I 0 W/m² -16,0 °C 1,6 km/h (1 Bft)
06.01.2017 17:39 -14,2 °C -14,2 °C 86 % 1040,9 hPa 0,0 mm 0,0 km/h (0 Bft) O-SO 105 ° 0 min 0,000 mm 0,0 UV-I 0 W/m² -16,0 °C 0,0 km/h (0 Bft)
06.01.2017 17:40 -14,3 °C -14,2 °C 87 % 1040,8 hPa 0,0 mm 0,1 km/h (0 Bft) O-SO 105 ° 0 min 0,000 mm 0,0 UV-I 0 W/m² -16,0 °C 1,6 km/h (1 Bft)
06.01.2017 17:41 -14,3 °C -14,2 °C 87 % 1040,8 hPa 0,0 mm 0,0 km/h (0 Bft) O-SO 105 ° 0 min 0,000 mm 0,0 UV-I 0 W/m² -16,0 °C 0,0 km/h (0 Bft)
06.01.2017 17:42 -14,3 °C -14,2 °C 87 % 1040,9 hPa 0,0 mm 0,0 km/h (0 Bft) O-SO 105 ° 0 min 0,000 mm 0,0 UV-I 0 W/m² -16,0 °C 0,0 km/h (0 Bft)
06.01.2017 17:43 -14,3 °C -14,3 °C 87 % 1040,9 hPa 0,0 mm 0,0 km/h (0 Bft) O-SO 105 ° 0 min 0,000 mm 0,0 UV-I 0 W/m² -16,0 °C 0,0 km/h (0 Bft)
06.01.2017 17:44 -14,3 °C -14,3 °C 87 % 1040,9 hPa 0,0 mm 0,0 km/h (0 Bft) O-SO 105 ° 0 min 0,000 mm 0,0 UV-I 0 W/m² -16,0 °C 0,0 km/h (0 Bft)
06.01.2017 17:45 -14,3 °C -14,3 °C 86 % 1040,9 hPa 0,0 mm 0,0 km/h (0 Bft) O-SO 105 ° 0 min 0,000 mm 0,0 UV-I 0 W/m² -16,1 °C 0,0 km/h (0 Bft)
06.01.2017 17:46 -14,3 °C -14,3 °C 86 % 1040,9 hPa 0,0 mm 0,0 km/h (0 Bft) O-SO 105 ° 0 min 0,000 mm 0,0 UV-I 0 W/m² -16,1 °C 0,0 km/h (0 Bft)
06.01.2017 17:47 -14,3 °C -14,3 °C 86 % 1040,9 hPa 0,0 mm 0,0 km/h (0 Bft) O-SO 105 ° 0 min 0,000 mm 0,0 UV-I 0 W/m² -16,1 °C 0,0 km/h (0 Bft)
06.01.2017 17:48 -14,4 °C -14,3 °C 86 % 1040,9 hPa 0,0 mm 0,0 km/h (0 Bft) O-SO 105 ° 0 min 0,000 mm 0,0 UV-I 0 W/m² -16,2 °C 0,0 km/h (0 Bft)
06.01.2017 17:49 -14,4 °C -14,4 °C 86 % 1040,9 hPa 0,0 mm 0,0 km/h (0 Bft) O-SO 105 ° 0 min 0,000 mm 0,0 UV-I 0 W/m² -16,2 °C 0,0 km/h (0 Bft)
06.01.2017 17:50 -14,4 °C -14,4 °C 86 % 1040,9 hPa 0,0 mm 0,0 km/h (0 Bft) O-SO 105 ° 0 min 0,000 mm 0,0 UV-I 0 W/m² -16,2 °C 0,0 km/h (0 Bft)
06.01.2017 17:51 -14,4 °C -14,4 °C 86 % 1040,9 hPa 0,0 mm 0,0 km/h (0 Bft) O-SO 105 ° 0 min 0,000 mm 0,0 UV-I 0 W/m² -16,2 °C 0,0 km/h (0 Bft)
06.01.2017 17:52 -14,5 °C -14,4 °C 86 % 1040,9 hPa 0,0 mm 0,0 km/h (0 Bft) O-SO 105 ° 0 min 0,000 mm 0,0 UV-I 0 W/m² -16,3 °C 0,0 km/h (0 Bft)
06.01.2017 17:53 -14,5 °C -14,4 °C 85 % 1040,9 hPa 0,0 mm 0,0 km/h (0 Bft) O-SO 105 ° 0 min 0,000 mm 0,0 UV-I 0 W/m² -16,4 °C 0,0 km/h (0 Bft)
06.01.2017 17:54 -14,5 °C -14,5 °C 85 % 1040,9 hPa 0,0 mm 0,0 km/h (0 Bft) O-SO 105 ° 0 min 0,000 mm 0,0 UV-I 0 W/m² -16,4 °C 0,0 km/h (0 Bft)
06.01.2017 17:55 -14,6 °C -14,5 °C 85 % 1040,9 hPa 0,0 mm 0,0 km/h (0 Bft) O-SO 105 ° 0 min 0,000 mm 0,0 UV-I 0 W/m² -16,5 °C 0,0 km/h (0 Bft)
06.01.2017 17:56 -14,6 °C -14,6 °C 85 % 1040,9 hPa 0,0 mm 0,0 km/h (0 Bft) O-SO 105 ° 0 min 0,000 mm 0,0 UV-I 0 W/m² -16,5 °C 0,0 km/h (0 Bft)
06.01.2017 17:57 -14,6 °C -14,6 °C 85 % 1040,9 hPa 0,0 mm 0,0 km/h (0 Bft) O-SO 105 ° 0 min 0,000 mm 0,0 UV-I 0 W/m² -16,5 °C 0,0 km/h (0 Bft)
06.01.2017 17:58 -14,7 °C -14,6 °C 85 % 1040,9 hPa 0,0 mm 0,0 km/h (0 Bft) O-SO 105 ° 0 min 0,000 mm 0,0 UV-I 0 W/m² -16,6 °C 0,0 km/h (0 Bft)
06.01.2017 17:59 -14,7 °C -14,7 °C 85 % 1040,9 hPa 0,0 mm 0,0 km/h (0 Bft) O-SO 105 ° 0 min 0,000 mm 0,0 UV-I 0 W/m² -16,6 °C 0,0 km/h (0 Bft)
06.01.2017 18:00 -14,7 °C -14,7 °C 84 % 1040,9 hPa 0,0 mm 0,0 km/h (0 Bft) O-SO 105 ° 0 min 0,000 mm 0,0 UV-I 0 W/m² -16,8 °C 0,0 km/h (0 Bft)
06.01.2017 18:01 -14,8 °C -14,7 °C 84 % 1040,9 hPa 0,0 mm 0,0 km/h (0 Bft) O-SO 105 ° 0 min 0,000 mm 0,0 UV-I 0 W/m² -16,9 °C 0,0 km/h (0 Bft)
06.01.2017 18:02 -14,8 °C -14,8 °C 84 % 1040,9 hPa 0,0 mm 0,0 km/h (0 Bft) O-SO 105 ° 0 min 0,000 mm 0,0 UV-I 0 W/m² -16,9 °C 0,0 km/h (0 Bft)
06.01.2017 18:03 -14,8 °C -14,8 °C 84 % 1040,9 hPa 0,0 mm 0,0 km/h (0 Bft) O-SO 105 ° 0 min 0,000 mm 0,0 UV-I 0 W/m² -16,9 °C 0,0 km/h (0 Bft)
06.01.2017 18:04 -14,9 °C -14,8 °C 84 % 1040,9 hPa 0,0 mm 0,0 km/h (0 Bft) O-SO 105 ° 0 min 0,000 mm 0,0 UV-I 0 W/m² -17,0 °C 0,0 km/h (0 Bft)
06.01.2017 18:05 -14,9 °C -14,9 °C 84 % 1040,9 hPa 0,0 mm 0,0 km/h (0 Bft) O-SO 105 ° 0 min 0,000 mm 0,0 UV-I 0 W/m² -17,0 °C 0,0 km/h (0 Bft)
06.01.2017 18:06 -14,9 °C -14,9 °C 84 % 1041,0 hPa 0,0 mm 0,0 km/h (0 Bft) O-SO 105 ° 0 min 0,000 mm 0,0 UV-I 0 W/m² -17,0 °C 0,0 km/h (0 Bft)
06.01.2017 18:07 -15,0 °C -14,9 °C 84 % 1040,9 hPa 0,0 mm 0,0 km/h (0 Bft) O-SO 105 ° 0 min 0,000 mm 0,0 UV-I 0 W/m² -17,1 °C 0,0 km/h (0 Bft)
06.01.2017 18:08 -15,0 °C -15,0 °C 84 % 1040,9 hPa 0,0 mm 0,0 km/h (0 Bft) O-SO 105 ° 0 min 0,000 mm 0,0 UV-I 0 W/m² -17,1 °C 0,0 km/h (0 Bft)
06.01.2017 18:09 -15,1 °C -15,0 °C 84 % 1040,9 hPa 0,0 mm 0,0 km/h (0 Bft) O-SO 105 ° 0 min 0,000 mm 0,0 UV-I 0 W/m² -17,2 °C 0,0 km/h (0 Bft)
06.01.2017 18:10 -15,1 °C -15,1 °C 84 % 1040,9 hPa 0,0 mm 0,0 km/h (0 Bft) O-SO 105 ° 0 min 0,000 mm 0,0 UV-I 0 W/m² -17,2 °C 0,0 km/h (0 Bft)
06.01.2017 18:11 -15,1 °C -15,1 °C 84 % 1040,9 hPa 0,0 mm 0,0 km/h (0 Bft) O-SO 105 ° 0 min 0,000 mm 0,0 UV-I 0 W/m² -17,2 °C 0,0 km/h (0 Bft)
06.01.2017 18:12 -15,1 °C -15,1 °C 84 % 1040,9 hPa 0,0 mm 0,0 km/h (0 Bft) O-SO 105 ° 0 min 0,000 mm 0,0 UV-I 0 W/m² -17,2 °C 0,0 km/h (0 Bft)
06.01.2017 18:13 -15,2 °C -15,1 °C 84 % 1040,9 hPa 0,0 mm 0,0 km/h (0 Bft) O-SO 105 ° 0 min 0,000 mm 0,0 UV-I 0 W/m² -17,3 °C 0,0 km/h (0 Bft)
06.01.2017 18:14 -15,2 °C -15,2 °C 84 % 1040,9 hPa 0,0 mm 0,0 km/h (0 Bft) O-SO 105 ° 0 min 0,000 mm 0,0 UV-I 0 W/m² -17,3 °C 0,0 km/h (0 Bft)
06.01.2017 18:15 -15,2 °C -15,2 °C 84 % 1040,9 hPa 0,0 mm 0,0 km/h (0 Bft) O-SO 105 ° 0 min 0,000 mm 0,0 UV-I 0 W/m² -17,3 °C 0,0 km/h (0 Bft)
06.01.2017 18:16 -15,3 °C -15,2 °C 84 % 1040,9 hPa 0,0 mm 0,0 km/h (0 Bft) O-SO 105 ° 0 min 0,000 mm 0,0 UV-I 0 W/m² -17,4 °C 0,0 km/h (0 Bft)
06.01.2017 18:17 -15,3 °C -15,3 °C 84 % 1040,9 hPa 0,0 mm 0,0 km/h (0 Bft) O-SO 105 ° 0 min 0,000 mm 0,0 UV-I 0 W/m² -17,4 °C 0,0 km/h (0 Bft)
06.01.2017 18:18 -15,3 °C -15,3 °C 84 % 1041,0 hPa 0,0 mm 0,0 km/h (0 Bft) O-SO 105 ° 0 min 0,000 mm 0,0 UV-I 0 W/m² -17,4 °C 0,0 km/h (0 Bft)
06.01.2017 18:19 -15,4 °C -15,3 °C 84 % 1041,0 hPa 0,0 mm 0,0 km/h (0 Bft) O-SO 105 ° 0 min 0,000 mm 0,0 UV-I 0 W/m² -17,5 °C 0,0 km/h (0 Bft)
06.01.2017 18:20 -15,4 °C -15,4 °C 84 % 1040,9 hPa 0,0 mm 0,0 km/h (0 Bft) O-SO 105 ° 0 min 0,000 mm 0,0 UV-I 0 W/m² -17,5 °C 0,0 km/h (0 Bft)
06.01.2017 18:21 -15,4 °C -15,4 °C 84 % 1040,9 hPa 0,0 mm 0,0 km/h (0 Bft) O-SO 105 ° 0 min 0,000 mm 0,0 UV-I 0 W/m² -17,5 °C 0,0 km/h (0 Bft)
06.01.2017 18:22 -15,5 °C -15,4 °C 84 % 1041,0 hPa 0,0 mm 0,0 km/h (0 Bft) O-SO 105 ° 0 min 0,000 mm 0,0 UV-I 0 W/m² -17,6 °C 0,0 km/h (0 Bft)
06.01.2017 18:23 -15,6 °C -15,5 °C 83 % 1040,9 hPa 0,0 mm 0,0 km/h (0 Bft) O-SO 105 ° 0 min 0,000 mm 0,0 UV-I 0 W/m² -17,8 °C 0,0 km/h (0 Bft)
06.01.2017 18:24 -15,6 °C -15,6 °C 83 % 1040,9 hPa 0,0 mm 0,0 km/h (0 Bft) O-SO 105 ° 0 min 0,000 mm 0,0 UV-I 0 W/m² -17,8 °C 0,0 km/h (0 Bft)
06.01.2017 18:25 -15,7 °C -15,6 °C 83 % 1040,9 hPa 0,0 mm 0,0 km/h (0 Bft) O-SO 105 ° 0 min 0,000 mm 0,0 UV-I 0 W/m² -17,9 °C 0,0 km/h (0 Bft)
06.01.2017 18:26 -15,7 °C -15,6 °C 83 % 1040,9 hPa 0,0 mm 0,0 km/h (0 Bft) O-SO 105 ° 0 min 0,000 mm 0,0 UV-I 0 W/m² -17,9 °C 0,0 km/h (0 Bft)
06.01.2017 18:27 -15,7 °C -15,7 °C 84 % 1040,9 hPa 0,0 mm 0,0 km/h (0 Bft) O-SO 105 ° 0 min 0,000 mm 0,0 UV-I 0 W/m² -17,8 °C 0,0 km/h (0 Bft)
06.01.2017 18:28 -15,7 °C -15,7 °C 84 % 1041,0 hPa 0,0 mm 0,0 km/h (0 Bft) O-SO 105 ° 0 min 0,000 mm 0,0 UV-I 0 W/m² -17,8 °C 0,0 km/h (0 Bft)
06.01.2017 18:29 -15,8 °C -15,7 °C 84 % 1040,9 hPa 0,0 mm 0,0 km/h (0 Bft) O-SO 105 ° 0 min 0,000 mm 0,0 UV-I 0 W/m² -17,9 °C 0,0 km/h (0 Bft)
06.01.2017 18:30 -15,8 °C -15,8 °C 84 % 1040,9 hPa 0,0 mm 0,0 km/h (0 Bft) O-SO 105 ° 0 min 0,000 mm 0,0 UV-I 0 W/m² -17,9 °C 0,0 km/h (0 Bft)
06.01.2017 18:31 -15,8 °C -15,8 °C 83 % 1041,0 hPa 0,0 mm 0,0 km/h (0 Bft) O-SO 105 ° 0 min 0,000 mm 0,0 UV-I 0 W/m² -18,0 °C 0,0 km/h (0 Bft)
06.01.2017 18:32 -15,9 °C -15,8 °C 83 % 1041,0 hPa 0,0 mm 0,0 km/h (0 Bft) O-SO 105 ° 0 min 0,000 mm 0,0 UV-I 0 W/m² -18,1 °C 0,0 km/h (0 Bft)
06.01.2017 18:33 -15,9 °C -15,9 °C 83 % 1041,0 hPa 0,0 mm 0,0 km/h (0 Bft) O-SO 105 ° 0 min 0,000 mm 0,0 UV-I 0 W/m² -18,1 °C 0,0 km/h (0 Bft)
06.01.2017 18:34 -15,9 °C -15,9 °C 83 % 1041,0 hPa 0,0 mm 0,0 km/h (0 Bft) O-SO 105 ° 0 min 0,000 mm 0,0 UV-I 0 W/m² -18,1 °C 0,0 km/h (0 Bft)
06.01.2017 18:35 -16,0 °C -15,9 °C 83 % 1041,0 hPa 0,0 mm 0,0 km/h (0 Bft) O-SO 105 ° 0 min 0,000 mm 0,0 UV-I 0 W/m² -18,2 °C 0,0 km/h (0 Bft)
06.01.2017 18:36 -16,0 °C -16,0 °C 84 % 1041,0 hPa 0,0 mm 0,0 km/h (0 Bft) O-SO 105 ° 0 min 0,000 mm 0,0 UV-I 0 W/m² -18,1 °C 0,0 km/h (0 Bft)
06.01.2017 18:37 -16,1 °C -16,0 °C 84 % 1041,0 hPa 0,0 mm 0,0 km/h (0 Bft) O-SO 105 ° 0 min 0,000 mm 0,0 UV-I 0 W/m² -18,2 °C 0,0 km/h (0 Bft)
06.01.2017 18:38 -16,1 °C -16,1 °C 83 % 1041,0 hPa 0,0 mm 0,0 km/h (0 Bft) O-SO 105 ° 0 min 0,000 mm 0,0 UV-I 0 W/m² -18,3 °C 0,0 km/h (0 Bft)
06.01.2017 18:39 -16,1 °C -16,1 °C 83 % 1041,0 hPa 0,0 mm 0,0 km/h (0 Bft) O-SO 105 ° 0 min 0,000 mm 0,0 UV-I 0 W/m² -18,3 °C 0,0 km/h (0 Bft)
06.01.2017 18:40 -16,2 °C -16,1 °C 83 % 1041,0 hPa 0,0 mm 0,0 km/h (0 Bft) O-SO 105 ° 0 min 0,000 mm 0,0 UV-I 0 W/m² -18,4 °C 0,0 km/h (0 Bft)
06.01.2017 18:41 -16,2 °C -16,2 °C 83 % 1041,1 hPa 0,0 mm 0,0 km/h (0 Bft) O-SO 105 ° 0 min 0,000 mm 0,0 UV-I 0 W/m² -18,4 °C 0,0 km/h (0 Bft)
06.01.2017 18:42 -16,2 °C -16,2 °C 83 % 1041,0 hPa 0,0 mm 0,0 km/h (0 Bft) O-SO 105 ° 0 min 0,000 mm 0,0 UV-I 0 W/m² -18,4 °C 0,0 km/h (0 Bft)
06.01.2017 18:43 -16,3 °C -16,2 °C 83 % 1041,0 hPa 0,0 mm 0,0 km/h (0 Bft) O-SO 105 ° 0 min 0,000 mm 0,0 UV-I 0 W/m² -18,5 °C 0,0 km/h (0 Bft)
06.01.2017 18:44 -16,3 °C -16,3 °C 84 % 1041,0 hPa 0,0 mm 0,0 km/h (0 Bft) O-SO 105 ° 0 min 0,000 mm 0,0 UV-I 0 W/m² -18,4 °C 0,0 km/h (0 Bft)
06.01.2017 18:45 -16,4 °C -16,3 °C 84 % 1041,0 hPa 0,0 mm 0,0 km/h (0 Bft) O-SO 105 ° 0 min 0,000 mm 0,0 UV-I 0 W/m² -18,5 °C 0,0 km/h (0 Bft)
06.01.2017 18:46 -16,4 °C -16,4 °C 84 % 1041,0 hPa 0,0 mm 0,0 km/h (0 Bft) O-SO 105 ° 0 min 0,000 mm 0,0 UV-I 0 W/m² -18,5 °C 0,0 km/h (0 Bft)
06.01.2017 18:47 -16,4 °C -16,4 °C 84 % 1041,0 hPa 0,0 mm 0,0 km/h (0 Bft) O-SO 105 ° 0 min 0,000 mm 0,0 UV-I 0 W/m² -18,5 °C 0,0 km/h (0 Bft)
06.01.2017 18:48 -16,4 °C -16,4 °C 84 % 1041,0 hPa 0,0 mm 0,0 km/h (0 Bft) O-SO 105 ° 0 min 0,000 mm 0,0 UV-I 0 W/m² -18,5 °C 0,0 km/h (0 Bft)
06.01.2017 18:49 -16,5 °C -16,4 °C 84 % 1041,0 hPa 0,0 mm 0,0 km/h (0 Bft) O-SO 105 ° 0 min 0,000 mm 0,0 UV-I 0 W/m² -18,6 °C 0,0 km/h (0 Bft)
06.01.2017 18:50 -16,6 °C -16,4 °C 84 % 1041,1 hPa 0,0 mm 0,0 km/h (0 Bft) O-SO 105 ° 0 min 0,000 mm 0,0 UV-I 0 W/m² -18,7 °C 0,0 km/h (0 Bft)
06.01.2017 18:51 -16,6 °C -16,5 °C 84 % 1041,1 hPa 0,0 mm 0,0 km/h (0 Bft) O-SO 105 ° 0 min 0,000 mm 0,0 UV-I 0 W/m² -18,7 °C 0,0 km/h (0 Bft)
06.01.2017 18:52 -16,6 °C -16,6 °C 84 % 1041,1 hPa 0,0 mm 0,0 km/h (0 Bft) O-SO 105 ° 0 min 0,000 mm 0,0 UV-I 0 W/m² -18,7 °C 0,0 km/h (0 Bft)
06.01.2017 18:53 -16,6 °C -16,6 °C 84 % 1041,1 hPa 0,0 mm 0,0 km/h (0 Bft) O-SO 105 ° 0 min 0,000 mm 0,0 UV-I 0 W/m² -18,7 °C 0,0 km/h (0 Bft)
06.01.2017 18:54 -16,6 °C -16,6 °C 84 % 1041,0 hPa 0,0 mm 0,0 km/h (0 Bft) O-SO 105 ° 0 min 0,000 mm 0,0 UV-I 0 W/m² -18,7 °C 0,0 km/h (0 Bft)
06.01.2017 18:55 -16,7 °C -16,6 °C 84 % 1041,1 hPa 0,0 mm 0,0 km/h (0 Bft) O-SO 105 ° 0 min 0,000 mm 0,0 UV-I 0 W/m² -18,7 °C 0,0 km/h (0 Bft)
06.01.2017 18:56 -16,7 °C -16,6 °C 84 % 1041,1 hPa 0,0 mm 0,0 km/h (0 Bft) O-SO 105 ° 0 min 0,000 mm 0,0 UV-I 0 W/m² -18,7 °C 0,0 km/h (0 Bft)
06.01.2017 18:57 -16,7 °C -16,7 °C 84 % 1041,1 hPa 0,0 mm 0,0 km/h (0 Bft) O-SO 105 ° 0 min 0,000 mm 0,0 UV-I 0 W/m² -18,7 °C 0,0 km/h (0 Bft)
06.01.2017 18:58 -16,7 °C -16,7 °C 84 % 1041,1 hPa 0,0 mm 0,0 km/h (0 Bft) O-SO 105 ° 0 min 0,000 mm 0,0 UV-I 0 W/m² -18,7 °C 0,0 km/h (0 Bft)
06.01.2017 18:59 -16,7 °C -16,7 °C 84 % 1041,1 hPa 0,0 mm 0,0 km/h (0 Bft) O-SO 105 ° 0 min 0,000 mm 0,0 UV-I 0 W/m² -18,7 °C 0,0 km/h (0 Bft)
06.01.2017 19:00 -16,8 °C -16,7 °C 84 % 1041,1 hPa 0,0 mm 0,0 km/h (0 Bft) O-SO 105 ° 0 min 0,000 mm 0,0 UV-I 0 W/m² -18,8 °C 0,0 km/h (0 Bft)
06.01.2017 19:01 -16,8 °C -16,8 °C 84 % 1041,0 hPa 0,0 mm 0,0 km/h (0 Bft) O-SO 105 ° 0 min 0,000 mm 0,0 UV-I 0 W/m² -18,8 °C 0,0 km/h (0 Bft)
06.01.2017 19:02 -16,8 °C -16,8 °C 84 % 1041,0 hPa 0,0 mm 0,0 km/h (0 Bft) O-SO 105 ° 0 min 0,000 mm 0,0 UV-I 0 W/m² -18,8 °C 0,0 km/h (0 Bft)
06.01.2017 19:03 -16,8 °C -16,8 °C 84 % 1041,1 hPa 0,0 mm 0,0 km/h (0 Bft) O-SO 105 ° 0 min 0,000 mm 0,0 UV-I 0 W/m² -18,8 °C 0,0 km/h (0 Bft)
06.01.2017 19:04 -16,9 °C -16,8 °C 84 % 1041,0 hPa 0,0 mm 0,0 km/h (0 Bft) O-SO 105 ° 0 min 0,000 mm 0,0 UV-I 0 W/m² -18,9 °C 0,0 km/h (0 Bft)
06.01.2017 19:05 -16,9 °C -16,9 °C 84 % 1041,1 hPa 0,0 mm 0,0 km/h (0 Bft) O-SO 105 ° 0 min 0,000 mm 0,0 UV-I 0 W/m² -18,9 °C 0,0 km/h (0 Bft)
06.01.2017 19:06 -16,9 °C -16,9 °C 84 % 1041,1 hPa 0,0 mm 0,0 km/h (0 Bft) O-SO 105 ° 0 min 0,000 mm 0,0 UV-I 0 W/m² -18,9 °C 0,0 km/h (0 Bft)
06.01.2017 19:07 -16,9 °C -16,9 °C 84 % 1041,1 hPa 0,0 mm 0,0 km/h (0 Bft) O-SO 105 ° 0 min 0,000 mm 0,0 UV-I 0 W/m² -18,9 °C 0,0 km/h (0 Bft)
06.01.2017 19:08 -17,0 °C -16,9 °C 84 % 1041,1 hPa 0,0 mm 0,0 km/h (0 Bft) O-SO 105 ° 0 min 0,000 mm 0,0 UV-I 0 W/m² -19,0 °C 0,0 km/h (0 Bft)
06.01.2017 19:09 -17,0 °C -16,9 °C 84 % 1041,1 hPa 0,0 mm 0,0 km/h (0 Bft) O-SO 105 ° 0 min 0,000 mm 0,0 UV-I 0 W/m² -19,0 °C 0,0 km/h (0 Bft)
06.01.2017 19:10 -17,0 °C -17,0 °C 84 % 1041,1 hPa 0,0 mm 0,0 km/h (0 Bft) O-SO 105 ° 0 min 0,000 mm 0,0 UV-I 0 W/m² -19,0 °C 0,0 km/h (0 Bft)
06.01.2017 19:11 -17,1 °C -17,0 °C 84 % 1041,1 hPa 0,0 mm 0,0 km/h (0 Bft) O-SO 105 ° 0 min 0,000 mm 0,0 UV-I 0 W/m² -19,1 °C 0,0 km/h (0 Bft)
06.01.2017 19:12 -17,1 °C -17,1 °C 84 % 1041,1 hPa 0,0 mm 0,0 km/h (0 Bft) O-SO 105 ° 0 min 0,000 mm 0,0 UV-I 0 W/m² -19,1 °C 0,0 km/h (0 Bft)
06.01.2017 19:13 -17,1 °C -17,1 °C 84 % 1041,1 hPa 0,0 mm 0,0 km/h (0 Bft) O-SO 105 ° 0 min 0,000 mm 0,0 UV-I 0 W/m² -19,1 °C 0,0 km/h (0 Bft)
06.01.2017 19:14 -17,1 °C -17,1 °C 84 % 1041,1 hPa 0,0 mm 0,0 km/h (0 Bft) O-SO 105 ° 0 min 0,000 mm 0,0 UV-I 0 W/m² -19,1 °C 0,0 km/h (0 Bft)
06.01.2017 19:15 -17,1 °C -17,1 °C 84 % 1041,1 hPa 0,0 mm 0,0 km/h (0 Bft) O-SO 105 ° 0 min 0,000 mm 0,0 UV-I 0 W/m² -19,1 °C 0,0 km/h (0 Bft)
06.01.2017 19:16 -17,1 °C -17,1 °C 84 % 1041,1 hPa 0,0 mm 0,0 km/h (0 Bft) O-SO 105 ° 0 min 0,000 mm 0,0 UV-I 0 W/m² -19,1 °C 0,0 km/h (0 Bft)
06.01.2017 19:17 -17,2 °C -17,1 °C 84 % 1041,1 hPa 0,0 mm 0,0 km/h (0 Bft) O-SO 105 ° 0 min 0,000 mm 0,0 UV-I 0 W/m² -19,2 °C 0,0 km/h (0 Bft)
06.01.2017 19:18 -17,2 °C -17,2 °C 84 % 1041,1 hPa 0,0 mm 0,0 km/h (0 Bft) O-SO 105 ° 0 min 0,000 mm 0,0 UV-I 0 W/m² -19,2 °C 0,0 km/h (0 Bft)
06.01.2017 19:19 -17,2 °C -17,2 °C 84 % 1041,1 hPa 0,0 mm 0,0 km/h (0 Bft) O-SO 105 ° 0 min 0,000 mm 0,0 UV-I 0 W/m² -19,2 °C 0,0 km/h (0 Bft)
06.01.2017 19:20 -17,3 °C -17,2 °C 84 % 1041,1 hPa 0,0 mm 0,0 km/h (0 Bft) O-SO 105 ° 0 min 0,000 mm 0,0 UV-I 0 W/m² -19,3 °C 0,0 km/h (0 Bft)
06.01.2017 19:21 -17,3 °C -17,3 °C 84 % 1041,1 hPa 0,0 mm 0,0 km/h (0 Bft) O-SO 105 ° 0 min 0,000 mm 0,0 UV-I 0 W/m² -19,3 °C 0,0 km/h (0 Bft)
06.01.2017 19:22 -17,3 °C -17,3 °C 84 % 1041,1 hPa 0,0 mm 0,0 km/h (0 Bft) O-SO 105 ° 0 min 0,000 mm 0,0 UV-I 0 W/m² -19,3 °C 0,0 km/h (0 Bft)
06.01.2017 19:23 -17,3 °C -17,3 °C 84 % 1041,1 hPa 0,0 mm 0,0 km/h (0 Bft) O-SO 105 ° 0 min 0,000 mm 0,0 UV-I 0 W/m² -19,3 °C 0,0 km/h (0 Bft)
06.01.2017 19:24 -17,3 °C -17,3 °C 84 % 1041,1 hPa 0,0 mm 0,0 km/h (0 Bft) O-SO 105 ° 0 min 0,000 mm 0,0 UV-I 0 W/m² -19,3 °C 0,0 km/h (0 Bft)
06.01.2017 19:25 -17,3 °C -17,3 °C 84 % 1041,1 hPa 0,0 mm 0,0 km/h (0 Bft) O-SO 105 ° 0 min 0,000 mm 0,0 UV-I 0 W/m² -19,3 °C 0,0 km/h (0 Bft)
06.01.2017 19:26 -17,4 °C -17,3 °C 84 % 1041,1 hPa 0,0 mm 0,0 km/h (0 Bft) O-SO 105 ° 0 min 0,000 mm 0,0 UV-I 0 W/m² -19,4 °C 0,0 km/h (0 Bft)
06.01.2017 19:27 -17,4 °C -17,4 °C 85 % 1041,1 hPa 0,0 mm 0,0 km/h (0 Bft) O-SO 105 ° 0 min 0,000 mm 0,0 UV-I 0 W/m² -19,3 °C 0,0 km/h (0 Bft)
06.01.2017 19:28 -17,4 °C -17,4 °C 85 % 1041,1 hPa 0,0 mm 0,0 km/h (0 Bft) O-SO 105 ° 0 min 0,000 mm 0,0 UV-I 0 W/m² -19,3 °C 0,0 km/h (0 Bft)
06.01.2017 19:29 -17,5 °C -17,4 °C 85 % 1041,1 hPa 0,0 mm 0,0 km/h (0 Bft) O-SO 105 ° 0 min 0,000 mm 0,0 UV-I 0 W/m² -19,4 °C 0,0 km/h (0 Bft)
06.01.2017 19:30 -17,5 °C -17,5 °C 85 % 1041,1 hPa 0,0 mm 0,0 km/h (0 Bft) O-SO 105 ° 0 min 0,000 mm 0,0 UV-I 0 W/m² -19,4 °C 0,0 km/h (0 Bft)
06.01.2017 19:31 -17,5 °C -17,5 °C 85 % 1041,1 hPa 0,0 mm 0,0 km/h (0 Bft) O-SO 105 ° 0 min 0,000 mm 0,0 UV-I 0 W/m² -19,4 °C 0,0 km/h (0 Bft)
06.01.2017 19:32 -17,6 °C -17,5 °C 85 % 1041,1 hPa 0,0 mm 0,0 km/h (0 Bft) O-SO 105 ° 0 min 0,000 mm 0,0 UV-I 0 W/m² -19,5 °C 0,0 km/h (0 Bft)
06.01.2017 19:33 -17,6 °C -17,6 °C 85 % 1041,1 hPa 0,0 mm 0,1 km/h (0 Bft) O-SO 105 ° 0 min 0,000 mm 0,0 UV-I 0 W/m² -19,5 °C 1,6 km/h (1 Bft)
06.01.2017 19:34 -17,6 °C -17,6 °C 85 % 1041,1 hPa 0,0 mm 0,0 km/h (0 Bft) O-SO 105 ° 0 min 0,000 mm 0,0 UV-I 0 W/m² -19,5 °C 0,0 km/h (0 Bft)
06.01.2017 19:35 -17,6 °C -17,6 °C 85 % 1041,1 hPa 0,0 mm 0,0 km/h (0 Bft) O-SO 105 ° 0 min 0,000 mm 0,0 UV-I 0 W/m² -19,5 °C 0,0 km/h (0 Bft)
06.01.2017 19:36 -17,6 °C -17,6 °C 85 % 1041,1 hPa 0,0 mm 0,0 km/h (0 Bft) O-SO 105 ° 0 min 0,000 mm 0,0 UV-I 0 W/m² -19,5 °C 0,0 km/h (0 Bft)
06.01.2017 19:37 -17,6 °C -17,6 °C 85 % 1041,0 hPa 0,0 mm 0,0 km/h (0 Bft) O-SO 105 ° 0 min 0,000 mm 0,0 UV-I 0 W/m² -19,5 °C 0,0 km/h (0 Bft)
06.01.2017 19:38 -17,6 °C -17,6 °C 85 % 1041,1 hPa 0,0 mm 0,0 km/h (0 Bft) O-SO 105 ° 0 min 0,000 mm 0,0 UV-I 0 W/m² -19,5 °C 0,0 km/h (0 Bft)
06.01.2017 19:39 -17,7 °C -17,6 °C 85 % 1041,0 hPa 0,0 mm 0,0 km/h (0 Bft) O-SO 105 ° 0 min 0,000 mm 0,0 UV-I 0 W/m² -19,6 °C 0,0 km/h (0 Bft)
06.01.2017 19:40 -17,7 °C -17,7 °C 85 % 1041,0 hPa 0,0 mm 0,0 km/h (0 Bft) O-SO 105 ° 0 min 0,000 mm 0,0 UV-I 0 W/m² -19,6 °C 0,0 km/h (0 Bft)
06.01.2017 19:41 -17,7 °C -17,7 °C 85 % 1041,0 hPa 0,0 mm 0,0 km/h (0 Bft) O-SO 105 ° 0 min 0,000 mm 0,0 UV-I 0 W/m² -19,6 °C 0,0 km/h (0 Bft)
06.01.2017 19:42 -17,7 °C -17,7 °C 85 % 1041,0 hPa 0,0 mm 0,0 km/h (0 Bft) O-SO 105 ° 0 min 0,000 mm 0,0 UV-I 0 W/m² -19,6 °C 0,0 km/h (0 Bft)
06.01.2017 19:43 -17,7 °C -17,7 °C 85 % 1041,0 hPa 0,0 mm 0,0 km/h (0 Bft) O-SO 105 ° 0 min 0,000 mm 0,0 UV-I 0 W/m² -19,6 °C 0,0 km/h (0 Bft)
06.01.2017 19:44 -17,7 °C -17,7 °C 85 % 1040,9 hPa 0,0 mm 0,0 km/h (0 Bft) O-SO 105 ° 0 min 0,000 mm 0,0 UV-I 0 W/m² -19,6 °C 0,0 km/h (0 Bft)
06.01.2017 19:45 -17,8 °C -17,7 °C 85 % 1041,0 hPa 0,0 mm 0,0 km/h (0 Bft) O-SO 105 ° 0 min 0,000 mm 0,0 UV-I 0 W/m² -19,7 °C 0,0 km/h (0 Bft)
06.01.2017 19:46 -17,8 °C -17,7 °C 85 % 1040,9 hPa 0,0 mm 0,0 km/h (0 Bft) O-SO 105 ° 0 min 0,000 mm 0,0 UV-I 0 W/m² -19,7 °C 0,0 km/h (0 Bft)
06.01.2017 19:47 -17,8 °C -17,8 °C 85 % 1040,9 hPa 0,0 mm 0,0 km/h (0 Bft) O-SO 105 ° 0 min 0,000 mm 0,0 UV-I 0 W/m² -19,7 °C 0,0 km/h (0 Bft)
06.01.2017 19:48 -17,8 °C -17,8 °C 85 % 1040,9 hPa 0,0 mm 0,0 km/h (0 Bft) O-SO 105 ° 0 min 0,000 mm 0,0 UV-I 0 W/m² -19,7 °C 0,0 km/h (0 Bft)
06.01.2017 19:49 -17,8 °C -17,8 °C 85 % 1040,9 hPa 0,0 mm 0,0 km/h (0 Bft) O-SO 105 ° 0 min 0,000 mm 0,0 UV-I 0 W/m² -19,7 °C 0,0 km/h (0 Bft)
06.01.2017 19:50 -17,8 °C -17,8 °C 85 % 1040,9 hPa 0,0 mm 0,0 km/h (0 Bft) O-SO 105 ° 0 min 0,000 mm 0,0 UV-I 0 W/m² -19,7 °C 0,0 km/h (0 Bft)
06.01.2017 19:51 -17,9 °C -17,8 °C 85 % 1040,9 hPa 0,0 mm 0,2 km/h (0 Bft) O-SO 105 ° 0 min 0,000 mm 0,0 UV-I 0 W/m² -19,8 °C 1,6 km/h (1 Bft)
06.01.2017 19:52 -17,9 °C -17,9 °C 85 % 1040,9 hPa 0,0 mm 0,0 km/h (0 Bft) O-SO 105 ° 0 min 0,000 mm 0,0 UV-I 0 W/m² -19,8 °C 0,0 km/h (0 Bft)
06.01.2017 19:53 -17,9 °C -17,9 °C 85 % 1041,0 hPa 0,0 mm 0,0 km/h (0 Bft) O-SO 105 ° 0 min 0,000 mm 0,0 UV-I 0 W/m² -19,8 °C 0,0 km/h (0 Bft)
06.01.2017 19:54 -17,9 °C -17,9 °C 85 % 1041,0 hPa 0,0 mm 0,0 km/h (0 Bft) O-SO 105 ° 0 min 0,000 mm 0,0 UV-I 0 W/m² -19,8 °C 0,0 km/h (0 Bft)
06.01.2017 19:55 -17,9 °C -17,9 °C 85 % 1041,0 hPa 0,0 mm 0,0 km/h (0 Bft) O-SO 105 ° 0 min 0,000 mm 0,0 UV-I 0 W/m² -19,8 °C 0,0 km/h (0 Bft)
06.01.2017 19:56 -17,9 °C -17,9 °C 85 % 1041,0 hPa 0,0 mm 0,0 km/h (0 Bft) O-SO 105 ° 0 min 0,000 mm 0,0 UV-I 0 W/m² -19,8 °C 0,0 km/h (0 Bft)
06.01.2017 19:57 -17,9 °C -17,9 °C 85 % 1040,9 hPa 0,0 mm 0,0 km/h (0 Bft) O-SO 105 ° 0 min 0,000 mm 0,0 UV-I 0 W/m² -19,8 °C 0,0 km/h (0 Bft)
06.01.2017 19:58 -17,9 °C -17,9 °C 85 % 1040,9 hPa 0,0 mm 0,0 km/h (0 Bft) O-SO 105 ° 0 min 0,000 mm 0,0 UV-I 0 W/m² -19,8 °C 0,0 km/h (0 Bft)
06.01.2017 19:59 -18,0 °C -17,9 °C 85 % 1040,9 hPa 0,0 mm 0,0 km/h (0 Bft) O-SO 105 ° 0 min 0,000 mm 0,0 UV-I 0 W/m² -19,9 °C 0,0 km/h (0 Bft)
06.01.2017 20:00 -18,0 °C -18,0 °C 85 % 1040,9 hPa 0,0 mm 0,0 km/h (0 Bft) O-SO 105 ° 0 min 0,000 mm 0,0 UV-I 0 W/m² -19,9 °C 0,0 km/h (0 Bft)
06.01.2017 20:01 -18,1 °C -18,0 °C 85 % 1040,9 hPa 0,0 mm 0,0 km/h (0 Bft) O-SO 105 ° 0 min 0,000 mm 0,0 UV-I 0 W/m² -20,0 °C 0,0 km/h (0 Bft)
06.01.2017 20:02 -18,1 °C -18,0 °C 85 % 1040,9 hPa 0,0 mm 0,0 km/h (0 Bft) O-SO 105 ° 0 min 0,000 mm 0,0 UV-I 0 W/m² -20,0 °C 0,0 km/h (0 Bft)
06.01.2017 20:03 -18,1 °C -18,1 °C 85 % 1040,9 hPa 0,0 mm 0,0 km/h (0 Bft) O-SO 105 ° 0 min 0,000 mm 0,0 UV-I 0 W/m² -20,0 °C 0,0 km/h (0 Bft)
06.01.2017 20:04 -18,1 °C -18,1 °C 85 % 1041,0 hPa 0,0 mm 0,0 km/h (0 Bft) O-SO 105 ° 0 min 0,000 mm 0,0 UV-I 0 W/m² -20,0 °C 0,0 km/h (0 Bft)
06.01.2017 20:05 -18,1 °C -18,1 °C 85 % 1040,9 hPa 0,0 mm 0,0 km/h (0 Bft) O-SO 105 ° 0 min 0,000 mm 0,0 UV-I 0 W/m² -20,0 °C 0,0 km/h (0 Bft)
06.01.2017 20:06 -18,1 °C -18,1 °C 85 % 1040,9 hPa 0,0 mm 0,0 km/h (0 Bft) O-SO 105 ° 0 min 0,000 mm 0,0 UV-I 0 W/m² -20,0 °C 0,0 km/h (0 Bft)
06.01.2017 20:07 -18,1 °C -18,1 °C 85 % 1041,0 hPa 0,0 mm 0,0 km/h (0 Bft) O-SO 105 ° 0 min 0,000 mm 0,0 UV-I 0 W/m² -20,0 °C 0,0 km/h (0 Bft)
06.01.2017 20:08 -18,1 °C -18,1 °C 85 % 1040,9 hPa 0,0 mm 0,0 km/h (0 Bft) O-SO 105 ° 0 min 0,000 mm 0,0 UV-I 0 W/m² -20,0 °C 0,0 km/h (0 Bft)
06.01.2017 20:09 -18,1 °C -18,1 °C 85 % 1040,9 hPa 0,0 mm 0,0 km/h (0 Bft) O-SO 105 ° 0 min 0,000 mm 0,0 UV-I 0 W/m² -20,0 °C 0,0 km/h (0 Bft)
06.01.2017 20:10 -18,2 °C -18,1 °C 85 % 1040,9 hPa 0,0 mm 0,0 km/h (0 Bft) O-SO 105 ° 0 min 0,000 mm 0,0 UV-I 0 W/m² -20,1 °C 0,0 km/h (0 Bft)
06.01.2017 20:11 -18,2 °C -18,2 °C 84 % 1040,9 hPa 0,0 mm 0,1 km/h (0 Bft) O-SO 105 ° 0 min 0,000 mm 0,0 UV-I 0 W/m² -20,2 °C 1,6 km/h (1 Bft)
06.01.2017 20:12 -18,2 °C -18,2 °C 84 % 1040,9 hPa 0,0 mm 0,0 km/h (0 Bft) O-SO 105 ° 0 min 0,000 mm 0,0 UV-I 0 W/m² -20,2 °C 0,0 km/h (0 Bft)
06.01.2017 20:13 -18,2 °C -18,2 °C 84 % 1040,9 hPa 0,0 mm 0,0 km/h (0 Bft) O-SO 105 ° 0 min 0,000 mm 0,0 UV-I 0 W/m² -20,2 °C 0,0 km/h (0 Bft)
06.01.2017 20:14 -18,2 °C -18,2 °C 84 % 1040,9 hPa 0,0 mm 0,0 km/h (0 Bft) O-SO 105 ° 0 min 0,000 mm 0,0 UV-I 0 W/m² -20,2 °C 0,0 km/h (0 Bft)
06.01.2017 20:15 -18,3 °C -18,2 °C 84 % 1040,9 hPa 0,0 mm 0,0 km/h (0 Bft) O-SO 105 ° 0 min 0,000 mm 0,0 UV-I 0 W/m² -20,3 °C 0,0 km/h (0 Bft)
06.01.2017 20:16 -18,3 °C -18,3 °C 84 % 1040,9 hPa 0,0 mm 0,0 km/h (0 Bft) O-SO 105 ° 0 min 0,000 mm 0,0 UV-I 0 W/m² -20,3 °C 0,0 km/h (0 Bft)
06.01.2017 20:17 -18,3 °C -18,3 °C 84 % 1040,9 hPa 0,0 mm 0,0 km/h (0 Bft) O-SO 105 ° 0 min 0,000 mm 0,0 UV-I 0 W/m² -20,3 °C 0,0 km/h (0 Bft)
06.01.2017 20:18 -18,3 °C -18,3 °C 85 % 1040,9 hPa 0,0 mm 0,0 km/h (0 Bft) O-SO 105 ° 0 min 0,000 mm 0,0 UV-I 0 W/m² -20,2 °C 0,0 km/h (0 Bft)
06.01.2017 20:19 -18,3 °C -18,3 °C 85 % 1040,9 hPa 0,0 mm 0,0 km/h (0 Bft) O-SO 105 ° 0 min 0,000 mm 0,0 UV-I 0 W/m² -20,2 °C 0,0 km/h (0 Bft)
06.01.2017 20:20 -18,3 °C -18,3 °C 85 % 1040,9 hPa 0,0 mm 0,0 km/h (0 Bft) O-SO 105 ° 0 min 0,000 mm 0,0 UV-I 0 W/m² -20,2 °C 0,0 km/h (0 Bft)
06.01.2017 20:21 -18,3 °C -18,3 °C 85 % 1040,8 hPa 0,0 mm 0,0 km/h (0 Bft) O-SO 105 ° 0 min 0,000 mm 0,0 UV-I 0 W/m² -20,2 °C 0,0 km/h (0 Bft)
06.01.2017 20:22 -18,3 °C -18,3 °C 85 % 1040,8 hPa 0,0 mm 0,0 km/h (0 Bft) O-SO 105 ° 0 min 0,000 mm 0,0 UV-I 0 W/m² -20,2 °C 0,0 km/h (0 Bft)
06.01.2017 20:23 -18,3 °C -18,3 °C 85 % 1040,8 hPa 0,0 mm 0,0 km/h (0 Bft) O-SO 105 ° 0 min 0,000 mm 0,0 UV-I 0 W/m² -20,2 °C 0,0 km/h (0 Bft)
06.01.2017 20:24 -18,4 °C -18,3 °C 85 % 1040,8 hPa 0,0 mm 0,0 km/h (0 Bft) O-SO 105 ° 0 min 0,000 mm 0,0 UV-I 0 W/m² -20,3 °C 0,0 km/h (0 Bft)
06.01.2017 20:25 -18,4 °C -18,4 °C 85 % 1040,8 hPa 0,0 mm 0,0 km/h (0 Bft) O-SO 105 ° 0 min 0,000 mm 0,0 UV-I 0 W/m² -20,3 °C 0,0 km/h (0 Bft)
06.01.2017 20:26 -18,4 °C -18,4 °C 85 % 1040,8 hPa 0,0 mm 0,0 km/h (0 Bft) O-SO 105 ° 0 min 0,000 mm 0,0 UV-I 0 W/m² -20,3 °C 0,0 km/h (0 Bft)
06.01.2017 20:27 -18,4 °C -18,4 °C 85 % 1040,8 hPa 0,0 mm 0,0 km/h (0 Bft) O-SO 105 ° 0 min 0,000 mm 0,0 UV-I 0 W/m² -20,3 °C 0,0 km/h (0 Bft)
06.01.2017 20:28 -18,4 °C -18,4 °C 85 % 1040,8 hPa 0,0 mm 0,0 km/h (0 Bft) O-SO 105 ° 0 min 0,000 mm 0,0 UV-I 0 W/m² -20,3 °C 0,0 km/h (0 Bft)
06.01.2017 20:29 -18,4 °C -18,4 °C 85 % 1040,7 hPa 0,0 mm 0,0 km/h (0 Bft) O-SO 105 ° 0 min 0,000 mm 0,0 UV-I 0 W/m² -20,3 °C 0,0 km/h (0 Bft)
06.01.2017 20:30 -18,4 °C -18,4 °C 85 % 1040,8 hPa 0,0 mm 0,0 km/h (0 Bft) O-SO 105 ° 0 min 0,000 mm 0,0 UV-I 0 W/m² -20,3 °C 0,0 km/h (0 Bft)
06.01.2017 20:31 -18,4 °C -18,4 °C 85 % 1040,8 hPa 0,0 mm 0,0 km/h (0 Bft) O-SO 105 ° 0 min 0,000 mm 0,0 UV-I 0 W/m² -20,3 °C 0,0 km/h (0 Bft)
06.01.2017 20:32 -18,4 °C -18,4 °C 85 % 1040,7 hPa 0,0 mm 0,0 km/h (0 Bft) O-SO 105 ° 0 min 0,000 mm 0,0 UV-I 0 W/m² -20,3 °C 0,0 km/h (0 Bft)
06.01.2017 20:33 -18,4 °C -18,4 °C 86 % 1040,8 hPa 0,0 mm 0,0 km/h (0 Bft) O-SO 105 ° 0 min 0,000 mm 0,0 UV-I 0 W/m² -20,1 °C 0,0 km/h (0 Bft)
06.01.2017 20:34 -18,5 °C -18,4 °C 86 % 1040,8 hPa 0,0 mm 0,0 km/h (0 Bft) O-SO 105 ° 0 min 0,000 mm 0,0 UV-I 0 W/m² -20,2 °C 0,0 km/h (0 Bft)
06.01.2017 20:35 -18,5 °C -18,4 °C 86 % 1040,7 hPa 0,0 mm 0,0 km/h (0 Bft) O-SO 105 ° 0 min 0,000 mm 0,0 UV-I 0 W/m² -20,2 °C 0,0 km/h (0 Bft)
06.01.2017 20:36 -18,5 °C -18,5 °C 86 % 1040,7 hPa 0,0 mm 0,0 km/h (0 Bft) O-SO 105 ° 0 min 0,000 mm 0,0 UV-I 0 W/m² -20,2 °C 0,0 km/h (0 Bft)
06.01.2017 20:37 -18,5 °C -18,5 °C 86 % 1040,6 hPa 0,0 mm 0,0 km/h (0 Bft) O-SO 105 ° 0 min 0,000 mm 0,0 UV-I 0 W/m² -20,2 °C 0,0 km/h (0 Bft)
06.01.2017 20:38 -18,5 °C -18,5 °C 85 % 1040,7 hPa 0,0 mm 0,0 km/h (0 Bft) O-SO 105 ° 0 min 0,000 mm 0,0 UV-I 0 W/m² -20,4 °C 0,0 km/h (0 Bft)
06.01.2017 20:39 -18,6 °C -18,5 °C 85 % 1040,7 hPa 0,0 mm 0,0 km/h (0 Bft) O-SO 105 ° 0 min 0,000 mm 0,0 UV-I 0 W/m² -20,5 °C 0,0 km/h (0 Bft)
06.01.2017 20:40 -18,6 °C -18,5 °C 86 % 1040,7 hPa 0,0 mm 0,0 km/h (0 Bft) O-SO 105 ° 0 min 0,000 mm 0,0 UV-I 0 W/m² -20,3 °C 0,0 km/h (0 Bft)
06.01.2017 20:41 -18,6 °C -18,5 °C 86 % 1040,7 hPa 0,0 mm 0,0 km/h (0 Bft) O-SO 105 ° 0 min 0,000 mm 0,0 UV-I 0 W/m² -20,3 °C 0,0 km/h (0 Bft)
06.01.2017 20:42 -18,6 °C -18,6 °C 86 % 1040,7 hPa 0,0 mm 0,0 km/h (0 Bft) O-SO 105 ° 0 min 0,000 mm 0,0 UV-I 0 W/m² -20,3 °C 0,0 km/h (0 Bft)
06.01.2017 20:43 -18,6 °C -18,6 °C 86 % 1040,7 hPa 0,0 mm 0,0 km/h (0 Bft) O-SO 105 ° 0 min 0,000 mm 0,0 UV-I 0 W/m² -20,3 °C 0,0 km/h (0 Bft)
06.01.2017 20:44 -18,6 °C -18,6 °C 85 % 1040,7 hPa 0,0 mm 0,0 km/h (0 Bft) O-SO 105 ° 0 min 0,000 mm 0,0 UV-I 0 W/m² -20,5 °C 0,0 km/h (0 Bft)
06.01.2017 20:45 -18,6 °C -18,6 °C 86 % 1040,7 hPa 0,0 mm 0,0 km/h (0 Bft) O-SO 105 ° 0 min 0,000 mm 0,0 UV-I 0 W/m² -20,3 °C 0,0 km/h (0 Bft)
06.01.2017 20:46 -18,6 °C -18,6 °C 86 % 1040,6 hPa 0,0 mm 0,0 km/h (0 Bft) O-SO 105 ° 0 min 0,000 mm 0,0 UV-I 0 W/m² -20,3 °C 0,0 km/h (0 Bft)
06.01.2017 20:47 -18,6 °C -18,6 °C 86 % 1040,6 hPa 0,0 mm 0,0 km/h (0 Bft) O-SO 105 ° 0 min 0,000 mm 0,0 UV-I 0 W/m² -20,3 °C 0,0 km/h (0 Bft)
06.01.2017 20:48 -18,6 °C -18,6 °C 86 % 1040,6 hPa 0,0 mm 0,0 km/h (0 Bft) O-SO 105 ° 0 min 0,000 mm 0,0 UV-I 0 W/m² -20,3 °C 0,0 km/h (0 Bft)
06.01.2017 20:49 -18,6 °C -18,6 °C 85 % 1040,6 hPa 0,0 mm 0,0 km/h (0 Bft) O-SO 105 ° 0 min 0,000 mm 0,0 UV-I 0 W/m² -20,5 °C 0,0 km/h (0 Bft)
06.01.2017 20:50 -18,6 °C -18,6 °C 85 % 1040,6 hPa 0,0 mm 0,0 km/h (0 Bft) O-SO 105 ° 0 min 0,000 mm 0,0 UV-I 0 W/m² -20,5 °C 0,0 km/h (0 Bft)
06.01.2017 20:51 -18,6 °C -18,6 °C 85 % 1040,7 hPa 0,0 mm 0,0 km/h (0 Bft) O-SO 105 ° 0 min 0,000 mm 0,0 UV-I 0 W/m² -20,5 °C 0,0 km/h (0 Bft)
06.01.2017 20:52 -18,7 °C -18,6 °C 85 % 1040,7 hPa 0,0 mm 0,1 km/h (0 Bft) O-SO 105 ° 0 min 0,000 mm 0,0 UV-I 0 W/m² -20,6 °C 1,6 km/h (1 Bft)
06.01.2017 20:53 -18,7 °C -18,7 °C 85 % 1040,7 hPa 0,0 mm 0,1 km/h (0 Bft) O-SO 105 ° 0 min 0,000 mm 0,0 UV-I 0 W/m² -20,6 °C 1,6 km/h (1 Bft)
06.01.2017 20:54 -18,7 °C -18,7 °C 85 % 1040,7 hPa 0,0 mm 0,0 km/h (0 Bft) O-SO 105 ° 0 min 0,000 mm 0,0 UV-I 0 W/m² -20,6 °C 0,0 km/h (0 Bft)
06.01.2017 20:55 -18,7 °C -18,7 °C 85 % 1040,8 hPa 0,0 mm 0,0 km/h (0 Bft) O-SO 105 ° 0 min 0,000 mm 0,0 UV-I 0 W/m² -20,6 °C 0,0 km/h (0 Bft)
06.01.2017 20:56 -18,7 °C -18,7 °C 85 % 1040,8 hPa 0,0 mm 0,0 km/h (0 Bft) O-SO 105 ° 0 min 0,000 mm 0,0 UV-I 0 W/m² -20,6 °C 0,0 km/h (0 Bft)
06.01.2017 20:57 -18,7 °C -18,7 °C 85 % 1040,8 hPa 0,0 mm 0,1 km/h (0 Bft) O-SO 105 ° 0 min 0,000 mm 0,0 UV-I 0 W/m² -20,6 °C 1,6 km/h (1 Bft)
06.01.2017 20:58 -18,7 °C -18,7 °C 85 % 1040,8 hPa 0,0 mm 0,0 km/h (0 Bft) O-SO 105 ° 0 min 0,000 mm 0,0 UV-I 0 W/m² -20,6 °C 0,0 km/h (0 Bft)
06.01.2017 20:59 -18,7 °C -18,7 °C 85 % 1040,7 hPa 0,0 mm 0,0 km/h (0 Bft) O-SO 105 ° 0 min 0,000 mm 0,0 UV-I 0 W/m² -20,6 °C 0,0 km/h (0 Bft)
06.01.2017 21:00 -18,7 °C -18,7 °C 85 % 1040,7 hPa 0,0 mm 0,0 km/h (0 Bft) O-SO 105 ° 0 min 0,000 mm 0,0 UV-I 0 W/m² -20,6 °C 0,0 km/h (0 Bft)
06.01.2017 21:01 -18,8 °C -18,7 °C 85 % 1040,7 hPa 0,0 mm 0,0 km/h (0 Bft) O-SO 105 ° 0 min 0,000 mm 0,0 UV-I 0 W/m² -20,7 °C 0,0 km/h (0 Bft)
06.01.2017 21:02 -18,8 °C -18,7 °C 85 % 1040,7 hPa 0,0 mm 0,0 km/h (0 Bft) O-SO 105 ° 0 min 0,000 mm 0,0 UV-I 0 W/m² -20,7 °C 0,0 km/h (0 Bft)
06.01.2017 21:03 -18,8 °C -18,8 °C 85 % 1040,7 hPa 0,0 mm 0,0 km/h (0 Bft) O-SO 105 ° 0 min 0,000 mm 0,0 UV-I 0 W/m² -20,7 °C 0,0 km/h (0 Bft)
06.01.2017 21:04 -18,8 °C -18,8 °C 85 % 1040,7 hPa 0,0 mm 0,0 km/h (0 Bft) O-SO 105 ° 0 min 0,000 mm 0,0 UV-I 0 W/m² -20,7 °C 0,0 km/h (0 Bft)
06.01.2017 21:05 -18,8 °C -18,8 °C 85 % 1040,7 hPa 0,0 mm 0,0 km/h (0 Bft) O-SO 105 ° 0 min 0,000 mm 0,0 UV-I 0 W/m² -20,7 °C 0,0 km/h (0 Bft)
06.01.2017 21:06 -18,8 °C -18,8 °C 85 % 1040,7 hPa 0,0 mm 0,0 km/h (0 Bft) O-SO 105 ° 0 min 0,000 mm 0,0 UV-I 0 W/m² -20,7 °C 0,0 km/h (0 Bft)
06.01.2017 21:07 -18,8 °C -18,8 °C 85 % 1040,7 hPa 0,0 mm 0,0 km/h (0 Bft) O-SO 105 ° 0 min 0,000 mm 0,0 UV-I 0 W/m² -20,7 °C 0,0 km/h (0 Bft)
06.01.2017 21:08 -18,8 °C -18,8 °C 85 % 1040,7 hPa 0,0 mm 0,0 km/h (0 Bft) O-SO 105 ° 0 min 0,000 mm 0,0 UV-I 0 W/m² -20,7 °C 0,0 km/h (0 Bft)
06.01.2017 21:09 -18,8 °C -18,8 °C 85 % 1040,7 hPa 0,0 mm 0,0 km/h (0 Bft) O-SO 105 ° 0 min 0,000 mm 0,0 UV-I 0 W/m² -20,7 °C 0,0 km/h (0 Bft)
06.01.2017 21:10 -18,9 °C -18,8 °C 85 % 1040,7 hPa 0,0 mm 0,0 km/h (0 Bft) O-SO 105 ° 0 min 0,000 mm 0,0 UV-I 0 W/m² -20,8 °C 0,0 km/h (0 Bft)
06.01.2017 21:11 -18,9 °C -18,9 °C 84 % 1040,7 hPa 0,0 mm 0,0 km/h (0 Bft) O-SO 105 ° 0 min 0,000 mm 0,0 UV-I 0 W/m² -20,9 °C 0,0 km/h (0 Bft)
06.01.2017 21:12 -18,9 °C -18,9 °C 84 % 1040,7 hPa 0,0 mm 0,0 km/h (0 Bft) O-SO 105 ° 0 min 0,000 mm 0,0 UV-I 0 W/m² -20,9 °C 0,0 km/h (0 Bft)
06.01.2017 21:13 -19,0 °C -18,9 °C 84 % 1040,7 hPa 0,0 mm 0,0 km/h (0 Bft) O-SO 105 ° 0 min 0,000 mm 0,0 UV-I 0 W/m² -21,0 °C 0,0 km/h (0 Bft)
06.01.2017 21:14 -19,0 °C -18,9 °C 84 % 1040,7 hPa 0,0 mm 0,0 km/h (0 Bft) O-SO 105 ° 0 min 0,000 mm 0,0 UV-I 0 W/m² -21,0 °C 0,0 km/h (0 Bft)
06.01.2017 21:15 -19,0 °C -18,9 °C 84 % 1040,8 hPa 0,0 mm 0,0 km/h (0 Bft) O-SO 105 ° 0 min 0,000 mm 0,0 UV-I 0 W/m² -21,0 °C 0,0 km/h (0 Bft)
06.01.2017 21:16 -19,0 °C -19,0 °C 84 % 1040,7 hPa 0,0 mm 0,0 km/h (0 Bft) O-SO 105 ° 0 min 0,000 mm 0,0 UV-I 0 W/m² -21,0 °C 0,0 km/h (0 Bft)
06.01.2017 21:17 -19,1 °C -19,0 °C 84 % 1040,8 hPa 0,0 mm 0,0 km/h (0 Bft) O-SO 105 ° 0 min 0,000 mm 0,0 UV-I 0 W/m² -21,1 °C 0,0 km/h (0 Bft)
06.01.2017 21:18 -19,1 °C -19,1 °C 84 % 1040,7 hPa 0,0 mm 0,0 km/h (0 Bft) O-SO 105 ° 0 min 0,000 mm 0,0 UV-I 0 W/m² -21,1 °C 0,0 km/h (0 Bft)
06.01.2017 21:19 -19,1 °C -19,1 °C 84 % 1040,7 hPa 0,0 mm 0,3 km/h (0 Bft) O-SO 105 ° 0 min 0,000 mm 0,0 UV-I 0 W/m² -21,1 °C 1,6 km/h (1 Bft)
06.01.2017 21:20 -19,1 °C -19,1 °C 84 % 1040,7 hPa 0,0 mm 0,0 km/h (0 Bft) O-SO 105 ° 0 min 0,000 mm 0,0 UV-I 0 W/m² -21,1 °C 0,0 km/h (0 Bft)
06.01.2017 21:21 -19,1 °C -19,1 °C 84 % 1040,7 hPa 0,0 mm 0,1 km/h (0 Bft) O-SO 105 ° 0 min 0,000 mm 0,0 UV-I 0 W/m² -21,1 °C 1,6 km/h (1 Bft)
06.01.2017 21:22 -19,2 °C -19,1 °C 84 % 1040,7 hPa 0,0 mm 0,0 km/h (0 Bft) O-SO 105 ° 0 min 0,000 mm 0,0 UV-I 0 W/m² -21,2 °C 0,0 km/h (0 Bft)
06.01.2017 21:23 -19,2 °C -19,2 °C 85 % 1040,7 hPa 0,0 mm 0,0 km/h (0 Bft) O-SO 105 ° 0 min 0,000 mm 0,0 UV-I 0 W/m² -21,1 °C 0,0 km/h (0 Bft)
06.01.2017 21:24 -19,2 °C -19,2 °C 85 % 1040,8 hPa 0,0 mm 0,0 km/h (0 Bft) O-SO 105 ° 0 min 0,000 mm 0,0 UV-I 0 W/m² -21,1 °C 0,0 km/h (0 Bft)
06.01.2017 21:25 -19,2 °C -19,2 °C 85 % 1040,8 hPa 0,0 mm 0,0 km/h (0 Bft) O-SO 105 ° 0 min 0,000 mm 0,0 UV-I 0 W/m² -21,1 °C 0,0 km/h (0 Bft)
06.01.2017 21:26 -19,2 °C -19,2 °C 85 % 1040,7 hPa 0,0 mm 0,0 km/h (0 Bft) O-SO 105 ° 0 min 0,000 mm 0,0 UV-I 0 W/m² -21,1 °C 0,0 km/h (0 Bft)
06.01.2017 21:27 -19,2 °C -19,2 °C 85 % 1040,7 hPa 0,0 mm 0,0 km/h (0 Bft) O-SO 105 ° 0 min 0,000 mm 0,0 UV-I 0 W/m² -21,1 °C 0,0 km/h (0 Bft)
06.01.2017 21:28 -19,2 °C -19,2 °C 85 % 1040,7 hPa 0,0 mm 0,0 km/h (0 Bft) O-SO 105 ° 0 min 0,000 mm 0,0 UV-I 0 W/m² -21,1 °C 0,0 km/h (0 Bft)
06.01.2017 21:29 -19,2 °C -19,2 °C 85 % 1040,7 hPa 0,0 mm 0,0 km/h (0 Bft) O-SO 105 ° 0 min 0,000 mm 0,0 UV-I 0 W/m² -21,1 °C 0,0 km/h (0 Bft)
06.01.2017 21:30 -19,2 °C -19,2 °C 85 % 1040,7 hPa 0,0 mm 0,0 km/h (0 Bft) O-SO 105 ° 0 min 0,000 mm 0,0 UV-I 0 W/m² -21,1 °C 0,0 km/h (0 Bft)
06.01.2017 21:31 -19,2 °C -19,2 °C 85 % 1040,6 hPa 0,0 mm 0,0 km/h (0 Bft) O-SO 105 ° 0 min 0,000 mm 0,0 UV-I 0 W/m² -21,1 °C 0,0 km/h (0 Bft)
06.01.2017 21:32 -19,2 °C -19,2 °C 85 % 1040,6 hPa 0,0 mm 0,0 km/h (0 Bft) O-SO 105 ° 0 min 0,000 mm 0,0 UV-I 0 W/m² -21,1 °C 0,0 km/h (0 Bft)
06.01.2017 21:33 -19,2 °C -19,2 °C 85 % 1040,6 hPa 0,0 mm 0,0 km/h (0 Bft) O-SO 105 ° 0 min 0,000 mm 0,0 UV-I 0 W/m² -21,1 °C 0,0 km/h (0 Bft)
06.01.2017 21:34 -19,2 °C -19,2 °C 85 % 1040,5 hPa 0,0 mm 0,0 km/h (0 Bft) O-SO 105 ° 0 min 0,000 mm 0,0 UV-I 0 W/m² -21,1 °C 0,0 km/h (0 Bft)
06.01.2017 21:35 -19,2 °C -19,2 °C 85 % 1040,5 hPa 0,0 mm 0,0 km/h (0 Bft) O-SO 105 ° 0 min 0,000 mm 0,0 UV-I 0 W/m² -21,1 °C 0,0 km/h (0 Bft)
06.01.2017 21:36 -19,3 °C -19,2 °C 85 % 1040,5 hPa 0,0 mm 0,0 km/h (0 Bft) O-SO 105 ° 0 min 0,000 mm 0,0 UV-I 0 W/m² -21,2 °C 0,0 km/h (0 Bft)
06.01.2017 21:37 -19,3 °C -19,3 °C 85 % 1040,5 hPa 0,0 mm 0,0 km/h (0 Bft) O-SO 105 ° 0 min 0,000 mm 0,0 UV-I 0 W/m² -21,2 °C 0,0 km/h (0 Bft)
06.01.2017 21:38 -19,3 °C -19,3 °C 85 % 1040,5 hPa 0,0 mm 0,0 km/h (0 Bft) O-SO 105 ° 0 min 0,000 mm 0,0 UV-I 0 W/m² -21,2 °C 0,0 km/h (0 Bft)
06.01.2017 21:39 -19,3 °C -19,3 °C 85 % 1040,4 hPa 0,0 mm 0,0 km/h (0 Bft) O-SO 105 ° 0 min 0,000 mm 0,0 UV-I 0 W/m² -21,2 °C 0,0 km/h (0 Bft)
06.01.2017 21:40 -19,3 °C -19,3 °C 85 % 1040,4 hPa 0,0 mm 0,0 km/h (0 Bft) O-SO 105 ° 0 min 0,000 mm 0,0 UV-I 0 W/m² -21,2 °C 0,0 km/h (0 Bft)
06.01.2017 21:41 -19,3 °C -19,3 °C 85 % 1040,4 hPa 0,0 mm 0,0 km/h (0 Bft) O-SO 105 ° 0 min 0,000 mm 0,0 UV-I 0 W/m² -21,2 °C 0,0 km/h (0 Bft)
06.01.2017 21:42 -19,3 °C -19,3 °C 85 % 1040,4 hPa 0,0 mm 0,0 km/h (0 Bft) O-SO 105 ° 0 min 0,000 mm 0,0 UV-I 0 W/m² -21,2 °C 0,0 km/h (0 Bft)
06.01.2017 21:43 -19,3 °C -19,3 °C 85 % 1040,4 hPa 0,0 mm 0,0 km/h (0 Bft) O-SO 105 ° 0 min 0,000 mm 0,0 UV-I 0 W/m² -21,2 °C 0,0 km/h (0 Bft)
06.01.2017 21:44 -19,3 °C -19,3 °C 85 % 1040,4 hPa 0,0 mm 0,0 km/h (0 Bft) O-SO 105 ° 0 min 0,000 mm 0,0 UV-I 0 W/m² -21,2 °C 0,0 km/h (0 Bft)
06.01.2017 21:45 -19,3 °C -19,3 °C 85 % 1040,4 hPa 0,0 mm 0,1 km/h (0 Bft) O-SO 105 ° 0 min 0,000 mm 0,0 UV-I 0 W/m² -21,2 °C 1,6 km/h (1 Bft)
06.01.2017 21:46 -19,3 °C -19,3 °C 85 % 1040,4 hPa 0,0 mm 0,1 km/h (0 Bft) O-SO 105 ° 0 min 0,000 mm 0,0 UV-I 0 W/m² -21,2 °C 1,6 km/h (1 Bft)
06.01.2017 21:47 -19,3 °C -19,3 °C 85 % 1040,5 hPa 0,0 mm 0,3 km/h (0 Bft) O-SO 105 ° 0 min 0,000 mm 0,0 UV-I 0 W/m² -21,2 °C 1,6 km/h (1 Bft)
06.01.2017 21:48 -19,3 °C -19,3 °C 85 % 1040,5 hPa 0,0 mm 0,2 km/h (0 Bft) O-SO 105 ° 0 min 0,000 mm 0,0 UV-I 0 W/m² -21,2 °C 1,6 km/h (1 Bft)
06.01.2017 21:49 -19,4 °C -19,3 °C 85 % 1040,5 hPa 0,0 mm 0,0 km/h (0 Bft) O-SO 105 ° 0 min 0,000 mm 0,0 UV-I 0 W/m² -21,3 °C 0,0 km/h (0 Bft)
06.01.2017 21:50 -19,3 °C -19,3 °C 85 % 1040,5 hPa 0,0 mm 0,1 km/h (0 Bft) O-SO 105 ° 0 min 0,000 mm 0,0 UV-I 0 W/m² -21,2 °C 1,6 km/h (1 Bft)
06.01.2017 21:51 -19,4 °C -19,3 °C 85 % 1040,5 hPa 0,0 mm 0,0 km/h (0 Bft) O-SO 105 ° 0 min 0,000 mm 0,0 UV-I 0 W/m² -21,3 °C 0,0 km/h (0 Bft)
06.01.2017 21:52 -19,4 °C -19,4 °C 85 % 1040,5 hPa 0,0 mm 0,0 km/h (0 Bft) O-SO 105 ° 0 min 0,000 mm 0,0 UV-I 0 W/m² -21,3 °C 0,0 km/h (0 Bft)
06.01.2017 21:53 -19,4 °C -19,4 °C 85 % 1040,5 hPa 0,0 mm 0,0 km/h (0 Bft) O-SO 105 ° 0 min 0,000 mm 0,0 UV-I 0 W/m² -21,3 °C 0,0 km/h (0 Bft)
06.01.2017 21:54 -19,4 °C -19,4 °C 85 % 1040,6 hPa 0,0 mm 0,0 km/h (0 Bft) O-SO 105 ° 0 min 0,000 mm 0,0 UV-I 0 W/m² -21,3 °C 0,0 km/h (0 Bft)
06.01.2017 21:55 -19,4 °C -19,4 °C 85 % 1040,5 hPa 0,0 mm 0,1 km/h (0 Bft) O-SO 105 ° 0 min 0,000 mm 0,0 UV-I 0 W/m² -21,3 °C 1,6 km/h (1 Bft)
06.01.2017 21:56 -19,4 °C -19,4 °C 85 % 1040,5 hPa 0,0 mm 0,5 km/h (0 Bft) O-SO 105 ° 0 min 0,000 mm 0,0 UV-I 0 W/m² -21,3 °C 1,6 km/h (1 Bft)
06.01.2017 21:57 -19,4 °C -19,4 °C 85 % 1040,5 hPa 0,0 mm 0,0 km/h (0 Bft) O-SO 105 ° 0 min 0,000 mm 0,0 UV-I 0 W/m² -21,3 °C 0,0 km/h (0 Bft)
06.01.2017 21:58 -19,5 °C -19,4 °C 85 % 1040,5 hPa 0,0 mm 0,2 km/h (0 Bft) O-SO 105 ° 0 min 0,000 mm 0,0 UV-I 0 W/m² -21,4 °C 1,6 km/h (1 Bft)
06.01.2017 21:59 -19,6 °C -19,5 °C 85 % 1040,5 hPa 0,0 mm 0,2 km/h (0 Bft) O-SO 105 ° 0 min 0,000 mm 0,0 UV-I 0 W/m² -21,5 °C 1,6 km/h (1 Bft)
06.01.2017 22:00 -19,5 °C -19,5 °C 84 % 1040,5 hPa 0,0 mm 0,1 km/h (0 Bft) O-SO 105 ° 0 min 0,000 mm 0,0 UV-I 0 W/m² -21,5 °C 1,6 km/h (1 Bft)
06.01.2017 22:01 -19,6 °C -19,5 °C 85 % 1040,5 hPa 0,0 mm 0,0 km/h (0 Bft) O-SO 105 ° 0 min 0,000 mm 0,0 UV-I 0 W/m² -21,5 °C 0,0 km/h (0 Bft)
06.01.2017 22:02 -19,6 °C -19,6 °C 84 % 1040,5 hPa 0,0 mm 0,0 km/h (0 Bft) O-SO 105 ° 0 min 0,000 mm 0,0 UV-I 0 W/m² -21,6 °C 0,0 km/h (0 Bft)
06.01.2017 22:03 -19,6 °C -19,6 °C 84 % 1040,5 hPa 0,0 mm 0,0 km/h (0 Bft) O-SO 105 ° 0 min 0,000 mm 0,0 UV-I 0 W/m² -21,6 °C 0,0 km/h (0 Bft)
06.01.2017 22:04 -19,6 °C -19,6 °C 84 % 1040,5 hPa 0,0 mm 0,0 km/h (0 Bft) O-SO 105 ° 0 min 0,000 mm 0,0 UV-I 0 W/m² -21,6 °C 0,0 km/h (0 Bft)
06.01.2017 22:05 -19,6 °C -19,6 °C 84 % 1040,5 hPa 0,0 mm 0,0 km/h (0 Bft) O-SO 105 ° 0 min 0,000 mm 0,0 UV-I 0 W/m² -21,6 °C 0,0 km/h (0 Bft)
06.01.2017 22:06 -19,6 °C -19,6 °C 84 % 1040,5 hPa 0,0 mm 0,0 km/h (0 Bft) O-SO 105 ° 0 min 0,000 mm 0,0 UV-I 0 W/m² -21,6 °C 0,0 km/h (0 Bft)
06.01.2017 22:07 -19,7 °C -19,6 °C 84 % 1040,5 hPa 0,0 mm 0,1 km/h (0 Bft) O-SO 105 ° 0 min 0,000 mm 0,0 UV-I 0 W/m² -21,7 °C 1,6 km/h (1 Bft)
06.01.2017 22:08 -19,7 °C -19,6 °C 84 % 1040,5 hPa 0,0 mm 0,0 km/h (0 Bft) O-SO 105 ° 0 min 0,000 mm 0,0 UV-I 0 W/m² -21,7 °C 0,0 km/h (0 Bft)
06.01.2017 22:09 -19,7 °C -19,7 °C 84 % 1040,5 hPa 0,0 mm 0,0 km/h (0 Bft) O-SO 105 ° 0 min 0,000 mm 0,0 UV-I 0 W/m² -21,7 °C 0,0 km/h (0 Bft)
06.01.2017 22:10 -19,7 °C -19,7 °C 84 % 1040,6 hPa 0,0 mm 0,0 km/h (0 Bft) O-SO 105 ° 0 min 0,000 mm 0,0 UV-I 0 W/m² -21,7 °C 0,0 km/h (0 Bft)
06.01.2017 22:11 -19,7 °C -19,7 °C 84 % 1040,6 hPa 0,0 mm 0,0 km/h (0 Bft) O-SO 105 ° 0 min 0,000 mm 0,0 UV-I 0 W/m² -21,7 °C 0,0 km/h (0 Bft)
06.01.2017 22:12 -19,7 °C -19,7 °C 85 % 1040,5 hPa 0,0 mm 0,0 km/h (0 Bft) O-SO 105 ° 0 min 0,000 mm 0,0 UV-I 0 W/m² -21,6 °C 0,0 km/h (0 Bft)
06.01.2017 22:13 -19,7 °C -19,7 °C 84 % 1040,6 hPa 0,0 mm 0,0 km/h (0 Bft) O-SO 105 ° 0 min 0,000 mm 0,0 UV-I 0 W/m² -21,7 °C 0,0 km/h (0 Bft)
06.01.2017 22:14 -19,7 °C -19,7 °C 85 % 1040,6 hPa 0,0 mm 0,0 km/h (0 Bft) O-SO 105 ° 0 min 0,000 mm 0,0 UV-I 0 W/m² -21,6 °C 0,0 km/h (0 Bft)
06.01.2017 22:15 -19,7 °C -19,7 °C 85 % 1040,6 hPa 0,0 mm 0,1 km/h (0 Bft) O-SO 105 ° 0 min 0,000 mm 0,0 UV-I 0 W/m² -21,6 °C 1,6 km/h (1 Bft)
06.01.2017 22:16 -19,7 °C -19,7 °C 84 % 1040,5 hPa 0,0 mm 0,1 km/h (0 Bft) O-SO 105 ° 0 min 0,000 mm 0,0 UV-I 0 W/m² -21,7 °C 1,6 km/h (1 Bft)
06.01.2017 22:17 -19,7 °C -19,7 °C 84 % 1040,6 hPa 0,0 mm 0,0 km/h (0 Bft) O-SO 105 ° 0 min 0,000 mm 0,0 UV-I 0 W/m² -21,7 °C 0,0 km/h (0 Bft)
06.01.2017 22:18 -19,7 °C -19,7 °C 84 % 1040,6 hPa 0,0 mm 0,0 km/h (0 Bft) O-SO 105 ° 0 min 0,000 mm 0,0 UV-I 0 W/m² -21,7 °C 0,0 km/h (0 Bft)
06.01.2017 22:19 -19,7 °C -19,7 °C 84 % 1040,6 hPa 0,0 mm 0,0 km/h (0 Bft) O-SO 105 ° 0 min 0,000 mm 0,0 UV-I 0 W/m² -21,7 °C 0,0 km/h (0 Bft)
06.01.2017 22:20 -19,8 °C -19,7 °C 84 % 1040,6 hPa 0,0 mm 0,0 km/h (0 Bft) O-SO 105 ° 0 min 0,000 mm 0,0 UV-I 0 W/m² -21,8 °C 0,0 km/h (0 Bft)
06.01.2017 22:21 -19,8 °C -19,8 °C 84 % 1040,6 hPa 0,0 mm 0,1 km/h (0 Bft) O-SO 105 ° 0 min 0,000 mm 0,0 UV-I 0 W/m² -21,8 °C 1,6 km/h (1 Bft)
06.01.2017 22:22 -19,8 °C -19,8 °C 84 % 1040,5 hPa 0,0 mm 0,2 km/h (0 Bft) O-SO 105 ° 0 min 0,000 mm 0,0 UV-I 0 W/m² -21,8 °C 1,6 km/h (1 Bft)
06.01.2017 22:23 -19,8 °C -19,8 °C 84 % 1040,6 hPa 0,0 mm 0,0 km/h (0 Bft) O-SO 105 ° 0 min 0,000 mm 0,0 UV-I 0 W/m² -21,8 °C 0,0 km/h (0 Bft)
06.01.2017 22:24 -19,8 °C -19,8 °C 84 % 1040,6 hPa 0,0 mm 0,0 km/h (0 Bft) O-SO 105 ° 0 min 0,000 mm 0,0 UV-I 0 W/m² -21,8 °C 0,0 km/h (0 Bft)
06.01.2017 22:25 -19,9 °C -19,8 °C 84 % 1040,6 hPa 0,0 mm 0,0 km/h (0 Bft) O-SO 105 ° 0 min 0,000 mm 0,0 UV-I 0 W/m² -21,9 °C 0,0 km/h (0 Bft)
06.01.2017 22:26 -19,9 °C -19,9 °C 84 % 1040,5 hPa 0,0 mm 0,0 km/h (0 Bft) O-SO 105 ° 0 min 0,000 mm 0,0 UV-I 0 W/m² -21,9 °C 0,0 km/h (0 Bft)
06.01.2017 22:27 -19,9 °C -19,9 °C 84 % 1040,5 hPa 0,0 mm 0,0 km/h (0 Bft) O-SO 105 ° 0 min 0,000 mm 0,0 UV-I 0 W/m² -21,9 °C 0,0 km/h (0 Bft)
06.01.2017 22:28 -19,9 °C -19,9 °C 84 % 1040,6 hPa 0,0 mm 0,0 km/h (0 Bft) O-SO 105 ° 0 min 0,000 mm 0,0 UV-I 0 W/m² -21,9 °C 0,0 km/h (0 Bft)
06.01.2017 22:29 -19,9 °C -19,9 °C 84 % 1040,5 hPa 0,0 mm 0,0 km/h (0 Bft) O-SO 105 ° 0 min 0,000 mm 0,0 UV-I 0 W/m² -21,9 °C 0,0 km/h (0 Bft)
06.01.2017 22:30 -19,9 °C -19,9 °C 84 % 1040,6 hPa 0,0 mm 0,0 km/h (0 Bft) O-SO 105 ° 0 min 0,000 mm 0,0 UV-I 0 W/m² -21,9 °C 0,0 km/h (0 Bft)
06.01.2017 22:31 -19,9 °C -19,9 °C 84 % 1040,6 hPa 0,0 mm 0,0 km/h (0 Bft) O-SO 105 ° 0 min 0,000 mm 0,0 UV-I 0 W/m² -21,9 °C 0,0 km/h (0 Bft)
06.01.2017 22:32 -19,9 °C -19,9 °C 84 % 1040,6 hPa 0,0 mm 0,0 km/h (0 Bft) O-SO 105 ° 0 min 0,000 mm 0,0 UV-I 0 W/m² -21,9 °C 0,0 km/h (0 Bft)
06.01.2017 22:33 -20,0 °C -19,9 °C 84 % 1040,6 hPa 0,0 mm 0,0 km/h (0 Bft) O-SO 105 ° 0 min 0,000 mm 0,0 UV-I 0 W/m² -22,0 °C 0,0 km/h (0 Bft)
06.01.2017 22:34 -19,9 °C -19,9 °C 84 % 1040,6 hPa 0,0 mm 0,1 km/h (0 Bft) O-SO 105 ° 0 min 0,000 mm 0,0 UV-I 0 W/m² -21,9 °C 1,6 km/h (1 Bft)
06.01.2017 22:35 -20,0 °C -19,9 °C 84 % 1040,7 hPa 0,0 mm 0,2 km/h (0 Bft) O-SO 105 ° 0 min 0,000 mm 0,0 UV-I 0 W/m² -22,0 °C 1,6 km/h (1 Bft)
06.01.2017 22:36 -20,1 °C -20,0 °C 84 % 1040,6 hPa 0,0 mm 0,5 km/h (0 Bft) O-SO 105 ° 0 min 0,000 mm 0,0 UV-I 0 W/m² -22,1 °C 1,6 km/h (1 Bft)
06.01.2017 22:37 -20,1 °C -20,1 °C 84 % 1040,6 hPa 0,0 mm 0,3 km/h (0 Bft) O-SO 105 ° 0 min 0,000 mm 0,0 UV-I 0 W/m² -22,1 °C 1,6 km/h (1 Bft)
06.01.2017 22:38 -20,1 °C -20,1 °C 84 % 1040,6 hPa 0,0 mm 0,0 km/h (0 Bft) O-SO 105 ° 0 min 0,000 mm 0,0 UV-I 0 W/m² -22,1 °C 0,0 km/h (0 Bft)
06.01.2017 22:39 -20,1 °C -20,1 °C 83 % 1040,6 hPa 0,0 mm 0,1 km/h (0 Bft) O-SO 105 ° 0 min 0,000 mm 0,0 UV-I 0 W/m² -22,2 °C 1,6 km/h (1 Bft)
06.01.2017 22:40 -20,1 °C -20,1 °C 83 % 1040,6 hPa 0,0 mm 0,2 km/h (0 Bft) O-SO 105 ° 0 min 0,000 mm 0,0 UV-I 0 W/m² -22,2 °C 1,6 km/h (1 Bft)
06.01.2017 22:41 -20,2 °C -20,1 °C 83 % 1040,6 hPa 0,0 mm 0,1 km/h (0 Bft) O-SO 105 ° 0 min 0,000 mm 0,0 UV-I 0 W/m² -22,3 °C 1,6 km/h (1 Bft)
06.01.2017 22:42 -20,2 °C -20,2 °C 84 % 1040,7 hPa 0,0 mm 0,0 km/h (0 Bft) O-SO 105 ° 0 min 0,000 mm 0,0 UV-I 0 W/m² -22,2 °C 0,0 km/h (0 Bft)
06.01.2017 22:43 -20,2 °C -20,2 °C 84 % 1040,6 hPa 0,0 mm 0,0 km/h (0 Bft) O-SO 105 ° 0 min 0,000 mm 0,0 UV-I 0 W/m² -22,2 °C 0,0 km/h (0 Bft)
06.01.2017 22:44 -20,2 °C -20,2 °C 83 % 1040,7 hPa 0,0 mm 0,0 km/h (0 Bft) O-SO 105 ° 0 min 0,000 mm 0,0 UV-I 0 W/m² -22,3 °C 0,0 km/h (0 Bft)
06.01.2017 22:45 -20,2 °C -20,2 °C 83 % 1040,7 hPa 0,0 mm 0,0 km/h (0 Bft) O-SO 105 ° 0 min 0,000 mm 0,0 UV-I 0 W/m² -22,3 °C 0,0 km/h (0 Bft)
06.01.2017 22:46 -20,2 °C -20,2 °C 83 % 1040,7 hPa 0,0 mm 0,0 km/h (0 Bft) O-SO 105 ° 0 min 0,000 mm 0,0 UV-I 0 W/m² -22,3 °C 0,0 km/h (0 Bft)
06.01.2017 22:47 -20,3 °C -20,2 °C 83 % 1040,6 hPa 0,0 mm 0,1 km/h (0 Bft) O-SO 105 ° 0 min 0,000 mm 0,0 UV-I 0 W/m² -22,4 °C 1,6 km/h (1 Bft)
06.01.2017 22:48 -20,3 °C -20,3 °C 83 % 1040,7 hPa 0,0 mm 0,0 km/h (0 Bft) O-SO 105 ° 0 min 0,000 mm 0,0 UV-I 0 W/m² -22,4 °C 0,0 km/h (0 Bft)
06.01.2017 22:49 -20,3 °C -20,3 °C 83 % 1040,7 hPa 0,0 mm 0,0 km/h (0 Bft) O-SO 105 ° 0 min 0,000 mm 0,0 UV-I 0 W/m² -22,4 °C 0,0 km/h (0 Bft)
06.01.2017 22:50 -20,3 °C -20,3 °C 83 % 1040,7 hPa 0,0 mm 0,0 km/h (0 Bft) O-SO 105 ° 0 min 0,000 mm 0,0 UV-I 0 W/m² -22,4 °C 0,0 km/h (0 Bft)
06.01.2017 22:51 -20,3 °C -20,3 °C 83 % 1040,7 hPa 0,0 mm 0,0 km/h (0 Bft) O-SO 105 ° 0 min 0,000 mm 0,0 UV-I 0 W/m² -22,4 °C 0,0 km/h (0 Bft)
06.01.2017 22:52 -20,4 °C -20,3 °C 83 % 1040,7 hPa 0,0 mm 0,0 km/h (0 Bft) O-SO 105 ° 0 min 0,000 mm 0,0 UV-I 0 W/m² -22,5 °C 0,0 km/h (0 Bft)
06.01.2017 22:53 -20,4 °C -20,4 °C 83 % 1040,7 hPa 0,0 mm 0,0 km/h (0 Bft) O-SO 105 ° 0 min 0,000 mm 0,0 UV-I 0 W/m² -22,5 °C 0,0 km/h (0 Bft)
06.01.2017 22:54 -20,4 °C -20,4 °C 83 % 1040,7 hPa 0,0 mm 0,0 km/h (0 Bft) O-SO 105 ° 0 min 0,000 mm 0,0 UV-I 0 W/m² -22,5 °C 0,0 km/h (0 Bft)
06.01.2017 22:55 -20,4 °C -20,4 °C 83 % 1040,7 hPa 0,0 mm 0,0 km/h (0 Bft) O-SO 105 ° 0 min 0,000 mm 0,0 UV-I 0 W/m² -22,5 °C 0,0 km/h (0 Bft)
06.01.2017 22:56 -20,4 °C -20,4 °C 83 % 1040,7 hPa 0,0 mm 0,0 km/h (0 Bft) O-SO 105 ° 0 min 0,000 mm 0,0 UV-I 0 W/m² -22,5 °C 0,0 km/h (0 Bft)
06.01.2017 22:57 -20,5 °C -20,4 °C 83 % 1040,7 hPa 0,0 mm 0,0 km/h (0 Bft) O-SO 105 ° 0 min 0,000 mm 0,0 UV-I 0 W/m² -22,6 °C 0,0 km/h (0 Bft)
06.01.2017 22:58 -20,5 °C -20,4 °C 83 % 1040,8 hPa 0,0 mm 0,0 km/h (0 Bft) O-SO 105 ° 0 min 0,000 mm 0,0 UV-I 0 W/m² -22,6 °C 0,0 km/h (0 Bft)
06.01.2017 22:59 -20,5 °C -20,5 °C 83 % 1040,7 hPa 0,0 mm 0,0 km/h (0 Bft) O-SO 105 ° 0 min 0,000 mm 0,0 UV-I 0 W/m² -22,6 °C 0,0 km/h (0 Bft)
06.01.2017 23:00 -20,5 °C -20,5 °C 83 % 1040,7 hPa 0,0 mm 0,1 km/h (0 Bft) O-SO 105 ° 0 min 0,000 mm 0,0 UV-I 0 W/m² -22,6 °C 1,6 km/h (1 Bft)
06.01.2017 23:01 -20,5 °C -20,5 °C 83 % 1040,7 hPa 0,0 mm 0,0 km/h (0 Bft) O-SO 105 ° 0 min 0,000 mm 0,0 UV-I 0 W/m² -22,6 °C 0,0 km/h (0 Bft)
06.01.2017 23:02 -20,5 °C -20,5 °C 83 % 1040,8 hPa 0,0 mm 0,0 km/h (0 Bft) O-SO 105 ° 0 min 0,000 mm 0,0 UV-I 0 W/m² -22,6 °C 0,0 km/h (0 Bft)
06.01.2017 23:03 -20,6 °C -20,5 °C 83 % 1040,8 hPa 0,0 mm 0,0 km/h (0 Bft) O-SO 105 ° 0 min 0,000 mm 0,0 UV-I 0 W/m² -22,7 °C 0,0 km/h (0 Bft)
06.01.2017 23:04 -20,6 °C -20,6 °C 83 % 1040,8 hPa 0,0 mm 0,0 km/h (0 Bft) O-SO 105 ° 0 min 0,000 mm 0,0 UV-I 0 W/m² -22,7 °C 0,0 km/h (0 Bft)
06.01.2017 23:05 -20,6 °C -20,6 °C 83 % 1040,8 hPa 0,0 mm 0,0 km/h (0 Bft) O-SO 105 ° 0 min 0,000 mm 0,0 UV-I 0 W/m² -22,7 °C 0,0 km/h (0 Bft)
06.01.2017 23:06 -20,6 °C -20,6 °C 83 % 1040,8 hPa 0,0 mm 0,0 km/h (0 Bft) O-SO 105 ° 0 min 0,000 mm 0,0 UV-I 0 W/m² -22,7 °C 0,0 km/h (0 Bft)
06.01.2017 23:07 -20,6 °C -20,6 °C 83 % 1040,8 hPa 0,0 mm 0,0 km/h (0 Bft) O-SO 105 ° 0 min 0,000 mm 0,0 UV-I 0 W/m² -22,7 °C 0,0 km/h (0 Bft)
06.01.2017 23:08 -20,6 °C -20,6 °C 83 % 1040,9 hPa 0,0 mm 0,1 km/h (0 Bft) O-SO 105 ° 0 min 0,000 mm 0,0 UV-I 0 W/m² -22,7 °C 1,6 km/h (1 Bft)
06.01.2017 23:09 -20,6 °C -20,6 °C 83 % 1040,9 hPa 0,0 mm 0,0 km/h (0 Bft) O-SO 105 ° 0 min 0,000 mm 0,0 UV-I 0 W/m² -22,7 °C 0,0 km/h (0 Bft)
06.01.2017 23:10 -20,6 °C -20,6 °C 83 % 1040,9 hPa 0,0 mm 0,0 km/h (0 Bft) O-SO 105 ° 0 min 0,000 mm 0,0 UV-I 0 W/m² -22,7 °C 0,0 km/h (0 Bft)
06.01.2017 23:11 -20,6 °C -20,6 °C 83 % 1040,9 hPa 0,0 mm 0,3 km/h (0 Bft) O-SO 105 ° 0 min 0,000 mm 0,0 UV-I 0 W/m² -22,7 °C 1,6 km/h (1 Bft)
06.01.2017 23:12 -20,7 °C -20,6 °C 83 % 1040,9 hPa 0,0 mm 0,1 km/h (0 Bft) O-SO 105 ° 0 min 0,000 mm 0,0 UV-I 0 W/m² -22,8 °C 1,6 km/h (1 Bft)
06.01.2017 23:13 -20,7 °C -20,7 °C 83 % 1040,9 hPa 0,0 mm 0,1 km/h (0 Bft) O-SO 105 ° 0 min 0,000 mm 0,0 UV-I 0 W/m² -22,8 °C 1,6 km/h (1 Bft)
06.01.2017 23:14 -20,7 °C -20,7 °C 83 % 1040,9 hPa 0,0 mm 0,0 km/h (0 Bft) O-SO 105 ° 0 min 0,000 mm 0,0 UV-I 0 W/m² -22,8 °C 0,0 km/h (0 Bft)
06.01.2017 23:15 -20,7 °C -20,7 °C 83 % 1040,9 hPa 0,0 mm 0,0 km/h (0 Bft) O-SO 105 ° 0 min 0,000 mm 0,0 UV-I 0 W/m² -22,8 °C 0,0 km/h (0 Bft)
06.01.2017 23:16 -20,7 °C -20,7 °C 83 % 1040,9 hPa 0,0 mm 0,1 km/h (0 Bft) O-SO 105 ° 0 min 0,000 mm 0,0 UV-I 0 W/m² -22,8 °C 1,6 km/h (1 Bft)
06.01.2017 23:17 -20,7 °C -20,7 °C 83 % 1041,0 hPa 0,0 mm 0,4 km/h (0 Bft) O-SO 105 ° 0 min 0,000 mm 0,0 UV-I 0 W/m² -22,8 °C 1,6 km/h (1 Bft)
06.01.2017 23:18 -20,7 °C -20,7 °C 83 % 1040,9 hPa 0,0 mm 0,1 km/h (0 Bft) O-SO 105 ° 0 min 0,000 mm 0,0 UV-I 0 W/m² -22,8 °C 1,6 km/h (1 Bft)
06.01.2017 23:19 -20,7 °C -20,7 °C 84 % 1040,9 hPa 0,0 mm 0,0 km/h (0 Bft) O-SO 105 ° 0 min 0,000 mm 0,0 UV-I 0 W/m² -22,7 °C 0,0 km/h (0 Bft)
06.01.2017 23:20 -20,8 °C -20,7 °C 84 % 1040,9 hPa 0,0 mm 0,0 km/h (0 Bft) O-SO 105 ° 0 min 0,000 mm 0,0 UV-I 0 W/m² -22,8 °C 0,0 km/h (0 Bft)
06.01.2017 23:21 -20,8 °C -20,8 °C 84 % 1040,9 hPa 0,0 mm 0,2 km/h (0 Bft) O-SO 105 ° 0 min 0,000 mm 0,0 UV-I 0 W/m² -22,8 °C 1,6 km/h (1 Bft)
06.01.2017 23:22 -20,8 °C -20,8 °C 84 % 1040,9 hPa 0,0 mm 0,0 km/h (0 Bft) O-SO 105 ° 0 min 0,000 mm 0,0 UV-I 0 W/m² -22,8 °C 0,0 km/h (0 Bft)
06.01.2017 23:23 -20,8 °C -20,8 °C 84 % 1040,9 hPa 0,0 mm 0,0 km/h (0 Bft) O-SO 105 ° 0 min 0,000 mm 0,0 UV-I 0 W/m² -22,8 °C 0,0 km/h (0 Bft)
06.01.2017 23:24 -20,8 °C -20,8 °C 84 % 1040,9 hPa 0,0 mm 0,0 km/h (0 Bft) O-SO 105 ° 0 min 0,000 mm 0,0 UV-I 0 W/m² -22,8 °C 0,0 km/h (0 Bft)
06.01.2017 23:25 -20,8 °C -20,8 °C 84 % 1041,0 hPa 0,0 mm 0,0 km/h (0 Bft) O-SO 105 ° 0 min 0,000 mm 0,0 UV-I 0 W/m² -22,8 °C 0,0 km/h (0 Bft)
06.01.2017 23:26 -20,8 °C -20,8 °C 84 % 1041,0 hPa 0,0 mm 0,0 km/h (0 Bft) O-SO 105 ° 0 min 0,000 mm 0,0 UV-I 0 W/m² -22,8 °C 0,0 km/h (0 Bft)
06.01.2017 23:27 -20,8 °C -20,8 °C 84 % 1041,0 hPa 0,0 mm 0,0 km/h (0 Bft) O-SO 105 ° 0 min 0,000 mm 0,0 UV-I 0 W/m² -22,8 °C 0,0 km/h (0 Bft)
06.01.2017 23:28 -20,8 °C -20,8 °C 84 % 1041,0 hPa 0,0 mm 0,0 km/h (0 Bft) O-SO 105 ° 0 min 0,000 mm 0,0 UV-I 0 W/m² -22,8 °C 0,0 km/h (0 Bft)
06.01.2017 23:29 -20,8 °C -20,8 °C 84 % 1041,0 hPa 0,0 mm 0,3 km/h (0 Bft) O-SO 105 ° 0 min 0,000 mm 0,0 UV-I 0 W/m² -22,8 °C 1,6 km/h (1 Bft)
06.01.2017 23:30 -20,8 °C -20,8 °C 84 % 1041,0 hPa 0,0 mm 0,2 km/h (0 Bft) O-SO 105 ° 0 min 0,000 mm 0,0 UV-I 0 W/m² -22,8 °C 1,6 km/h (1 Bft)
06.01.2017 23:31 -20,8 °C -20,8 °C 84 % 1041,0 hPa 0,0 mm 0,0 km/h (0 Bft) O-SO 105 ° 0 min 0,000 mm 0,0 UV-I 0 W/m² -22,8 °C 0,0 km/h (0 Bft)
06.01.2017 23:32 -20,8 °C -20,8 °C 84 % 1041,0 hPa 0,0 mm 0,0 km/h (0 Bft) O-SO 105 ° 0 min 0,000 mm 0,0 UV-I 0 W/m² -22,8 °C 0,0 km/h (0 Bft)
06.01.2017 23:33 -20,8 °C -20,8 °C 84 % 1041,0 hPa 0,0 mm 0,0 km/h (0 Bft) O-SO 105 ° 0 min 0,000 mm 0,0 UV-I 0 W/m² -22,8 °C 0,0 km/h (0 Bft)
06.01.2017 23:34 -20,8 °C -20,8 °C 84 % 1041,1 hPa 0,0 mm 0,0 km/h (0 Bft) O-SO 105 ° 0 min 0,000 mm 0,0 UV-I 0 W/m² -22,8 °C 0,0 km/h (0 Bft)
06.01.2017 23:35 -20,8 °C -20,8 °C 84 % 1041,1 hPa 0,0 mm 0,0 km/h (0 Bft) O-SO 105 ° 0 min 0,000 mm 0,0 UV-I 0 W/m² -22,8 °C 0,0 km/h (0 Bft)
06.01.2017 23:36 -20,8 °C -20,8 °C 84 % 1041,0 hPa 0,0 mm 0,0 km/h (0 Bft) O-SO 105 ° 0 min 0,000 mm 0,0 UV-I 0 W/m² -22,8 °C 0,0 km/h (0 Bft)
06.01.2017 23:37 -20,8 °C -20,8 °C 84 % 1041,1 hPa 0,0 mm 0,0 km/h (0 Bft) O-SO 105 ° 0 min 0,000 mm 0,0 UV-I 0 W/m² -22,8 °C 0,0 km/h (0 Bft)
06.01.2017 23:38 -20,8 °C -20,8 °C 84 % 1041,0 hPa 0,0 mm 0,0 km/h (0 Bft) O-SO 105 ° 0 min 0,000 mm 0,0 UV-I 0 W/m² -22,8 °C 0,0 km/h (0 Bft)
06.01.2017 23:39 -20,9 °C -20,8 °C 84 % 1041,0 hPa 0,0 mm 0,0 km/h (0 Bft) O-SO 105 ° 0 min 0,000 mm 0,0 UV-I 0 W/m² -22,9 °C 0,0 km/h (0 Bft)
06.01.2017 23:40 -20,9 °C -20,8 °C 84 % 1041,0 hPa 0,0 mm 0,0 km/h (0 Bft) O-SO 105 ° 0 min 0,000 mm 0,0 UV-I 0 W/m² -22,9 °C 0,0 km/h (0 Bft)
06.01.2017 23:41 -20,9 °C -20,8 °C 84 % 1041,0 hPa 0,0 mm 0,0 km/h (0 Bft) O-SO 105 ° 0 min 0,000 mm 0,0 UV-I 0 W/m² -22,9 °C 0,0 km/h (0 Bft)
06.01.2017 23:42 -20,9 °C -20,9 °C 84 % 1041,0 hPa 0,0 mm 0,0 km/h (0 Bft) O-SO 105 ° 0 min 0,000 mm 0,0 UV-I 0 W/m² -22,9 °C 0,0 km/h (0 Bft)
06.01.2017 23:43 -20,9 °C -20,9 °C 84 % 1041,0 hPa 0,0 mm 0,0 km/h (0 Bft) O-SO 105 ° 0 min 0,000 mm 0,0 UV-I 0 W/m² -22,9 °C 0,0 km/h (0 Bft)
06.01.2017 23:44 -20,9 °C -20,9 °C 84 % 1041,1 hPa 0,0 mm 0,0 km/h (0 Bft) O-SO 105 ° 0 min 0,000 mm 0,0 UV-I 0 W/m² -22,9 °C 0,0 km/h (0 Bft)
06.01.2017 23:45 -20,9 °C -20,9 °C 84 % 1041,1 hPa 0,0 mm 0,0 km/h (0 Bft) O-SO 105 ° 0 min 0,000 mm 0,0 UV-I 0 W/m² -22,9 °C 0,0 km/h (0 Bft)
06.01.2017 23:46 -20,9 °C -20,9 °C 84 % 1041,1 hPa 0,0 mm 0,0 km/h (0 Bft) O-SO 105 ° 0 min 0,000 mm 0,0 UV-I 0 W/m² -22,9 °C 0,0 km/h (0 Bft)
06.01.2017 23:47 -20,9 °C -20,9 °C 84 % 1041,1 hPa 0,0 mm 0,0 km/h (0 Bft) O-SO 105 ° 0 min 0,000 mm 0,0 UV-I 0 W/m² -22,9 °C 0,0 km/h (0 Bft)
06.01.2017 23:48 -20,9 °C -20,9 °C 84 % 1041,1 hPa 0,0 mm 0,0 km/h (0 Bft) O-SO 105 ° 0 min 0,000 mm 0,0 UV-I 0 W/m² -22,9 °C 0,0 km/h (0 Bft)
06.01.2017 23:49 -20,9 °C -20,9 °C 84 % 1041,1 hPa 0,0 mm 0,0 km/h (0 Bft) O-SO 105 ° 0 min 0,000 mm 0,0 UV-I 0 W/m² -22,9 °C 0,0 km/h (0 Bft)
06.01.2017 23:50 -20,9 °C -20,9 °C 84 % 1041,0 hPa 0,0 mm 0,0 km/h (0 Bft) O-SO 105 ° 0 min 0,000 mm 0,0 UV-I 0 W/m² -22,9 °C 0,0 km/h (0 Bft)
06.01.2017 23:51 -21,0 °C -20,9 °C 84 % 1041,0 hPa 0,0 mm 0,0 km/h (0 Bft) O-SO 105 ° 0 min 0,000 mm 0,0 UV-I 0 W/m² -23,0 °C 0,0 km/h (0 Bft)
06.01.2017 23:52 -21,0 °C -20,9 °C 84 % 1041,0 hPa 0,0 mm 0,0 km/h (0 Bft) O-SO 105 ° 0 min 0,000 mm 0,0 UV-I 0 W/m² -23,0 °C 0,0 km/h (0 Bft)
06.01.2017 23:53 -21,0 °C -21,0 °C 84 % 1041,0 hPa 0,0 mm 0,1 km/h (0 Bft) O-SO 105 ° 0 min 0,000 mm 0,0 UV-I 0 W/m² -23,0 °C 1,6 km/h (1 Bft)
06.01.2017 23:54 -21,0 °C -21,0 °C 84 % 1041,0 hPa 0,0 mm 0,8 km/h (0 Bft) O-SO 105 ° 0 min 0,000 mm 0,0 UV-I 0 W/m² -23,0 °C 1,6 km/h (1 Bft)
06.01.2017 23:55 -21,0 °C -21,0 °C 84 % 1041,1 hPa 0,0 mm 0,0 km/h (0 Bft) O-SO 105 ° 0 min 0,000 mm 0,0 UV-I 0 W/m² -23,0 °C 0,0 km/h (0 Bft)
06.01.2017 23:56 -21,0 °C -21,0 °C 84 % 1041,1 hPa 0,0 mm 0,0 km/h (0 Bft) O-SO 105 ° 0 min 0,000 mm 0,0 UV-I 0 W/m² -23,0 °C 0,0 km/h (0 Bft)
06.01.2017 23:57 -21,0 °C -21,0 °C 84 % 1041,0 hPa 0,0 mm 0,0 km/h (0 Bft) O-SO 105 ° 0 min 0,000 mm 0,0 UV-I 0 W/m² -23,0 °C 0,0 km/h (0 Bft)
06.01.2017 23:58 -21,1 °C -21,0 °C 84 % 1041,0 hPa 0,0 mm 0,0 km/h (0 Bft) O-SO 105 ° 0 min 0,000 mm 0,0 UV-I 0 W/m² -23,1 °C 0,0 km/h (0 Bft)
06.01.2017 23:59 -21,1 °C -21,0 °C 84 % 1041,0 hPa 0,0 mm 0,0 km/h (0 Bft) O-SO 105 ° 0 min 0,000 mm 0,0 UV-I 0 W/m² -23,1 °C 0,0 km/h (0 Bft)
_ Min-Zeit 23:59 23:59 23:18 00:07 - 23:59 - - - - - - 23:59 23:59
Minimum _ -21,1 °C -21,0 °C 83 % 1034,4 hPa - 0,0 km/h (0 Bft) - - - - - - -23,1 °C 0,0 km/h (0 Bft)
_ Max-Zeit 00:16 00:17 00:16 23:56 23:59 00:33 - - 23:59 23:59 23:59 14:07 00:16 05:58
Maximum _ -7,7 °C -7,7 °C 91 % 1041,1 hPa 0,0 mm 6,6 km/h
NW (2 Bft)
- - 0 min 0,000 mm 0,0 UV-I 195 W/m² -8,9 °C 11,3 km/h
O-NO (2 Bft)
Durchschnitt _ -12,7 °C -12,7 °C 87 % 1039,2 hPa #0,0 mm 0,9 km/h (0 Bft) O-NO - #0 min. #0,000 mm 0,0 UV-I 6 W/m² -14,4 °C 1,7 km/h (1 Bft)